<?xml version='1.0' encoding='UTF-8'?><gpx version="1.1" creator="JPX - https://github.com/jenetics/jpx" xmlns="http://www.topografix.com/GPX/1/1"><trk><trkseg><trkpt lat="45.59642722597726" lon="8.222313629465924"><ele>340.0</ele><time>2026-04-10T12:24:38Z</time></trkpt><trkpt lat="45.59635342730246" lon="8.222264749984129"><ele>340.0</ele><time>2026-04-10T12:26:32Z</time></trkpt><trkpt lat="45.59633010099327" lon="8.222380229631353"><ele>340.0</ele><time>2026-04-10T12:29:43Z</time></trkpt><trkpt lat="45.59633816384193" lon="8.222269477180431"><ele>340.0</ele><time>2026-04-10T12:30:58Z</time></trkpt><trkpt lat="45.59635941725564" lon="8.222182750408313"><ele>340.0</ele><time>2026-04-10T12:31:00Z</time></trkpt><trkpt lat="45.59645354441187" lon="8.222206173899014"><ele>340.0</ele><time>2026-04-10T12:31:04Z</time></trkpt><trkpt lat="45.59645929859656" lon="8.222324186135259"><ele>340.0</ele><time>2026-04-10T12:31:07Z</time></trkpt><trkpt lat="45.59641230522082" lon="8.222409128061987"><ele>340.0</ele><time>2026-04-10T12:31:12Z</time></trkpt><trkpt lat="45.59636500973873" lon="8.222340675523801"><ele>340.0</ele><time>2026-04-10T12:31:16Z</time></trkpt><trkpt lat="45.596341357962274" lon="8.222238648939609"><ele>340.0</ele><time>2026-04-10T12:32:04Z</time></trkpt><trkpt lat="45.59625193047343" lon="8.222168290272315"><ele>340.0</ele><time>2026-04-10T12:32:07Z</time></trkpt><trkpt lat="45.596165417608496" lon="8.22207643454878"><ele>340.0</ele><time>2026-04-10T12:32:09Z</time></trkpt><trkpt lat="45.596093599633434" lon="8.221986395195858"><ele>340.0</ele><time>2026-04-10T12:32:11Z</time></trkpt><trkpt lat="45.59607106160909" lon="8.221858362761274"><ele>340.0</ele><time>2026-04-10T12:32:14.001Z</time></trkpt><trkpt lat="45.596138936218" lon="8.221745628095618"><ele>340.0</ele><time>2026-04-10T12:32:16.001Z</time></trkpt><trkpt lat="45.59617896761267" lon="8.221674807866119"><ele>340.0</ele><time>2026-04-10T12:32:17.001Z</time></trkpt><trkpt lat="45.59621564602472" lon="8.22160156104061"><ele>340.0</ele><time>2026-04-10T12:32:18.001Z</time></trkpt><trkpt lat="45.59625498012258" lon="8.22151975329067"><ele>340.0</ele><time>2026-04-10T12:32:19.001Z</time></trkpt><trkpt lat="45.596293011075055" lon="8.221436191125932"><ele>340.5</ele><time>2026-04-10T12:32:20.001Z</time></trkpt><trkpt lat="45.596339966506626" lon="8.221349435521207"><ele>341.0</ele><time>2026-04-10T12:32:21.001Z</time></trkpt><trkpt lat="45.596383629230495" lon="8.221257361079768"><ele>341.5</ele><time>2026-04-10T12:32:22.001Z</time></trkpt><trkpt lat="45.596433610668804" lon="8.221162826808525"><ele>342.0</ele><time>2026-04-10T12:32:23.001Z</time></trkpt><trkpt lat="45.596481987793325" lon="8.221070249127978"><ele>342.5</ele><time>2026-04-10T12:32:24.001Z</time></trkpt><trkpt lat="45.59652950392272" lon="8.220973205697701"><ele>343.0</ele><time>2026-04-10T12:32:25.001Z</time></trkpt><trkpt lat="45.596578286877666" lon="8.220879761733103"><ele>343.0</ele><time>2026-04-10T12:32:26.001Z</time></trkpt><trkpt lat="45.596627014848146" lon="8.22078456446299"><ele>343.0</ele><time>2026-04-10T12:32:27.001Z</time></trkpt><trkpt lat="45.59667581723398" lon="8.220685087891216"><ele>343.0</ele><time>2026-04-10T12:32:28.001Z</time></trkpt><trkpt lat="45.596723104409854" lon="8.220583869899919"><ele>343.0</ele><time>2026-04-10T12:32:29.001Z</time></trkpt><trkpt lat="45.59677273048045" lon="8.22048451370596"><ele>343.0</ele><time>2026-04-10T12:32:30.001Z</time></trkpt><trkpt lat="45.59682098185599" lon="8.220384337736787"><ele>343.0</ele><time>2026-04-10T12:32:31.001Z</time></trkpt><trkpt lat="45.596867197327306" lon="8.220287827984668"><ele>342.59999999999997</ele><time>2026-04-10T12:32:32.001Z</time></trkpt><trkpt lat="45.59692305048212" lon="8.220217457511142"><ele>342.2</ele><time>2026-04-10T12:32:33.001Z</time></trkpt><trkpt lat="45.59699141478871" lon="8.220084995659295"><ele>341.8</ele><time>2026-04-10T12:32:35.001Z</time></trkpt><trkpt lat="45.5970516299865" lon="8.219967736358425"><ele>341.4</ele><time>2026-04-10T12:32:37.001Z</time></trkpt><trkpt lat="45.59710743105356" lon="8.219855638731456"><ele>341.0</ele><time>2026-04-10T12:32:39.001Z</time></trkpt><trkpt lat="45.59716369060355" lon="8.21974374820301"><ele>340.25</ele><time>2026-04-10T12:32:41.001Z</time></trkpt><trkpt lat="45.59721240279401" lon="8.219605505231913"><ele>339.5</ele><time>2026-04-10T12:32:43Z</time></trkpt><trkpt lat="45.59727312390859" lon="8.219474330548836"><ele>338.75</ele><time>2026-04-10T12:32:45Z</time></trkpt><trkpt lat="45.59734458875839" lon="8.21933536886318"><ele>338.0</ele><time>2026-04-10T12:32:47Z</time></trkpt><trkpt lat="45.597413353155304" lon="8.219199698118599"><ele>338.0</ele><time>2026-04-10T12:32:49Z</time></trkpt><trkpt lat="45.597480371769066" lon="8.219054562838545"><ele>338.0</ele><time>2026-04-10T12:32:51Z</time></trkpt><trkpt lat="45.59754862049894" lon="8.218920559716175"><ele>338.0</ele><time>2026-04-10T12:32:53Z</time></trkpt><trkpt lat="45.59760985620028" lon="8.21878506366619"><ele>338.0</ele><time>2026-04-10T12:32:55Z</time></trkpt><trkpt lat="45.59766761317672" lon="8.218650657537744"><ele>338.0</ele><time>2026-04-10T12:32:57Z</time></trkpt><trkpt lat="45.59772623486414" lon="8.218511315122733"><ele>338.0</ele><time>2026-04-10T12:32:59Z</time></trkpt><trkpt lat="45.59779091062083" lon="8.21837167116146"><ele>338.0</ele><time>2026-04-10T12:33:01Z</time></trkpt><trkpt lat="45.59785746154612" lon="8.218222862491691"><ele>338.0</ele><time>2026-04-10T12:33:03Z</time></trkpt><trkpt lat="45.59792424317895" lon="8.218076263733897"><ele>339.1666666666667</ele><time>2026-04-10T12:33:05Z</time></trkpt><trkpt lat="45.59797217755054" lon="8.218011623291869"><ele>340.33333333333337</ele><time>2026-04-10T12:33:06Z</time></trkpt><trkpt lat="45.59799276439092" lon="8.21792437683948"><ele>341.5</ele><time>2026-04-10T12:33:07Z</time></trkpt><trkpt lat="45.598025327508566" lon="8.217846156305015"><ele>342.6666666666667</ele><time>2026-04-10T12:33:08Z</time></trkpt><trkpt lat="45.59808827936501" lon="8.217691391042909"><ele>343.8333333333333</ele><time>2026-04-10T12:33:10Z</time></trkpt><trkpt lat="45.59813923589335" lon="8.217623706800676"><ele>345.0</ele><time>2026-04-10T12:33:11Z</time></trkpt><trkpt lat="45.598151190532285" lon="8.217522924556892"><ele>345.0</ele><time>2026-04-10T12:33:12Z</time></trkpt><trkpt lat="45.598183569729784" lon="8.217439403261546"><ele>345.0</ele><time>2026-04-10T12:33:13Z</time></trkpt><trkpt lat="45.59821636579653" lon="8.217355560226908"><ele>345.0</ele><time>2026-04-10T12:33:14Z</time></trkpt><trkpt lat="45.59824699475073" lon="8.217262025964654"><ele>345.0</ele><time>2026-04-10T12:33:15Z</time></trkpt><trkpt lat="45.59828811396344" lon="8.217162449699273"><ele>345.0</ele><time>2026-04-10T12:33:16Z</time></trkpt><trkpt lat="45.598325070208595" lon="8.217072142167625"><ele>345.0</ele><time>2026-04-10T12:33:17Z</time></trkpt><trkpt lat="45.598358931055" lon="8.216994097581882"><ele>345.0</ele><time>2026-04-10T12:33:18Z</time></trkpt><trkpt lat="45.59841851845381" lon="8.216855139306409"><ele>345.4</ele><time>2026-04-10T12:33:20Z</time></trkpt><trkpt lat="45.59846892430047" lon="8.21670901936392"><ele>345.8</ele><time>2026-04-10T12:33:22Z</time></trkpt><trkpt lat="45.59850621952746" lon="8.216561536277531"><ele>346.20000000000005</ele><time>2026-04-10T12:33:24Z</time></trkpt><trkpt lat="45.598522530118395" lon="8.216419437802609"><ele>346.6</ele><time>2026-04-10T12:33:26Z</time></trkpt><trkpt lat="45.59853768264882" lon="8.216286562942106"><ele>347.0</ele><time>2026-04-10T12:33:28Z</time></trkpt><trkpt lat="45.59854796055868" lon="8.216144888350213"><ele>347.6</ele><time>2026-04-10T12:33:30Z</time></trkpt><trkpt lat="45.59855643396377" lon="8.216016114713684"><ele>348.20000000000005</ele><time>2026-04-10T12:33:32Z</time></trkpt><trkpt lat="45.59858384908477" lon="8.215887689406172"><ele>348.8</ele><time>2026-04-10T12:33:34Z</time></trkpt><trkpt lat="45.598591774343475" lon="8.215751079195565"><ele>349.4</ele><time>2026-04-10T12:33:36Z</time></trkpt><trkpt lat="45.59858502809725" lon="8.21564015051734"><ele>350.0</ele><time>2026-04-10T12:33:38Z</time></trkpt><trkpt lat="45.598546998305686" lon="8.215518587136593"><ele>350.8</ele><time>2026-04-10T12:33:40Z</time></trkpt><trkpt lat="45.598554441534525" lon="8.215393229975447"><ele>351.6</ele><time>2026-04-10T12:33:42Z</time></trkpt><trkpt lat="45.59854432977941" lon="8.215264094188873"><ele>352.4</ele><time>2026-04-10T12:33:44Z</time></trkpt><trkpt lat="45.5985729653162" lon="8.215145614403397"><ele>353.2</ele><time>2026-04-10T12:33:46Z</time></trkpt><trkpt lat="45.598606167200636" lon="8.215014050952176"><ele>354.0</ele><time>2026-04-10T12:33:48Z</time></trkpt><trkpt lat="45.598635843833684" lon="8.214871521163715"><ele>353.6</ele><time>2026-04-10T12:33:50Z</time></trkpt><trkpt lat="45.598646370919155" lon="8.214740926611467"><ele>353.2</ele><time>2026-04-10T12:33:52Z</time></trkpt><trkpt lat="45.598652617599015" lon="8.21461780361547"><ele>352.8</ele><time>2026-04-10T12:33:54Z</time></trkpt><trkpt lat="45.59867179075684" lon="8.214514100220153"><ele>352.40000000000003</ele><time>2026-04-10T12:33:56Z</time></trkpt><trkpt lat="45.598666048641206" lon="8.21435516059701"><ele>352.0</ele><time>2026-04-10T12:33:58Z</time></trkpt><trkpt lat="45.598675264169025" lon="8.214233146345043"><ele>352.0</ele><time>2026-04-10T12:34:00Z</time></trkpt><trkpt lat="45.59870990275651" lon="8.214095467652882"><ele>352.0</ele><time>2026-04-10T12:34:02Z</time></trkpt><trkpt lat="45.5987829147684" lon="8.213969436744621"><ele>352.0</ele><time>2026-04-10T12:34:04Z</time></trkpt><trkpt lat="45.59883499222855" lon="8.213835794435097"><ele>352.0</ele><time>2026-04-10T12:34:06Z</time></trkpt><trkpt lat="45.59889395238473" lon="8.213711762247698"><ele>352.0</ele><time>2026-04-10T12:34:08Z</time></trkpt><trkpt lat="45.59897433616169" lon="8.21362669540655"><ele>352.5</ele><time>2026-04-10T12:34:10Z</time></trkpt><trkpt lat="45.59905509887017" lon="8.213540024142405"><ele>353.0</ele><time>2026-04-10T12:34:12Z</time></trkpt><trkpt lat="45.59912961793648" lon="8.21342747827053"><ele>353.5</ele><time>2026-04-10T12:34:14Z</time></trkpt><trkpt lat="45.59921140328428" lon="8.213315119369646"><ele>354.0</ele><time>2026-04-10T12:34:16Z</time></trkpt><trkpt lat="45.599270072099365" lon="8.213150678769168"><ele>355.0</ele><time>2026-04-10T12:34:18Z</time></trkpt><trkpt lat="45.59932528417742" lon="8.21299538288187"><ele>356.0</ele><time>2026-04-10T12:34:20.001Z</time></trkpt><trkpt lat="45.59937475383011" lon="8.212852114499324"><ele>357.0</ele><time>2026-04-10T12:34:22.001Z</time></trkpt><trkpt lat="45.599424453303854" lon="8.2127057860452"><ele>358.0</ele><time>2026-04-10T12:34:24.001Z</time></trkpt><trkpt lat="45.59947093367068" lon="8.212563130483888"><ele>358.0</ele><time>2026-04-10T12:34:26.001Z</time></trkpt><trkpt lat="45.59951151945752" lon="8.21241767230363"><ele>358.0</ele><time>2026-04-10T12:34:28.001Z</time></trkpt><trkpt lat="45.59953026121653" lon="8.212277094339031"><ele>358.0</ele><time>2026-04-10T12:34:30.001Z</time></trkpt><trkpt lat="45.59957468015098" lon="8.212161844580697"><ele>358.0</ele><time>2026-04-10T12:34:32.001Z</time></trkpt><trkpt lat="45.5996337483691" lon="8.212053119986873"><ele>358.0</ele><time>2026-04-10T12:34:34.001Z</time></trkpt><trkpt lat="45.59969556733024" lon="8.211958415161272"><ele>359.0</ele><time>2026-04-10T12:34:36.001Z</time></trkpt><trkpt lat="45.59975020649111" lon="8.211852079060144"><ele>360.0</ele><time>2026-04-10T12:34:38.001Z</time></trkpt><trkpt lat="45.599805477128136" lon="8.211733879006811"><ele>361.0</ele><time>2026-04-10T12:34:40.001Z</time></trkpt><trkpt lat="45.599858751336015" lon="8.21163868529667"><ele>362.0</ele><time>2026-04-10T12:34:42.001Z</time></trkpt><trkpt lat="45.5998681315971" lon="8.211522083518576"><ele>363.0</ele><time>2026-04-10T12:34:44.001Z</time></trkpt><trkpt lat="45.59991684577435" lon="8.211410709737656"><ele>364.59999999999997</ele><time>2026-04-10T12:34:46.001Z</time></trkpt><trkpt lat="45.599945919311956" lon="8.211307186165119"><ele>366.2</ele><time>2026-04-10T12:34:48.001Z</time></trkpt><trkpt lat="45.60002778770938" lon="8.211213232389108"><ele>367.8</ele><time>2026-04-10T12:34:50Z</time></trkpt><trkpt lat="45.60008716674089" lon="8.211176106437676"><ele>369.4</ele><time>2026-04-10T12:34:51Z</time></trkpt><trkpt lat="45.60015053403918" lon="8.211083552233939"><ele>371.0</ele><time>2026-04-10T12:34:53Z</time></trkpt><trkpt lat="45.60024719891662" lon="8.210989411797975"><ele>371.0</ele><time>2026-04-10T12:34:55Z</time></trkpt><trkpt lat="45.60031616495309" lon="8.21099028848769"><ele>371.0</ele><time>2026-04-10T12:34:56Z</time></trkpt><trkpt lat="45.60038902808941" lon="8.211004216143861"><ele>371.0</ele><time>2026-04-10T12:34:58Z</time></trkpt><trkpt lat="45.60043544312602" lon="8.21107961832602"><ele>371.0</ele><time>2026-04-10T12:35:00Z</time></trkpt><trkpt lat="45.60044472680958" lon="8.211180931872162"><ele>371.0</ele><time>2026-04-10T12:35:02Z</time></trkpt><trkpt lat="45.60045123769136" lon="8.21128381326614"><ele>371.0</ele><time>2026-04-10T12:35:04Z</time></trkpt><trkpt lat="45.60043015369896" lon="8.211397446182723"><ele>371.0</ele><time>2026-04-10T12:35:06Z</time></trkpt><trkpt lat="45.60042516781453" lon="8.211517108687646"><ele>371.0</ele><time>2026-04-10T12:35:08Z</time></trkpt><trkpt lat="45.60043101214108" lon="8.2116368666748"><ele>371.0</ele><time>2026-04-10T12:35:10Z</time></trkpt><trkpt lat="45.60043628921925" lon="8.211739105156315"><ele>371.0</ele><time>2026-04-10T12:35:12Z</time></trkpt><trkpt lat="45.600442772279706" lon="8.211833153877276"><ele>371.0</ele><time>2026-04-10T12:35:14Z</time></trkpt><trkpt lat="45.600459239710936" lon="8.211936762073973"><ele>371.0</ele><time>2026-04-10T12:35:16Z</time></trkpt><trkpt lat="45.60048364041085" lon="8.212026408950306"><ele>371.0</ele><time>2026-04-10T12:35:18Z</time></trkpt><trkpt lat="45.60054966302982" lon="8.212120558337434"><ele>371.0</ele><time>2026-04-10T12:35:20Z</time></trkpt><trkpt lat="45.600653152275" lon="8.212172448121262"><ele>371.0</ele><time>2026-04-10T12:35:22Z</time></trkpt><trkpt lat="45.60071730496036" lon="8.2122562343245"><ele>371.0</ele><time>2026-04-10T12:35:24Z</time></trkpt><trkpt lat="45.60079591978764" lon="8.212244475032644"><ele>371.0</ele><time>2026-04-10T12:35:26Z</time></trkpt><trkpt lat="45.60087384750687" lon="8.212202923869249"><ele>371.0</ele><time>2026-04-10T12:35:28Z</time></trkpt><trkpt lat="45.60093769507756" lon="8.212137532372859"><ele>371.0</ele><time>2026-04-10T12:35:30Z</time></trkpt><trkpt lat="45.60097959583085" lon="8.21202893523588"><ele>371.0</ele><time>2026-04-10T12:35:32Z</time></trkpt><trkpt lat="45.601029399111994" lon="8.211914488155779"><ele>371.0</ele><time>2026-04-10T12:35:34Z</time></trkpt><trkpt lat="45.60108520275407" lon="8.211806901707433"><ele>371.0</ele><time>2026-04-10T12:35:37Z</time></trkpt><trkpt lat="45.60112313360347" lon="8.211665326062956"><ele>371.0</ele><time>2026-04-10T12:35:39Z</time></trkpt><trkpt lat="45.60118997261615" lon="8.211571452661872"><ele>371.0</ele><time>2026-04-10T12:35:41Z</time></trkpt><trkpt lat="45.60122865395983" lon="8.211481183264814"><ele>373.5</ele><time>2026-04-10T12:35:43Z</time></trkpt><trkpt lat="45.601293541233986" lon="8.21141407331632"><ele>376.0</ele><time>2026-04-10T12:35:45Z</time></trkpt><trkpt lat="45.6013590264111" lon="8.211355654122164"><ele>378.5</ele><time>2026-04-10T12:35:47Z</time></trkpt><trkpt lat="45.60143035151945" lon="8.211270221694308"><ele>381.0</ele><time>2026-04-10T12:35:49Z</time></trkpt><trkpt lat="45.60151086680071" lon="8.211191058118883"><ele>383.49999999999994</ele><time>2026-04-10T12:35:52Z</time></trkpt><trkpt lat="45.601580681906164" lon="8.211145060958144"><ele>386.0</ele><time>2026-04-10T12:35:54Z</time></trkpt><trkpt lat="45.60165934642145" lon="8.21113101810002"><ele>386.0</ele><time>2026-04-10T12:35:56Z</time></trkpt><trkpt lat="45.6017729698587" lon="8.21110792753627"><ele>386.0</ele><time>2026-04-10T12:35:58Z</time></trkpt><trkpt lat="45.60184288880042" lon="8.211080936913985"><ele>386.0</ele><time>2026-04-10T12:36:00Z</time></trkpt><trkpt lat="45.60191800612093" lon="8.211071617404373"><ele>386.0</ele><time>2026-04-10T12:36:02Z</time></trkpt><trkpt lat="45.60199315315066" lon="8.211006792084628"><ele>386.0</ele><time>2026-04-10T12:36:04Z</time></trkpt><trkpt lat="45.602077873418224" lon="8.210888540448785"><ele>386.4</ele><time>2026-04-10T12:36:06Z</time></trkpt><trkpt lat="45.60215990435108" lon="8.210834531266887"><ele>386.8</ele><time>2026-04-10T12:36:07Z</time></trkpt><trkpt lat="45.60222302170215" lon="8.210796147366352"><ele>387.2</ele><time>2026-04-10T12:36:08Z</time></trkpt><trkpt lat="45.60229920617988" lon="8.210862524049618"><ele>387.59999999999997</ele><time>2026-04-10T12:36:09Z</time></trkpt><trkpt lat="45.602398295063395" lon="8.210895441309486"><ele>388.0</ele><time>2026-04-10T12:36:12Z</time></trkpt><trkpt lat="45.60246684963092" lon="8.211002483497436"><ele>388.00000000000006</ele><time>2026-04-10T12:36:14Z</time></trkpt><trkpt lat="45.602547276746606" lon="8.211103749457722"><ele>388.0</ele><time>2026-04-10T12:36:16Z</time></trkpt><trkpt lat="45.60260912143897" lon="8.211174572307419"><ele>388.0</ele><time>2026-04-10T12:36:18Z</time></trkpt><trkpt lat="45.60269422461305" lon="8.211198174289622"><ele>388.0</ele><time>2026-04-10T12:36:20Z</time></trkpt><trkpt lat="45.60275928135066" lon="8.211193373886527"><ele>388.00000000000006</ele><time>2026-04-10T12:36:21Z</time></trkpt><trkpt lat="45.602823753905874" lon="8.211173971404795"><ele>388.0</ele><time>2026-04-10T12:36:22Z</time></trkpt><trkpt lat="45.60290548131786" lon="8.211104512925932"><ele>388.2</ele><time>2026-04-10T12:36:24Z</time></trkpt><trkpt lat="45.60296621120271" lon="8.211013679182289"><ele>388.4</ele><time>2026-04-10T12:36:25Z</time></trkpt><trkpt lat="45.60303606046868" lon="8.210882660378182"><ele>388.59999999999997</ele><time>2026-04-10T12:36:27.001Z</time></trkpt><trkpt lat="45.60309954528595" lon="8.210763407549244"><ele>388.79999999999995</ele><time>2026-04-10T12:36:29.001Z</time></trkpt><trkpt lat="45.603156092024676" lon="8.210613364120114"><ele>389.0</ele><time>2026-04-10T12:36:31.001Z</time></trkpt><trkpt lat="45.60324344515473" lon="8.210510847072673"><ele>389.0</ele><time>2026-04-10T12:36:33.001Z</time></trkpt><trkpt lat="45.60335763393456" lon="8.210513525224968"><ele>389.0</ele><time>2026-04-10T12:36:35.001Z</time></trkpt><trkpt lat="45.60343739465318" lon="8.210605676149074"><ele>389.0</ele><time>2026-04-10T12:36:37.001Z</time></trkpt><trkpt lat="45.60347904164707" lon="8.210743078306676"><ele>389.0</ele><time>2026-04-10T12:36:39.001Z</time></trkpt><trkpt lat="45.603577297615395" lon="8.210790671632816"><ele>389.0</ele><time>2026-04-10T12:36:41.001Z</time></trkpt><trkpt lat="45.60365835440182" lon="8.210862213220866"><ele>389.66666666666663</ele><time>2026-04-10T12:36:43.001Z</time></trkpt><trkpt lat="45.6037548409146" lon="8.210843402439792"><ele>390.3333333333333</ele><time>2026-04-10T12:36:45.001Z</time></trkpt><trkpt lat="45.603840948687235" lon="8.210791040763313"><ele>391.0</ele><time>2026-04-10T12:36:47.001Z</time></trkpt><trkpt lat="45.60392226471303" lon="8.210756382101634"><ele>391.66666666666663</ele><time>2026-04-10T12:36:50.001Z</time></trkpt><trkpt lat="45.603970465629445" lon="8.210652571380514"><ele>392.3333333333333</ele><time>2026-04-10T12:36:53.001Z</time></trkpt><trkpt lat="45.60402085108694" lon="8.210579823316005"><ele>393.0</ele><time>2026-04-10T12:36:56.001Z</time></trkpt><trkpt lat="45.60409341270484" lon="8.210570822898362"><ele>393.00000000000006</ele><time>2026-04-10T12:36:59Z</time></trkpt><trkpt lat="45.60415491330616" lon="8.21059234606443"><ele>393.0</ele><time>2026-04-10T12:37:01Z</time></trkpt><trkpt lat="45.60421665100222" lon="8.210612017255228"><ele>393.0</ele><time>2026-04-10T12:37:03Z</time></trkpt><trkpt lat="45.60428313988523" lon="8.21062524467004"><ele>393.0</ele><time>2026-04-10T12:37:05Z</time></trkpt><trkpt lat="45.60434381934939" lon="8.21065790724863"><ele>393.0</ele><time>2026-04-10T12:37:09Z</time></trkpt><trkpt lat="45.6043876722684" lon="8.210727236672946"><ele>393.00000000000006</ele><time>2026-04-10T12:37:19Z</time></trkpt><trkpt lat="45.60432162077699" lon="8.210710121214039"><ele>393.0</ele><time>2026-04-10T12:38:16Z</time></trkpt><trkpt lat="45.6043850277619" lon="8.210710177768267"><ele>393.0</ele><time>2026-04-10T12:38:48.001Z</time></trkpt><trkpt lat="45.604384453351535" lon="8.210816623776243"><ele>393.0</ele><time>2026-04-10T12:40:10Z</time></trkpt><trkpt lat="45.60441063917205" lon="8.210931760262964"><ele>393.0</ele><time>2026-04-10T12:40:13Z</time></trkpt><trkpt lat="45.60445971768115" lon="8.211102065353133"><ele>393.0</ele><time>2026-04-10T12:40:15Z</time></trkpt><trkpt lat="45.60447703236493" lon="8.211196172922735"><ele>393.0</ele><time>2026-04-10T12:40:16Z</time></trkpt><trkpt lat="45.60449190683429" lon="8.21128990391317"><ele>393.0</ele><time>2026-04-10T12:40:17Z</time></trkpt><trkpt lat="45.60450710927445" lon="8.21139385542582"><ele>393.6666666666667</ele><time>2026-04-10T12:40:18Z</time></trkpt><trkpt lat="45.60452967356676" lon="8.21150463704797"><ele>394.33333333333337</ele><time>2026-04-10T12:40:19Z</time></trkpt><trkpt lat="45.60456065733907" lon="8.211622153507452"><ele>395.0</ele><time>2026-04-10T12:40:20Z</time></trkpt><trkpt lat="45.60459186650259" lon="8.211721773370483"><ele>395.6666666666667</ele><time>2026-04-10T12:40:21Z</time></trkpt><trkpt lat="45.604639879011806" lon="8.211807788211384"><ele>396.33333333333337</ele><time>2026-04-10T12:40:22Z</time></trkpt><trkpt lat="45.60470476084914" lon="8.211882819530162"><ele>397.0</ele><time>2026-04-10T12:40:23Z</time></trkpt><trkpt lat="45.604766562087946" lon="8.211927186754474"><ele>397.00000000000006</ele><time>2026-04-10T12:40:24Z</time></trkpt><trkpt lat="45.60484329579731" lon="8.212001092561067"><ele>397.0</ele><time>2026-04-10T12:40:25Z</time></trkpt><trkpt lat="45.60492375569851" lon="8.21205991437787"><ele>397.0</ele><time>2026-04-10T12:40:26Z</time></trkpt><trkpt lat="45.60500057172282" lon="8.212115086797448"><ele>397.0</ele><time>2026-04-10T12:40:27Z</time></trkpt><trkpt lat="45.605083952362406" lon="8.212171087562805"><ele>397.00000000000006</ele><time>2026-04-10T12:40:28Z</time></trkpt><trkpt lat="45.60516117509286" lon="8.212219878820846"><ele>397.0</ele><time>2026-04-10T12:40:29Z</time></trkpt><trkpt lat="45.6052439001914" lon="8.21226537880896"><ele>397.00000000000006</ele><time>2026-04-10T12:40:30Z</time></trkpt><trkpt lat="45.60533959273112" lon="8.212289033819236"><ele>397.0</ele><time>2026-04-10T12:40:31Z</time></trkpt><trkpt lat="45.60542599545686" lon="8.212301766548116"><ele>397.0</ele><time>2026-04-10T12:40:32Z</time></trkpt><trkpt lat="45.60550270017163" lon="8.212314564652253"><ele>397.0</ele><time>2026-04-10T12:40:33Z</time></trkpt><trkpt lat="45.60558175939001" lon="8.212330994413197"><ele>397.00000000000006</ele><time>2026-04-10T12:40:34Z</time></trkpt><trkpt lat="45.605655327464476" lon="8.212364553346879"><ele>397.0</ele><time>2026-04-10T12:40:35Z</time></trkpt><trkpt lat="45.60572738318123" lon="8.212410638753813"><ele>397.00000000000006</ele><time>2026-04-10T12:40:36Z</time></trkpt><trkpt lat="45.6057948210297" lon="8.212475953441558"><ele>397.0</ele><time>2026-04-10T12:40:37Z</time></trkpt><trkpt lat="45.60584744899497" lon="8.212547377277472"><ele>397.0</ele><time>2026-04-10T12:40:38.001Z</time></trkpt><trkpt lat="45.60591509957379" lon="8.212632643759203"><ele>397.0</ele><time>2026-04-10T12:40:39.001Z</time></trkpt><trkpt lat="45.605972470734095" lon="8.212721213318062"><ele>397.00000000000006</ele><time>2026-04-10T12:40:40.001Z</time></trkpt><trkpt lat="45.60603819123934" lon="8.212805459052353"><ele>397.0</ele><time>2026-04-10T12:40:41.001Z</time></trkpt><trkpt lat="45.60608913238383" lon="8.212911295424613"><ele>397.0</ele><time>2026-04-10T12:40:42.001Z</time></trkpt><trkpt lat="45.60613614689042" lon="8.213018476153659"><ele>397.0</ele><time>2026-04-10T12:40:43.001Z</time></trkpt><trkpt lat="45.60616397277448" lon="8.213144006110653"><ele>397.0</ele><time>2026-04-10T12:40:44.001Z</time></trkpt><trkpt lat="45.60619206203552" lon="8.213263914067927"><ele>397.0</ele><time>2026-04-10T12:40:45.001Z</time></trkpt><trkpt lat="45.6062049963577" lon="8.213393083449652"><ele>397.0</ele><time>2026-04-10T12:40:46.001Z</time></trkpt><trkpt lat="45.60624162237368" lon="8.213514583804548"><ele>395.1666666666667</ele><time>2026-04-10T12:40:47.001Z</time></trkpt><trkpt lat="45.60625505521662" lon="8.213645139678546"><ele>393.33333333333337</ele><time>2026-04-10T12:40:48.001Z</time></trkpt><trkpt lat="45.60625052271759" lon="8.213765627994034"><ele>391.5</ele><time>2026-04-10T12:40:49.001Z</time></trkpt><trkpt lat="45.60623825345036" lon="8.213870886934881"><ele>389.66666666666663</ele><time>2026-04-10T12:40:50.001Z</time></trkpt><trkpt lat="45.606215600091076" lon="8.213992042295422"><ele>387.8333333333333</ele><time>2026-04-10T12:40:51.001Z</time></trkpt><trkpt lat="45.60618203909932" lon="8.21410761963553"><ele>386.0</ele><time>2026-04-10T12:40:52.001Z</time></trkpt><trkpt lat="45.60616663200298" lon="8.214220257100477"><ele>385.66666666666663</ele><time>2026-04-10T12:40:53.001Z</time></trkpt><trkpt lat="45.606174246846315" lon="8.21433592446834"><ele>385.3333333333333</ele><time>2026-04-10T12:40:54.001Z</time></trkpt><trkpt lat="45.60620936857293" lon="8.214429113029594"><ele>385.0</ele><time>2026-04-10T12:40:55.001Z</time></trkpt><trkpt lat="45.60628493245917" lon="8.214473457418867"><ele>384.66666666666663</ele><time>2026-04-10T12:40:56.001Z</time></trkpt><trkpt lat="45.60637844883525" lon="8.21450373655982"><ele>384.3333333333333</ele><time>2026-04-10T12:40:57.001Z</time></trkpt><trkpt lat="45.606471047238855" lon="8.214507556984515"><ele>384.0</ele><time>2026-04-10T12:40:58.001Z</time></trkpt><trkpt lat="45.60654689384572" lon="8.214583087498443"><ele>384.0</ele><time>2026-04-10T12:40:59Z</time></trkpt><trkpt lat="45.60660038053728" lon="8.214675721207374"><ele>384.0</ele><time>2026-04-10T12:41:00Z</time></trkpt><trkpt lat="45.60664866707173" lon="8.214751505995107"><ele>384.0</ele><time>2026-04-10T12:41:01Z</time></trkpt><trkpt lat="45.60672246340322" lon="8.214809970658154"><ele>384.0</ele><time>2026-04-10T12:41:02Z</time></trkpt><trkpt lat="45.60678893595881" lon="8.214870094245152"><ele>384.0</ele><time>2026-04-10T12:41:03Z</time></trkpt><trkpt lat="45.606861898125" lon="8.214918822035548"><ele>384.0</ele><time>2026-04-10T12:41:04Z</time></trkpt><trkpt lat="45.60691028836368" lon="8.214992538046031"><ele>384.4</ele><time>2026-04-10T12:41:05Z</time></trkpt><trkpt lat="45.60693793186066" lon="8.215074379137544"><ele>384.79999999999995</ele><time>2026-04-10T12:41:06Z</time></trkpt><trkpt lat="45.60698610462722" lon="8.21521782237206"><ele>385.20000000000005</ele><time>2026-04-10T12:41:08Z</time></trkpt><trkpt lat="45.60700040176938" lon="8.215337278052882"><ele>385.6</ele><time>2026-04-10T12:41:10Z</time></trkpt><trkpt lat="45.606963674706414" lon="8.215477369953057"><ele>386.0</ele><time>2026-04-10T12:41:12Z</time></trkpt><trkpt lat="45.60690662664256" lon="8.215613673158304"><ele>384.8</ele><time>2026-04-10T12:41:14Z</time></trkpt><trkpt lat="45.606789974769356" lon="8.215695296900163"><ele>383.6</ele><time>2026-04-10T12:41:16Z</time></trkpt><trkpt lat="45.60673126439919" lon="8.215750325047352"><ele>382.4</ele><time>2026-04-10T12:41:17Z</time></trkpt><trkpt lat="45.60663379946291" lon="8.215870773683843"><ele>381.2</ele><time>2026-04-10T12:41:19Z</time></trkpt><trkpt lat="45.606575429834734" lon="8.215950656202313"><ele>380.0</ele><time>2026-04-10T12:41:20Z</time></trkpt><trkpt lat="45.60653160698806" lon="8.216035134151607"><ele>380.0</ele><time>2026-04-10T12:41:21Z</time></trkpt><trkpt lat="45.60650925733178" lon="8.21614642899179"><ele>380.0</ele><time>2026-04-10T12:41:22Z</time></trkpt><trkpt lat="45.606509781084114" lon="8.21626546878168"><ele>380.0</ele><time>2026-04-10T12:41:23Z</time></trkpt><trkpt lat="45.60651113954407" lon="8.216369932759298"><ele>380.0</ele><time>2026-04-10T12:41:24Z</time></trkpt><trkpt lat="45.60651977195233" lon="8.21647876204615"><ele>380.0</ele><time>2026-04-10T12:41:25Z</time></trkpt><trkpt lat="45.60651191448922" lon="8.216584372604675"><ele>380.0</ele><time>2026-04-10T12:41:26Z</time></trkpt><trkpt lat="45.60648629227832" lon="8.216675502120044"><ele>378.0</ele><time>2026-04-10T12:41:27Z</time></trkpt><trkpt lat="45.60644478863296" lon="8.216771020714026"><ele>376.0</ele><time>2026-04-10T12:41:28Z</time></trkpt><trkpt lat="45.606380993488685" lon="8.216860979825068"><ele>374.0</ele><time>2026-04-10T12:41:29Z</time></trkpt><trkpt lat="45.60630146442584" lon="8.216926800378014"><ele>372.0</ele><time>2026-04-10T12:41:30Z</time></trkpt><trkpt lat="45.6062227324643" lon="8.216988906873384"><ele>370.0</ele><time>2026-04-10T12:41:31Z</time></trkpt><trkpt lat="45.60614534322645" lon="8.217070708711352"><ele>368.0</ele><time>2026-04-10T12:41:32Z</time></trkpt><trkpt lat="45.60610297178596" lon="8.217163608605288"><ele>367.83333333333337</ele><time>2026-04-10T12:41:33Z</time></trkpt><trkpt lat="45.60604592152847" lon="8.217253420983385"><ele>367.6666666666667</ele><time>2026-04-10T12:41:34Z</time></trkpt><trkpt lat="45.60599121827273" lon="8.217342594839911"><ele>367.5</ele><time>2026-04-10T12:41:35Z</time></trkpt><trkpt lat="45.605930981890005" lon="8.217439688065904"><ele>367.3333333333333</ele><time>2026-04-10T12:41:36Z</time></trkpt><trkpt lat="45.60587194726911" lon="8.217510604330938"><ele>367.16666666666663</ele><time>2026-04-10T12:41:37Z</time></trkpt><trkpt lat="45.60582214174203" lon="8.21759582577269"><ele>367.0</ele><time>2026-04-10T12:41:38Z</time></trkpt><trkpt lat="45.60576386644804" lon="8.217674001601784"><ele>367.0</ele><time>2026-04-10T12:41:39Z</time></trkpt><trkpt lat="45.605710767868175" lon="8.21775540747073"><ele>367.0</ele><time>2026-04-10T12:41:40Z</time></trkpt><trkpt lat="45.60565883850657" lon="8.217832555942364"><ele>367.0</ele><time>2026-04-10T12:41:41Z</time></trkpt><trkpt lat="45.60560735449823" lon="8.217907628915926"><ele>367.0</ele><time>2026-04-10T12:41:42Z</time></trkpt><trkpt lat="45.60556098786228" lon="8.217985582602264"><ele>367.0</ele><time>2026-04-10T12:41:43Z</time></trkpt><trkpt lat="45.605519067605734" lon="8.21808315755032"><ele>367.0</ele><time>2026-04-10T12:41:44Z</time></trkpt><trkpt lat="45.605475467523966" lon="8.218172684286612"><ele>367.0</ele><time>2026-04-10T12:41:45Z</time></trkpt><trkpt lat="45.605423748440934" lon="8.218258481390135"><ele>367.0</ele><time>2026-04-10T12:41:46Z</time></trkpt><trkpt lat="45.60537575808316" lon="8.218343837623992"><ele>367.0</ele><time>2026-04-10T12:41:47Z</time></trkpt><trkpt lat="45.605324391795236" lon="8.21841025765027"><ele>367.0</ele><time>2026-04-10T12:41:48Z</time></trkpt><trkpt lat="45.605274617796624" lon="8.218479689605545"><ele>367.0</ele><time>2026-04-10T12:41:49Z</time></trkpt><trkpt lat="45.605213859032496" lon="8.218536357666506"><ele>367.0</ele><time>2026-04-10T12:41:50Z</time></trkpt><trkpt lat="45.60515510621382" lon="8.21861961079849"><ele>366.85714285714283</ele><time>2026-04-10T12:41:51Z</time></trkpt><trkpt lat="45.605109577454286" lon="8.218700654670803"><ele>366.7142857142857</ele><time>2026-04-10T12:41:52Z</time></trkpt><trkpt lat="45.60506692304244" lon="8.21877759324987"><ele>366.57142857142856</ele><time>2026-04-10T12:41:53Z</time></trkpt><trkpt lat="45.605019938112925" lon="8.218837581108877"><ele>366.42857142857144</ele><time>2026-04-10T12:41:54Z</time></trkpt><trkpt lat="45.60495961631602" lon="8.218868349074894"><ele>366.28571428571433</ele><time>2026-04-10T12:41:55Z</time></trkpt><trkpt lat="45.60489187254063" lon="8.218882007377777"><ele>366.14285714285717</ele><time>2026-04-10T12:41:56Z</time></trkpt><trkpt lat="45.60482234792144" lon="8.218886414337293"><ele>366.0</ele><time>2026-04-10T12:41:57Z</time></trkpt><trkpt lat="45.604756949817194" lon="8.218899135296393"><ele>366.0</ele><time>2026-04-10T12:41:58Z</time></trkpt><trkpt lat="45.604688558387345" lon="8.218925045376968"><ele>366.0</ele><time>2026-04-10T12:41:59Z</time></trkpt><trkpt lat="45.6046266919455" lon="8.218972014515318"><ele>366.0</ele><time>2026-04-10T12:42:00Z</time></trkpt><trkpt lat="45.60451159323482" lon="8.219098417314278"><ele>366.0</ele><time>2026-04-10T12:42:02Z</time></trkpt><trkpt lat="45.6044509735349" lon="8.219171557602747"><ele>366.0</ele><time>2026-04-10T12:42:03Z</time></trkpt><trkpt lat="45.60438167077155" lon="8.219232374960411"><ele>366.0</ele><time>2026-04-10T12:42:04Z</time></trkpt><trkpt lat="45.60429855218664" lon="8.219258201807955"><ele>364.3333333333333</ele><time>2026-04-10T12:42:05Z</time></trkpt><trkpt lat="45.60421979654192" lon="8.219255849274804"><ele>362.6666666666667</ele><time>2026-04-10T12:42:06Z</time></trkpt><trkpt lat="45.6041472713932" lon="8.219299717895378"><ele>361.0</ele><time>2026-04-10T12:42:07Z</time></trkpt><trkpt lat="45.60409407910579" lon="8.219374681653196"><ele>359.33333333333337</ele><time>2026-04-10T12:42:08Z</time></trkpt><trkpt lat="45.6040498812334" lon="8.219455450980854"><ele>357.6666666666667</ele><time>2026-04-10T12:42:09Z</time></trkpt><trkpt lat="45.60400786721074" lon="8.219525211148685"><ele>356.0</ele><time>2026-04-10T12:42:10Z</time></trkpt><trkpt lat="45.60390937773774" lon="8.219619406942007"><ele>355.99999999999994</ele><time>2026-04-10T12:42:12Z</time></trkpt><trkpt lat="45.603857808058294" lon="8.219682847877495"><ele>356.0</ele><time>2026-04-10T12:42:13Z</time></trkpt><trkpt lat="45.60381288328556" lon="8.219747627845955"><ele>356.0</ele><time>2026-04-10T12:42:14Z</time></trkpt><trkpt lat="45.60377039378784" lon="8.219829951399648"><ele>356.0</ele><time>2026-04-10T12:42:15Z</time></trkpt><trkpt lat="45.603732410183596" lon="8.219912780925311"><ele>356.0</ele><time>2026-04-10T12:42:16Z</time></trkpt><trkpt lat="45.60368071994748" lon="8.220008402453072"><ele>355.99999999999994</ele><time>2026-04-10T12:42:17Z</time></trkpt><trkpt lat="45.60363772834175" lon="8.220089670096868"><ele>356.0</ele><time>2026-04-10T12:42:18Z</time></trkpt><trkpt lat="45.60358990332334" lon="8.220162548428455"><ele>355.33333333333337</ele><time>2026-04-10T12:42:19Z</time></trkpt><trkpt lat="45.60352208702732" lon="8.220242807371841"><ele>354.6666666666667</ele><time>2026-04-10T12:42:20Z</time></trkpt><trkpt lat="45.603471611978264" lon="8.220322429664355"><ele>354.0</ele><time>2026-04-10T12:42:21Z</time></trkpt><trkpt lat="45.603445082290975" lon="8.220456241653023"><ele>353.3333333333333</ele><time>2026-04-10T12:42:22Z</time></trkpt><trkpt lat="45.60341819078918" lon="8.220571740086692"><ele>352.66666666666663</ele><time>2026-04-10T12:42:23Z</time></trkpt><trkpt lat="45.60338554422029" lon="8.220693492463006"><ele>352.0</ele><time>2026-04-10T12:42:24Z</time></trkpt><trkpt lat="45.6033335878259" lon="8.220804793561467"><ele>352.0</ele><time>2026-04-10T12:42:25Z</time></trkpt><trkpt lat="45.60328561111697" lon="8.220912682507612"><ele>352.0</ele><time>2026-04-10T12:42:26Z</time></trkpt><trkpt lat="45.6032485722215" lon="8.221013672431472"><ele>352.0</ele><time>2026-04-10T12:42:27Z</time></trkpt><trkpt lat="45.60321385816761" lon="8.221105688247741"><ele>352.0</ele><time>2026-04-10T12:42:28Z</time></trkpt><trkpt lat="45.60319809213253" lon="8.22119768128685"><ele>352.0</ele><time>2026-04-10T12:42:29Z</time></trkpt><trkpt lat="45.60324856307703" lon="8.221400709222332"><ele>352.0</ele><time>2026-04-10T12:42:31Z</time></trkpt><trkpt lat="45.60322780687005" lon="8.22150848370722"><ele>352.0</ele><time>2026-04-10T12:42:31.999Z</time></trkpt><trkpt lat="45.60319445073261" lon="8.22161910936014"><ele>352.0</ele><time>2026-04-10T12:42:32.999Z</time></trkpt><trkpt lat="45.60317547216091" lon="8.221747297519274"><ele>352.0</ele><time>2026-04-10T12:42:33.999Z</time></trkpt><trkpt lat="45.60317370369235" lon="8.221893977596666"><ele>352.0</ele><time>2026-04-10T12:42:34.999Z</time></trkpt><trkpt lat="45.60315543685088" lon="8.222018987692485"><ele>352.0</ele><time>2026-04-10T12:42:35.999Z</time></trkpt><trkpt lat="45.60313575918039" lon="8.222126820564633"><ele>352.0</ele><time>2026-04-10T12:42:36.999Z</time></trkpt><trkpt lat="45.60309800648244" lon="8.22223703457775"><ele>352.0</ele><time>2026-04-10T12:42:37.999Z</time></trkpt><trkpt lat="45.603055456760735" lon="8.222349113289162"><ele>352.0</ele><time>2026-04-10T12:42:38.999Z</time></trkpt><trkpt lat="45.60300899168985" lon="8.222448203786993"><ele>352.0</ele><time>2026-04-10T12:42:39.999Z</time></trkpt><trkpt lat="45.60297406560669" lon="8.222526127140965"><ele>352.0</ele><time>2026-04-10T12:42:40.999Z</time></trkpt><trkpt lat="45.60294338545449" lon="8.222703847314184"><ele>351.0</ele><time>2026-04-10T12:42:43.001Z</time></trkpt><trkpt lat="45.602923221800005" lon="8.222804324334898"><ele>350.0</ele><time>2026-04-10T12:42:44.001Z</time></trkpt><trkpt lat="45.60290091356107" lon="8.22290673020463"><ele>349.0</ele><time>2026-04-10T12:42:45.001Z</time></trkpt><trkpt lat="45.60288233920624" lon="8.223020135665426"><ele>348.0</ele><time>2026-04-10T12:42:46.001Z</time></trkpt><trkpt lat="45.60285415482551" lon="8.223121921393117"><ele>347.0</ele><time>2026-04-10T12:42:47.001Z</time></trkpt><trkpt lat="45.60281068468015" lon="8.223216122369005"><ele>346.0</ele><time>2026-04-10T12:42:48.001Z</time></trkpt><trkpt lat="45.60275672988845" lon="8.223283441507288"><ele>345.3333333333333</ele><time>2026-04-10T12:42:49.001Z</time></trkpt><trkpt lat="45.602696622305565" lon="8.223361875824624"><ele>344.66666666666663</ele><time>2026-04-10T12:42:50.001Z</time></trkpt><trkpt lat="45.602644438390115" lon="8.223434658219782"><ele>344.0</ele><time>2026-04-10T12:42:51.001Z</time></trkpt><trkpt lat="45.60261031156106" lon="8.223510790467127"><ele>343.3333333333333</ele><time>2026-04-10T12:42:52.001Z</time></trkpt><trkpt lat="45.60257262774579" lon="8.223592320250297"><ele>342.6666666666667</ele><time>2026-04-10T12:42:54Z</time></trkpt><trkpt lat="45.60250739010888" lon="8.223672654990791"><ele>342.0</ele><time>2026-04-10T12:43:07Z</time></trkpt><trkpt lat="45.602448096338954" lon="8.223808846259264"><ele>342.0</ele><time>2026-04-10T12:43:09Z</time></trkpt><trkpt lat="45.60241851934606" lon="8.223905969021004"><ele>342.0</ele><time>2026-04-10T12:43:10Z</time></trkpt><trkpt lat="45.60239650071602" lon="8.224017085452815"><ele>342.0</ele><time>2026-04-10T12:43:11Z</time></trkpt><trkpt lat="45.60238445257033" lon="8.224132979870149"><ele>342.0</ele><time>2026-04-10T12:43:12Z</time></trkpt><trkpt lat="45.60234690435613" lon="8.224239335822002"><ele>342.0</ele><time>2026-04-10T12:43:13Z</time></trkpt><trkpt lat="45.60230726603746" lon="8.224343345286423"><ele>342.0</ele><time>2026-04-10T12:43:14Z</time></trkpt><trkpt lat="45.602271904108015" lon="8.224430137191124"><ele>341.3333333333333</ele><time>2026-04-10T12:43:15Z</time></trkpt><trkpt lat="45.602259056161394" lon="8.224538927103827"><ele>340.6666666666667</ele><time>2026-04-10T12:43:16Z</time></trkpt><trkpt lat="45.602250715358394" lon="8.224629716903435"><ele>340.0</ele><time>2026-04-10T12:43:17Z</time></trkpt><trkpt lat="45.60224929115743" lon="8.224720847327887"><ele>339.33333333333337</ele><time>2026-04-10T12:43:18Z</time></trkpt><trkpt lat="45.602212888118196" lon="8.224886841077813"><ele>338.6666666666667</ele><time>2026-04-10T12:43:20Z</time></trkpt><trkpt lat="45.602175010053685" lon="8.224962836165334"><ele>338.0</ele><time>2026-04-10T12:43:21Z</time></trkpt><trkpt lat="45.60213557313705" lon="8.22503379615672"><ele>335.25</ele><time>2026-04-10T12:43:22Z</time></trkpt><trkpt lat="45.60205227494022" lon="8.22515864321466"><ele>332.5</ele><time>2026-04-10T12:43:24Z</time></trkpt><trkpt lat="45.601961317923404" lon="8.225254507674048"><ele>329.75</ele><time>2026-04-10T12:43:26Z</time></trkpt><trkpt lat="45.601843627141626" lon="8.225284975058212"><ele>327.0</ele><time>2026-04-10T12:43:28Z</time></trkpt><trkpt lat="45.60174248845994" lon="8.225278107465755"><ele>327.0</ele><time>2026-04-10T12:43:30Z</time></trkpt><trkpt lat="45.601672821459076" lon="8.225273500813389"><ele>327.0</ele><time>2026-04-10T12:43:32Z</time></trkpt><trkpt lat="45.60172755381978" lon="8.225373258832652"><ele>327.0</ele><time>2026-04-10T12:43:39Z</time></trkpt><trkpt lat="45.601818031005436" lon="8.225445477211961"><ele>327.0</ele><time>2026-04-10T12:43:41Z</time></trkpt><trkpt lat="45.60191582153207" lon="8.225532193782286"><ele>327.0</ele><time>2026-04-10T12:43:43Z</time></trkpt><trkpt lat="45.602021035375564" lon="8.225554388620152"><ele>327.0</ele><time>2026-04-10T12:43:45Z</time></trkpt><trkpt lat="45.60207307353593" lon="8.22561338804515"><ele>327.0</ele><time>2026-04-10T12:43:47Z</time></trkpt><trkpt lat="45.60200567532066" lon="8.225672701722218"><ele>327.0</ele><time>2026-04-10T12:43:50Z</time></trkpt><trkpt lat="45.601918373433044" lon="8.225691487421734"><ele>327.0</ele><time>2026-04-10T12:43:52Z</time></trkpt><trkpt lat="45.60183751790333" lon="8.225705209683474"><ele>327.0</ele><time>2026-04-10T12:43:54Z</time></trkpt><trkpt lat="45.60175008555018" lon="8.225753763756686"><ele>327.0</ele><time>2026-04-10T12:43:56Z</time></trkpt><trkpt lat="45.601702625646816" lon="8.225901223305408"><ele>325.0</ele><time>2026-04-10T12:43:58Z</time></trkpt><trkpt lat="45.60171060549932" lon="8.226000937525933"><ele>323.0</ele><time>2026-04-10T12:43:59Z</time></trkpt><trkpt lat="45.601724353206464" lon="8.226105551130141"><ele>321.0</ele><time>2026-04-10T12:44:00Z</time></trkpt><trkpt lat="45.601729902022555" lon="8.22620580602597"><ele>319.0</ele><time>2026-04-10T12:44:01Z</time></trkpt><trkpt lat="45.60172497244325" lon="8.22630386052964"><ele>317.0</ele><time>2026-04-10T12:44:02Z</time></trkpt><trkpt lat="45.60168811717521" lon="8.22647298629353"><ele>315.0</ele><time>2026-04-10T12:44:04Z</time></trkpt><trkpt lat="45.601632894896774" lon="8.226547042038302"><ele>312.8333333333333</ele><time>2026-04-10T12:44:05Z</time></trkpt><trkpt lat="45.60157824663891" lon="8.226621325993158"><ele>310.6666666666667</ele><time>2026-04-10T12:44:06Z</time></trkpt><trkpt lat="45.60152237540503" lon="8.226675474281107"><ele>308.5</ele><time>2026-04-10T12:44:07Z</time></trkpt><trkpt lat="45.601457427861234" lon="8.226741333152457"><ele>306.33333333333337</ele><time>2026-04-10T12:44:08Z</time></trkpt><trkpt lat="45.6013890095362" lon="8.226809016730222"><ele>304.1666666666667</ele><time>2026-04-10T12:44:09Z</time></trkpt><trkpt lat="45.6013188658211" lon="8.226859346888098"><ele>302.0</ele><time>2026-04-10T12:44:10Z</time></trkpt><trkpt lat="45.60124756070145" lon="8.226895401909877"><ele>302.00000000000006</ele><time>2026-04-10T12:44:11Z</time></trkpt><trkpt lat="45.601177538470175" lon="8.226917363561414"><ele>302.0</ele><time>2026-04-10T12:44:12Z</time></trkpt><trkpt lat="45.60110739291996" lon="8.226936819156567"><ele>302.0</ele><time>2026-04-10T12:44:13Z</time></trkpt><trkpt lat="45.60103847683672" lon="8.226950085460302"><ele>302.0</ele><time>2026-04-10T12:44:14Z</time></trkpt><trkpt lat="45.60097117689695" lon="8.226959205968667"><ele>302.0</ele><time>2026-04-10T12:44:15Z</time></trkpt><trkpt lat="45.60090473093478" lon="8.226952697707267"><ele>302.00000000000006</ele><time>2026-04-10T12:44:16Z</time></trkpt><trkpt lat="45.600840702984875" lon="8.226943494215888"><ele>302.0</ele><time>2026-04-10T12:44:17Z</time></trkpt><trkpt lat="45.60077817191986" lon="8.226908367754685"><ele>302.33333333333337</ele><time>2026-04-10T12:44:18Z</time></trkpt><trkpt lat="45.60072044253003" lon="8.22685830704218"><ele>302.6666666666667</ele><time>2026-04-10T12:44:18.999Z</time></trkpt><trkpt lat="45.60066780189455" lon="8.226807400928678"><ele>303.0</ele><time>2026-04-10T12:44:19.999Z</time></trkpt><trkpt lat="45.60060427004928" lon="8.226634665250693"><ele>303.3333333333333</ele><time>2026-04-10T12:44:21.999Z</time></trkpt><trkpt lat="45.600600972174" lon="8.226519493906114"><ele>303.66666666666663</ele><time>2026-04-10T12:44:22.999Z</time></trkpt><trkpt lat="45.6006216120745" lon="8.22640230556103"><ele>304.0</ele><time>2026-04-10T12:44:23.999Z</time></trkpt><trkpt lat="45.6006515548943" lon="8.226298773632887"><ele>304.0</ele><time>2026-04-10T12:44:24.999Z</time></trkpt><trkpt lat="45.60065622475468" lon="8.226201102151542"><ele>304.0</ele><time>2026-04-10T12:44:25.999Z</time></trkpt><trkpt lat="45.60063497350089" lon="8.226106137877807"><ele>304.0</ele><time>2026-04-10T12:44:26.999Z</time></trkpt><trkpt lat="45.600597477425204" lon="8.22602585121255"><ele>304.0</ele><time>2026-04-10T12:44:27.999Z</time></trkpt><trkpt lat="45.60051004710383" lon="8.225926847719023"><ele>304.0</ele><time>2026-04-10T12:44:29.999Z</time></trkpt><trkpt lat="45.60043316474992" lon="8.225835364052713"><ele>304.0</ele><time>2026-04-10T12:44:31.999Z</time></trkpt><trkpt lat="45.600356730962424" lon="8.22572990019473"><ele>303.8</ele><time>2026-04-10T12:44:33.999Z</time></trkpt><trkpt lat="45.600310673420644" lon="8.22559585476283"><ele>303.59999999999997</ele><time>2026-04-10T12:44:35.999Z</time></trkpt><trkpt lat="45.60035304375282" lon="8.225450989448575"><ele>303.4</ele><time>2026-04-10T12:44:37.999Z</time></trkpt><trkpt lat="45.60035212152541" lon="8.225311178243727"><ele>303.2</ele><time>2026-04-10T12:44:39.999Z</time></trkpt><trkpt lat="45.600261683615024" lon="8.225320352707506"><ele>303.0</ele><time>2026-04-10T12:44:41.999Z</time></trkpt><trkpt lat="45.6002294051353" lon="8.225475117846203"><ele>298.2</ele><time>2026-04-10T12:44:43.999Z</time></trkpt><trkpt lat="45.60019009185161" lon="8.225648467988233"><ele>293.4</ele><time>2026-04-10T12:44:45.999Z</time></trkpt><trkpt lat="45.600181103375796" lon="8.225747801125033"><ele>288.59999999999997</ele><time>2026-04-10T12:44:46.999Z</time></trkpt><trkpt lat="45.600176313424925" lon="8.225935305877375"><ele>283.8</ele><time>2026-04-10T12:44:49.001Z</time></trkpt><trkpt lat="45.600188955162814" lon="8.226027968556448"><ele>279.0</ele><time>2026-04-10T12:44:50.001Z</time></trkpt><trkpt lat="45.600217794965246" lon="8.226108500704251"><ele>279.0</ele><time>2026-04-10T12:44:51.001Z</time></trkpt><trkpt lat="45.60026600450476" lon="8.226168045024336"><ele>279.0</ele><time>2026-04-10T12:44:52.001Z</time></trkpt><trkpt lat="45.60027639301606" lon="8.226286112014986"><ele>279.0</ele><time>2026-04-10T12:44:54.001Z</time></trkpt><trkpt lat="45.6001609928829" lon="8.226308154779701"><ele>279.0</ele><time>2026-04-10T12:44:56.001Z</time></trkpt><trkpt lat="45.60010169878321" lon="8.226244493017935"><ele>279.0</ele><time>2026-04-10T12:44:57Z</time></trkpt><trkpt lat="45.60004544804028" lon="8.226184229442477"><ele>279.0</ele><time>2026-04-10T12:44:58Z</time></trkpt><trkpt lat="45.59998320214401" lon="8.226136757755317"><ele>279.0</ele><time>2026-04-10T12:44:59Z</time></trkpt><trkpt lat="45.59986945574154" lon="8.226090418868113"><ele>279.0</ele><time>2026-04-10T12:45:01Z</time></trkpt><trkpt lat="45.59980961854214" lon="8.226245826799309"><ele>279.0</ele><time>2026-04-10T12:45:03Z</time></trkpt><trkpt lat="45.599837771431275" lon="8.226366605463024"><ele>279.0</ele><time>2026-04-10T12:45:04Z</time></trkpt><trkpt lat="45.599868698041185" lon="8.226481280280026"><ele>279.0</ele><time>2026-04-10T12:45:05Z</time></trkpt><trkpt lat="45.599898937156986" lon="8.226589630894637"><ele>278.1666666666667</ele><time>2026-04-10T12:45:06Z</time></trkpt><trkpt lat="45.59992728833417" lon="8.226684570033983"><ele>277.3333333333333</ele><time>2026-04-10T12:45:07Z</time></trkpt><trkpt lat="45.59994302421184" lon="8.226772268899559"><ele>276.5</ele><time>2026-04-10T12:45:08Z</time></trkpt><trkpt lat="45.5999348325049" lon="8.226922855651067"><ele>275.66666666666663</ele><time>2026-04-10T12:45:10Z</time></trkpt><trkpt lat="45.599883031544366" lon="8.22702113816045"><ele>274.8333333333333</ele><time>2026-04-10T12:45:12Z</time></trkpt><trkpt lat="45.59981830492999" lon="8.22698218714677"><ele>274.0</ele><time>2026-04-10T12:45:14Z</time></trkpt><trkpt lat="45.59976853832178" lon="8.226916574872478"><ele>274.0</ele><time>2026-04-10T12:45:18Z</time></trkpt><trkpt lat="45.59978947676819" lon="8.227032364444263"><ele>274.0</ele><time>2026-04-10T12:46:38.999Z</time></trkpt><trkpt lat="45.59984706710389" lon="8.227142071450922"><ele>274.0</ele><time>2026-04-10T12:46:40.999Z</time></trkpt><trkpt lat="45.59987226920184" lon="8.227270340957118"><ele>274.0</ele><time>2026-04-10T12:46:42.999Z</time></trkpt><trkpt lat="45.59982484184443" lon="8.227417213811805"><ele>274.0</ele><time>2026-04-10T12:46:44.999Z</time></trkpt><trkpt lat="45.5998713307712" lon="8.227571315367866"><ele>274.5</ele><time>2026-04-10T12:46:46.999Z</time></trkpt><trkpt lat="45.59992805911466" lon="8.227625577314777"><ele>275.0</ele><time>2026-04-10T12:46:47.999Z</time></trkpt><trkpt lat="45.59999112568055" lon="8.227656107192512"><ele>275.5</ele><time>2026-04-10T12:46:48.999Z</time></trkpt><trkpt lat="45.60005731539703" lon="8.227682039274969"><ele>276.0</ele><time>2026-04-10T12:46:49.999Z</time></trkpt><trkpt lat="45.60012002080723" lon="8.227709697647756"><ele>276.5</ele><time>2026-04-10T12:46:50.999Z</time></trkpt><trkpt lat="45.600233988973784" lon="8.227760421993354"><ele>277.0</ele><time>2026-04-10T12:46:52.999Z</time></trkpt><trkpt lat="45.60033496948816" lon="8.227808323231514"><ele>277.0</ele><time>2026-04-10T12:46:55.001Z</time></trkpt><trkpt lat="45.60040902270688" lon="8.227915763683916"><ele>277.0</ele><time>2026-04-10T12:46:57.001Z</time></trkpt><trkpt lat="45.60049287092184" lon="8.2279996333033"><ele>277.0</ele><time>2026-04-10T12:46:59.001Z</time></trkpt><trkpt lat="45.60054662288728" lon="8.22812959033167"><ele>277.0</ele><time>2026-04-10T12:47:01.001Z</time></trkpt><trkpt lat="45.60058636400691" lon="8.228208108329987"><ele>277.0</ele><time>2026-04-10T12:47:02.001Z</time></trkpt><trkpt lat="45.600624031623255" lon="8.228282529601955"><ele>277.0</ele><time>2026-04-10T12:47:03.001Z</time></trkpt><trkpt lat="45.6006640608596" lon="8.228358521364674"><ele>275.5</ele><time>2026-04-10T12:47:04.001Z</time></trkpt><trkpt lat="45.60070663480597" lon="8.228435830836737"><ele>274.0</ele><time>2026-04-10T12:47:05.001Z</time></trkpt><trkpt lat="45.600753896816784" lon="8.228505228623872"><ele>272.5</ele><time>2026-04-10T12:47:06Z</time></trkpt><trkpt lat="45.60084895848201" lon="8.22859032638628"><ele>271.0</ele><time>2026-04-10T12:47:08Z</time></trkpt><trkpt lat="45.60093196654007" lon="8.228633693262292"><ele>269.5</ele><time>2026-04-10T12:47:10Z</time></trkpt><trkpt lat="45.600994928793845" lon="8.228638893406146"><ele>268.0</ele><time>2026-04-10T12:47:13Z</time></trkpt><trkpt lat="45.601014529701" lon="8.228753811981361"><ele>268.0</ele><time>2026-04-10T12:48:18.999Z</time></trkpt><trkpt lat="45.601030380502706" lon="8.228843139294566"><ele>268.0</ele><time>2026-04-10T12:48:20.999Z</time></trkpt><trkpt lat="45.60104763506087" lon="8.229008893213711"><ele>268.0</ele><time>2026-04-10T12:48:22.999Z</time></trkpt><trkpt lat="45.601057246949324" lon="8.229133191595123"><ele>268.0</ele><time>2026-04-10T12:48:24.999Z</time></trkpt><trkpt lat="45.60105795968171" lon="8.229225658942777"><ele>268.0</ele><time>2026-04-10T12:48:25.999Z</time></trkpt><trkpt lat="45.60105819092128" lon="8.229329221209456"><ele>268.0</ele><time>2026-04-10T12:48:26.999Z</time></trkpt><trkpt lat="45.60106690122197" lon="8.229430039998556"><ele>268.66666666666663</ele><time>2026-04-10T12:48:27.999Z</time></trkpt><trkpt lat="45.60107808262917" lon="8.229546986403756"><ele>269.3333333333333</ele><time>2026-04-10T12:48:28.999Z</time></trkpt><trkpt lat="45.601080556060026" lon="8.229659629572451"><ele>270.0</ele><time>2026-04-10T12:48:29.999Z</time></trkpt><trkpt lat="45.60107858998806" lon="8.229762942530298"><ele>270.6666666666667</ele><time>2026-04-10T12:48:30.999Z</time></trkpt><trkpt lat="45.601050987556086" lon="8.229874034448292"><ele>271.33333333333337</ele><time>2026-04-10T12:48:31.999Z</time></trkpt><trkpt lat="45.601008459008725" lon="8.229965159999601"><ele>272.0</ele><time>2026-04-10T12:48:32.999Z</time></trkpt><trkpt lat="45.600976878027495" lon="8.230074673061186"><ele>273.0</ele><time>2026-04-10T12:48:33.999Z</time></trkpt><trkpt lat="45.60094530172943" lon="8.230169733324871"><ele>274.0</ele><time>2026-04-10T12:48:34.999Z</time></trkpt><trkpt lat="45.60090776993166" lon="8.230275090438456"><ele>275.0</ele><time>2026-04-10T12:48:35.999Z</time></trkpt><trkpt lat="45.60089050782689" lon="8.230382923559267"><ele>276.0</ele><time>2026-04-10T12:48:36.999Z</time></trkpt><trkpt lat="45.6008813127467" lon="8.230493777483698"><ele>277.0</ele><time>2026-04-10T12:48:37.999Z</time></trkpt><trkpt lat="45.60086261601324" lon="8.230595218878637"><ele>278.0</ele><time>2026-04-10T12:48:38.999Z</time></trkpt><trkpt lat="45.60082980213087" lon="8.230721414747057"><ele>279.2</ele><time>2026-04-10T12:48:39.999Z</time></trkpt><trkpt lat="45.600774237381955" lon="8.23082770130976"><ele>280.4</ele><time>2026-04-10T12:48:40.999Z</time></trkpt><trkpt lat="45.600730933324016" lon="8.230932230146742"><ele>281.59999999999997</ele><time>2026-04-10T12:48:41.999Z</time></trkpt><trkpt lat="45.60069586020703" lon="8.23102953082793"><ele>282.8</ele><time>2026-04-10T12:48:42.999Z</time></trkpt><trkpt lat="45.60062220622563" lon="8.231155718978641"><ele>284.0</ele><time>2026-04-10T12:48:44.999Z</time></trkpt><trkpt lat="45.600647679651566" lon="8.231281360553279"><ele>284.0</ele><time>2026-04-10T12:48:46.999Z</time></trkpt><trkpt lat="45.600725321167225" lon="8.23133507979307"><ele>284.0</ele><time>2026-04-10T12:48:48.999Z</time></trkpt><trkpt lat="45.600770984338155" lon="8.231419831315165"><ele>284.0</ele><time>2026-04-10T12:48:50.999Z</time></trkpt><trkpt lat="45.60090080010756" lon="8.231532219911987"><ele>284.0</ele><time>2026-04-10T12:49:14Z</time></trkpt><trkpt lat="45.60102440529195" lon="8.23159964575468"><ele>284.0</ele><time>2026-04-10T12:49:16Z</time></trkpt><trkpt lat="45.60110625035924" lon="8.231623224420742"><ele>284.59999999999997</ele><time>2026-04-10T12:49:17Z</time></trkpt><trkpt lat="45.60117191126302" lon="8.231645464041927"><ele>285.2</ele><time>2026-04-10T12:49:20Z</time></trkpt><trkpt lat="45.60123676781193" lon="8.23169625340416"><ele>285.79999999999995</ele><time>2026-04-10T12:49:25Z</time></trkpt><trkpt lat="45.601323604666106" lon="8.2317341017802"><ele>286.4</ele><time>2026-04-10T12:49:27Z</time></trkpt><trkpt lat="45.601444375313235" lon="8.231769750583885"><ele>287.0</ele><time>2026-04-10T12:49:29Z</time></trkpt><trkpt lat="45.60156115643618" lon="8.231811114361694"><ele>287.0</ele><time>2026-04-10T12:49:31Z</time></trkpt><trkpt lat="45.60161385102448" lon="8.23189445054437"><ele>287.0</ele><time>2026-04-10T12:49:32Z</time></trkpt><trkpt lat="45.601661585554645" lon="8.231966897093386"><ele>287.0</ele><time>2026-04-10T12:49:33Z</time></trkpt><trkpt lat="45.60171737572444" lon="8.232029104277828"><ele>287.0</ele><time>2026-04-10T12:49:34Z</time></trkpt><trkpt lat="45.60178047836841" lon="8.232081025664193"><ele>287.0</ele><time>2026-04-10T12:49:35Z</time></trkpt><trkpt lat="45.60184368735837" lon="8.232137511009238"><ele>287.0</ele><time>2026-04-10T12:49:36Z</time></trkpt><trkpt lat="45.601904195006114" lon="8.232204490994157"><ele>287.0</ele><time>2026-04-10T12:49:37Z</time></trkpt><trkpt lat="45.601976564992036" lon="8.232283669641197"><ele>289.0</ele><time>2026-04-10T12:49:38Z</time></trkpt><trkpt lat="45.602046022611404" lon="8.232379823483553"><ele>291.0</ele><time>2026-04-10T12:49:39Z</time></trkpt><trkpt lat="45.602115945712185" lon="8.23247840191262"><ele>293.0</ele><time>2026-04-10T12:49:40Z</time></trkpt><trkpt lat="45.60216793563513" lon="8.23255186506256"><ele>295.0</ele><time>2026-04-10T12:49:41Z</time></trkpt><trkpt lat="45.60225952167149" lon="8.232554736961655"><ele>297.0</ele><time>2026-04-10T12:49:43Z</time></trkpt><trkpt lat="45.6023257920379" lon="8.232533236286512"><ele>299.0</ele><time>2026-04-10T12:49:44Z</time></trkpt><trkpt lat="45.60240728895793" lon="8.23259453463504"><ele>299.0</ele><time>2026-04-10T12:49:45Z</time></trkpt><trkpt lat="45.60244798070775" lon="8.232710165898851"><ele>299.0</ele><time>2026-04-10T12:49:46Z</time></trkpt><trkpt lat="45.60250393305471" lon="8.232851391770414"><ele>299.0</ele><time>2026-04-10T12:49:47Z</time></trkpt><trkpt lat="45.60256874406578" lon="8.232948763592397"><ele>299.0</ele><time>2026-04-10T12:49:48Z</time></trkpt><trkpt lat="45.602627343369036" lon="8.23304254958033"><ele>299.0</ele><time>2026-04-10T12:49:49Z</time></trkpt><trkpt lat="45.602691032854175" lon="8.233167528654507"><ele>299.8</ele><time>2026-04-10T12:49:50Z</time></trkpt><trkpt lat="45.60273454957568" lon="8.233240931895802"><ele>300.59999999999997</ele><time>2026-04-10T12:49:51Z</time></trkpt><trkpt lat="45.602794082127545" lon="8.233290538237567"><ele>301.4</ele><time>2026-04-10T12:49:52Z</time></trkpt><trkpt lat="45.602857721525204" lon="8.233322587924889"><ele>302.2</ele><time>2026-04-10T12:49:53Z</time></trkpt><trkpt lat="45.60295099853901" lon="8.233407253458992"><ele>303.0</ele><time>2026-04-10T12:49:55Z</time></trkpt><trkpt lat="45.603082989013686" lon="8.233459183047385"><ele>304.42857142857144</ele><time>2026-04-10T12:49:57Z</time></trkpt><trkpt lat="45.60314269954793" lon="8.233492828556862"><ele>305.85714285714283</ele><time>2026-04-10T12:49:58Z</time></trkpt><trkpt lat="45.60320531903793" lon="8.233522202705297"><ele>307.2857142857143</ele><time>2026-04-10T12:49:59Z</time></trkpt><trkpt lat="45.60326641823327" lon="8.233559667483176"><ele>308.7142857142857</ele><time>2026-04-10T12:50:00Z</time></trkpt><trkpt lat="45.60332866252486" lon="8.233592918357765"><ele>310.14285714285717</ele><time>2026-04-10T12:50:01Z</time></trkpt><trkpt lat="45.60340023911528" lon="8.233634308561863"><ele>311.57142857142856</ele><time>2026-04-10T12:50:03Z</time></trkpt><trkpt lat="45.60335802114444" lon="8.23355625749212"><ele>313.0</ele><time>2026-04-10T12:50:20.999Z</time></trkpt><trkpt lat="45.603420104882545" lon="8.233587229921316"><ele>313.0</ele><time>2026-04-10T12:51:11Z</time></trkpt><trkpt lat="45.60347515409089" lon="8.233675963091066"><ele>313.0</ele><time>2026-04-10T12:51:23Z</time></trkpt><trkpt lat="45.60353559813822" lon="8.233740381620168"><ele>313.0</ele><time>2026-04-10T12:51:25Z</time></trkpt><trkpt lat="45.60360024864551" lon="8.233787891936773"><ele>313.0</ele><time>2026-04-10T12:51:27Z</time></trkpt><trkpt lat="45.60367152408368" lon="8.2337964312237"><ele>313.0</ele><time>2026-04-10T12:51:29Z</time></trkpt><trkpt lat="45.603785884197166" lon="8.233812359570186"><ele>313.0</ele><time>2026-04-10T12:51:32Z</time></trkpt><trkpt lat="45.60388857687025" lon="8.233793562364559"><ele>314.6</ele><time>2026-04-10T12:51:34Z</time></trkpt><trkpt lat="45.60397629111653" lon="8.233805857623747"><ele>316.20000000000005</ele><time>2026-04-10T12:51:36Z</time></trkpt><trkpt lat="45.60407290040529" lon="8.233848662941138"><ele>317.8</ele><time>2026-04-10T12:51:38Z</time></trkpt><trkpt lat="45.60415967978114" lon="8.233969495338382"><ele>319.40000000000003</ele><time>2026-04-10T12:51:40Z</time></trkpt><trkpt lat="45.60424581667303" lon="8.234116150795032"><ele>321.0</ele><time>2026-04-10T12:51:42Z</time></trkpt><trkpt lat="45.604272914867394" lon="8.234230760533693"><ele>321.20000000000005</ele><time>2026-04-10T12:51:43Z</time></trkpt><trkpt lat="45.6042922305968" lon="8.23436019869015"><ele>321.40000000000003</ele><time>2026-04-10T12:51:44Z</time></trkpt><trkpt lat="45.60432553375479" lon="8.234460392996187"><ele>321.6</ele><time>2026-04-10T12:51:45Z</time></trkpt><trkpt lat="45.604366209246976" lon="8.23455587014605"><ele>321.8</ele><time>2026-04-10T12:51:46Z</time></trkpt><trkpt lat="45.60444205930812" lon="8.234654966422124"><ele>322.0</ele><time>2026-04-10T12:51:47Z</time></trkpt><trkpt lat="45.60452200139541" lon="8.234745409243855"><ele>324.16666666666663</ele><time>2026-04-10T12:51:48Z</time></trkpt><trkpt lat="45.604596504640874" lon="8.234852121859406"><ele>326.3333333333333</ele><time>2026-04-10T12:51:49Z</time></trkpt><trkpt lat="45.604666976462646" lon="8.234966693220782"><ele>328.5</ele><time>2026-04-10T12:51:50Z</time></trkpt><trkpt lat="45.60471031904901" lon="8.235053970427918"><ele>330.6666666666667</ele><time>2026-04-10T12:51:51Z</time></trkpt><trkpt lat="45.604735277145295" lon="8.235163876067887"><ele>332.83333333333337</ele><time>2026-04-10T12:51:52Z</time></trkpt><trkpt lat="45.60475695555695" lon="8.235270457540638"><ele>335.0</ele><time>2026-04-10T12:51:53Z</time></trkpt><trkpt lat="45.60479012290594" lon="8.235394190573594"><ele>335.0</ele><time>2026-04-10T12:51:54Z</time></trkpt><trkpt lat="45.60487169324344" lon="8.23549085289288"><ele>335.0</ele><time>2026-04-10T12:51:55Z</time></trkpt><trkpt lat="45.60496729122076" lon="8.235584826623741"><ele>335.0</ele><time>2026-04-10T12:51:56Z</time></trkpt><trkpt lat="45.605062722877015" lon="8.235663675916543"><ele>335.0</ele><time>2026-04-10T12:51:57Z</time></trkpt><trkpt lat="45.605147991472805" lon="8.235739319588967"><ele>335.0</ele><time>2026-04-10T12:51:58Z</time></trkpt><trkpt lat="45.6052255180312" lon="8.23579524744666"><ele>334.83333333333337</ele><time>2026-04-10T12:51:59Z</time></trkpt><trkpt lat="45.605298002092816" lon="8.235820876978003"><ele>334.6666666666667</ele><time>2026-04-10T12:52:00Z</time></trkpt><trkpt lat="45.60536820430046" lon="8.235834799175523"><ele>334.5</ele><time>2026-04-10T12:52:01Z</time></trkpt><trkpt lat="45.60544594438499" lon="8.23585377018035"><ele>334.3333333333333</ele><time>2026-04-10T12:52:02Z</time></trkpt><trkpt lat="45.60551593337612" lon="8.235859405128798"><ele>334.16666666666663</ele><time>2026-04-10T12:52:03Z</time></trkpt><trkpt lat="45.605593390402845" lon="8.235848953983707"><ele>334.0</ele><time>2026-04-10T12:52:04Z</time></trkpt><trkpt lat="45.60567977532502" lon="8.235851148906793"><ele>335.0</ele><time>2026-04-10T12:52:05Z</time></trkpt><trkpt lat="45.60576809407786" lon="8.235835595948613"><ele>336.0</ele><time>2026-04-10T12:52:06Z</time></trkpt><trkpt lat="45.60584234510636" lon="8.235835731870782"><ele>337.0</ele><time>2026-04-10T12:52:06.999Z</time></trkpt><trkpt lat="45.60592702282307" lon="8.235823634974706"><ele>338.0</ele><time>2026-04-10T12:52:07.999Z</time></trkpt><trkpt lat="45.605997218864324" lon="8.235819987045335"><ele>339.0</ele><time>2026-04-10T12:52:08.999Z</time></trkpt><trkpt lat="45.606056697592734" lon="8.23585128792844"><ele>340.0</ele><time>2026-04-10T12:52:09.999Z</time></trkpt><trkpt lat="45.60605824279755" lon="8.236020529925685"><ele>340.0</ele><time>2026-04-10T12:52:11.999Z</time></trkpt><trkpt lat="45.60604110536116" lon="8.236172571321905"><ele>340.0</ele><time>2026-04-10T12:52:12.999Z</time></trkpt><trkpt lat="45.60604957698411" lon="8.236304855547953"><ele>340.0</ele><time>2026-04-10T12:52:13.999Z</time></trkpt><trkpt lat="45.606033465041506" lon="8.236401809100112"><ele>340.0</ele><time>2026-04-10T12:52:14.999Z</time></trkpt><trkpt lat="45.605994120417876" lon="8.23647449035201"><ele>340.0</ele><time>2026-04-10T12:52:16.999Z</time></trkpt><trkpt lat="45.605929748989745" lon="8.236508176427428"><ele>340.0</ele><time>2026-04-10T12:52:23.999Z</time></trkpt><trkpt lat="45.605957131398064" lon="8.236418556774462"><ele>340.0</ele><time>2026-04-10T12:53:48Z</time></trkpt><trkpt lat="45.60591549516755" lon="8.236488589674895"><ele>340.0</ele><time>2026-04-10T12:55:04.999Z</time></trkpt><trkpt lat="45.60585594874821" lon="8.236560506221593"><ele>340.0</ele><time>2026-04-10T12:55:27Z</time></trkpt><trkpt lat="45.605797067881255" lon="8.236594603605317"><ele>340.0</ele><time>2026-04-10T12:55:30Z</time></trkpt><trkpt lat="45.60572099723761" lon="8.236631403022844"><ele>340.0</ele><time>2026-04-10T12:55:34Z</time></trkpt><trkpt lat="45.60566582541146" lon="8.236686218625874"><ele>340.0</ele><time>2026-04-10T12:55:36Z</time></trkpt><trkpt lat="45.60560050009581" lon="8.236760977440975"><ele>340.0</ele><time>2026-04-10T12:55:39Z</time></trkpt><trkpt lat="45.60554527072874" lon="8.236846089693985"><ele>340.0</ele><time>2026-04-10T12:55:41Z</time></trkpt><trkpt lat="45.605474569707475" lon="8.236944023130878"><ele>340.0</ele><time>2026-04-10T12:55:43Z</time></trkpt><trkpt lat="45.60540743565913" lon="8.237046027529685"><ele>340.0</ele><time>2026-04-10T12:55:45Z</time></trkpt><trkpt lat="45.605340202057896" lon="8.23714403253137"><ele>340.0</ele><time>2026-04-10T12:55:47Z</time></trkpt><trkpt lat="45.60528015023352" lon="8.23722594100654"><ele>340.0</ele><time>2026-04-10T12:55:49Z</time></trkpt><trkpt lat="45.6052217436678" lon="8.23729886714447"><ele>341.3333333333333</ele><time>2026-04-10T12:55:51Z</time></trkpt><trkpt lat="45.60516255670748" lon="8.237378601157223"><ele>342.66666666666663</ele><time>2026-04-10T12:55:53Z</time></trkpt><trkpt lat="45.60510332522947" lon="8.237458502688382"><ele>344.0</ele><time>2026-04-10T12:55:55Z</time></trkpt><trkpt lat="45.60504475858541" lon="8.23751682627992"><ele>345.3333333333333</ele><time>2026-04-10T12:55:57Z</time></trkpt><trkpt lat="45.60498480467516" lon="8.237580692875714"><ele>346.6666666666667</ele><time>2026-04-10T12:55:59Z</time></trkpt><trkpt lat="45.60492156775651" lon="8.237648257201826"><ele>348.0</ele><time>2026-04-10T12:56:01Z</time></trkpt><trkpt lat="45.60486764107644" lon="8.237708007997602"><ele>348.0</ele><time>2026-04-10T12:56:03Z</time></trkpt><trkpt lat="45.60480916176776" lon="8.237773600761004"><ele>348.0</ele><time>2026-04-10T12:56:05Z</time></trkpt><trkpt lat="45.60474659189251" lon="8.23783947256173"><ele>348.0</ele><time>2026-04-10T12:56:07Z</time></trkpt><trkpt lat="45.604675177996846" lon="8.237874359017122"><ele>348.0</ele><time>2026-04-10T12:56:09Z</time></trkpt><trkpt lat="45.60460146102305" lon="8.23788589828007"><ele>348.0</ele><time>2026-04-10T12:56:10.999Z</time></trkpt><trkpt lat="45.60451781684284" lon="8.237906863110108"><ele>348.0</ele><time>2026-04-10T12:56:12.999Z</time></trkpt><trkpt lat="45.60444708865794" lon="8.23791759111346"><ele>347.59999999999997</ele><time>2026-04-10T12:56:14.999Z</time></trkpt><trkpt lat="45.60437399847015" lon="8.237966650687744"><ele>347.2</ele><time>2026-04-10T12:56:16.999Z</time></trkpt><trkpt lat="45.60428171674119" lon="8.237997262620025"><ele>346.8</ele><time>2026-04-10T12:56:18.999Z</time></trkpt><trkpt lat="45.60418717961389" lon="8.238049585500242"><ele>346.4</ele><time>2026-04-10T12:56:20.999Z</time></trkpt><trkpt lat="45.60408876855943" lon="8.238083937763541"><ele>346.0</ele><time>2026-04-10T12:56:22.999Z</time></trkpt><trkpt lat="45.60397170618413" lon="8.23812631384422"><ele>346.0</ele><time>2026-04-10T12:56:24.999Z</time></trkpt><trkpt lat="45.60391102369687" lon="8.238100345933182"><ele>346.0</ele><time>2026-04-10T12:56:25.999Z</time></trkpt><trkpt lat="45.60379544167203" lon="8.238134632815287"><ele>346.0</ele><time>2026-04-10T12:56:27.999Z</time></trkpt><trkpt lat="45.603684862407206" lon="8.23813658914031"><ele>346.0</ele><time>2026-04-10T12:56:29.999Z</time></trkpt><trkpt lat="45.60356356204014" lon="8.238151896280996"><ele>346.0</ele><time>2026-04-10T12:56:31.999Z</time></trkpt><trkpt lat="45.60349777906875" lon="8.23817309079104"><ele>345.8333333333333</ele><time>2026-04-10T12:56:32.999Z</time></trkpt><trkpt lat="45.60340902372876" lon="8.238179056423945"><ele>345.66666666666663</ele><time>2026-04-10T12:56:33.999Z</time></trkpt><trkpt lat="45.60334423473375" lon="8.238169084216775"><ele>345.5</ele><time>2026-04-10T12:56:35.999Z</time></trkpt><trkpt lat="45.6032336794163" lon="8.238175403652741"><ele>345.3333333333333</ele><time>2026-04-10T12:56:37.999Z</time></trkpt><trkpt lat="45.60315546106987" lon="8.238177288687412"><ele>345.1666666666667</ele><time>2026-04-10T12:56:38.999Z</time></trkpt><trkpt lat="45.60307465559826" lon="8.238172392848826"><ele>345.0</ele><time>2026-04-10T12:56:39.999Z</time></trkpt><trkpt lat="45.60296014624449" lon="8.238178193716578"><ele>343.8</ele><time>2026-04-10T12:56:41.999Z</time></trkpt><trkpt lat="45.602848351730984" lon="8.238122989183752"><ele>342.6</ele><time>2026-04-10T12:56:43.999Z</time></trkpt><trkpt lat="45.602738376363604" lon="8.238076532276434"><ele>341.4</ele><time>2026-04-10T12:56:45.999Z</time></trkpt><trkpt lat="45.6026640435398" lon="8.237954931589298"><ele>340.2</ele><time>2026-04-10T12:56:47.999Z</time></trkpt><trkpt lat="45.60262701645204" lon="8.237877536410643"><ele>339.0</ele><time>2026-04-10T12:56:48.999Z</time></trkpt><trkpt lat="45.60260135170169" lon="8.237793468915498"><ele>339.0</ele><time>2026-04-10T12:56:49.999Z</time></trkpt><trkpt lat="45.60256332907875" lon="8.237716644539999"><ele>339.0</ele><time>2026-04-10T12:56:50.999Z</time></trkpt><trkpt lat="45.60249916407186" lon="8.23759515553334"><ele>339.0</ele><time>2026-04-10T12:56:52.999Z</time></trkpt><trkpt lat="45.60240057129417" lon="8.237512692246908"><ele>339.0</ele><time>2026-04-10T12:56:54.999Z</time></trkpt><trkpt lat="45.602270061033714" lon="8.237508752644521"><ele>339.0</ele><time>2026-04-10T12:56:56.999Z</time></trkpt><trkpt lat="45.602192697634564" lon="8.237536525124616"><ele>339.0</ele><time>2026-04-10T12:56:57.999Z</time></trkpt><trkpt lat="45.602121887314524" lon="8.237557683004752"><ele>339.0</ele><time>2026-04-10T12:56:58.999Z</time></trkpt><trkpt lat="45.60204747200484" lon="8.237592128005485"><ele>339.0</ele><time>2026-04-10T12:56:59.999Z</time></trkpt><trkpt lat="45.60197100375943" lon="8.237640534619338"><ele>339.0</ele><time>2026-04-10T12:57:00.999Z</time></trkpt><trkpt lat="45.60189651695271" lon="8.237702473342033"><ele>339.0</ele><time>2026-04-10T12:57:01.999Z</time></trkpt><trkpt lat="45.60181513314577" lon="8.237755683761003"><ele>339.0</ele><time>2026-04-10T12:57:02.999Z</time></trkpt><trkpt lat="45.60175290549012" lon="8.23785648635113"><ele>336.6666666666667</ele><time>2026-04-10T12:57:03.999Z</time></trkpt><trkpt lat="45.60167992020416" lon="8.237928617725833"><ele>334.3333333333333</ele><time>2026-04-10T12:57:04.999Z</time></trkpt><trkpt lat="45.60160213637641" lon="8.237966802370877"><ele>332.0</ele><time>2026-04-10T12:57:05.999Z</time></trkpt><trkpt lat="45.601525769661755" lon="8.237943864219563"><ele>329.66666666666663</ele><time>2026-04-10T12:57:06.999Z</time></trkpt><trkpt lat="45.60148971948397" lon="8.237817099724973"><ele>327.3333333333333</ele><time>2026-04-10T12:57:07.999Z</time></trkpt><trkpt lat="45.60141603268263" lon="8.237752581135247"><ele>325.0</ele><time>2026-04-10T12:57:08.999Z</time></trkpt><trkpt lat="45.60136251502561" lon="8.237666589528557"><ele>325.0</ele><time>2026-04-10T12:57:09.999Z</time></trkpt><trkpt lat="45.601307618122" lon="8.237612418799747"><ele>325.0</ele><time>2026-04-10T12:57:10.999Z</time></trkpt><trkpt lat="45.60120917336692" lon="8.237580642498472"><ele>325.0</ele><time>2026-04-10T12:57:12.999Z</time></trkpt><trkpt lat="45.60117586770909" lon="8.237497175744501"><ele>325.0</ele><time>2026-04-10T12:58:45.999Z</time></trkpt><trkpt lat="45.60115822740298" lon="8.237398703607337"><ele>325.0</ele><time>2026-04-10T12:58:47.999Z</time></trkpt><trkpt lat="45.60112702484715" lon="8.237278521441837"><ele>325.0</ele><time>2026-04-10T12:58:49.999Z</time></trkpt><trkpt lat="45.601108832896195" lon="8.237170536689806"><ele>323.7142857142857</ele><time>2026-04-10T12:58:51.999Z</time></trkpt><trkpt lat="45.60109310174783" lon="8.237049753001541"><ele>322.42857142857144</ele><time>2026-04-10T12:58:54.999Z</time></trkpt><trkpt lat="45.60107394672259" lon="8.236953646335706"><ele>321.14285714285717</ele><time>2026-04-10T12:58:57.999Z</time></trkpt><trkpt lat="45.60105810750649" lon="8.236858438810348"><ele>319.8571428571429</ele><time>2026-04-10T12:59:13.999Z</time></trkpt><trkpt lat="45.601022518425" lon="8.236773812805934"><ele>318.57142857142856</ele><time>2026-04-10T13:01:12.999Z</time></trkpt><trkpt lat="45.600989291932564" lon="8.236694688953078"><ele>317.28571428571433</ele><time>2026-04-10T13:01:13.999Z</time></trkpt><trkpt lat="45.60093116653865" lon="8.236658059241897"><ele>316.0</ele><time>2026-04-10T13:01:16.999Z</time></trkpt><trkpt lat="45.600867015315586" lon="8.236668506205234"><ele>316.0</ele><time>2026-04-10T13:01:20.999Z</time></trkpt><trkpt lat="45.600803382097766" lon="8.236707556269995"><ele>316.0</ele><time>2026-04-10T13:01:26.998Z</time></trkpt><trkpt lat="45.60073042358529" lon="8.236694021069956"><ele>316.0</ele><time>2026-04-10T13:01:29.998Z</time></trkpt><trkpt lat="45.600647287046975" lon="8.236668888805267"><ele>316.0</ele><time>2026-04-10T13:01:31.998Z</time></trkpt><trkpt lat="45.60055724853442" lon="8.236648025754132"><ele>316.0</ele><time>2026-04-10T13:01:34.998Z</time></trkpt><trkpt lat="45.60050619139193" lon="8.23656515548074"><ele>316.0</ele><time>2026-04-10T13:01:38Z</time></trkpt><trkpt lat="45.60050520247753" lon="8.236455120008527"><ele>316.0</ele><time>2026-04-10T13:01:40Z</time></trkpt><trkpt lat="45.600531410367054" lon="8.236356409554853"><ele>316.0</ele><time>2026-04-10T13:01:42Z</time></trkpt><trkpt lat="45.60051025307006" lon="8.23624461388538"><ele>316.0</ele><time>2026-04-10T13:01:44Z</time></trkpt><trkpt lat="45.600468841927665" lon="8.236175309014994"><ele>316.0</ele><time>2026-04-10T13:01:45Z</time></trkpt><trkpt lat="45.60036810248941" lon="8.236036740722854"><ele>316.0</ele><time>2026-04-10T13:01:47Z</time></trkpt><trkpt lat="45.600296935531794" lon="8.235976069660213"><ele>316.0</ele><time>2026-04-10T13:01:48Z</time></trkpt><trkpt lat="45.6002244613871" lon="8.235932079525021"><ele>314.40000000000003</ele><time>2026-04-10T13:01:49Z</time></trkpt><trkpt lat="45.60013163293661" lon="8.235831825359648"><ele>312.8</ele><time>2026-04-10T13:01:51Z</time></trkpt><trkpt lat="45.60008437941729" lon="8.235683933984474"><ele>311.20000000000005</ele><time>2026-04-10T13:01:53Z</time></trkpt><trkpt lat="45.6000220983121" lon="8.235557567931183"><ele>309.6</ele><time>2026-04-10T13:01:55Z</time></trkpt><trkpt lat="45.59997841174937" lon="8.23547622379197"><ele>308.0</ele><time>2026-04-10T13:01:56Z</time></trkpt><trkpt lat="45.5998833346057" lon="8.235359488967088"><ele>308.0</ele><time>2026-04-10T13:01:58Z</time></trkpt><trkpt lat="45.599849367743474" lon="8.235280883446977"><ele>308.0</ele><time>2026-04-10T13:01:59Z</time></trkpt><trkpt lat="45.599776417684964" lon="8.235140548601972"><ele>308.0</ele><time>2026-04-10T13:02:01Z</time></trkpt><trkpt lat="45.599699474883366" lon="8.234998966012894"><ele>308.0</ele><time>2026-04-10T13:02:03Z</time></trkpt><trkpt lat="45.59967462420056" lon="8.234914194337401"><ele>308.0</ele><time>2026-04-10T13:02:04Z</time></trkpt><trkpt lat="45.599655371578216" lon="8.234826130240098"><ele>308.0</ele><time>2026-04-10T13:02:05Z</time></trkpt><trkpt lat="45.5996349698682" lon="8.23469460435805"><ele>306.8</ele><time>2026-04-10T13:02:07Z</time></trkpt><trkpt lat="45.59960754723597" lon="8.234542497460128"><ele>305.6</ele><time>2026-04-10T13:02:08.999Z</time></trkpt><trkpt lat="45.599581617824036" lon="8.234459377692444"><ele>304.4</ele><time>2026-04-10T13:02:09.999Z</time></trkpt><trkpt lat="45.59951743460978" lon="8.234321570874217"><ele>303.2</ele><time>2026-04-10T13:02:11.999Z</time></trkpt><trkpt lat="45.599433471066625" lon="8.234206595123677"><ele>302.0</ele><time>2026-04-10T13:02:13.999Z</time></trkpt><trkpt lat="45.599364127800236" lon="8.234097151867875"><ele>300.4</ele><time>2026-04-10T13:02:15.999Z</time></trkpt><trkpt lat="45.59930354931452" lon="8.233965555305582"><ele>298.79999999999995</ele><time>2026-04-10T13:02:17.999Z</time></trkpt><trkpt lat="45.59919995516284" lon="8.2338776845502"><ele>297.2</ele><time>2026-04-10T13:02:19.999Z</time></trkpt><trkpt lat="45.5991357900444" lon="8.233856105004843"><ele>295.59999999999997</ele><time>2026-04-10T13:02:20.999Z</time></trkpt><trkpt lat="45.5990715043513" lon="8.233847904077402"><ele>294.0</ele><time>2026-04-10T13:02:21.999Z</time></trkpt><trkpt lat="45.598940949221" lon="8.233900609041788"><ele>294.0</ele><time>2026-04-10T13:02:23.999Z</time></trkpt><trkpt lat="45.59887576916598" lon="8.233904426263813"><ele>294.0</ele><time>2026-04-10T13:02:24.999Z</time></trkpt><trkpt lat="45.598791326135625" lon="8.233900091370867"><ele>294.0</ele><time>2026-04-10T13:02:25.999Z</time></trkpt><trkpt lat="45.59871730234557" lon="8.23390039407908"><ele>294.0</ele><time>2026-04-10T13:02:26.999Z</time></trkpt><trkpt lat="45.59863763468238" lon="8.233900770778474"><ele>294.0</ele><time>2026-04-10T13:02:27.999Z</time></trkpt><trkpt lat="45.59856262264435" lon="8.233895073268357"><ele>294.0</ele><time>2026-04-10T13:02:28.999Z</time></trkpt><trkpt lat="45.59849220278569" lon="8.233888651665358"><ele>294.0</ele><time>2026-04-10T13:02:29.999Z</time></trkpt><trkpt lat="45.598421436326774" lon="8.233873796633803"><ele>293.2857142857143</ele><time>2026-04-10T13:02:30.999Z</time></trkpt><trkpt lat="45.59835179505924" lon="8.233866483172314"><ele>292.57142857142856</ele><time>2026-04-10T13:02:31.999Z</time></trkpt><trkpt lat="45.59828154148505" lon="8.233855964410935"><ele>291.8571428571429</ele><time>2026-04-10T13:02:32.999Z</time></trkpt><trkpt lat="45.598213463379196" lon="8.23384236270769"><ele>291.1428571428571</ele><time>2026-04-10T13:02:33.999Z</time></trkpt><trkpt lat="45.59814564722045" lon="8.233824826939975"><ele>290.42857142857144</ele><time>2026-04-10T13:02:34.999Z</time></trkpt><trkpt lat="45.598076970540525" lon="8.233821801773216"><ele>289.7142857142857</ele><time>2026-04-10T13:02:35.999Z</time></trkpt><trkpt lat="45.59800834727256" lon="8.233818630650545"><ele>289.0</ele><time>2026-04-10T13:02:36.999Z</time></trkpt><trkpt lat="45.5979254273531" lon="8.23380906429745"><ele>288.75</ele><time>2026-04-10T13:02:37.999Z</time></trkpt><trkpt lat="45.59780940788796" lon="8.233806319086616"><ele>288.5</ele><time>2026-04-10T13:02:39.999Z</time></trkpt><trkpt lat="45.59771812212237" lon="8.233810165488613"><ele>288.25</ele><time>2026-04-10T13:02:41.999Z</time></trkpt><trkpt lat="45.59761359166883" lon="8.233818506845688"><ele>288.0</ele><time>2026-04-10T13:02:43.999Z</time></trkpt><trkpt lat="45.59743743466708" lon="8.23385619066391"><ele>288.0</ele><time>2026-04-10T13:02:46.999Z</time></trkpt><trkpt lat="45.597333511845875" lon="8.233834974308364"><ele>288.0</ele><time>2026-04-10T13:02:48.999Z</time></trkpt><trkpt lat="45.59723153131679" lon="8.233760933774853"><ele>288.0</ele><time>2026-04-10T13:02:50.999Z</time></trkpt><trkpt lat="45.59717879886743" lon="8.233708097569183"><ele>288.0</ele><time>2026-04-10T13:02:51.999Z</time></trkpt><trkpt lat="45.597123322893495" lon="8.233652865007473"><ele>288.0</ele><time>2026-04-10T13:02:52.999Z</time></trkpt><trkpt lat="45.597064771015035" lon="8.233600863602978"><ele>288.0</ele><time>2026-04-10T13:02:53.999Z</time></trkpt><trkpt lat="45.59700660596705" lon="8.23355364260587"><ele>286.3333333333333</ele><time>2026-04-10T13:02:54.999Z</time></trkpt><trkpt lat="45.59695015162545" lon="8.233503257978343"><ele>284.6666666666667</ele><time>2026-04-10T13:02:55.999Z</time></trkpt><trkpt lat="45.59689759538641" lon="8.233452234148523"><ele>283.0</ele><time>2026-04-10T13:02:56.999Z</time></trkpt><trkpt lat="45.59685093264478" lon="8.233391021684445"><ele>281.33333333333337</ele><time>2026-04-10T13:02:57.999Z</time></trkpt><trkpt lat="45.59677320334925" lon="8.233305759288589"><ele>279.6666666666667</ele><time>2026-04-10T13:02:59.999Z</time></trkpt><trkpt lat="45.59668681774182" lon="8.23322186990231"><ele>278.0</ele><time>2026-04-10T13:03:01.999Z</time></trkpt><trkpt lat="45.59659250436407" lon="8.233156035817549"><ele>276.6</ele><time>2026-04-10T13:03:03.999Z</time></trkpt><trkpt lat="45.59650459558425" lon="8.233096703236807"><ele>275.20000000000005</ele><time>2026-04-10T13:03:04.999Z</time></trkpt><trkpt lat="45.59639766477357" lon="8.233034712728921"><ele>273.8</ele><time>2026-04-10T13:03:06.999Z</time></trkpt><trkpt lat="45.59630268261985" lon="8.232976061759928"><ele>272.40000000000003</ele><time>2026-04-10T13:03:08.999Z</time></trkpt><trkpt lat="45.596221349422834" lon="8.23293823482013"><ele>271.0</ele><time>2026-04-10T13:03:10.999Z</time></trkpt><trkpt lat="45.596177228961594" lon="8.23287005386722"><ele>270.2</ele><time>2026-04-10T13:03:13.999Z</time></trkpt><trkpt lat="45.59611621234607" lon="8.232784693009142"><ele>269.40000000000003</ele><time>2026-04-10T13:03:21.999Z</time></trkpt><trkpt lat="45.59603259892068" lon="8.232707778666677"><ele>268.6</ele><time>2026-04-10T13:03:24.998Z</time></trkpt><trkpt lat="45.59593768964444" lon="8.232692123134663"><ele>267.8</ele><time>2026-04-10T13:03:26.998Z</time></trkpt><trkpt lat="45.595829860222715" lon="8.232740281132074"><ele>267.0</ele><time>2026-04-10T13:03:28.998Z</time></trkpt><trkpt lat="45.5957418902761" lon="8.23285538352909"><ele>267.00000000000006</ele><time>2026-04-10T13:03:30.998Z</time></trkpt><trkpt lat="45.59569728654934" lon="8.232925538084618"><ele>267.0</ele><time>2026-04-10T13:03:31.998Z</time></trkpt><trkpt lat="45.595649428258845" lon="8.232987891479377"><ele>267.0</ele><time>2026-04-10T13:03:32.998Z</time></trkpt><trkpt lat="45.59559146842271" lon="8.23305212716937"><ele>267.0</ele><time>2026-04-10T13:03:33.998Z</time></trkpt><trkpt lat="45.595539581258215" lon="8.233111724235421"><ele>267.0</ele><time>2026-04-10T13:03:34.998Z</time></trkpt><trkpt lat="45.59548582992781" lon="8.233161754581598"><ele>267.00000000000006</ele><time>2026-04-10T13:03:35.998Z</time></trkpt><trkpt lat="45.59542561659677" lon="8.233221579944136"><ele>267.0</ele><time>2026-04-10T13:03:36.998Z</time></trkpt><trkpt lat="45.595370060544376" lon="8.233274410899657"><ele>265.8333333333333</ele><time>2026-04-10T13:03:37.998Z</time></trkpt><trkpt lat="45.595277105093224" lon="8.233354413863426"><ele>264.6666666666667</ele><time>2026-04-10T13:03:39.998Z</time></trkpt><trkpt lat="45.59525554860534" lon="8.233452965831368"><ele>263.5</ele><time>2026-04-10T13:03:43Z</time></trkpt><trkpt lat="45.595186270625284" lon="8.233487662844768"><ele>262.33333333333337</ele><time>2026-04-10T13:04:04Z</time></trkpt><trkpt lat="45.59507986643702" lon="8.233533229719939"><ele>261.1666666666667</ele><time>2026-04-10T13:04:06Z</time></trkpt><trkpt lat="45.595015739449664" lon="8.233522204759055"><ele>260.0</ele><time>2026-04-10T13:04:07Z</time></trkpt><trkpt lat="45.5949338070799" lon="8.233482495779999"><ele>260.0</ele><time>2026-04-10T13:04:09Z</time></trkpt><trkpt lat="45.59485667749972" lon="8.233473752517165"><ele>260.0</ele><time>2026-04-10T13:04:15.999Z</time></trkpt><trkpt lat="45.59479378195814" lon="8.233434821081554"><ele>260.0</ele><time>2026-04-10T13:04:31.999Z</time></trkpt><trkpt lat="45.59479832133984" lon="8.233339323737676"><ele>260.0</ele><time>2026-04-10T13:04:33.999Z</time></trkpt><trkpt lat="45.59483589583719" lon="8.233161493589906"><ele>260.0</ele><time>2026-04-10T13:04:35.999Z</time></trkpt><trkpt lat="45.59483795864744" lon="8.233026545562488"><ele>260.0</ele><time>2026-04-10T13:04:37.999Z</time></trkpt><trkpt lat="45.59486236689783" lon="8.232906392861743"><ele>260.0</ele><time>2026-04-10T13:04:40.999Z</time></trkpt><trkpt lat="45.59488356701397" lon="8.232777839133139"><ele>260.0</ele><time>2026-04-10T13:04:43.999Z</time></trkpt><trkpt lat="45.594898003948806" lon="8.232644113830695"><ele>260.0</ele><time>2026-04-10T13:04:46.999Z</time></trkpt><trkpt lat="45.59490856449916" lon="8.232540667878203"><ele>260.0</ele><time>2026-04-10T13:04:48.999Z</time></trkpt><trkpt lat="45.59492369153633" lon="8.232433393611153"><ele>260.0</ele><time>2026-04-10T13:04:50.999Z</time></trkpt><trkpt lat="45.59493951631853" lon="8.232302313986056"><ele>260.0</ele><time>2026-04-10T13:04:52.999Z</time></trkpt><trkpt lat="45.59494730244606" lon="8.232163772173964"><ele>260.33333333333337</ele><time>2026-04-10T13:04:54.999Z</time></trkpt><trkpt lat="45.59495471471829" lon="8.23202091245211"><ele>260.6666666666667</ele><time>2026-04-10T13:04:56.999Z</time></trkpt><trkpt lat="45.59493539872444" lon="8.231889358719362"><ele>261.0</ele><time>2026-04-10T13:04:58.999Z</time></trkpt><trkpt lat="45.594903178419" lon="8.23180168278773"><ele>261.3333333333333</ele><time>2026-04-10T13:05:00.999Z</time></trkpt><trkpt lat="45.594845460388676" lon="8.231758564448164"><ele>261.66666666666663</ele><time>2026-04-10T13:05:04.999Z</time></trkpt><trkpt lat="45.59474927593022" lon="8.231713799032569"><ele>262.0</ele><time>2026-04-10T13:05:06.999Z</time></trkpt><trkpt lat="45.59467631419029" lon="8.231719398918973"><ele>262.0</ele><time>2026-04-10T13:05:07.999Z</time></trkpt><trkpt lat="45.5946107449509" lon="8.231737433342307"><ele>262.0</ele><time>2026-04-10T13:05:08.999Z</time></trkpt><trkpt lat="45.59451839014621" lon="8.23176383668524"><ele>262.0</ele><time>2026-04-10T13:05:10.999Z</time></trkpt><trkpt lat="45.594452096775235" lon="8.231791737653655"><ele>262.0</ele><time>2026-04-10T13:05:13.999Z</time></trkpt><trkpt lat="45.59439030653794" lon="8.231828596274745"><ele>262.0</ele><time>2026-04-10T13:05:20.999Z</time></trkpt><trkpt lat="45.59446699070159" lon="8.231864523542274"><ele>262.0</ele><time>2026-04-10T13:05:48Z</time></trkpt><trkpt lat="45.59441504740255" lon="8.231922560044648"><ele>262.0</ele><time>2026-04-10T13:06:10Z</time></trkpt><trkpt lat="45.594395660279" lon="8.232015139454782"><ele>264.0</ele><time>2026-04-10T13:06:17Z</time></trkpt><trkpt lat="45.59433459584211" lon="8.232137759841605"><ele>266.0</ele><time>2026-04-10T13:06:18.999Z</time></trkpt><trkpt lat="45.59425301973539" lon="8.232270027397284"><ele>268.0</ele><time>2026-04-10T13:06:20.999Z</time></trkpt><trkpt lat="45.59412385386356" lon="8.232174749192147"><ele>270.0</ele><time>2026-04-10T13:06:21.999Z</time></trkpt><trkpt lat="45.59403841374456" lon="8.232236350584847"><ele>270.0</ele><time>2026-04-10T13:06:23.999Z</time></trkpt><trkpt lat="45.59394516228585" lon="8.232286519126593"><ele>270.0</ele><time>2026-04-10T13:06:25.999Z</time></trkpt><trkpt lat="45.593872709337354" lon="8.232289895754176"><ele>270.0</ele><time>2026-04-10T13:06:27.999Z</time></trkpt><trkpt lat="45.59376298478665" lon="8.232262120168002"><ele>270.0</ele><time>2026-04-10T13:06:30.999Z</time></trkpt><trkpt lat="45.593663962599905" lon="8.232260795292415"><ele>270.0</ele><time>2026-04-10T13:06:32.999Z</time></trkpt><trkpt lat="45.59359597392738" lon="8.232258438782496"><ele>270.6</ele><time>2026-04-10T13:06:35.999Z</time></trkpt><trkpt lat="45.59353139783003" lon="8.232256333896432"><ele>271.2</ele><time>2026-04-10T13:06:40.999Z</time></trkpt><trkpt lat="45.59344868172029" lon="8.232253637727675"><ele>271.8</ele><time>2026-04-10T13:06:44.999Z</time></trkpt><trkpt lat="45.59338191657048" lon="8.232251461484683"><ele>272.4</ele><time>2026-04-10T13:06:46.999Z</time></trkpt><trkpt lat="45.59329441193404" lon="8.232248609233014"><ele>273.0</ele><time>2026-04-10T13:06:49.999Z</time></trkpt><trkpt lat="45.593250320866616" lon="8.232873896503426"><ele>272.0</ele><time>2026-04-10T13:06:50.999Z</time></trkpt><trkpt lat="45.593174459521244" lon="8.232924156969567"><ele>271.0</ele><time>2026-04-10T13:06:52.999Z</time></trkpt><trkpt lat="45.593095716991115" lon="8.232961888539995"><ele>270.0</ele><time>2026-04-10T13:06:54.999Z</time></trkpt><trkpt lat="45.59300858275711" lon="8.23296733456342"><ele>269.0</ele><time>2026-04-10T13:06:56.999Z</time></trkpt><trkpt lat="45.59291554634273" lon="8.232961800394666"><ele>268.0</ele><time>2026-04-10T13:06:58.999Z</time></trkpt><trkpt lat="45.59282704286617" lon="8.23296194818505"><ele>267.0</ele><time>2026-04-10T13:07:00.999Z</time></trkpt><trkpt lat="45.59274692639053" lon="8.232965587284738"><ele>267.0</ele><time>2026-04-10T13:07:02.999Z</time></trkpt><trkpt lat="45.5926669339748" lon="8.232965220983619"><ele>267.0</ele><time>2026-04-10T13:07:04.999Z</time></trkpt><trkpt lat="45.59258364351281" lon="8.23297494587344"><ele>267.0</ele><time>2026-04-10T13:07:06.999Z</time></trkpt><trkpt lat="45.592500311335534" lon="8.232980617547732"><ele>267.0</ele><time>2026-04-10T13:07:08.999Z</time></trkpt><trkpt lat="45.59242613025151" lon="8.232980630663803"><ele>267.0</ele><time>2026-04-10T13:07:10.999Z</time></trkpt><trkpt lat="45.59235432696933" lon="8.232984451899586"><ele>267.0</ele><time>2026-04-10T13:07:12.999Z</time></trkpt><trkpt lat="45.59229029491518" lon="8.232951119971606"><ele>267.0</ele><time>2026-04-10T13:07:14.999Z</time></trkpt><trkpt lat="45.59222253311839" lon="8.232901178366996"><ele>267.0</ele><time>2026-04-10T13:07:16.999Z</time></trkpt><trkpt lat="45.59215958852338" lon="8.23285231939543"><ele>267.0</ele><time>2026-04-10T13:07:18.999Z</time></trkpt><trkpt lat="45.592106053614195" lon="8.232779857232128"><ele>267.0</ele><time>2026-04-10T13:07:20.999Z</time></trkpt><trkpt lat="45.592044379553585" lon="8.232691946385623"><ele>267.0</ele><time>2026-04-10T13:07:22.999Z</time></trkpt><trkpt lat="45.59198790110319" lon="8.232606859039523"><ele>267.0</ele><time>2026-04-10T13:07:24.999Z</time></trkpt><trkpt lat="45.591942775873264" lon="8.232529145609549"><ele>266.0</ele><time>2026-04-10T13:07:26.999Z</time></trkpt><trkpt lat="45.59189666676874" lon="8.232462996570899"><ele>265.0</ele><time>2026-04-10T13:07:28.999Z</time></trkpt><trkpt lat="45.591840023007926" lon="8.232407525908938"><ele>264.0</ele><time>2026-04-10T13:07:30.999Z</time></trkpt><trkpt lat="45.59176741662727" lon="8.232381591486451"><ele>263.0</ele><time>2026-04-10T13:07:33.998Z</time></trkpt><trkpt lat="45.59170069199616" lon="8.232372918550393"><ele>262.0</ele><time>2026-04-10T13:07:36.998Z</time></trkpt><trkpt lat="45.591599968878704" lon="8.232386472814941"><ele>261.0</ele><time>2026-04-10T13:08:13Z</time></trkpt><trkpt lat="45.59149946554711" lon="8.232346192834507"><ele>261.0</ele><time>2026-04-10T13:08:15Z</time></trkpt><trkpt lat="45.59138135574776" lon="8.232305693632787"><ele>261.0</ele><time>2026-04-10T13:08:17Z</time></trkpt><trkpt lat="45.591318235241786" lon="8.232305365483073"><ele>261.0</ele><time>2026-04-10T13:08:18Z</time></trkpt><trkpt lat="45.59125631424017" lon="8.232327660522744"><ele>261.0</ele><time>2026-04-10T13:08:19Z</time></trkpt><trkpt lat="45.59119184286874" lon="8.232368846757588"><ele>261.0</ele><time>2026-04-10T13:08:20Z</time></trkpt><trkpt lat="45.591131869781115" lon="8.232413688904291"><ele>261.0</ele><time>2026-04-10T13:08:21Z</time></trkpt><trkpt lat="45.591066407161655" lon="8.2324609307091"><ele>259.8333333333333</ele><time>2026-04-10T13:08:22Z</time></trkpt><trkpt lat="45.59099375128341" lon="8.232500928198819"><ele>258.6666666666667</ele><time>2026-04-10T13:08:22.999Z</time></trkpt><trkpt lat="45.59091995195282" lon="8.232543319832885"><ele>257.5</ele><time>2026-04-10T13:08:23.999Z</time></trkpt><trkpt lat="45.59080213201336" lon="8.23254148750492"><ele>256.33333333333337</ele><time>2026-04-10T13:08:25.999Z</time></trkpt><trkpt lat="45.590694931959696" lon="8.232531659159058"><ele>255.16666666666669</ele><time>2026-04-10T13:08:27.999Z</time></trkpt><trkpt lat="45.590632600563914" lon="8.232545830466966"><ele>254.0</ele><time>2026-04-10T13:08:28.999Z</time></trkpt><trkpt lat="45.59056964392416" lon="8.232530653162087"><ele>254.0</ele><time>2026-04-10T13:08:29.999Z</time></trkpt><trkpt lat="45.59044723312551" lon="8.232507581961316"><ele>254.0</ele><time>2026-04-10T13:08:31.999Z</time></trkpt><trkpt lat="45.59038400023405" lon="8.232510169889563"><ele>254.0</ele><time>2026-04-10T13:08:32.999Z</time></trkpt><trkpt lat="45.59032025667707" lon="8.232516173855018"><ele>254.0</ele><time>2026-04-10T13:08:33.999Z</time></trkpt><trkpt lat="45.59025691906447" lon="8.23252352935572"><ele>254.0</ele><time>2026-04-10T13:08:34.999Z</time></trkpt><trkpt lat="45.590191893325354" lon="8.232538232979419"><ele>254.0</ele><time>2026-04-10T13:08:35.999Z</time></trkpt><trkpt lat="45.59012655777804" lon="8.232555433498664"><ele>254.0</ele><time>2026-04-10T13:08:36.999Z</time></trkpt><trkpt lat="45.59006061200196" lon="8.23257385274096"><ele>253.85714285714286</ele><time>2026-04-10T13:08:37.999Z</time></trkpt><trkpt lat="45.58999254202692" lon="8.232574069094238"><ele>253.71428571428572</ele><time>2026-04-10T13:08:38.999Z</time></trkpt><trkpt lat="45.589922058267526" lon="8.232596837151632"><ele>253.57142857142858</ele><time>2026-04-10T13:08:39.999Z</time></trkpt><trkpt lat="45.589853067381725" lon="8.232641827603494"><ele>253.42857142857144</ele><time>2026-04-10T13:08:40.999Z</time></trkpt><trkpt lat="45.58978369269621" lon="8.232658838331066"><ele>253.28571428571428</ele><time>2026-04-10T13:08:41.999Z</time></trkpt><trkpt lat="45.58971184923892" lon="8.232677950784115"><ele>253.14285714285717</ele><time>2026-04-10T13:08:42.999Z</time></trkpt><trkpt lat="45.58964478870824" lon="8.232706384449669"><ele>253.00000000000003</ele><time>2026-04-10T13:08:43.999Z</time></trkpt><trkpt lat="45.58957858399274" lon="8.232734064689314"><ele>252.99999999999997</ele><time>2026-04-10T13:08:44.999Z</time></trkpt><trkpt lat="45.58951327345285" lon="8.232765902944937"><ele>253.0</ele><time>2026-04-10T13:08:45.999Z</time></trkpt><trkpt lat="45.58944920333779" lon="8.232796529099208"><ele>253.0</ele><time>2026-04-10T13:08:46.999Z</time></trkpt><trkpt lat="45.58938179829152" lon="8.232826121217425"><ele>253.0</ele><time>2026-04-10T13:08:47.999Z</time></trkpt><trkpt lat="45.589262937958615" lon="8.23287461319741"><ele>252.99999999999997</ele><time>2026-04-10T13:08:49.999Z</time></trkpt><trkpt lat="45.589194569977735" lon="8.232900293113103"><ele>253.0</ele><time>2026-04-10T13:08:50.999Z</time></trkpt><trkpt lat="45.58913037642511" lon="8.232912235070179"><ele>253.0</ele><time>2026-04-10T13:08:51.999Z</time></trkpt><trkpt lat="45.58900218010407" lon="8.232915766146613"><ele>253.0</ele><time>2026-04-10T13:08:53.999Z</time></trkpt><trkpt lat="45.58893608985933" lon="8.23291994331576"><ele>253.0</ele><time>2026-04-10T13:08:54.999Z</time></trkpt><trkpt lat="45.588810124485335" lon="8.232925491324034"><ele>253.0</ele><time>2026-04-10T13:08:56.999Z</time></trkpt><trkpt lat="45.588745098090996" lon="8.23292242824999"><ele>253.0</ele><time>2026-04-10T13:08:57.999Z</time></trkpt><trkpt lat="45.58864269530579" lon="8.232890573688417"><ele>252.60000000000002</ele><time>2026-04-10T13:08:59.999Z</time></trkpt><trkpt lat="45.588553609494895" lon="8.232842971619165"><ele>252.20000000000002</ele><time>2026-04-10T13:09:01.999Z</time></trkpt><trkpt lat="45.58847082265284" lon="8.23278967692859"><ele>251.8</ele><time>2026-04-10T13:09:03.999Z</time></trkpt><trkpt lat="45.588379659696194" lon="8.232718508547649"><ele>251.4</ele><time>2026-04-10T13:09:05.999Z</time></trkpt><trkpt lat="45.58827355826962" lon="8.232722292623905"><ele>251.0</ele><time>2026-04-10T13:09:07.999Z</time></trkpt><trkpt lat="45.5881695690502" lon="8.232789110683301"><ele>251.0</ele><time>2026-04-10T13:09:09.999Z</time></trkpt><trkpt lat="45.58805398911264" lon="8.23284438221993"><ele>251.00000000000003</ele><time>2026-04-10T13:09:11.999Z</time></trkpt><trkpt lat="45.58794365200499" lon="8.232887553923838"><ele>251.00000000000003</ele><time>2026-04-10T13:09:13.999Z</time></trkpt><trkpt lat="45.58786355208229" lon="8.23296906349302"><ele>251.0</ele><time>2026-04-10T13:09:15.999Z</time></trkpt><trkpt lat="45.58776791829523" lon="8.233031957218627"><ele>251.0</ele><time>2026-04-10T13:09:17.999Z</time></trkpt><trkpt lat="45.58769181837261" lon="8.233078243028038"><ele>250.66666666666669</ele><time>2026-04-10T13:09:19.999Z</time></trkpt><trkpt lat="45.587630533032744" lon="8.23313310574564"><ele>250.33333333333334</ele><time>2026-04-10T13:09:21.999Z</time></trkpt><trkpt lat="45.58755325087629" lon="8.233153120465994"><ele>250.0</ele><time>2026-04-10T13:09:23.999Z</time></trkpt><trkpt lat="45.58746104377975" lon="8.23309999604334"><ele>249.66666666666669</ele><time>2026-04-10T13:09:25.999Z</time></trkpt><trkpt lat="45.58737893515404" lon="8.232979102790996"><ele>249.33333333333334</ele><time>2026-04-10T13:09:27.999Z</time></trkpt><trkpt lat="45.58739294178091" lon="8.23287976672253"><ele>249.0</ele><time>2026-04-10T13:09:28.999Z</time></trkpt><trkpt lat="45.58734157387672" lon="8.232816028322397"><ele>248.5</ele><time>2026-04-10T13:09:30.999Z</time></trkpt><trkpt lat="45.58729462680171" lon="8.232886211883807"><ele>248.0</ele><time>2026-04-10T13:11:43.998Z</time></trkpt><trkpt lat="45.58722678570845" lon="8.232926414200556"><ele>247.5</ele><time>2026-04-10T13:11:53.998Z</time></trkpt><trkpt lat="45.587154546003376" lon="8.232983701782809"><ele>247.0</ele><time>2026-04-10T13:11:56.998Z</time></trkpt><trkpt lat="45.58705258957755" lon="8.233025470385153"><ele>246.5</ele><time>2026-04-10T13:11:59.998Z</time></trkpt><trkpt lat="45.58698812400612" lon="8.233046977925513"><ele>246.0</ele><time>2026-04-10T13:12:01.998Z</time></trkpt><trkpt lat="45.58689452823476" lon="8.233099525970115"><ele>245.83333333333334</ele><time>2026-04-10T13:12:03.998Z</time></trkpt><trkpt lat="45.58682842218027" lon="8.233134074512579"><ele>245.66666666666669</ele><time>2026-04-10T13:12:04.998Z</time></trkpt><trkpt lat="45.586768754434765" lon="8.233163917860988"><ele>245.5</ele><time>2026-04-10T13:12:06Z</time></trkpt><trkpt lat="45.58670455747544" lon="8.233118771698262"><ele>245.33333333333334</ele><time>2026-04-10T13:12:07Z</time></trkpt><trkpt lat="45.58660649999923" lon="8.233152641131332"><ele>245.16666666666669</ele><time>2026-04-10T13:12:09Z</time></trkpt><trkpt lat="45.5865318260802" lon="8.233183473717354"><ele>245.0</ele><time>2026-04-10T13:12:13Z</time></trkpt><trkpt lat="45.58646645103162" lon="8.23322932414506"><ele>245.00000000000003</ele><time>2026-04-10T13:12:17Z</time></trkpt><trkpt lat="45.586416275844435" lon="8.233319467009398"><ele>245.0</ele><time>2026-04-10T13:12:20Z</time></trkpt><trkpt lat="45.58638625848625" lon="8.233413623313242"><ele>245.0</ele><time>2026-04-10T13:12:22Z</time></trkpt><trkpt lat="45.58631908948707" lon="8.233494085653009"><ele>245.0</ele><time>2026-04-10T13:12:24Z</time></trkpt><trkpt lat="45.586247459405755" lon="8.233477148808037"><ele>245.00000000000003</ele><time>2026-04-10T13:12:27Z</time></trkpt><trkpt lat="45.58615508701184" lon="8.233503135311796"><ele>245.0</ele><time>2026-04-10T13:12:30.999Z</time></trkpt><trkpt lat="45.58602806090311" lon="8.233486794725238"><ele>245.16666666666669</ele><time>2026-04-10T13:12:32.999Z</time></trkpt><trkpt lat="45.58595001804554" lon="8.233488634388356"><ele>245.33333333333334</ele><time>2026-04-10T13:12:33.999Z</time></trkpt><trkpt lat="45.5858698709451" lon="8.233501362902091"><ele>245.5</ele><time>2026-04-10T13:12:34.999Z</time></trkpt><trkpt lat="45.58577973047779" lon="8.233539430942567"><ele>245.66666666666669</ele><time>2026-04-10T13:12:35.999Z</time></trkpt><trkpt lat="45.58570031002278" lon="8.2336026643954"><ele>245.83333333333334</ele><time>2026-04-10T13:12:36.999Z</time></trkpt><trkpt lat="45.585609811306036" lon="8.233667519533865"><ele>246.0</ele><time>2026-04-10T13:12:37.999Z</time></trkpt><trkpt lat="45.58551497389665" lon="8.233680431691264"><ele>246.0</ele><time>2026-04-10T13:12:38.999Z</time></trkpt><trkpt lat="45.585422992681444" lon="8.23368600195132"><ele>246.0</ele><time>2026-04-10T13:12:39.999Z</time></trkpt><trkpt lat="45.585342353457996" lon="8.233701535037683"><ele>246.0</ele><time>2026-04-10T13:12:40.999Z</time></trkpt><trkpt lat="45.5852775623832" lon="8.233728098471975"><ele>246.0</ele><time>2026-04-10T13:12:41.999Z</time></trkpt><trkpt lat="45.58522132498428" lon="8.233848787869693"><ele>246.0</ele><time>2026-04-10T13:12:43.999Z</time></trkpt><trkpt lat="45.585245726459426" lon="8.23394640141593"><ele>246.0</ele><time>2026-04-10T13:12:44.999Z</time></trkpt><trkpt lat="45.58526308065669" lon="8.234043023967411"><ele>246.42857142857144</ele><time>2026-04-10T13:12:45.999Z</time></trkpt><trkpt lat="45.585271000344164" lon="8.23413728022506"><ele>246.85714285714286</ele><time>2026-04-10T13:12:46.999Z</time></trkpt><trkpt lat="45.585290983115605" lon="8.234234326747865"><ele>247.28571428571428</ele><time>2026-04-10T13:12:47.999Z</time></trkpt><trkpt lat="45.58531140561275" lon="8.23432354178253"><ele>247.71428571428572</ele><time>2026-04-10T13:12:48.999Z</time></trkpt><trkpt lat="45.585332779229205" lon="8.234415382316405"><ele>248.1428571428571</ele><time>2026-04-10T13:12:49.999Z</time></trkpt><trkpt lat="45.58536099037169" lon="8.234500483264858"><ele>248.57142857142856</ele><time>2026-04-10T13:12:50.999Z</time></trkpt><trkpt lat="45.58539817056559" lon="8.234582702439948"><ele>249.0</ele><time>2026-04-10T13:12:51.999Z</time></trkpt><trkpt lat="45.585430436472045" lon="8.234679851627195"><ele>249.0</ele><time>2026-04-10T13:12:52.999Z</time></trkpt><trkpt lat="45.58545086957276" lon="8.234768071256127"><ele>248.99999999999997</ele><time>2026-04-10T13:12:53.999Z</time></trkpt><trkpt lat="45.58547635853045" lon="8.234925835910337"><ele>248.99999999999997</ele><time>2026-04-10T13:12:55.999Z</time></trkpt><trkpt lat="45.585491437961" lon="8.235035738823084"><ele>249.0</ele><time>2026-04-10T13:12:57.999Z</time></trkpt><trkpt lat="45.58538375177196" lon="8.235053201965268"><ele>249.0</ele><time>2026-04-10T13:12:59.999Z</time></trkpt><trkpt lat="45.58550787013804" lon="8.235135841180377"><ele>249.33333333333334</ele><time>2026-04-10T13:13:28.999Z</time></trkpt><trkpt lat="45.58554875038455" lon="8.235264384480162"><ele>249.66666666666669</ele><time>2026-04-10T13:14:40.999Z</time></trkpt><trkpt lat="45.58561101305272" lon="8.235356747375349"><ele>250.0</ele><time>2026-04-10T13:14:42.999Z</time></trkpt><trkpt lat="45.585654782422544" lon="8.235433618141103"><ele>250.33333333333334</ele><time>2026-04-10T13:14:43.999Z</time></trkpt><trkpt lat="45.58570753244328" lon="8.235485910923861"><ele>250.66666666666669</ele><time>2026-04-10T13:14:44.999Z</time></trkpt><trkpt lat="45.585770234910086" lon="8.235515100947431"><ele>251.0</ele><time>2026-04-10T13:14:45.999Z</time></trkpt><trkpt lat="45.58583735791027" lon="8.235540476458942"><ele>251.00000000000003</ele><time>2026-04-10T13:14:46.999Z</time></trkpt><trkpt lat="45.58590686161321" lon="8.235566588264618"><ele>251.0</ele><time>2026-04-10T13:14:47.999Z</time></trkpt><trkpt lat="45.58597919570328" lon="8.235567606203366"><ele>251.0</ele><time>2026-04-10T13:14:48.999Z</time></trkpt><trkpt lat="45.586054773132965" lon="8.23553877748741"><ele>251.0</ele><time>2026-04-10T13:14:49.999Z</time></trkpt><trkpt lat="45.58613109469221" lon="8.235520238149734"><ele>251.00000000000003</ele><time>2026-04-10T13:14:50.999Z</time></trkpt><trkpt lat="45.58623958294625" lon="8.235531950841114"><ele>251.0</ele><time>2026-04-10T13:14:52.999Z</time></trkpt><trkpt lat="45.58632720243312" lon="8.23563585851204"><ele>252.0</ele><time>2026-04-10T13:14:54.999Z</time></trkpt><trkpt lat="45.58643186205377" lon="8.235712243338442"><ele>253.00000000000003</ele><time>2026-04-10T13:14:56.999Z</time></trkpt><trkpt lat="45.586475086539735" lon="8.235809745788442"><ele>254.00000000000003</ele><time>2026-04-10T13:14:58.999Z</time></trkpt><trkpt lat="45.58643715889772" lon="8.235964710681118"><ele>255.0</ele><time>2026-04-10T13:15:00.999Z</time></trkpt><trkpt lat="45.58636812673528" lon="8.23605440368236"><ele>256.0</ele><time>2026-04-10T13:15:04.999Z</time></trkpt><trkpt lat="45.58628137463077" lon="8.236052187750964"><ele>255.99999999999997</ele><time>2026-04-10T13:15:07.999Z</time></trkpt><trkpt lat="45.58619845285486" lon="8.236155153968399"><ele>256.0</ele><time>2026-04-10T13:15:09.999Z</time></trkpt><trkpt lat="45.58617318743242" lon="8.236257066209573"><ele>256.0</ele><time>2026-04-10T13:15:10.999Z</time></trkpt><trkpt lat="45.58617583801439" lon="8.236352128699295"><ele>256.0</ele><time>2026-04-10T13:15:11.999Z</time></trkpt><trkpt lat="45.58616777979816" lon="8.236502112609438"><ele>255.99999999999997</ele><time>2026-04-10T13:15:13.999Z</time></trkpt><trkpt lat="45.58613420019508" lon="8.236587138952789"><ele>256.0</ele><time>2026-04-10T13:15:15.999Z</time></trkpt><trkpt lat="45.58610608988392" lon="8.23668676966318"><ele>258.0</ele><time>2026-04-10T13:15:18.999Z</time></trkpt><trkpt lat="45.58603671149817" lon="8.236702797586462"><ele>260.0</ele><time>2026-04-10T13:15:20.999Z</time></trkpt><trkpt lat="45.58594628001806" lon="8.236720324707353"><ele>262.0</ele><time>2026-04-10T13:15:23.999Z</time></trkpt><trkpt lat="45.58590423991606" lon="8.236818894942411"><ele>264.0</ele><time>2026-04-10T13:15:25.999Z</time></trkpt><trkpt lat="45.58582970211005" lon="8.23692172925412"><ele>266.0</ele><time>2026-04-10T13:15:27.999Z</time></trkpt><trkpt lat="45.58580785219791" lon="8.237006540939184"><ele>268.0</ele><time>2026-04-10T13:15:28.999Z</time></trkpt><trkpt lat="45.58579438394383" lon="8.237098190014345"><ele>268.0</ele><time>2026-04-10T13:15:29.999Z</time></trkpt><trkpt lat="45.58577173019159" lon="8.237246857653126"><ele>268.0</ele><time>2026-04-10T13:15:31.999Z</time></trkpt><trkpt lat="45.58577389672489" lon="8.23737501396221"><ele>268.0</ele><time>2026-04-10T13:15:33.999Z</time></trkpt><trkpt lat="45.58579183427188" lon="8.237554557357566"><ele>268.0</ele><time>2026-04-10T13:15:36.999Z</time></trkpt><trkpt lat="45.58581545452281" lon="8.237679779831106"><ele>268.0</ele><time>2026-04-10T13:15:37.999Z</time></trkpt><trkpt lat="45.58577589881691" lon="8.237821925639189"><ele>269.6</ele><time>2026-04-10T13:15:38.999Z</time></trkpt><trkpt lat="45.58579850568609" lon="8.237945219267939"><ele>271.20000000000005</ele><time>2026-04-10T13:15:40.999Z</time></trkpt><trkpt lat="45.58582277138698" lon="8.238085895250723"><ele>272.8</ele><time>2026-04-10T13:15:42.999Z</time></trkpt><trkpt lat="45.58584270726614" lon="8.238260097398962"><ele>274.40000000000003</ele><time>2026-04-10T13:15:44.998Z</time></trkpt><trkpt lat="45.58584023999068" lon="8.23842785134164"><ele>276.0</ele><time>2026-04-10T13:15:46.998Z</time></trkpt><trkpt lat="45.58583438791618" lon="8.238528583550936"><ele>277.2857142857143</ele><time>2026-04-10T13:15:47.998Z</time></trkpt><trkpt lat="45.58582694281603" lon="8.238626451161068"><ele>278.5714285714286</ele><time>2026-04-10T13:15:48.998Z</time></trkpt><trkpt lat="45.585807770843445" lon="8.238724465605612"><ele>279.8571428571429</ele><time>2026-04-10T13:15:49.998Z</time></trkpt><trkpt lat="45.5857887726649" lon="8.238825920418211"><ele>281.14285714285717</ele><time>2026-04-10T13:15:50.998Z</time></trkpt><trkpt lat="45.58577464009341" lon="8.238927466417838"><ele>282.42857142857144</ele><time>2026-04-10T13:15:51.998Z</time></trkpt><trkpt lat="45.58576510405771" lon="8.239025829575317"><ele>283.7142857142857</ele><time>2026-04-10T13:15:52.998Z</time></trkpt><trkpt lat="45.58575876290792" lon="8.239123570277693"><ele>285.0</ele><time>2026-04-10T13:15:53.998Z</time></trkpt><trkpt lat="45.58575419844156" lon="8.23921396732557"><ele>286.1666666666667</ele><time>2026-04-10T13:15:54.998Z</time></trkpt><trkpt lat="45.5857444558006" lon="8.23930688267259"><ele>287.3333333333333</ele><time>2026-04-10T13:15:55.998Z</time></trkpt><trkpt lat="45.585699721152075" lon="8.239443061855086"><ele>288.5</ele><time>2026-04-10T13:15:57.998Z</time></trkpt><trkpt lat="45.585676012543146" lon="8.239528735623356"><ele>289.66666666666663</ele><time>2026-04-10T13:15:58.998Z</time></trkpt><trkpt lat="45.58559007117825" lon="8.239626076232017"><ele>290.8333333333333</ele><time>2026-04-10T13:16:00.998Z</time></trkpt><trkpt lat="45.58553321183929" lon="8.239730991784954"><ele>292.0</ele><time>2026-04-10T13:16:02.998Z</time></trkpt><trkpt lat="45.5855478087093" lon="8.23981913057409"><ele>292.16666666666663</ele><time>2026-04-10T13:16:03.998Z</time></trkpt><trkpt lat="45.58558363992527" lon="8.239906273817862"><ele>292.3333333333333</ele><time>2026-04-10T13:16:04.998Z</time></trkpt><trkpt lat="45.58566651350058" lon="8.239993808759953"><ele>292.5</ele><time>2026-04-10T13:16:07.998Z</time></trkpt><trkpt lat="45.58567261485706" lon="8.240146975797888"><ele>292.6666666666667</ele><time>2026-04-10T13:16:09.998Z</time></trkpt><trkpt lat="45.5856265924503" lon="8.24022237630084"><ele>292.83333333333337</ele><time>2026-04-10T13:16:14.998Z</time></trkpt><trkpt lat="45.58557224840993" lon="8.240280978223101"><ele>293.0</ele><time>2026-04-10T13:16:19.999Z</time></trkpt><trkpt lat="45.585505591427754" lon="8.24034444543002"><ele>293.0</ele><time>2026-04-10T13:16:24Z</time></trkpt><trkpt lat="45.58540546505604" lon="8.240431095906253"><ele>293.0</ele><time>2026-04-10T13:16:27Z</time></trkpt><trkpt lat="45.585322929805976" lon="8.240558837116849"><ele>293.0</ele><time>2026-04-10T13:16:29Z</time></trkpt><trkpt lat="45.58529876748886" lon="8.240645504629164"><ele>293.0</ele><time>2026-04-10T13:16:30Z</time></trkpt><trkpt lat="45.585216962250755" lon="8.240756162742327"><ele>293.0</ele><time>2026-04-10T13:16:32Z</time></trkpt><trkpt lat="45.58510214870803" lon="8.240800066769195"><ele>293.33333333333337</ele><time>2026-04-10T13:16:33.999Z</time></trkpt><trkpt lat="45.585039266186065" lon="8.240853263167859"><ele>293.6666666666667</ele><time>2026-04-10T13:16:34.999Z</time></trkpt><trkpt lat="45.58497357754536" lon="8.240904381153207"><ele>294.0</ele><time>2026-04-10T13:16:35.999Z</time></trkpt><trkpt lat="45.58489839987295" lon="8.240942646373407"><ele>294.3333333333333</ele><time>2026-04-10T13:16:37.999Z</time></trkpt><trkpt lat="45.5848200790187" lon="8.240942070021653"><ele>294.66666666666663</ele><time>2026-04-10T13:16:40.999Z</time></trkpt><trkpt lat="45.5847277599633" lon="8.24099641306338"><ele>295.0</ele><time>2026-04-10T13:16:43.999Z</time></trkpt><trkpt lat="45.584643928935826" lon="8.241007641475568"><ele>295.0</ele><time>2026-04-10T13:16:45.999Z</time></trkpt><trkpt lat="45.58460227747875" lon="8.241131535856058"><ele>295.0</ele><time>2026-04-10T13:16:47.999Z</time></trkpt><trkpt lat="45.584588453272985" lon="8.24124748926147"><ele>295.0</ele><time>2026-04-10T13:16:48.999Z</time></trkpt><trkpt lat="45.58449430700611" lon="8.241351853044842"><ele>295.0</ele><time>2026-04-10T13:16:50.999Z</time></trkpt><trkpt lat="45.584385808104294" lon="8.241453384596484"><ele>295.0</ele><time>2026-04-10T13:16:52.999Z</time></trkpt><trkpt lat="45.58436241079561" lon="8.24155332389846"><ele>295.6</ele><time>2026-04-10T13:16:55.999Z</time></trkpt><trkpt lat="45.5842958478681" lon="8.241643174142732"><ele>296.2</ele><time>2026-04-10T13:16:58.999Z</time></trkpt><trkpt lat="45.58424276088811" lon="8.241797167497838"><ele>296.8</ele><time>2026-04-10T13:17:00.999Z</time></trkpt><trkpt lat="45.58413982165714" lon="8.24192821788812"><ele>297.4</ele><time>2026-04-10T13:17:01.999Z</time></trkpt><trkpt lat="45.58414855479239" lon="8.242064444143198"><ele>298.0</ele><time>2026-04-10T13:17:03.999Z</time></trkpt><trkpt lat="45.584152137700755" lon="8.242196473769502"><ele>297.4</ele><time>2026-04-10T13:17:05.999Z</time></trkpt><trkpt lat="45.58412072336142" lon="8.242372905641385"><ele>296.8</ele><time>2026-04-10T13:17:07.999Z</time></trkpt><trkpt lat="45.58407350414764" lon="8.242443035365838"><ele>296.2</ele><time>2026-04-10T13:17:08.999Z</time></trkpt><trkpt lat="45.583984479214806" lon="8.24252683136597"><ele>295.6</ele><time>2026-04-10T13:17:10.999Z</time></trkpt><trkpt lat="45.58391954680293" lon="8.242554495524898"><ele>295.0</ele><time>2026-04-10T13:17:12.999Z</time></trkpt><trkpt lat="45.583832521758545" lon="8.24258916569689"><ele>295.0</ele><time>2026-04-10T13:17:14.999Z</time></trkpt><trkpt lat="45.58375279153562" lon="8.242522555644328"><ele>295.0</ele><time>2026-04-10T13:17:17Z</time></trkpt><trkpt lat="45.583660246393656" lon="8.242430786134474"><ele>295.0</ele><time>2026-04-10T13:17:19Z</time></trkpt><trkpt lat="45.58358949497826" lon="8.242433891716857"><ele>295.0</ele><time>2026-04-10T13:17:20Z</time></trkpt><trkpt lat="45.583514928059124" lon="8.242429608431198"><ele>295.0</ele><time>2026-04-10T13:17:21Z</time></trkpt><trkpt lat="45.583376210511965" lon="8.242389091734921"><ele>295.0</ele><time>2026-04-10T13:17:22Z</time></trkpt><trkpt lat="45.58333339104244" lon="8.242311958822922"><ele>295.0</ele><time>2026-04-10T13:17:24Z</time></trkpt><trkpt lat="45.583297006406724" lon="8.24223730489429"><ele>295.0</ele><time>2026-04-10T13:17:26Z</time></trkpt><trkpt lat="45.58323046351154" lon="8.242231140165094"><ele>295.0</ele><time>2026-04-10T13:17:29Z</time></trkpt><trkpt lat="45.58298994977801" lon="8.242221945657283"><ele>295.0</ele><time>2026-04-10T13:17:32Z</time></trkpt><trkpt lat="45.58284610245876" lon="8.242192872184916"><ele>295.8</ele><time>2026-04-10T13:17:34Z</time></trkpt><trkpt lat="45.58277381100054" lon="8.242174050792796"><ele>296.6</ele><time>2026-04-10T13:17:35Z</time></trkpt><trkpt lat="45.58266713449444" lon="8.242229273343993"><ele>297.4</ele><time>2026-04-10T13:17:37Z</time></trkpt><trkpt lat="45.582599105824535" lon="8.242256889213243"><ele>298.2</ele><time>2026-04-10T13:17:38Z</time></trkpt><trkpt lat="45.58249070157625" lon="8.242330096755232"><ele>299.0</ele><time>2026-04-10T13:17:40Z</time></trkpt><trkpt lat="45.58241802100036" lon="8.242386765730306"><ele>299.0</ele><time>2026-04-10T13:17:41Z</time></trkpt><trkpt lat="45.58234312234013" lon="8.242465766966241"><ele>299.0</ele><time>2026-04-10T13:17:42Z</time></trkpt><trkpt lat="45.58223714725724" lon="8.242547022752404"><ele>299.0</ele><time>2026-04-10T13:17:43Z</time></trkpt><trkpt lat="45.58215257452973" lon="8.24260915503498"><ele>299.0</ele><time>2026-04-10T13:17:44Z</time></trkpt><trkpt lat="45.5820627275086" lon="8.242641332065052"><ele>299.0</ele><time>2026-04-10T13:17:45Z</time></trkpt><trkpt lat="45.581980770073976" lon="8.24267101143464"><ele>299.0</ele><time>2026-04-10T13:17:45.999Z</time></trkpt><trkpt lat="45.5818967672163" lon="8.242710462039307"><ele>299.0</ele><time>2026-04-10T13:17:46.999Z</time></trkpt><trkpt lat="45.58181557767144" lon="8.242741634211045"><ele>299.0</ele><time>2026-04-10T13:17:47.999Z</time></trkpt><trkpt lat="45.5817441247738" lon="8.242718771419433"><ele>299.0</ele><time>2026-04-10T13:17:48.999Z</time></trkpt><trkpt lat="45.581688153509596" lon="8.242663401036298"><ele>299.0</ele><time>2026-04-10T13:17:49.999Z</time></trkpt><trkpt lat="45.58163085946706" lon="8.24259466047432"><ele>299.0</ele><time>2026-04-10T13:17:50.999Z</time></trkpt><trkpt lat="45.58156106159362" lon="8.242484674066882"><ele>299.0</ele><time>2026-04-10T13:17:51.999Z</time></trkpt><trkpt lat="45.58150184633673" lon="8.242427422518913"><ele>299.0</ele><time>2026-04-10T13:17:52.999Z</time></trkpt><trkpt lat="45.58144153775685" lon="8.24238489190044"><ele>299.0</ele><time>2026-04-10T13:17:58.999Z</time></trkpt><trkpt lat="45.58139113292595" lon="8.242457568692275"><ele>299.0</ele><time>2026-04-10T13:18:32Z</time></trkpt><trkpt lat="45.581359527006065" lon="8.242537226021893"><ele>299.0</ele><time>2026-04-10T13:18:36Z</time></trkpt><trkpt lat="45.58126231006451" lon="8.242580482505078"><ele>299.0</ele><time>2026-04-10T13:18:39Z</time></trkpt><trkpt lat="45.581141414623126" lon="8.242640369415353"><ele>298.5</ele><time>2026-04-10T13:18:41Z</time></trkpt><trkpt lat="45.58112488955158" lon="8.242531424856677"><ele>298.0</ele><time>2026-04-10T13:18:43Z</time></trkpt><trkpt lat="45.581088713264386" lon="8.242453203352397"><ele>297.5</ele><time>2026-04-10T13:18:45Z</time></trkpt><trkpt lat="45.581007838394825" lon="8.242392866764101"><ele>297.0</ele><time>2026-04-10T13:18:46Z</time></trkpt><trkpt lat="45.580929417184635" lon="8.242329661691839"><ele>296.5</ele><time>2026-04-10T13:18:47Z</time></trkpt><trkpt lat="45.58086295933075" lon="8.242302989350387"><ele>296.0</ele><time>2026-04-10T13:18:48Z</time></trkpt><trkpt lat="45.580788957058076" lon="8.242308640342813"><ele>296.0</ele><time>2026-04-10T13:18:49Z</time></trkpt><trkpt lat="45.58071229330676" lon="8.242310953861805"><ele>296.0</ele><time>2026-04-10T13:18:50Z</time></trkpt><trkpt lat="45.58063462904589" lon="8.242285959779394"><ele>296.0</ele><time>2026-04-10T13:18:51Z</time></trkpt><trkpt lat="45.58056634795098" lon="8.24225258477003"><ele>296.0</ele><time>2026-04-10T13:18:52Z</time></trkpt><trkpt lat="45.58048181348276" lon="8.242255510366629"><ele>296.0</ele><time>2026-04-10T13:18:53Z</time></trkpt><trkpt lat="45.58038947375475" lon="8.24225495674227"><ele>296.0</ele><time>2026-04-10T13:18:54Z</time></trkpt><trkpt lat="45.58031802954616" lon="8.242261670825998"><ele>294.6666666666667</ele><time>2026-04-10T13:18:55Z</time></trkpt><trkpt lat="45.58024017681718" lon="8.242290464893516"><ele>293.33333333333337</ele><time>2026-04-10T13:18:56Z</time></trkpt><trkpt lat="45.58016271958431" lon="8.24232257065651"><ele>292.0</ele><time>2026-04-10T13:18:57Z</time></trkpt><trkpt lat="45.58009665927996" lon="8.242335064748781"><ele>290.6666666666667</ele><time>2026-04-10T13:18:58Z</time></trkpt><trkpt lat="45.58002434558149" lon="8.242329970990692"><ele>289.3333333333333</ele><time>2026-04-10T13:18:59Z</time></trkpt><trkpt lat="45.579956360958576" lon="8.24229571611693"><ele>288.0</ele><time>2026-04-10T13:19:00Z</time></trkpt><trkpt lat="45.579880538536074" lon="8.242248763498262"><ele>288.0</ele><time>2026-04-10T13:19:01Z</time></trkpt><trkpt lat="45.57982308298636" lon="8.242154389369976"><ele>288.0</ele><time>2026-04-10T13:19:02Z</time></trkpt><trkpt lat="45.57977867713543" lon="8.242050324068114"><ele>288.0</ele><time>2026-04-10T13:19:03Z</time></trkpt><trkpt lat="45.57972088194848" lon="8.24197700508048"><ele>288.0</ele><time>2026-04-10T13:19:04Z</time></trkpt><trkpt lat="45.57966476648561" lon="8.241919273322384"><ele>288.0</ele><time>2026-04-10T13:19:05Z</time></trkpt><trkpt lat="45.579587602149466" lon="8.241877971641522"><ele>288.0</ele><time>2026-04-10T13:19:06Z</time></trkpt><trkpt lat="45.57950635631905" lon="8.241843222159375"><ele>288.8333333333333</ele><time>2026-04-10T13:19:07Z</time></trkpt><trkpt lat="45.579440764953844" lon="8.241791154214695"><ele>289.6666666666667</ele><time>2026-04-10T13:19:08Z</time></trkpt><trkpt lat="45.579359479625516" lon="8.24174865628994"><ele>290.5</ele><time>2026-04-10T13:19:09Z</time></trkpt><trkpt lat="45.57928698587157" lon="8.241754541268367"><ele>291.33333333333337</ele><time>2026-04-10T13:19:10Z</time></trkpt><trkpt lat="45.57920271708452" lon="8.24179585027706"><ele>292.1666666666667</ele><time>2026-04-10T13:19:11Z</time></trkpt><trkpt lat="45.57912328005027" lon="8.241852423336782"><ele>293.0</ele><time>2026-04-10T13:19:12Z</time></trkpt><trkpt lat="45.57905666203458" lon="8.24193546715602"><ele>293.0</ele><time>2026-04-10T13:19:13Z</time></trkpt><trkpt lat="45.5789972913981" lon="8.242001961241899"><ele>293.0</ele><time>2026-04-10T13:19:14Z</time></trkpt><trkpt lat="45.57891980358879" lon="8.242068301160826"><ele>293.0</ele><time>2026-04-10T13:19:16Z</time></trkpt><trkpt lat="45.57882829604081" lon="8.242126742556241"><ele>293.0</ele><time>2026-04-10T13:19:18Z</time></trkpt><trkpt lat="45.57875269033013" lon="8.242209754706959"><ele>293.0</ele><time>2026-04-10T13:19:19Z</time></trkpt><trkpt lat="45.578693254641486" lon="8.242283451675638"><ele>293.0</ele><time>2026-04-10T13:19:20Z</time></trkpt><trkpt lat="45.57862988187065" lon="8.242231709435963"><ele>291.5</ele><time>2026-04-10T13:19:32Z</time></trkpt><trkpt lat="45.578604522867266" lon="8.242126497375144"><ele>290.0</ele><time>2026-04-10T13:19:35Z</time></trkpt><trkpt lat="45.57854180839417" lon="8.242046686054717"><ele>288.5</ele><time>2026-04-10T13:19:37Z</time></trkpt><trkpt lat="45.57848494912331" lon="8.241984591578134"><ele>287.0</ele><time>2026-04-10T13:19:38Z</time></trkpt><trkpt lat="45.57840214345672" lon="8.24191996128154"><ele>285.5</ele><time>2026-04-10T13:19:39Z</time></trkpt><trkpt lat="45.57831449162617" lon="8.241882658977552"><ele>284.0</ele><time>2026-04-10T13:19:40Z</time></trkpt><trkpt lat="45.57822313735654" lon="8.241823697526337"><ele>284.0</ele><time>2026-04-10T13:19:41Z</time></trkpt><trkpt lat="45.57813452314926" lon="8.24169644994143"><ele>284.0</ele><time>2026-04-10T13:19:42Z</time></trkpt><trkpt lat="45.578032353754644" lon="8.241560067924423"><ele>284.0</ele><time>2026-04-10T13:19:43Z</time></trkpt><trkpt lat="45.57795908923379" lon="8.241460681353969"><ele>284.0</ele><time>2026-04-10T13:19:44Z</time></trkpt><trkpt lat="45.577912075138144" lon="8.241350022262734"><ele>281.75</ele><time>2026-04-10T13:19:45Z</time></trkpt><trkpt lat="45.577841243867226" lon="8.241255623599116"><ele>279.5</ele><time>2026-04-10T13:19:46Z</time></trkpt><trkpt lat="45.577717174230706" lon="8.241176340318235"><ele>277.25</ele><time>2026-04-10T13:19:47Z</time></trkpt><trkpt lat="45.57760981428995" lon="8.241079665078395"><ele>275.0</ele><time>2026-04-10T13:19:48Z</time></trkpt><trkpt lat="45.57752100399891" lon="8.24101868050757"><ele>275.0</ele><time>2026-04-10T13:19:49Z</time></trkpt><trkpt lat="45.57747094394929" lon="8.240891528227465"><ele>275.0</ele><time>2026-04-10T13:19:50.999Z</time></trkpt><trkpt lat="45.57745141643978" lon="8.240798288952265"><ele>275.0</ele><time>2026-04-10T13:19:51.999Z</time></trkpt><trkpt lat="45.577426639679956" lon="8.240710303588521"><ele>275.0</ele><time>2026-04-10T13:19:52.999Z</time></trkpt><trkpt lat="45.577392701663776" lon="8.240619454329439"><ele>275.0</ele><time>2026-04-10T13:19:53.999Z</time></trkpt><trkpt lat="45.57734302194965" lon="8.240548559312987"><ele>275.0</ele><time>2026-04-10T13:19:54.999Z</time></trkpt><trkpt lat="45.5772769138455" lon="8.240509295811824"><ele>275.0</ele><time>2026-04-10T13:19:55.999Z</time></trkpt><trkpt lat="45.57720038818164" lon="8.240488626752963"><ele>275.0</ele><time>2026-04-10T13:19:56.999Z</time></trkpt><trkpt lat="45.577099867578575" lon="8.240519424167479"><ele>275.0</ele><time>2026-04-10T13:19:58.999Z</time></trkpt><trkpt lat="45.57708349254718" lon="8.240607033779392"><ele>275.0</ele><time>2026-04-10T13:20:01.999Z</time></trkpt><trkpt lat="45.57705831868376" lon="8.240725419643113"><ele>275.0</ele><time>2026-04-10T13:20:04.999Z</time></trkpt><trkpt lat="45.5770248361138" lon="8.240806409990558"><ele>275.0</ele><time>2026-04-10T13:20:06.999Z</time></trkpt><trkpt lat="45.57702646901514" lon="8.240899602701486"><ele>275.0</ele><time>2026-04-10T13:20:08.999Z</time></trkpt><trkpt lat="45.5770451478398" lon="8.241013744316424"><ele>275.0</ele><time>2026-04-10T13:20:10.999Z</time></trkpt><trkpt lat="45.57703847615533" lon="8.241139968423228"><ele>275.0</ele><time>2026-04-10T13:20:12.999Z</time></trkpt><trkpt lat="45.577086375928204" lon="8.241295508250687"><ele>275.0</ele><time>2026-04-10T13:20:14.999Z</time></trkpt><trkpt lat="45.57712652276104" lon="8.241433129437098"><ele>275.0</ele><time>2026-04-10T13:20:16.999Z</time></trkpt><trkpt lat="45.57710215116566" lon="8.241573958190628"><ele>275.0</ele><time>2026-04-10T13:20:18.999Z</time></trkpt><trkpt lat="45.577063384257876" lon="8.241650120383825"><ele>275.0</ele><time>2026-04-10T13:20:28.999Z</time></trkpt><trkpt lat="45.57693748179568" lon="8.241612068000858"><ele>275.0</ele><time>2026-04-10T13:21:47Z</time></trkpt><trkpt lat="45.57687548529362" lon="8.241547819644687"><ele>275.0</ele><time>2026-04-10T13:21:49Z</time></trkpt><trkpt lat="45.57679714893876" lon="8.241428846577367"><ele>275.0</ele><time>2026-04-10T13:21:51Z</time></trkpt><trkpt lat="45.5767424728656" lon="8.241370083070368"><ele>274.1666666666667</ele><time>2026-04-10T13:21:52Z</time></trkpt><trkpt lat="45.57664440193973" lon="8.241276810435343"><ele>273.33333333333337</ele><time>2026-04-10T13:21:53.999Z</time></trkpt><trkpt lat="45.57658687859697" lon="8.241228860628588"><ele>272.5</ele><time>2026-04-10T13:21:54.999Z</time></trkpt><trkpt lat="45.57653518358996" lon="8.241158361618181"><ele>271.6666666666667</ele><time>2026-04-10T13:21:55.999Z</time></trkpt><trkpt lat="45.57649353624888" lon="8.241062873621635"><ele>270.8333333333333</ele><time>2026-04-10T13:21:56.999Z</time></trkpt><trkpt lat="45.5764632619316" lon="8.240967634308731"><ele>270.0</ele><time>2026-04-10T13:21:57.999Z</time></trkpt><trkpt lat="45.57641179687706" lon="8.240834350583375"><ele>270.0</ele><time>2026-04-10T13:21:59.999Z</time></trkpt><trkpt lat="45.57635017706582" lon="8.240739178538476"><ele>270.0</ele><time>2026-04-10T13:22:01.999Z</time></trkpt><trkpt lat="45.57627644487437" lon="8.240700825202271"><ele>270.0</ele><time>2026-04-10T13:22:03.999Z</time></trkpt><trkpt lat="45.57617624907204" lon="8.24071998795366"><ele>270.0</ele><time>2026-04-10T13:22:05.999Z</time></trkpt><trkpt lat="45.57608011555805" lon="8.240677509297095"><ele>270.0</ele><time>2026-04-10T13:22:07.999Z</time></trkpt><trkpt lat="45.57601503200116" lon="8.240643101922005"><ele>270.0</ele><time>2026-04-10T13:22:08.999Z</time></trkpt><trkpt lat="45.57593674400078" lon="8.240613994300636"><ele>269.5</ele><time>2026-04-10T13:22:09.999Z</time></trkpt><trkpt lat="45.57584390109334" lon="8.240612265331192"><ele>269.0</ele><time>2026-04-10T13:22:10.999Z</time></trkpt><trkpt lat="45.5757775193574" lon="8.240653881665944"><ele>268.5</ele><time>2026-04-10T13:22:11.999Z</time></trkpt><trkpt lat="45.57570550223604" lon="8.24069108437328"><ele>268.0</ele><time>2026-04-10T13:22:13.999Z</time></trkpt><trkpt lat="45.5756259896166" lon="8.240646144387215"><ele>267.5</ele><time>2026-04-10T13:22:15.999Z</time></trkpt><trkpt lat="45.575621908446664" lon="8.240478351769815"><ele>267.0</ele><time>2026-04-10T13:22:17.999Z</time></trkpt><trkpt lat="45.57567119236194" lon="8.240331060483971"><ele>267.0</ele><time>2026-04-10T13:22:19.999Z</time></trkpt><trkpt lat="45.57568526242023" lon="8.240239316365546"><ele>267.0</ele><time>2026-04-10T13:22:20.999Z</time></trkpt><trkpt lat="45.57563857281307" lon="8.240095033578758"><ele>267.0</ele><time>2026-04-10T13:22:22.999Z</time></trkpt><trkpt lat="45.57559603139344" lon="8.240022454102249"><ele>267.0</ele><time>2026-04-10T13:22:23.999Z</time></trkpt><trkpt lat="45.57554595809669" lon="8.239941656681397"><ele>267.0</ele><time>2026-04-10T13:22:24.999Z</time></trkpt><trkpt lat="45.57549522185676" lon="8.239846002587711"><ele>267.0</ele><time>2026-04-10T13:22:25.999Z</time></trkpt><trkpt lat="45.57545627351518" lon="8.239744941254163"><ele>266.6666666666667</ele><time>2026-04-10T13:22:26.999Z</time></trkpt><trkpt lat="45.575420113105544" lon="8.239663926821814"><ele>266.3333333333333</ele><time>2026-04-10T13:22:27.999Z</time></trkpt><trkpt lat="45.57536512243539" lon="8.239795198130643"><ele>266.0</ele><time>2026-04-10T13:22:30.999Z</time></trkpt><trkpt lat="45.57531597148067" lon="8.239864665074524"><ele>265.66666666666663</ele><time>2026-04-10T13:22:31.999Z</time></trkpt><trkpt lat="45.57527090450508" lon="8.239939159808436"><ele>265.3333333333333</ele><time>2026-04-10T13:22:32.999Z</time></trkpt><trkpt lat="45.575220243014705" lon="8.240024476166711"><ele>265.0</ele><time>2026-04-10T13:22:33.999Z</time></trkpt><trkpt lat="45.57516942316657" lon="8.240121197422024"><ele>265.0</ele><time>2026-04-10T13:22:34.999Z</time></trkpt><trkpt lat="45.575102194774004" lon="8.240196595405834"><ele>265.0</ele><time>2026-04-10T13:22:37.001Z</time></trkpt><trkpt lat="45.57503817265085" lon="8.240190116370254"><ele>265.0</ele><time>2026-04-10T13:22:44Z</time></trkpt><trkpt lat="45.574942749923416" lon="8.240222277872846"><ele>265.0</ele><time>2026-04-10T13:22:46.001Z</time></trkpt><trkpt lat="45.574877963870115" lon="8.240236609926605"><ele>265.0</ele><time>2026-04-10T13:22:47Z</time></trkpt><trkpt lat="45.57475221786752" lon="8.240268269915443"><ele>265.0</ele><time>2026-04-10T13:22:49.001Z</time></trkpt><trkpt lat="45.57467848071161" lon="8.240264858137941"><ele>265.0</ele><time>2026-04-10T13:22:50Z</time></trkpt><trkpt lat="45.57457702739837" lon="8.24027866443164"><ele>265.0</ele><time>2026-04-10T13:22:51Z</time></trkpt><trkpt lat="45.57447652785255" lon="8.24028033850081"><ele>265.0</ele><time>2026-04-10T13:22:52Z</time></trkpt><trkpt lat="45.574392033817674" lon="8.240271663626446"><ele>265.0</ele><time>2026-04-10T13:22:53Z</time></trkpt><trkpt lat="45.57432599301204" lon="8.240271968702823"><ele>265.0</ele><time>2026-04-10T13:22:54Z</time></trkpt><trkpt lat="45.57425606027214" lon="8.240276990954037"><ele>265.0</ele><time>2026-04-10T13:22:55Z</time></trkpt><trkpt lat="45.5741830852649" lon="8.240303458937221"><ele>264.66666666666663</ele><time>2026-04-10T13:22:56Z</time></trkpt><trkpt lat="45.57410732773448" lon="8.240328452966772"><ele>264.3333333333333</ele><time>2026-04-10T13:22:57Z</time></trkpt><trkpt lat="45.57399470344967" lon="8.240361018809256"><ele>264.0</ele><time>2026-04-10T13:22:59Z</time></trkpt><trkpt lat="45.57393196136023" lon="8.240350309784054"><ele>263.6666666666667</ele><time>2026-04-10T13:23:01Z</time></trkpt><trkpt lat="45.57390900636683" lon="8.240238434378117"><ele>263.33333333333337</ele><time>2026-04-10T13:25:06Z</time></trkpt><trkpt lat="45.57390372497343" lon="8.240143238264874"><ele>263.0</ele><time>2026-04-10T13:25:09Z</time></trkpt><trkpt lat="45.57389495259162" lon="8.240049536251021"><ele>263.0</ele><time>2026-04-10T13:25:11Z</time></trkpt><trkpt lat="45.573909689085006" lon="8.239926095588139"><ele>263.0</ele><time>2026-04-10T13:25:13Z</time></trkpt><trkpt lat="45.57394317729714" lon="8.239827459600603"><ele>263.0</ele><time>2026-04-10T13:25:15Z</time></trkpt><trkpt lat="45.57391424806187" lon="8.23969331588002"><ele>263.0</ele><time>2026-04-10T13:25:18Z</time></trkpt><trkpt lat="45.57389750548502" lon="8.239593750366828"><ele>263.0</ele><time>2026-04-10T13:25:20Z</time></trkpt><trkpt lat="45.573846368919554" lon="8.239466431557979"><ele>263.0</ele><time>2026-04-10T13:25:22Z</time></trkpt><trkpt lat="45.573833874351045" lon="8.239305204927986"><ele>262.2</ele><time>2026-04-10T13:25:24Z</time></trkpt><trkpt lat="45.573820103091585" lon="8.239160336979612"><ele>261.4</ele><time>2026-04-10T13:26:04.999Z</time></trkpt><trkpt lat="45.57383644969667" lon="8.239012670269439"><ele>260.59999999999997</ele><time>2026-04-10T13:26:06.999Z</time></trkpt><trkpt lat="45.57384081332229" lon="8.238897538293578"><ele>259.8</ele><time>2026-04-10T13:26:07.999Z</time></trkpt><trkpt lat="45.57384538490959" lon="8.238760822200613"><ele>259.0</ele><time>2026-04-10T13:26:09.999Z</time></trkpt><trkpt lat="45.57375443141614" lon="8.23874787677594"><ele>258.2</ele><time>2026-04-10T13:26:11.999Z</time></trkpt><trkpt lat="45.573674950777935" lon="8.238755796816315"><ele>257.4</ele><time>2026-04-10T13:26:12.999Z</time></trkpt><trkpt lat="45.57357008477152" lon="8.238755938059738"><ele>256.6</ele><time>2026-04-10T13:26:14.999Z</time></trkpt><trkpt lat="45.5734556728746" lon="8.238682481635413"><ele>255.8</ele><time>2026-04-10T13:26:16.999Z</time></trkpt><trkpt lat="45.57339270095572" lon="8.238666528950935"><ele>255.0</ele><time>2026-04-10T13:26:17.999Z</time></trkpt><trkpt lat="45.57328954431866" lon="8.238589037477198"><ele>255.0</ele><time>2026-04-10T13:26:19.999Z</time></trkpt><trkpt lat="45.57324352038628" lon="8.238426012260032"><ele>255.0</ele><time>2026-04-10T13:26:21.999Z</time></trkpt><trkpt lat="45.5732460730463" lon="8.238305131188678"><ele>255.0</ele><time>2026-04-10T13:26:22.999Z</time></trkpt><trkpt lat="45.573239023983874" lon="8.2381763967515"><ele>255.0</ele><time>2026-04-10T13:26:23.999Z</time></trkpt><trkpt lat="45.573242386180645" lon="8.238067622170956"><ele>255.0</ele><time>2026-04-10T13:26:24.999Z</time></trkpt><trkpt lat="45.57324470275915" lon="8.237956756404703"><ele>254.33333333333334</ele><time>2026-04-10T13:26:25.999Z</time></trkpt><trkpt lat="45.573247966078526" lon="8.23785091787365"><ele>253.66666666666669</ele><time>2026-04-10T13:26:26.999Z</time></trkpt><trkpt lat="45.57325927960708" lon="8.237746073612241"><ele>253.0</ele><time>2026-04-10T13:26:27.999Z</time></trkpt><trkpt lat="45.573273298791285" lon="8.23764149462525"><ele>252.33333333333334</ele><time>2026-04-10T13:26:28.999Z</time></trkpt><trkpt lat="45.57329845683029" lon="8.237559020748353"><ele>251.66666666666669</ele><time>2026-04-10T13:26:29.999Z</time></trkpt><trkpt lat="45.573291655707294" lon="8.237407118258023"><ele>251.0</ele><time>2026-04-10T13:26:31.999Z</time></trkpt><trkpt lat="45.573245948447784" lon="8.23729168457088"><ele>249.33333333333334</ele><time>2026-04-10T13:26:32.999Z</time></trkpt><trkpt lat="45.573235170778865" lon="8.2371628877329"><ele>247.66666666666669</ele><time>2026-04-10T13:26:33.999Z</time></trkpt><trkpt lat="45.57323386024317" lon="8.23703441209138"><ele>246.0</ele><time>2026-04-10T13:26:34.999Z</time></trkpt><trkpt lat="45.57322995541566" lon="8.236912854099774"><ele>244.33333333333331</ele><time>2026-04-10T13:26:35.999Z</time></trkpt><trkpt lat="45.57322591632705" lon="8.236794155471872"><ele>242.66666666666666</ele><time>2026-04-10T13:26:36.999Z</time></trkpt><trkpt lat="45.57321893733293" lon="8.236679884419964"><ele>241.0</ele><time>2026-04-10T13:26:37.999Z</time></trkpt><trkpt lat="45.57321306629626" lon="8.236589650467968"><ele>240.99999999999997</ele><time>2026-04-10T13:26:38.999Z</time></trkpt><trkpt lat="45.57323885920644" lon="8.236498160053225"><ele>241.0</ele><time>2026-04-10T13:26:39.999Z</time></trkpt><trkpt lat="45.57328557037707" lon="8.236430732648156"><ele>241.0</ele><time>2026-04-10T13:26:40.999Z</time></trkpt><trkpt lat="45.57331985209408" lon="8.23632110961542"><ele>241.0</ele><time>2026-04-10T13:26:42.999Z</time></trkpt><trkpt lat="45.573266796571545" lon="8.236189451460499"><ele>240.99999999999997</ele><time>2026-04-10T13:26:44.999Z</time></trkpt><trkpt lat="45.57322173599531" lon="8.236105666130618"><ele>241.0</ele><time>2026-04-10T13:26:45.999Z</time></trkpt><trkpt lat="45.57315440219999" lon="8.236050399593534"><ele>240.66666666666666</ele><time>2026-04-10T13:26:48Z</time></trkpt><trkpt lat="45.57309232714161" lon="8.236075600060781"><ele>240.33333333333331</ele><time>2026-04-10T13:26:57Z</time></trkpt><trkpt lat="45.57303471231153" lon="8.23603765984488"><ele>240.0</ele><time>2026-04-10T13:27:01Z</time></trkpt><trkpt lat="45.5730272276445" lon="8.235922538825346"><ele>239.66666666666669</ele><time>2026-04-10T13:27:03Z</time></trkpt><trkpt lat="45.5729967698661" lon="8.23579570033997"><ele>239.33333333333334</ele><time>2026-04-10T13:27:05Z</time></trkpt><trkpt lat="45.57296871409843" lon="8.23570118904406"><ele>239.0</ele><time>2026-04-10T13:27:07Z</time></trkpt><trkpt lat="45.572938466647734" lon="8.23559240361257"><ele>238.39999999999998</ele><time>2026-04-10T13:27:12Z</time></trkpt><trkpt lat="45.57293438603651" lon="8.23546787151905"><ele>237.79999999999998</ele><time>2026-04-10T13:27:14Z</time></trkpt><trkpt lat="45.57290859141573" lon="8.235295385212167"><ele>237.20000000000002</ele><time>2026-04-10T13:27:16Z</time></trkpt><trkpt lat="45.572818052853236" lon="8.235219073217522"><ele>236.60000000000002</ele><time>2026-04-10T13:27:18Z</time></trkpt><trkpt lat="45.572754788044435" lon="8.235256359871851"><ele>236.0</ele><time>2026-04-10T13:27:19Z</time></trkpt><trkpt lat="45.57267805358292" lon="8.235331917391754"><ele>235.8</ele><time>2026-04-10T13:27:20Z</time></trkpt><trkpt lat="45.572593142839054" lon="8.235357534486683"><ele>235.60000000000002</ele><time>2026-04-10T13:27:21Z</time></trkpt><trkpt lat="45.572521992091836" lon="8.235244428493674"><ele>235.4</ele><time>2026-04-10T13:27:23Z</time></trkpt><trkpt lat="45.57249115545901" lon="8.235063704319124"><ele>235.2</ele><time>2026-04-10T13:27:25Z</time></trkpt><trkpt lat="45.57244348923661" lon="8.234925463649537"><ele>235.0</ele><time>2026-04-10T13:27:27Z</time></trkpt><trkpt lat="45.5724336550412" lon="8.234804322666918"><ele>234.99999999999997</ele><time>2026-04-10T13:27:29Z</time></trkpt><trkpt lat="45.57243875149731" lon="8.234698019607134"><ele>235.0</ele><time>2026-04-10T13:27:35Z</time></trkpt><trkpt lat="45.5724708695818" lon="8.234600586237397"><ele>235.0</ele><time>2026-04-10T13:27:39Z</time></trkpt><trkpt lat="45.57254820711858" lon="8.234523866935493"><ele>235.0</ele><time>2026-04-10T13:27:42Z</time></trkpt><trkpt lat="45.57263333135677" lon="8.234558033092005"><ele>234.99999999999997</ele><time>2026-04-10T13:27:44Z</time></trkpt><trkpt lat="45.57273076997297" lon="8.23455553250913"><ele>235.0</ele><time>2026-04-10T13:27:46Z</time></trkpt><trkpt lat="45.572807789347046" lon="8.234469969984362"><ele>234.99999999999997</ele><time>2026-04-10T13:27:48Z</time></trkpt><trkpt lat="45.57282941402073" lon="8.234364181121794"><ele>235.0</ele><time>2026-04-10T13:27:49Z</time></trkpt><trkpt lat="45.57285128880615" lon="8.234258141808262"><ele>235.0</ele><time>2026-04-10T13:27:50Z</time></trkpt><trkpt lat="45.57287726171774" lon="8.234156807181712"><ele>235.0</ele><time>2026-04-10T13:27:51Z</time></trkpt><trkpt lat="45.5729026732474" lon="8.234043537245276"><ele>234.99999999999997</ele><time>2026-04-10T13:27:52Z</time></trkpt><trkpt lat="45.57293410499233" lon="8.2339421496503"><ele>235.0</ele><time>2026-04-10T13:27:53Z</time></trkpt><trkpt lat="45.57295126534562" lon="8.23383324797982"><ele>235.8</ele><time>2026-04-10T13:27:54Z</time></trkpt><trkpt lat="45.57295167500878" lon="8.233729457158471"><ele>236.6</ele><time>2026-04-10T13:27:55Z</time></trkpt><trkpt lat="45.57294476309202" lon="8.233577420355237"><ele>237.39999999999998</ele><time>2026-04-10T13:27:57Z</time></trkpt><trkpt lat="45.572921008019534" lon="8.233458844812633"><ele>238.2</ele><time>2026-04-10T13:27:59Z</time></trkpt><trkpt lat="45.57289588567854" lon="8.233341572112856"><ele>239.0</ele><time>2026-04-10T13:28:08.999Z</time></trkpt><trkpt lat="45.572772489637615" lon="8.23330103071921"><ele>239.2</ele><time>2026-04-10T13:28:10.999Z</time></trkpt><trkpt lat="45.57268296791843" lon="8.233317506133861"><ele>239.39999999999998</ele><time>2026-04-10T13:28:11.999Z</time></trkpt><trkpt lat="45.572587401093585" lon="8.233327361418485"><ele>239.6</ele><time>2026-04-10T13:28:12.999Z</time></trkpt><trkpt lat="45.57249262279469" lon="8.233333243998208"><ele>239.8</ele><time>2026-04-10T13:28:13.999Z</time></trkpt><trkpt lat="45.57239481717475" lon="8.23334774180168"><ele>240.0</ele><time>2026-04-10T13:28:14.999Z</time></trkpt><trkpt lat="45.57229826462199" lon="8.233364889726296"><ele>240.0</ele><time>2026-04-10T13:28:15.999Z</time></trkpt><trkpt lat="45.5721984901716" lon="8.233378717111268"><ele>240.0</ele><time>2026-04-10T13:28:16.999Z</time></trkpt><trkpt lat="45.572104048199414" lon="8.233391719763539"><ele>240.0</ele><time>2026-04-10T13:28:17.999Z</time></trkpt><trkpt lat="45.572005224780646" lon="8.233410111927226"><ele>240.0</ele><time>2026-04-10T13:28:18.999Z</time></trkpt><trkpt lat="45.5719059136653" lon="8.2334271792748"><ele>240.0</ele><time>2026-04-10T13:28:19.999Z</time></trkpt><trkpt lat="45.571808213215796" lon="8.23343961524782"><ele>240.8</ele><time>2026-04-10T13:28:20.999Z</time></trkpt><trkpt lat="45.57170892821973" lon="8.233454759169561"><ele>241.6</ele><time>2026-04-10T13:28:21.999Z</time></trkpt><trkpt lat="45.57160934758658" lon="8.233468222789838"><ele>242.39999999999998</ele><time>2026-04-10T13:28:22.999Z</time></trkpt><trkpt lat="45.57150603370712" lon="8.233481031365235"><ele>243.2</ele><time>2026-04-10T13:28:23.999Z</time></trkpt><trkpt lat="45.57140587311285" lon="8.233495600847405"><ele>244.0</ele><time>2026-04-10T13:28:24.999Z</time></trkpt><trkpt lat="45.571305510388534" lon="8.233513138684572"><ele>243.99999999999997</ele><time>2026-04-10T13:28:25.999Z</time></trkpt><trkpt lat="45.57120595610508" lon="8.233529636329939"><ele>244.0</ele><time>2026-04-10T13:28:26.999Z</time></trkpt><trkpt lat="45.57110813042413" lon="8.233555726029351"><ele>244.0</ele><time>2026-04-10T13:28:27.999Z</time></trkpt><trkpt lat="45.57101494429894" lon="8.233545062362895"><ele>244.0</ele><time>2026-04-10T13:28:28.999Z</time></trkpt><trkpt lat="45.570943139855466" lon="8.233573568711515"><ele>243.99999999999997</ele><time>2026-04-10T13:28:29.999Z</time></trkpt><trkpt lat="45.57086836071138" lon="8.23356723967371"><ele>244.0</ele><time>2026-04-10T13:28:31.999Z</time></trkpt><trkpt lat="45.57096692098899" lon="8.233551524426455"><ele>244.0</ele><time>2026-04-10T13:28:39.999Z</time></trkpt><trkpt lat="45.57117997043092" lon="8.23356072876166"><ele>244.0</ele><time>2026-04-10T13:28:41.999Z</time></trkpt><trkpt lat="45.57128809936903" lon="8.233548131662356"><ele>244.0</ele><time>2026-04-10T13:28:42.999Z</time></trkpt><trkpt lat="45.57140781538063" lon="8.233534478098054"><ele>244.0</ele><time>2026-04-10T13:28:43.999Z</time></trkpt><trkpt lat="45.57153161794041" lon="8.23352136012678"><ele>244.0</ele><time>2026-04-10T13:28:44.999Z</time></trkpt><trkpt lat="45.57166535681744" lon="8.233507553887387"><ele>244.0</ele><time>2026-04-10T13:28:45.999Z</time></trkpt><trkpt lat="45.571807256175646" lon="8.233489006587924"><ele>244.0</ele><time>2026-04-10T13:28:46.999Z</time></trkpt><trkpt lat="45.571927023221704" lon="8.233479840417356"><ele>244.0</ele><time>2026-04-10T13:28:47.999Z</time></trkpt><trkpt lat="45.572041387515796" lon="8.233462847428969"><ele>243.0</ele><time>2026-04-10T13:28:48.999Z</time></trkpt><trkpt lat="45.57215694617166" lon="8.233446746567697"><ele>242.0</ele><time>2026-04-10T13:28:49.999Z</time></trkpt><trkpt lat="45.57227727522828" lon="8.233427969509977"><ele>241.0</ele><time>2026-04-10T13:28:50.999Z</time></trkpt><trkpt lat="45.57239376351353" lon="8.233408964887627"><ele>240.0</ele><time>2026-04-10T13:28:51.999Z</time></trkpt><trkpt lat="45.572511462695026" lon="8.233393363754454"><ele>240.0</ele><time>2026-04-10T13:28:53Z</time></trkpt><trkpt lat="45.57262673789747" lon="8.233385881825809"><ele>240.0</ele><time>2026-04-10T13:28:54Z</time></trkpt><trkpt lat="45.572725068645084" lon="8.233372744846335"><ele>240.0</ele><time>2026-04-10T13:28:55Z</time></trkpt><trkpt lat="45.57281208397498" lon="8.233367917726238"><ele>240.0</ele><time>2026-04-10T13:28:56Z</time></trkpt><trkpt lat="45.57287842934958" lon="8.23337545685975"><ele>240.0</ele><time>2026-04-10T13:28:57Z</time></trkpt><trkpt lat="45.57293539409354" lon="8.233428284584788"><ele>240.0</ele><time>2026-04-10T13:29:02Z</time></trkpt><trkpt lat="45.572899764047" lon="8.23334054393711"><ele>240.0</ele><time>2026-04-10T13:29:36Z</time></trkpt><trkpt lat="45.5728307732168" lon="8.233327699516101"><ele>240.0</ele><time>2026-04-10T13:29:37Z</time></trkpt><trkpt lat="45.57272421124977" lon="8.23335794084167"><ele>240.0</ele><time>2026-04-10T13:29:39Z</time></trkpt><trkpt lat="45.572625087102814" lon="8.233356644522187"><ele>240.0</ele><time>2026-04-10T13:29:41Z</time></trkpt><trkpt lat="45.572512729077054" lon="8.233371149480776"><ele>240.0</ele><time>2026-04-10T13:29:43Z</time></trkpt><trkpt lat="45.5723849459982" lon="8.233385511692914"><ele>240.0</ele><time>2026-04-10T13:29:45Z</time></trkpt><trkpt lat="45.57231953432942" lon="8.23339763952455"><ele>240.0</ele><time>2026-04-10T13:29:46Z</time></trkpt><trkpt lat="45.57224803549825" lon="8.23340818385105"><ele>240.0</ele><time>2026-04-10T13:29:47Z</time></trkpt><trkpt lat="45.57217002471082" lon="8.233416621537353"><ele>240.0</ele><time>2026-04-10T13:29:48Z</time></trkpt><trkpt lat="45.57207828361561" lon="8.233430687400324"><ele>240.0</ele><time>2026-04-10T13:29:49Z</time></trkpt><trkpt lat="45.57198079692238" lon="8.233434972711457"><ele>240.0</ele><time>2026-04-10T13:29:50Z</time></trkpt><trkpt lat="45.571876877038115" lon="8.233441641253783"><ele>240.8</ele><time>2026-04-10T13:29:51Z</time></trkpt><trkpt lat="45.57176809154142" lon="8.23345847181719"><ele>241.6</ele><time>2026-04-10T13:29:52Z</time></trkpt><trkpt lat="45.57165852525258" lon="8.233476227787264"><ele>242.39999999999998</ele><time>2026-04-10T13:29:53Z</time></trkpt><trkpt lat="45.57154738990415" lon="8.233489223319916"><ele>243.2</ele><time>2026-04-10T13:29:54Z</time></trkpt><trkpt lat="45.57143810659417" lon="8.233500509494554"><ele>244.0</ele><time>2026-04-10T13:29:55Z</time></trkpt><trkpt lat="45.57132730802085" lon="8.233515080468832"><ele>244.0</ele><time>2026-04-10T13:29:56Z</time></trkpt><trkpt lat="45.571221013032556" lon="8.233534019516313"><ele>243.99999999999997</ele><time>2026-04-10T13:29:57Z</time></trkpt><trkpt lat="45.571117570107944" lon="8.23354909690309"><ele>243.99999999999997</ele><time>2026-04-10T13:29:58Z</time></trkpt><trkpt lat="45.57102096187925" lon="8.233560355937966"><ele>244.0</ele><time>2026-04-10T13:29:59Z</time></trkpt><trkpt lat="45.5709345675213" lon="8.23356966054628"><ele>244.0</ele><time>2026-04-10T13:30:00Z</time></trkpt><trkpt lat="45.57085658675569" lon="8.233581544428286"><ele>243.33333333333331</ele><time>2026-04-10T13:30:01Z</time></trkpt><trkpt lat="45.57078955522381" lon="8.233593158294608"><ele>242.66666666666666</ele><time>2026-04-10T13:30:01.999Z</time></trkpt><trkpt lat="45.57069184859946" lon="8.233608350527271"><ele>242.0</ele><time>2026-04-10T13:30:03.999Z</time></trkpt><trkpt lat="45.57064312357542" lon="8.233549283051891"><ele>241.33333333333331</ele><time>2026-04-10T13:30:30.999Z</time></trkpt><trkpt lat="45.5706268231292" lon="8.233443459300645"><ele>240.66666666666666</ele><time>2026-04-10T13:30:32.999Z</time></trkpt><trkpt lat="45.57061055322969" lon="8.233295867400647"><ele>240.0</ele><time>2026-04-10T13:30:34.999Z</time></trkpt><trkpt lat="45.57058016085459" lon="8.233138216227674"><ele>241.66666666666666</ele><time>2026-04-10T13:30:36.999Z</time></trkpt><trkpt lat="45.57057553147543" lon="8.233046465538683"><ele>243.33333333333331</ele><time>2026-04-10T13:30:37.999Z</time></trkpt><trkpt lat="45.57055017376306" lon="8.232962310073345"><ele>245.0</ele><time>2026-04-10T13:30:38.999Z</time></trkpt><trkpt lat="45.57051471081881" lon="8.23287621653705"><ele>246.66666666666666</ele><time>2026-04-10T13:30:39.999Z</time></trkpt><trkpt lat="45.57045924783223" lon="8.232717164299839"><ele>248.33333333333331</ele><time>2026-04-10T13:30:41.999Z</time></trkpt><trkpt lat="45.57043666325945" lon="8.232632082060269"><ele>250.0</ele><time>2026-04-10T13:30:42.999Z</time></trkpt><trkpt lat="45.5704121313446" lon="8.23246552763289"><ele>250.4</ele><time>2026-04-10T13:30:44.999Z</time></trkpt><trkpt lat="45.57039196846647" lon="8.232302500906881"><ele>250.8</ele><time>2026-04-10T13:30:46.999Z</time></trkpt><trkpt lat="45.57037984531767" lon="8.232146714894435"><ele>251.2</ele><time>2026-04-10T13:30:48.999Z</time></trkpt><trkpt lat="45.57043089575541" lon="8.232038928663814"><ele>251.6</ele><time>2026-04-10T13:30:50.999Z</time></trkpt><trkpt lat="45.57054333746962" lon="8.232000327711837"><ele>252.0</ele><time>2026-04-10T13:30:52.999Z</time></trkpt><trkpt lat="45.570630830776494" lon="8.231960571322194"><ele>252.0</ele><time>2026-04-10T13:30:54.999Z</time></trkpt><trkpt lat="45.57071880546237" lon="8.231920098972461"><ele>252.0</ele><time>2026-04-10T13:30:56.999Z</time></trkpt><trkpt lat="45.57083075348107" lon="8.231868789273708"><ele>252.0</ele><time>2026-04-10T13:30:59Z</time></trkpt><trkpt lat="45.570938525336096" lon="8.231819543388037"><ele>252.0</ele><time>2026-04-10T13:31:01Z</time></trkpt><trkpt lat="45.570999805252555" lon="8.231791704635638"><ele>252.0</ele><time>2026-04-10T13:31:02Z</time></trkpt><trkpt lat="45.57106401755763" lon="8.23176128150641"><ele>252.0</ele><time>2026-04-10T13:31:03Z</time></trkpt><trkpt lat="45.57112807747854" lon="8.231727801921656"><ele>252.0</ele><time>2026-04-10T13:31:04Z</time></trkpt><trkpt lat="45.57124869214505" lon="8.231657022736654"><ele>252.0</ele><time>2026-04-10T13:31:06Z</time></trkpt><trkpt lat="45.571347309237524" lon="8.231585912133147"><ele>252.0</ele><time>2026-04-10T13:31:08Z</time></trkpt><trkpt lat="45.57144712446971" lon="8.231536390292968"><ele>252.0</ele><time>2026-04-10T13:31:10Z</time></trkpt><trkpt lat="45.57156422876868" lon="8.231524404570926"><ele>253.6</ele><time>2026-04-10T13:31:12Z</time></trkpt><trkpt lat="45.57168128213609" lon="8.231502515281147"><ele>255.2</ele><time>2026-04-10T13:31:14Z</time></trkpt><trkpt lat="45.57179996293637" lon="8.231533494701685"><ele>256.8</ele><time>2026-04-10T13:31:16Z</time></trkpt><trkpt lat="45.571897324485874" lon="8.23158260528615"><ele>258.4</ele><time>2026-04-10T13:31:18Z</time></trkpt><trkpt lat="45.57199588143445" lon="8.231612347751543"><ele>260.0</ele><time>2026-04-10T13:31:20Z</time></trkpt><trkpt lat="45.572051950058786" lon="8.231660583180114"><ele>259.83333333333337</ele><time>2026-04-10T13:31:23Z</time></trkpt><trkpt lat="45.572133121332904" lon="8.231610048760103"><ele>259.6666666666667</ele><time>2026-04-10T13:32:11.999Z</time></trkpt><trkpt lat="45.5721043004451" lon="8.231505981937124"><ele>259.5</ele><time>2026-04-10T13:33:20Z</time></trkpt><trkpt lat="45.57212721617902" lon="8.23140695566344"><ele>259.3333333333333</ele><time>2026-04-10T13:33:24Z</time></trkpt><trkpt lat="45.572126002324765" lon="8.231287810887471"><ele>259.16666666666663</ele><time>2026-04-10T13:33:28Z</time></trkpt><trkpt lat="45.57207476317963" lon="8.231220572133278"><ele>259.0</ele><time>2026-04-10T13:33:31Z</time></trkpt><trkpt lat="45.572001888524156" lon="8.231117635456476"><ele>258.3333333333333</ele><time>2026-04-10T13:33:33Z</time></trkpt><trkpt lat="45.5719717316063" lon="8.230993803431522"><ele>257.66666666666663</ele><time>2026-04-10T13:33:36Z</time></trkpt><trkpt lat="45.571928953517016" lon="8.230908953273746"><ele>257.0</ele><time>2026-04-10T13:33:38Z</time></trkpt><trkpt lat="45.57186962094822" lon="8.230831750880116"><ele>256.3333333333333</ele><time>2026-04-10T13:33:40Z</time></trkpt><trkpt lat="45.57177882498104" lon="8.230709591581757"><ele>255.66666666666666</ele><time>2026-04-10T13:33:42Z</time></trkpt><trkpt lat="45.571730392857596" lon="8.230623904519986"><ele>255.0</ele><time>2026-04-10T13:33:43Z</time></trkpt><trkpt lat="45.57168757708442" lon="8.230533460160895"><ele>254.16666666666666</ele><time>2026-04-10T13:33:44Z</time></trkpt><trkpt lat="45.57163152509261" lon="8.23044727926924"><ele>253.33333333333331</ele><time>2026-04-10T13:33:45Z</time></trkpt><trkpt lat="45.57157740554664" lon="8.230359752011884"><ele>252.5</ele><time>2026-04-10T13:33:46Z</time></trkpt><trkpt lat="45.5715325363289" lon="8.230280244903355"><ele>251.66666666666666</ele><time>2026-04-10T13:33:47Z</time></trkpt><trkpt lat="45.571484687874026" lon="8.230195648207733"><ele>250.83333333333331</ele><time>2026-04-10T13:33:48Z</time></trkpt><trkpt lat="45.57146073450416" lon="8.230101284034138"><ele>250.0</ele><time>2026-04-10T13:33:49Z</time></trkpt><trkpt lat="45.57144964790197" lon="8.229985137011797"><ele>249.99999999999997</ele><time>2026-04-10T13:33:50Z</time></trkpt><trkpt lat="45.571448122178595" lon="8.229877907396016"><ele>250.0</ele><time>2026-04-10T13:33:51Z</time></trkpt><trkpt lat="45.571425346876175" lon="8.22976670193005"><ele>250.0</ele><time>2026-04-10T13:33:53Z</time></trkpt><trkpt lat="45.57144476032241" lon="8.229637167460657"><ele>250.0</ele><time>2026-04-10T13:34:19.999Z</time></trkpt><trkpt lat="45.571531939731074" lon="8.229641794523433"><ele>249.99999999999997</ele><time>2026-04-10T13:37:16Z</time></trkpt><trkpt lat="45.57160305487718" lon="8.229637226226718"><ele>250.0</ele><time>2026-04-10T13:37:20Z</time></trkpt><trkpt lat="45.571665985579905" lon="8.229613371911896"><ele>249.83333333333331</ele><time>2026-04-10T13:37:24Z</time></trkpt><trkpt lat="45.57173062311054" lon="8.229562272972593"><ele>249.66666666666666</ele><time>2026-04-10T13:37:28Z</time></trkpt><trkpt lat="45.57180732747105" lon="8.229488490314711"><ele>249.5</ele><time>2026-04-10T13:37:32Z</time></trkpt><trkpt lat="45.5718771544009" lon="8.22944573160505"><ele>249.33333333333331</ele><time>2026-04-10T13:37:34Z</time></trkpt><trkpt lat="45.571931038152904" lon="8.229387765745205"><ele>249.16666666666666</ele><time>2026-04-10T13:37:36Z</time></trkpt><trkpt lat="45.572003485448214" lon="8.229294525846857"><ele>249.0</ele><time>2026-04-10T13:37:38Z</time></trkpt><trkpt lat="45.572058281491685" lon="8.229197553249753"><ele>249.0</ele><time>2026-04-10T13:37:40Z</time></trkpt><trkpt lat="45.57210263944355" lon="8.229104441183267"><ele>248.99999999999997</ele><time>2026-04-10T13:37:42Z</time></trkpt><trkpt lat="45.57215812728405" lon="8.228997704086561"><ele>248.99999999999997</ele><time>2026-04-10T13:37:44Z</time></trkpt><trkpt lat="45.57221983979387" lon="8.22890392880262"><ele>249.0</ele><time>2026-04-10T13:37:46Z</time></trkpt><trkpt lat="45.57228847729757" lon="8.228799989066662"><ele>249.0</ele><time>2026-04-10T13:37:48Z</time></trkpt><trkpt lat="45.572370696030944" lon="8.228713429424479"><ele>247.39999999999998</ele><time>2026-04-10T13:37:50Z</time></trkpt><trkpt lat="45.572464150533456" lon="8.228671542978592"><ele>245.79999999999998</ele><time>2026-04-10T13:37:52Z</time></trkpt><trkpt lat="45.57255428154473" lon="8.228649997210981"><ele>244.20000000000002</ele><time>2026-04-10T13:37:54Z</time></trkpt><trkpt lat="45.5726388776769" lon="8.228613072272703"><ele>242.60000000000002</ele><time>2026-04-10T13:37:56Z</time></trkpt><trkpt lat="45.57272247403727" lon="8.228544204104566"><ele>241.0</ele><time>2026-04-10T13:37:58Z</time></trkpt><trkpt lat="45.57280678552521" lon="8.228482422564381"><ele>241.83333333333331</ele><time>2026-04-10T13:38:00Z</time></trkpt><trkpt lat="45.572890414722714" lon="8.228427716144068"><ele>242.66666666666666</ele><time>2026-04-10T13:38:02Z</time></trkpt><trkpt lat="45.5729366577495" lon="8.228366625897822"><ele>243.5</ele><time>2026-04-10T13:38:08Z</time></trkpt><trkpt lat="45.572999819614864" lon="8.228328043085238"><ele>244.33333333333331</ele><time>2026-04-10T13:38:14.999Z</time></trkpt><trkpt lat="45.5730697443367" lon="8.228281335473596"><ele>245.16666666666666</ele><time>2026-04-10T13:38:17.999Z</time></trkpt><trkpt lat="45.57312815568398" lon="8.228221223022098"><ele>246.0</ele><time>2026-04-10T13:38:21.999Z</time></trkpt><trkpt lat="45.57319717244594" lon="8.22815903019881"><ele>245.42857142857144</ele><time>2026-04-10T13:38:25.999Z</time></trkpt><trkpt lat="45.573246906707446" lon="8.22807484581807"><ele>244.85714285714286</ele><time>2026-04-10T13:38:29.999Z</time></trkpt><trkpt lat="45.573295472594175" lon="8.228008765040208"><ele>244.28571428571428</ele><time>2026-04-10T13:38:33.999Z</time></trkpt><trkpt lat="45.573353388136276" lon="8.227953132805393"><ele>243.71428571428572</ele><time>2026-04-10T13:38:37.999Z</time></trkpt><trkpt lat="45.57341132182071" lon="8.227915403901628"><ele>243.1428571428571</ele><time>2026-04-10T13:38:42.999Z</time></trkpt><trkpt lat="45.57346856876066" lon="8.227857048243663"><ele>242.57142857142856</ele><time>2026-04-10T13:38:47.999Z</time></trkpt><trkpt lat="45.57352890919069" lon="8.227797669708815"><ele>242.0</ele><time>2026-04-10T13:38:54.999Z</time></trkpt><trkpt lat="45.573585255367824" lon="8.227741306017789"><ele>242.00000000000003</ele><time>2026-04-10T13:39:01.999Z</time></trkpt><trkpt lat="45.57364582642768" lon="8.227679505169215"><ele>242.0</ele><time>2026-04-10T13:39:06.999Z</time></trkpt><trkpt lat="45.57370882509014" lon="8.227618623206292"><ele>242.0</ele><time>2026-04-10T13:39:10.999Z</time></trkpt><trkpt lat="45.57376037799372" lon="8.227563939641435"><ele>242.0</ele><time>2026-04-10T13:39:13.999Z</time></trkpt><trkpt lat="45.57381055398275" lon="8.227481082624008"><ele>242.00000000000003</ele><time>2026-04-10T13:39:17.999Z</time></trkpt><trkpt lat="45.57391120604679" lon="8.227393807287815"><ele>242.0</ele><time>2026-04-10T13:39:21Z</time></trkpt><trkpt lat="45.57401588295252" lon="8.227354795720096"><ele>241.83333333333334</ele><time>2026-04-10T13:39:23Z</time></trkpt><trkpt lat="45.574079395309" lon="8.227341567698728"><ele>241.66666666666669</ele><time>2026-04-10T13:39:24Z</time></trkpt><trkpt lat="45.574145559670555" lon="8.227331208087492"><ele>241.5</ele><time>2026-04-10T13:39:25Z</time></trkpt><trkpt lat="45.57424657959143" lon="8.227232654243132"><ele>241.33333333333331</ele><time>2026-04-10T13:39:27Z</time></trkpt><trkpt lat="45.57429079860399" lon="8.227146311607685"><ele>241.16666666666666</ele><time>2026-04-10T13:39:28Z</time></trkpt><trkpt lat="45.57435142835098" lon="8.227060205832956"><ele>241.0</ele><time>2026-04-10T13:39:29Z</time></trkpt><trkpt lat="45.5744142380915" lon="8.22698307118409"><ele>240.99999999999997</ele><time>2026-04-10T13:39:30Z</time></trkpt><trkpt lat="45.574456298544284" lon="8.226889633182289"><ele>241.0</ele><time>2026-04-10T13:39:31Z</time></trkpt><trkpt lat="45.57447409868777" lon="8.226799976164244"><ele>241.0</ele><time>2026-04-10T13:39:32Z</time></trkpt><trkpt lat="45.574480393721366" lon="8.22668797998674"><ele>241.0</ele><time>2026-04-10T13:39:33Z</time></trkpt><trkpt lat="45.57451827882793" lon="8.22660276734998"><ele>240.99999999999997</ele><time>2026-04-10T13:39:34Z</time></trkpt><trkpt lat="45.57457878598703" lon="8.226523636733004"><ele>241.0</ele><time>2026-04-10T13:39:35Z</time></trkpt><trkpt lat="45.57464334690362" lon="8.226432596101274"><ele>240.85714285714286</ele><time>2026-04-10T13:39:36Z</time></trkpt><trkpt lat="45.57469540671083" lon="8.22635578076261"><ele>240.71428571428572</ele><time>2026-04-10T13:39:38Z</time></trkpt><trkpt lat="45.574740321134975" lon="8.226273750130579"><ele>240.57142857142858</ele><time>2026-04-10T13:39:41Z</time></trkpt><trkpt lat="45.574778272173276" lon="8.226182441364159"><ele>240.42857142857144</ele><time>2026-04-10T13:39:46Z</time></trkpt><trkpt lat="45.57484693072474" lon="8.226153717881765"><ele>240.28571428571428</ele><time>2026-04-10T13:39:50Z</time></trkpt><trkpt lat="45.574936205795446" lon="8.22614966926666"><ele>240.14285714285717</ele><time>2026-04-10T13:39:53Z</time></trkpt><trkpt lat="45.57500118467356" lon="8.226161551581173"><ele>240.0</ele><time>2026-04-10T13:39:56Z</time></trkpt><trkpt lat="45.57509225632904" lon="8.226087122909027"><ele>240.0</ele><time>2026-04-10T13:40:00Z</time></trkpt><trkpt lat="45.5751833336422" lon="8.226040118514039"><ele>240.0</ele><time>2026-04-10T13:40:02Z</time></trkpt><trkpt lat="45.57527305217233" lon="8.226006865855524"><ele>240.0</ele><time>2026-04-10T13:40:03Z</time></trkpt><trkpt lat="45.57534545943524" lon="8.22600572473147"><ele>240.0</ele><time>2026-04-10T13:40:04Z</time></trkpt><trkpt lat="45.57539805484715" lon="8.225870169522109"><ele>240.0</ele><time>2026-04-10T13:40:06Z</time></trkpt><trkpt lat="45.57541167862593" lon="8.225781071300595"><ele>240.0</ele><time>2026-04-10T13:40:07Z</time></trkpt><trkpt lat="45.575445515831426" lon="8.225694725953467"><ele>240.4</ele><time>2026-04-10T13:40:08Z</time></trkpt><trkpt lat="45.57548963035805" lon="8.225595629159692"><ele>240.8</ele><time>2026-04-10T13:40:09Z</time></trkpt><trkpt lat="45.575533139279635" lon="8.225506454579072"><ele>241.2</ele><time>2026-04-10T13:40:10Z</time></trkpt><trkpt lat="45.57560736923572" lon="8.22540088567279"><ele>241.6</ele><time>2026-04-10T13:40:12Z</time></trkpt><trkpt lat="45.5756636411547" lon="8.225334935214994"><ele>242.0</ele><time>2026-04-10T13:40:13Z</time></trkpt><trkpt lat="45.575755039652186" lon="8.225227555001974"><ele>242.00000000000003</ele><time>2026-04-10T13:40:13.999Z</time></trkpt><trkpt lat="45.575827220242516" lon="8.225140868391536"><ele>242.0</ele><time>2026-04-10T13:40:14.999Z</time></trkpt><trkpt lat="45.57590449112689" lon="8.225070519928986"><ele>242.0</ele><time>2026-04-10T13:40:15.999Z</time></trkpt><trkpt lat="45.575965053679774" lon="8.225154896009668"><ele>242.0</ele><time>2026-04-10T13:40:17.999Z</time></trkpt><trkpt lat="45.57602362909689" lon="8.225224044847897"><ele>242.00000000000003</ele><time>2026-04-10T13:40:18.999Z</time></trkpt><trkpt lat="45.57608962541354" lon="8.225257512874885"><ele>242.0</ele><time>2026-04-10T13:40:19.999Z</time></trkpt><trkpt lat="45.576139793644316" lon="8.225165989766904"><ele>242.00000000000003</ele><time>2026-04-10T13:40:21.999Z</time></trkpt><trkpt lat="45.5761022425342" lon="8.225066904051669"><ele>242.0</ele><time>2026-04-10T13:40:29.999Z</time></trkpt><trkpt lat="45.57611418463073" lon="8.224972050590418"><ele>242.0</ele><time>2026-04-10T13:40:33.999Z</time></trkpt><trkpt lat="45.57615038315362" lon="8.224857874518255"><ele>242.0</ele><time>2026-04-10T13:40:36.999Z</time></trkpt><trkpt lat="45.57614719117099" lon="8.224738408082676"><ele>242.00000000000003</ele><time>2026-04-10T13:40:39.999Z</time></trkpt><trkpt lat="45.57619611548194" lon="8.224658055803369"><ele>242.0</ele><time>2026-04-10T13:40:44.999Z</time></trkpt><trkpt lat="45.57625558581412" lon="8.224628127961298"><ele>242.39999999999998</ele><time>2026-04-10T13:40:47.999Z</time></trkpt><trkpt lat="45.576335011943534" lon="8.224611707981317"><ele>242.79999999999998</ele><time>2026-04-10T13:40:50.999Z</time></trkpt><trkpt lat="45.57640506452977" lon="8.22455385741165"><ele>243.2</ele><time>2026-04-10T13:40:52.999Z</time></trkpt><trkpt lat="45.57650472324985" lon="8.22446779161904"><ele>243.6</ele><time>2026-04-10T13:40:54.999Z</time></trkpt><trkpt lat="45.57662514544814" lon="8.224410315071326"><ele>244.0</ele><time>2026-04-10T13:40:56.999Z</time></trkpt><trkpt lat="45.576687197973555" lon="8.224387636995003"><ele>243.99999999999997</ele><time>2026-04-10T13:40:57.999Z</time></trkpt><trkpt lat="45.57675989447033" lon="8.224360940517819"><ele>244.0</ele><time>2026-04-10T13:40:59.999Z</time></trkpt><trkpt lat="45.57684963608955" lon="8.224363198867476"><ele>244.0</ele><time>2026-04-10T13:41:02.999Z</time></trkpt><trkpt lat="45.57692196795844" lon="8.224395933250015"><ele>244.0</ele><time>2026-04-10T13:41:04.999Z</time></trkpt><trkpt lat="45.577002072464175" lon="8.224439685376193"><ele>243.99999999999997</ele><time>2026-04-10T13:41:06.999Z</time></trkpt><trkpt lat="45.577089755085886" lon="8.224461349849276"><ele>244.0</ele><time>2026-04-10T13:41:08.999Z</time></trkpt><trkpt lat="45.57716852287737" lon="8.224407053421247"><ele>244.66666666666666</ele><time>2026-04-10T13:41:11.999Z</time></trkpt><trkpt lat="45.57722770359119" lon="8.224326691109887"><ele>245.33333333333331</ele><time>2026-04-10T13:41:14.999Z</time></trkpt><trkpt lat="45.57730344120326" lon="8.224215561756315"><ele>246.0</ele><time>2026-04-10T13:41:16.999Z</time></trkpt><trkpt lat="45.57737973041952" lon="8.224119596267077"><ele>246.66666666666669</ele><time>2026-04-10T13:41:18.999Z</time></trkpt><trkpt lat="45.57744104649997" lon="8.22406920704658"><ele>247.33333333333334</ele><time>2026-04-10T13:41:21.999Z</time></trkpt><trkpt lat="45.577500489632456" lon="8.224007052389624"><ele>248.0</ele><time>2026-04-10T13:41:24.999Z</time></trkpt><trkpt lat="45.57755548530011" lon="8.223952200326906"><ele>248.0</ele><time>2026-04-10T13:41:27Z</time></trkpt><trkpt lat="45.57763338978866" lon="8.22390109972553"><ele>248.0</ele><time>2026-04-10T13:41:29Z</time></trkpt><trkpt lat="45.577725147110584" lon="8.223843488225294"><ele>248.0</ele><time>2026-04-10T13:41:31Z</time></trkpt><trkpt lat="45.577819833872496" lon="8.223783576274574"><ele>248.0</ele><time>2026-04-10T13:41:33Z</time></trkpt><trkpt lat="45.57790778444034" lon="8.223760044753757"><ele>248.0</ele><time>2026-04-10T13:41:35Z</time></trkpt><trkpt lat="45.577991590897504" lon="8.223725093785072"><ele>249.00000000000003</ele><time>2026-04-10T13:41:37Z</time></trkpt><trkpt lat="45.578082548441266" lon="8.22369109569442"><ele>250.0</ele><time>2026-04-10T13:41:39Z</time></trkpt><trkpt lat="45.57818658552519" lon="8.22358685738597"><ele>251.0</ele><time>2026-04-10T13:41:41Z</time></trkpt><trkpt lat="45.578242368708175" lon="8.223544291814141"><ele>252.0</ele><time>2026-04-10T13:41:42Z</time></trkpt><trkpt lat="45.578295852194934" lon="8.223480588828355"><ele>253.00000000000003</ele><time>2026-04-10T13:41:43Z</time></trkpt><trkpt lat="45.57834264342258" lon="8.223388702303868"><ele>254.0</ele><time>2026-04-10T13:41:44Z</time></trkpt><trkpt lat="45.578372831672674" lon="8.223292572697792"><ele>254.0</ele><time>2026-04-10T13:41:45Z</time></trkpt><trkpt lat="45.57840546240452" lon="8.223179874536834"><ele>253.99999999999997</ele><time>2026-04-10T13:41:46Z</time></trkpt><trkpt lat="45.57844095794334" lon="8.223060426161016"><ele>253.99999999999997</ele><time>2026-04-10T13:41:47Z</time></trkpt><trkpt lat="45.57848993754354" lon="8.222925990394911"><ele>254.0</ele><time>2026-04-10T13:41:48Z</time></trkpt><trkpt lat="45.57851037584349" lon="8.222803253410278"><ele>254.0</ele><time>2026-04-10T13:41:49Z</time></trkpt><trkpt lat="45.57857265402393" lon="8.222657684712782"><ele>253.83333333333334</ele><time>2026-04-10T13:41:51Z</time></trkpt><trkpt lat="45.5786305253012" lon="8.22259802162307"><ele>253.66666666666669</ele><time>2026-04-10T13:41:52Z</time></trkpt><trkpt lat="45.57871283746873" lon="8.222558167421186"><ele>253.5</ele><time>2026-04-10T13:41:53Z</time></trkpt><trkpt lat="45.57878787648893" lon="8.22254112671214"><ele>253.33333333333331</ele><time>2026-04-10T13:41:54Z</time></trkpt><trkpt lat="45.57886680221743" lon="8.22253040909704"><ele>253.16666666666666</ele><time>2026-04-10T13:41:55Z</time></trkpt><trkpt lat="45.57894153016931" lon="8.222553353014439"><ele>253.0</ele><time>2026-04-10T13:41:56Z</time></trkpt><trkpt lat="45.57901914281687" lon="8.22261064294168"><ele>252.99999999999997</ele><time>2026-04-10T13:41:57Z</time></trkpt><trkpt lat="45.57910238989965" lon="8.222664125820563"><ele>253.0</ele><time>2026-04-10T13:41:58Z</time></trkpt><trkpt lat="45.57920021385875" lon="8.222705068776463"><ele>253.0</ele><time>2026-04-10T13:41:59Z</time></trkpt><trkpt lat="45.579286527828785" lon="8.222712096517007"><ele>253.0</ele><time>2026-04-10T13:42:00Z</time></trkpt><trkpt lat="45.57936899677085" lon="8.222705578864412"><ele>252.99999999999997</ele><time>2026-04-10T13:42:01Z</time></trkpt><trkpt lat="45.57945388758649" lon="8.222702541067006"><ele>253.0</ele><time>2026-04-10T13:42:02Z</time></trkpt><trkpt lat="45.579541507915785" lon="8.222675462055726"><ele>253.16666666666666</ele><time>2026-04-10T13:42:03Z</time></trkpt><trkpt lat="45.57962730868871" lon="8.22263531289732"><ele>253.33333333333331</ele><time>2026-04-10T13:42:04Z</time></trkpt><trkpt lat="45.57970553282961" lon="8.222586643120994"><ele>253.5</ele><time>2026-04-10T13:42:05Z</time></trkpt><trkpt lat="45.5797819503408" lon="8.22255209066108"><ele>253.66666666666669</ele><time>2026-04-10T13:42:06Z</time></trkpt><trkpt lat="45.5798467527658" lon="8.222534280762313"><ele>253.83333333333334</ele><time>2026-04-10T13:42:07Z</time></trkpt><trkpt lat="45.57991011962766" lon="8.222513494610974"><ele>254.0</ele><time>2026-04-10T13:42:08Z</time></trkpt><trkpt lat="45.57997875787763" lon="8.222485127019752"><ele>254.00000000000003</ele><time>2026-04-10T13:42:09Z</time></trkpt><trkpt lat="45.58005796592182" lon="8.222471630830157"><ele>254.0</ele><time>2026-04-10T13:42:10Z</time></trkpt><trkpt lat="45.580141802821984" lon="8.222447925568922"><ele>254.0</ele><time>2026-04-10T13:42:11Z</time></trkpt><trkpt lat="45.58021668922165" lon="8.222389822100231"><ele>254.0</ele><time>2026-04-10T13:42:12Z</time></trkpt><trkpt lat="45.58027137037487" lon="8.222325765584511"><ele>254.00000000000003</ele><time>2026-04-10T13:42:13Z</time></trkpt><trkpt lat="45.580312432150116" lon="8.222242113096744"><ele>254.0</ele><time>2026-04-10T13:42:14Z</time></trkpt><trkpt lat="45.580331275045495" lon="8.222129705851623"><ele>253.33333333333334</ele><time>2026-04-10T13:42:15Z</time></trkpt><trkpt lat="45.5803384525743" lon="8.222010286620312"><ele>252.66666666666669</ele><time>2026-04-10T13:42:16Z</time></trkpt><trkpt lat="45.5803334022926" lon="8.221888362197365"><ele>252.0</ele><time>2026-04-10T13:42:16.999Z</time></trkpt><trkpt lat="45.58032515006359" lon="8.22178501772153"><ele>251.33333333333331</ele><time>2026-04-10T13:42:17.999Z</time></trkpt><trkpt lat="45.58032830878145" lon="8.22168627839603"><ele>250.66666666666666</ele><time>2026-04-10T13:42:40.999Z</time></trkpt><trkpt lat="45.580393882160315" lon="8.221650192291316"><ele>250.0</ele><time>2026-04-10T13:44:36.999Z</time></trkpt><trkpt lat="45.58046482967055" lon="8.221545121731202"><ele>250.66666666666666</ele><time>2026-04-10T13:44:38.999Z</time></trkpt><trkpt lat="45.580519248952704" lon="8.221469131800083"><ele>251.33333333333331</ele><time>2026-04-10T13:44:40.999Z</time></trkpt><trkpt lat="45.58062308992433" lon="8.221384713946728"><ele>252.0</ele><time>2026-04-10T13:44:42.999Z</time></trkpt><trkpt lat="45.58068487277363" lon="8.221328405995969"><ele>252.66666666666669</ele><time>2026-04-10T13:44:43.999Z</time></trkpt><trkpt lat="45.58075319254051" lon="8.2212939891847"><ele>253.33333333333334</ele><time>2026-04-10T13:44:44.999Z</time></trkpt><trkpt lat="45.58082911158859" lon="8.221262978832437"><ele>254.0</ele><time>2026-04-10T13:44:45.999Z</time></trkpt><trkpt lat="45.58091232030685" lon="8.221226735512323"><ele>254.0</ele><time>2026-04-10T13:44:46.999Z</time></trkpt><trkpt lat="45.58100007566267" lon="8.221193887295998"><ele>253.99999999999997</ele><time>2026-04-10T13:44:47.999Z</time></trkpt><trkpt lat="45.581087509388944" lon="8.221169737569806"><ele>253.99999999999997</ele><time>2026-04-10T13:44:48.999Z</time></trkpt><trkpt lat="45.581183016066525" lon="8.221132130491922"><ele>254.0</ele><time>2026-04-10T13:44:49.999Z</time></trkpt><trkpt lat="45.58127162940625" lon="8.221087555969898"><ele>254.0</ele><time>2026-04-10T13:44:50.999Z</time></trkpt><trkpt lat="45.58136418447737" lon="8.221036426592342"><ele>255.28571428571428</ele><time>2026-04-10T13:44:51.999Z</time></trkpt><trkpt lat="45.581447104132145" lon="8.22098121151385"><ele>256.57142857142856</ele><time>2026-04-10T13:44:52.999Z</time></trkpt><trkpt lat="45.581517435355664" lon="8.22093179781453"><ele>257.85714285714283</ele><time>2026-04-10T13:44:53.999Z</time></trkpt><trkpt lat="45.581580103247695" lon="8.220898802393284"><ele>259.1428571428571</ele><time>2026-04-10T13:44:54.999Z</time></trkpt><trkpt lat="45.581646989571006" lon="8.220872554539438"><ele>260.4285714285714</ele><time>2026-04-10T13:44:55.999Z</time></trkpt><trkpt lat="45.58172136474706" lon="8.220848698577727"><ele>261.7142857142857</ele><time>2026-04-10T13:44:56.999Z</time></trkpt><trkpt lat="45.581786573669085" lon="8.220853443500108"><ele>263.0</ele><time>2026-04-10T13:44:57.999Z</time></trkpt><trkpt lat="45.58185718973202" lon="8.220855711974721"><ele>263.0</ele><time>2026-04-10T13:44:58.999Z</time></trkpt><trkpt lat="45.58193570226414" lon="8.220870787637308"><ele>263.0</ele><time>2026-04-10T13:44:59.999Z</time></trkpt><trkpt lat="45.58200501485001" lon="8.220895266666863"><ele>263.0</ele><time>2026-04-10T13:45:00.999Z</time></trkpt><trkpt lat="45.58206894107315" lon="8.220940364274291"><ele>263.0</ele><time>2026-04-10T13:45:01.999Z</time></trkpt><trkpt lat="45.58212631103277" lon="8.220989206628703"><ele>263.0</ele><time>2026-04-10T13:45:02.999Z</time></trkpt><trkpt lat="45.582188451492144" lon="8.221026647492435"><ele>263.0</ele><time>2026-04-10T13:45:03.999Z</time></trkpt><trkpt lat="45.58226555305267" lon="8.221058229256208"><ele>263.0</ele><time>2026-04-10T13:45:04.999Z</time></trkpt><trkpt lat="45.58233838869206" lon="8.221099418910754"><ele>264.33333333333337</ele><time>2026-04-10T13:45:05.999Z</time></trkpt><trkpt lat="45.58241745790704" lon="8.22114418297563"><ele>265.6666666666667</ele><time>2026-04-10T13:45:06.999Z</time></trkpt><trkpt lat="45.582493835733764" lon="8.221177782785299"><ele>267.0</ele><time>2026-04-10T13:45:07.999Z</time></trkpt><trkpt lat="45.58256388270161" lon="8.221202851491162"><ele>268.3333333333333</ele><time>2026-04-10T13:45:08.999Z</time></trkpt><trkpt lat="45.582635863161386" lon="8.221206402517538"><ele>269.66666666666663</ele><time>2026-04-10T13:45:09.999Z</time></trkpt><trkpt lat="45.58276259399279" lon="8.221219765688302"><ele>271.0</ele><time>2026-04-10T13:45:11.999Z</time></trkpt><trkpt lat="45.58283733307947" lon="8.2212134074723"><ele>272.0</ele><time>2026-04-10T13:45:12.999Z</time></trkpt><trkpt lat="45.582915587454416" lon="8.221168451479432"><ele>273.0</ele><time>2026-04-10T13:45:13.999Z</time></trkpt><trkpt lat="45.58298776136464" lon="8.221125055755143"><ele>274.0</ele><time>2026-04-10T13:45:14.999Z</time></trkpt><trkpt lat="45.58305530705608" lon="8.221077540070258"><ele>275.0</ele><time>2026-04-10T13:45:15.999Z</time></trkpt><trkpt lat="45.58318417309263" lon="8.22107225293996"><ele>276.0</ele><time>2026-04-10T13:45:17.999Z</time></trkpt><trkpt lat="45.58325694123664" lon="8.221051034552783"><ele>277.0</ele><time>2026-04-10T13:45:18.999Z</time></trkpt><trkpt lat="45.58332629236027" lon="8.221034445005056"><ele>277.0</ele><time>2026-04-10T13:45:19.999Z</time></trkpt><trkpt lat="45.583415985361235" lon="8.221004048225517"><ele>277.0</ele><time>2026-04-10T13:45:20.999Z</time></trkpt><trkpt lat="45.58349337418072" lon="8.220976572854456"><ele>277.0</ele><time>2026-04-10T13:45:21.999Z</time></trkpt><trkpt lat="45.58356705938871" lon="8.220915413049426"><ele>277.0</ele><time>2026-04-10T13:45:22.999Z</time></trkpt><trkpt lat="45.58363489423564" lon="8.22084045461469"><ele>277.0</ele><time>2026-04-10T13:45:23.999Z</time></trkpt><trkpt lat="45.58371741343908" lon="8.220764629944945"><ele>277.0</ele><time>2026-04-10T13:45:24.999Z</time></trkpt><trkpt lat="45.583774390759814" lon="8.220696528642273"><ele>278.16666666666663</ele><time>2026-04-10T13:45:25.999Z</time></trkpt><trkpt lat="45.58383736002374" lon="8.22063497127372"><ele>279.3333333333333</ele><time>2026-04-10T13:45:26.999Z</time></trkpt><trkpt lat="45.58391052994387" lon="8.220570614622842"><ele>280.5</ele><time>2026-04-10T13:45:27.999Z</time></trkpt><trkpt lat="45.58397831678172" lon="8.220502337240275"><ele>281.6666666666667</ele><time>2026-04-10T13:45:28.999Z</time></trkpt><trkpt lat="45.584042249446505" lon="8.220445243698354"><ele>282.83333333333337</ele><time>2026-04-10T13:45:29.999Z</time></trkpt><trkpt lat="45.58410661760567" lon="8.220394286661673"><ele>284.0</ele><time>2026-04-10T13:45:30.999Z</time></trkpt><trkpt lat="45.584169778800394" lon="8.220361720634543"><ele>284.0</ele><time>2026-04-10T13:45:31.999Z</time></trkpt><trkpt lat="45.58429944647144" lon="8.220329586953692"><ele>284.0</ele><time>2026-04-10T13:45:33.999Z</time></trkpt><trkpt lat="45.584375278511594" lon="8.220330461200684"><ele>284.0</ele><time>2026-04-10T13:45:34.999Z</time></trkpt><trkpt lat="45.584475253359784" lon="8.220328425651955"><ele>284.0</ele><time>2026-04-10T13:45:36.998Z</time></trkpt><trkpt lat="45.584549562330174" lon="8.220327945976997"><ele>284.0</ele><time>2026-04-10T13:45:41Z</time></trkpt><trkpt lat="45.58462065732005" lon="8.220339339597341"><ele>283.8</ele><time>2026-04-10T13:46:15Z</time></trkpt><trkpt lat="45.58469406422291" lon="8.220455904652237"><ele>283.59999999999997</ele><time>2026-04-10T13:46:18Z</time></trkpt><trkpt lat="45.58480712298964" lon="8.220530316694546"><ele>283.4</ele><time>2026-04-10T13:46:20Z</time></trkpt><trkpt lat="45.584922088357395" lon="8.2206103761689"><ele>283.2</ele><time>2026-04-10T13:46:22Z</time></trkpt><trkpt lat="45.5850014089377" lon="8.22063980964435"><ele>283.0</ele><time>2026-04-10T13:46:23Z</time></trkpt><trkpt lat="45.58507210563136" lon="8.220681687581816"><ele>283.0</ele><time>2026-04-10T13:46:24Z</time></trkpt><trkpt lat="45.58515180448569" lon="8.220688096367327"><ele>283.0</ele><time>2026-04-10T13:46:25Z</time></trkpt><trkpt lat="45.585229934189414" lon="8.220711521221487"><ele>283.0</ele><time>2026-04-10T13:46:26Z</time></trkpt><trkpt lat="45.58531203469092" lon="8.220758271707544"><ele>283.0</ele><time>2026-04-10T13:46:26.999Z</time></trkpt><trkpt lat="45.585398421831314" lon="8.220770476441503"><ele>283.0</ele><time>2026-04-10T13:46:27.999Z</time></trkpt><trkpt lat="45.585479129364586" lon="8.220816839301209"><ele>283.0</ele><time>2026-04-10T13:46:28.999Z</time></trkpt><trkpt lat="45.58555049736028" lon="8.220893372968932"><ele>284.16666666666663</ele><time>2026-04-10T13:46:29.999Z</time></trkpt><trkpt lat="45.58562917865227" lon="8.220950738924728"><ele>285.3333333333333</ele><time>2026-04-10T13:46:30.999Z</time></trkpt><trkpt lat="45.585712341643415" lon="8.220985060307365"><ele>286.5</ele><time>2026-04-10T13:46:31.999Z</time></trkpt><trkpt lat="45.58578985238886" lon="8.221040412400834"><ele>287.6666666666667</ele><time>2026-04-10T13:46:32.999Z</time></trkpt><trkpt lat="45.58586931161804" lon="8.22109234412308"><ele>288.83333333333337</ele><time>2026-04-10T13:46:33.999Z</time></trkpt><trkpt lat="45.58595415804777" lon="8.221139178040268"><ele>290.0</ele><time>2026-04-10T13:46:34.999Z</time></trkpt><trkpt lat="45.5860412746281" lon="8.221192090145"><ele>290.0</ele><time>2026-04-10T13:46:35.999Z</time></trkpt><trkpt lat="45.58612314941842" lon="8.221250587109111"><ele>290.0</ele><time>2026-04-10T13:46:36.999Z</time></trkpt><trkpt lat="45.58620467790025" lon="8.22131470637958"><ele>290.0</ele><time>2026-04-10T13:46:37.999Z</time></trkpt><trkpt lat="45.58628005806837" lon="8.221378860823442"><ele>290.0</ele><time>2026-04-10T13:46:38.999Z</time></trkpt><trkpt lat="45.58635205568696" lon="8.221437125379811"><ele>290.0</ele><time>2026-04-10T13:46:39.999Z</time></trkpt><trkpt lat="45.58642393163063" lon="8.221485109601202"><ele>290.0</ele><time>2026-04-10T13:46:40.999Z</time></trkpt><trkpt lat="45.586487870555956" lon="8.221520085606059"><ele>290.2</ele><time>2026-04-10T13:46:41.999Z</time></trkpt><trkpt lat="45.586575550599534" lon="8.221553655773508"><ele>290.4</ele><time>2026-04-10T13:46:42.999Z</time></trkpt><trkpt lat="45.586673816244556" lon="8.221598329953116"><ele>290.6</ele><time>2026-04-10T13:46:43.999Z</time></trkpt><trkpt lat="45.586772614687604" lon="8.221657759449517"><ele>290.8</ele><time>2026-04-10T13:46:44.999Z</time></trkpt><trkpt lat="45.586856233739596" lon="8.221715717940063"><ele>291.0</ele><time>2026-04-10T13:46:45.999Z</time></trkpt><trkpt lat="45.58693175438161" lon="8.221755614372956"><ele>290.40000000000003</ele><time>2026-04-10T13:46:46.999Z</time></trkpt><trkpt lat="45.58707671997917" lon="8.221732388629963"><ele>289.8</ele><time>2026-04-10T13:46:48.999Z</time></trkpt><trkpt lat="45.5871804734707" lon="8.221702870318156"><ele>289.20000000000005</ele><time>2026-04-10T13:46:49.999Z</time></trkpt><trkpt lat="45.58727347384263" lon="8.221712943099327"><ele>288.6</ele><time>2026-04-10T13:46:50.999Z</time></trkpt><trkpt lat="45.58737293392883" lon="8.221740467604484"><ele>288.0</ele><time>2026-04-10T13:46:51.999Z</time></trkpt><trkpt lat="45.58745025376964" lon="8.221796496622106"><ele>288.0</ele><time>2026-04-10T13:46:52.999Z</time></trkpt><trkpt lat="45.587527167689935" lon="8.22180436644754"><ele>288.0</ele><time>2026-04-10T13:46:53.999Z</time></trkpt><trkpt lat="45.587597437227124" lon="8.221811949716763"><ele>288.0</ele><time>2026-04-10T13:46:54.999Z</time></trkpt><trkpt lat="45.58767053870873" lon="8.221776513424945"><ele>288.0</ele><time>2026-04-10T13:46:55.999Z</time></trkpt><trkpt lat="45.587745742206266" lon="8.221744291221828"><ele>288.0</ele><time>2026-04-10T13:46:56.999Z</time></trkpt><trkpt lat="45.587813922182065" lon="8.221717182216178"><ele>288.0</ele><time>2026-04-10T13:46:57.999Z</time></trkpt><trkpt lat="45.58793759829351" lon="8.22173715665465"><ele>288.14285714285717</ele><time>2026-04-10T13:46:59.999Z</time></trkpt><trkpt lat="45.58799410601155" lon="8.221807694032682"><ele>288.2857142857143</ele><time>2026-04-10T13:47:00.999Z</time></trkpt><trkpt lat="45.58804343199044" lon="8.221894394143455"><ele>288.42857142857144</ele><time>2026-04-10T13:47:01.999Z</time></trkpt><trkpt lat="45.588056667321254" lon="8.222002912480724"><ele>288.57142857142856</ele><time>2026-04-10T13:47:02.999Z</time></trkpt><trkpt lat="45.588080362148126" lon="8.222097100943033"><ele>288.7142857142857</ele><time>2026-04-10T13:47:03.999Z</time></trkpt><trkpt lat="45.58811849366568" lon="8.222189122964451"><ele>288.8571428571429</ele><time>2026-04-10T13:47:05.999Z</time></trkpt><trkpt lat="45.588168673912755" lon="8.222134578675007"><ele>289.0</ele><time>2026-04-10T13:47:21.999Z</time></trkpt><trkpt lat="45.5882310815686" lon="8.222165049547005"><ele>289.0</ele><time>2026-04-10T13:47:35.999Z</time></trkpt><trkpt lat="45.58832939741157" lon="8.222198323713144"><ele>289.0</ele><time>2026-04-10T13:47:38.998Z</time></trkpt><trkpt lat="45.58839602916362" lon="8.22220417173812"><ele>289.0</ele><time>2026-04-10T13:47:40.998Z</time></trkpt><trkpt lat="45.58845329418964" lon="8.222165565237864"><ele>289.0</ele><time>2026-04-10T13:47:42.998Z</time></trkpt><trkpt lat="45.58847603864338" lon="8.22206050935132"><ele>289.0</ele><time>2026-04-10T13:47:45Z</time></trkpt><trkpt lat="45.58847923310544" lon="8.22196279961814"><ele>289.0</ele><time>2026-04-10T13:47:47Z</time></trkpt><trkpt lat="45.58848884747661" lon="8.221835742036308"><ele>289.0</ele><time>2026-04-10T13:47:50Z</time></trkpt><trkpt lat="45.58851938235359" lon="8.221734094766221"><ele>289.0</ele><time>2026-04-10T13:47:52Z</time></trkpt><trkpt lat="45.58856353589845" lon="8.221656706432945"><ele>289.0</ele><time>2026-04-10T13:47:55Z</time></trkpt><trkpt lat="45.58862175942803" lon="8.221603023706745"><ele>289.0</ele><time>2026-04-10T13:47:57Z</time></trkpt><trkpt lat="45.588668191614175" lon="8.221523123461767"><ele>289.0</ele><time>2026-04-10T13:48:00Z</time></trkpt><trkpt lat="45.58872998451046" lon="8.221434569960186"><ele>289.0</ele><time>2026-04-10T13:48:03Z</time></trkpt><trkpt lat="45.58878544669014" lon="8.221368611229"><ele>289.0</ele><time>2026-04-10T13:48:05Z</time></trkpt><trkpt lat="45.58884025251433" lon="8.221322075559273"><ele>291.0</ele><time>2026-04-10T13:48:07Z</time></trkpt><trkpt lat="45.58889176125533" lon="8.221261294814349"><ele>293.0</ele><time>2026-04-10T13:48:16Z</time></trkpt><trkpt lat="45.5889815306003" lon="8.221249117682767"><ele>295.0</ele><time>2026-04-10T13:48:20Z</time></trkpt><trkpt lat="45.58907721381089" lon="8.221235794150974"><ele>297.0</ele><time>2026-04-10T13:48:23Z</time></trkpt><trkpt lat="45.58913506491116" lon="8.221199164874536"><ele>299.0</ele><time>2026-04-10T13:48:25Z</time></trkpt><trkpt lat="45.589213565185716" lon="8.221163195982298"><ele>301.0</ele><time>2026-04-10T13:48:27Z</time></trkpt><trkpt lat="45.589271865407504" lon="8.221117115572104"><ele>301.0</ele><time>2026-04-10T13:48:28.999Z</time></trkpt><trkpt lat="45.58933290950567" lon="8.221075494529465"><ele>301.0</ele><time>2026-04-10T13:48:30.999Z</time></trkpt><trkpt lat="45.58942241424928" lon="8.221027838669867"><ele>301.0</ele><time>2026-04-10T13:48:32.999Z</time></trkpt><trkpt lat="45.58950868463681" lon="8.22094169114973"><ele>301.0</ele><time>2026-04-10T13:48:34.999Z</time></trkpt><trkpt lat="45.589568012633244" lon="8.220905159385804"><ele>301.0</ele><time>2026-04-10T13:48:35.999Z</time></trkpt><trkpt lat="45.58962224271392" lon="8.220845640696677"><ele>301.0</ele><time>2026-04-10T13:48:36.999Z</time></trkpt><trkpt lat="45.58968868844791" lon="8.220765806097473"><ele>301.8333333333333</ele><time>2026-04-10T13:48:37.999Z</time></trkpt><trkpt lat="45.58974988935568" lon="8.220692691310273"><ele>302.66666666666663</ele><time>2026-04-10T13:48:38.999Z</time></trkpt><trkpt lat="45.589786558732584" lon="8.220595799270352"><ele>303.5</ele><time>2026-04-10T13:48:39.999Z</time></trkpt><trkpt lat="45.58983745812432" lon="8.22050485385742"><ele>304.3333333333333</ele><time>2026-04-10T13:48:40.999Z</time></trkpt><trkpt lat="45.58989404482082" lon="8.220429088185128"><ele>305.1666666666667</ele><time>2026-04-10T13:48:41.999Z</time></trkpt><trkpt lat="45.58995030275029" lon="8.220349925652398"><ele>306.0</ele><time>2026-04-10T13:48:42.999Z</time></trkpt><trkpt lat="45.59000639098796" lon="8.220261635954301"><ele>306.0</ele><time>2026-04-10T13:48:43.999Z</time></trkpt><trkpt lat="45.590045692921" lon="8.220169276354204"><ele>306.0</ele><time>2026-04-10T13:48:44.999Z</time></trkpt><trkpt lat="45.59008903442417" lon="8.220070577660582"><ele>306.0</ele><time>2026-04-10T13:48:45.999Z</time></trkpt><trkpt lat="45.59014145757024" lon="8.22000021270763"><ele>306.0</ele><time>2026-04-10T13:48:46.999Z</time></trkpt><trkpt lat="45.59023836995556" lon="8.219913568483985"><ele>306.0</ele><time>2026-04-10T13:48:48.999Z</time></trkpt><trkpt lat="45.59031158785526" lon="8.219992836420454"><ele>306.0</ele><time>2026-04-10T13:48:50.999Z</time></trkpt><trkpt lat="45.590391399778134" lon="8.220021211705507"><ele>306.8</ele><time>2026-04-10T13:48:51.999Z</time></trkpt><trkpt lat="45.59047591126151" lon="8.220052812712263"><ele>307.6</ele><time>2026-04-10T13:48:52.999Z</time></trkpt><trkpt lat="45.590544675463875" lon="8.220075309080977"><ele>308.4</ele><time>2026-04-10T13:48:53.999Z</time></trkpt><trkpt lat="45.5906331264701" lon="8.21998977309194"><ele>309.2</ele><time>2026-04-10T13:48:55.999Z</time></trkpt><trkpt lat="45.59069689847896" lon="8.219929813158934"><ele>310.0</ele><time>2026-04-10T13:48:56.999Z</time></trkpt><trkpt lat="45.590821582064734" lon="8.219876799198678"><ele>310.0</ele><time>2026-04-10T13:48:58.999Z</time></trkpt><trkpt lat="45.590888634213975" lon="8.21985786737778"><ele>310.0</ele><time>2026-04-10T13:48:59.999Z</time></trkpt><trkpt lat="45.591016429218676" lon="8.219868434559048"><ele>310.0</ele><time>2026-04-10T13:49:01.999Z</time></trkpt><trkpt lat="45.59108956224874" lon="8.219854288928689"><ele>310.0</ele><time>2026-04-10T13:49:02.999Z</time></trkpt><trkpt lat="45.591152652521544" lon="8.219843209180471"><ele>310.0</ele><time>2026-04-10T13:49:03.999Z</time></trkpt><trkpt lat="45.591227595851166" lon="8.219813580591834"><ele>310.0</ele><time>2026-04-10T13:49:05.999Z</time></trkpt><trkpt lat="45.59131906238733" lon="8.219784633572248"><ele>310.8333333333333</ele><time>2026-04-10T13:49:09.999Z</time></trkpt><trkpt lat="45.59138385800548" lon="8.219770081885247"><ele>311.66666666666663</ele><time>2026-04-10T13:49:11.999Z</time></trkpt><trkpt lat="45.59144648812463" lon="8.219740430673196"><ele>312.5</ele><time>2026-04-10T13:49:13.999Z</time></trkpt><trkpt lat="45.591524457917984" lon="8.21967331211542"><ele>313.3333333333333</ele><time>2026-04-10T13:49:15.999Z</time></trkpt><trkpt lat="45.59161913313279" lon="8.219629766330629"><ele>314.1666666666667</ele><time>2026-04-10T13:49:17.999Z</time></trkpt><trkpt lat="45.5916927641426" lon="8.219613650887847"><ele>315.0</ele><time>2026-04-10T13:49:19.999Z</time></trkpt><trkpt lat="45.5917902390978" lon="8.219635430705928"><ele>315.0</ele><time>2026-04-10T13:49:21.999Z</time></trkpt><trkpt lat="45.59191472965165" lon="8.219642300973735"><ele>315.0</ele><time>2026-04-10T13:49:23.999Z</time></trkpt><trkpt lat="45.59200695994895" lon="8.219591769042658"><ele>315.0</ele><time>2026-04-10T13:49:25.999Z</time></trkpt><trkpt lat="45.592119055139975" lon="8.219568756069805"><ele>315.0</ele><time>2026-04-10T13:49:27.999Z</time></trkpt><trkpt lat="45.592207289339264" lon="8.219575492955379"><ele>315.0</ele><time>2026-04-10T13:49:28.999Z</time></trkpt><trkpt lat="45.592267075783326" lon="8.219616576251008"><ele>315.5</ele><time>2026-04-10T13:49:29.999Z</time></trkpt><trkpt lat="45.59233395751726" lon="8.219664469658952"><ele>316.0</ele><time>2026-04-10T13:49:30.999Z</time></trkpt><trkpt lat="45.592433479040245" lon="8.219765345373775"><ele>316.5</ele><time>2026-04-10T13:49:32.999Z</time></trkpt><trkpt lat="45.59249153876165" lon="8.21981129592984"><ele>317.0</ele><time>2026-04-10T13:49:33.999Z</time></trkpt><trkpt lat="45.59255648059523" lon="8.219790821901732"><ele>317.5</ele><time>2026-04-10T13:49:35.999Z</time></trkpt><trkpt lat="45.59264136055827" lon="8.219754485816363"><ele>318.0</ele><time>2026-04-10T13:49:37.999Z</time></trkpt><trkpt lat="45.592716204127676" lon="8.219749410314794"><ele>318.0</ele><time>2026-04-10T13:49:39.999Z</time></trkpt><trkpt lat="45.59277951256963" lon="8.219765104081612"><ele>318.0</ele><time>2026-04-10T13:49:40.998Z</time></trkpt><trkpt lat="45.59285318237177" lon="8.219758984018318"><ele>318.0</ele><time>2026-04-10T13:49:41.998Z</time></trkpt><trkpt lat="45.59292019028622" lon="8.219735089680162"><ele>318.0</ele><time>2026-04-10T13:49:42.998Z</time></trkpt><trkpt lat="45.593023776259756" lon="8.21971619146319"><ele>318.0</ele><time>2026-04-10T13:49:44.998Z</time></trkpt><trkpt lat="45.593077788679054" lon="8.21963898577885"><ele>318.0</ele><time>2026-04-10T13:49:55Z</time></trkpt><trkpt lat="45.593145525396146" lon="8.219660664444582"><ele>318.6666666666667</ele><time>2026-04-10T13:50:01Z</time></trkpt><trkpt lat="45.59321246052584" lon="8.219697771386565"><ele>319.3333333333333</ele><time>2026-04-10T13:50:05Z</time></trkpt><trkpt lat="45.59327861128686" lon="8.219687630740461"><ele>320.0</ele><time>2026-04-10T13:50:08Z</time></trkpt><trkpt lat="45.59334517402293" lon="8.219705813867945"><ele>320.66666666666663</ele><time>2026-04-10T13:50:10Z</time></trkpt><trkpt lat="45.593419406086674" lon="8.219718773764427"><ele>321.3333333333333</ele><time>2026-04-10T13:50:12Z</time></trkpt><trkpt lat="45.59347808426177" lon="8.219757213160582"><ele>322.0</ele><time>2026-04-10T13:50:13Z</time></trkpt><trkpt lat="45.59359690586898" lon="8.219802205172831"><ele>322.8333333333333</ele><time>2026-04-10T13:50:15Z</time></trkpt><trkpt lat="45.593705970161736" lon="8.219830912820877"><ele>323.66666666666663</ele><time>2026-04-10T13:50:17Z</time></trkpt><trkpt lat="45.59379121968218" lon="8.21984320672602"><ele>324.5</ele><time>2026-04-10T13:50:21Z</time></trkpt><trkpt lat="45.593891492760775" lon="8.219878632686491"><ele>325.3333333333333</ele><time>2026-04-10T13:50:23Z</time></trkpt><trkpt lat="45.59395652623701" lon="8.219890656848156"><ele>326.1666666666667</ele><time>2026-04-10T13:50:25Z</time></trkpt><trkpt lat="45.59403228725965" lon="8.219885263568944"><ele>327.0</ele><time>2026-04-10T13:50:26.999Z</time></trkpt><trkpt lat="45.59411985880792" lon="8.219934603398393"><ele>327.0</ele><time>2026-04-10T13:50:28.999Z</time></trkpt><trkpt lat="45.594219206488376" lon="8.219942373908738"><ele>327.0</ele><time>2026-04-10T13:50:29.999Z</time></trkpt><trkpt lat="45.594292829115155" lon="8.219948999830489"><ele>327.0</ele><time>2026-04-10T13:50:30.999Z</time></trkpt><trkpt lat="45.594369310473034" lon="8.219970206633514"><ele>327.0</ele><time>2026-04-10T13:50:31.999Z</time></trkpt><trkpt lat="45.59444875678083" lon="8.219963780132316"><ele>327.0</ele><time>2026-04-10T13:50:32.999Z</time></trkpt><trkpt lat="45.59453023012515" lon="8.219945665421262"><ele>327.0</ele><time>2026-04-10T13:50:33.999Z</time></trkpt><trkpt lat="45.594606484696925" lon="8.219872535190747"><ele>327.6666666666667</ele><time>2026-04-10T13:50:34.999Z</time></trkpt><trkpt lat="45.5946824845366" lon="8.21977178457282"><ele>328.3333333333333</ele><time>2026-04-10T13:50:35.999Z</time></trkpt><trkpt lat="45.59474659485601" lon="8.219684018178679"><ele>329.0</ele><time>2026-04-10T13:50:36.999Z</time></trkpt><trkpt lat="45.59480014257582" lon="8.219614709400526"><ele>329.66666666666663</ele><time>2026-04-10T13:50:37.999Z</time></trkpt><trkpt lat="45.59486871935495" lon="8.219560230723323"><ele>330.3333333333333</ele><time>2026-04-10T13:50:38.999Z</time></trkpt><trkpt lat="45.59494572482628" lon="8.219498730613507"><ele>331.0</ele><time>2026-04-10T13:50:39.999Z</time></trkpt><trkpt lat="45.59502515129749" lon="8.219437456483908"><ele>331.0</ele><time>2026-04-10T13:50:40.999Z</time></trkpt><trkpt lat="45.59508138450635" lon="8.219384460265728"><ele>331.0</ele><time>2026-04-10T13:50:41.999Z</time></trkpt><trkpt lat="45.59513113077241" lon="8.21930089294857"><ele>331.0</ele><time>2026-04-10T13:50:43.999Z</time></trkpt><trkpt lat="45.59516971124867" lon="8.219215592171377"><ele>331.0</ele><time>2026-04-10T13:50:44.999Z</time></trkpt><trkpt lat="45.595222268026646" lon="8.219134039926692"><ele>331.0</ele><time>2026-04-10T13:50:45.999Z</time></trkpt><trkpt lat="45.59529208146942" lon="8.219029534330222"><ele>331.0</ele><time>2026-04-10T13:50:47.999Z</time></trkpt><trkpt lat="45.595374252703515" lon="8.218933478315064"><ele>330.5</ele><time>2026-04-10T13:50:49.999Z</time></trkpt><trkpt lat="45.5954278261856" lon="8.21887791832132"><ele>330.0</ele><time>2026-04-10T13:50:51.999Z</time></trkpt><trkpt lat="45.59549981545296" lon="8.218800304419071"><ele>329.5</ele><time>2026-04-10T13:50:54.999Z</time></trkpt><trkpt lat="45.59555831961939" lon="8.218733496194234"><ele>329.0</ele><time>2026-04-10T13:50:55.999Z</time></trkpt><trkpt lat="45.59565135509025" lon="8.218667893345147"><ele>328.5</ele><time>2026-04-10T13:50:57.999Z</time></trkpt><trkpt lat="45.59572010974262" lon="8.21858012624091"><ele>328.0</ele><time>2026-04-10T13:50:59.999Z</time></trkpt><trkpt lat="45.595800261179456" lon="8.21851645432977"><ele>328.0</ele><time>2026-04-10T13:51:01.999Z</time></trkpt><trkpt lat="45.59585318399831" lon="8.21844080226352"><ele>328.0</ele><time>2026-04-10T13:51:03.999Z</time></trkpt><trkpt lat="45.59592062289362" lon="8.218359033190762"><ele>328.0</ele><time>2026-04-10T13:51:05.999Z</time></trkpt><trkpt lat="45.59599989612836" lon="8.218301192298751"><ele>328.0</ele><time>2026-04-10T13:51:07.999Z</time></trkpt><trkpt lat="45.596080085145694" lon="8.218241728890904"><ele>328.0</ele><time>2026-04-10T13:51:09.999Z</time></trkpt><trkpt lat="45.596141168706495" lon="8.218192815482467"><ele>328.0</ele><time>2026-04-10T13:51:12.999Z</time></trkpt><trkpt lat="45.59621602276837" lon="8.218143591483887"><ele>328.66666666666663</ele><time>2026-04-10T13:51:15.999Z</time></trkpt><trkpt lat="45.596280247163094" lon="8.218095400398244"><ele>329.3333333333333</ele><time>2026-04-10T13:51:18.999Z</time></trkpt><trkpt lat="45.596365090493855" lon="8.218047543354569"><ele>330.0</ele><time>2026-04-10T13:51:20.999Z</time></trkpt><trkpt lat="45.5964229897908" lon="8.21797983894908"><ele>330.6666666666667</ele><time>2026-04-10T13:51:22.999Z</time></trkpt><trkpt lat="45.59649766966558" lon="8.21789154766392"><ele>331.33333333333337</ele><time>2026-04-10T13:51:25.999Z</time></trkpt><trkpt lat="45.596560348572474" lon="8.217798344466512"><ele>332.0</ele><time>2026-04-10T13:51:28.999Z</time></trkpt><trkpt lat="45.596610807216884" lon="8.217741407560181"><ele>332.0</ele><time>2026-04-10T13:51:30.999Z</time></trkpt><trkpt lat="45.59666154465112" lon="8.217642040965316"><ele>332.0</ele><time>2026-04-10T13:51:41.998Z</time></trkpt><trkpt lat="45.59666265450422" lon="8.217542665739519"><ele>332.0</ele><time>2026-04-10T13:51:44.998Z</time></trkpt><trkpt lat="45.59668427353551" lon="8.21739517937346"><ele>332.0</ele><time>2026-04-10T13:51:46.998Z</time></trkpt><trkpt lat="45.596678290011454" lon="8.217273886863318"><ele>332.0</ele><time>2026-04-10T13:51:48.998Z</time></trkpt><trkpt lat="45.59664125483122" lon="8.217119155952766"><ele>332.5</ele><time>2026-04-10T13:51:50.998Z</time></trkpt><trkpt lat="45.5966191340233" lon="8.216990969138191"><ele>333.0</ele><time>2026-04-10T13:51:52.998Z</time></trkpt><trkpt lat="45.596577271154544" lon="8.21688376569408"><ele>333.5</ele><time>2026-04-10T13:51:55.998Z</time></trkpt><trkpt lat="45.59653296752439" lon="8.216789122860396"><ele>334.0</ele><time>2026-04-10T13:51:57.999Z</time></trkpt><trkpt lat="45.59648477479311" lon="8.216725988237929"><ele>334.5</ele><time>2026-04-10T13:51:58.999Z</time></trkpt><trkpt lat="45.5964058272851" lon="8.216586702341518"><ele>335.0</ele><time>2026-04-10T13:52:00.999Z</time></trkpt><trkpt lat="45.596373202628136" lon="8.216506130278976"><ele>335.6666666666667</ele><time>2026-04-10T13:52:01.999Z</time></trkpt><trkpt lat="45.59636444408504" lon="8.216407580159792"><ele>336.33333333333337</ele><time>2026-04-10T13:52:02.999Z</time></trkpt><trkpt lat="45.5963628875123" lon="8.21630121973689"><ele>337.0</ele><time>2026-04-10T13:52:03.999Z</time></trkpt><trkpt lat="45.59636237256755" lon="8.216204025523348"><ele>337.6666666666667</ele><time>2026-04-10T13:52:04.999Z</time></trkpt><trkpt lat="45.59634989488761" lon="8.216061895075292"><ele>338.3333333333333</ele><time>2026-04-10T13:52:06.999Z</time></trkpt><trkpt lat="45.596362936474314" lon="8.216220351844077"><ele>339.0</ele><time>2026-04-10T13:52:14.999Z</time></trkpt><trkpt lat="45.59637369093091" lon="8.216363941611561"><ele>338.2</ele><time>2026-04-10T13:52:16.999Z</time></trkpt><trkpt lat="45.59638116919458" lon="8.216522807394005"><ele>337.4</ele><time>2026-04-10T13:52:18.999Z</time></trkpt><trkpt lat="45.596407997697526" lon="8.216605390090752"><ele>336.6</ele><time>2026-04-10T13:52:19.999Z</time></trkpt><trkpt lat="45.59648359941846" lon="8.216731489562116"><ele>335.8</ele><time>2026-04-10T13:52:21.999Z</time></trkpt><trkpt lat="45.59655774110157" lon="8.216851959521735"><ele>335.0</ele><time>2026-04-10T13:52:23.999Z</time></trkpt><trkpt lat="45.59659876314305" lon="8.216974857811868"><ele>335.0</ele><time>2026-04-10T13:52:25.999Z</time></trkpt><trkpt lat="45.59653710023463" lon="8.216873996439231"><ele>335.0</ele><time>2026-04-10T13:53:04.999Z</time></trkpt><trkpt lat="45.596476041444674" lon="8.216768655813869"><ele>335.0</ele><time>2026-04-10T13:53:06.999Z</time></trkpt><trkpt lat="45.59641218746779" lon="8.216638318975416"><ele>335.0</ele><time>2026-04-10T13:53:08.999Z</time></trkpt><trkpt lat="45.59639434486712" lon="8.216550240233282"><ele>335.0</ele><time>2026-04-10T13:53:09.999Z</time></trkpt><trkpt lat="45.59637273413629" lon="8.216405284764116"><ele>335.8</ele><time>2026-04-10T13:53:11.999Z</time></trkpt><trkpt lat="45.5963667259552" lon="8.216238770805647"><ele>336.6</ele><time>2026-04-10T13:53:13.999Z</time></trkpt><trkpt lat="45.5963440510539" lon="8.216087786887803"><ele>337.4</ele><time>2026-04-10T13:53:15.999Z</time></trkpt><trkpt lat="45.596306243296965" lon="8.215972157591342"><ele>338.2</ele><time>2026-04-10T13:53:17.999Z</time></trkpt><trkpt lat="45.596303787242704" lon="8.215796943651824"><ele>339.0</ele><time>2026-04-10T13:53:19.999Z</time></trkpt><trkpt lat="45.59630143686704" lon="8.215700007925777"><ele>339.5</ele><time>2026-04-10T13:53:20.999Z</time></trkpt><trkpt lat="45.59630001837519" lon="8.21560688432613"><ele>340.0</ele><time>2026-04-10T13:53:21.999Z</time></trkpt><trkpt lat="45.59630073139706" lon="8.215427612718406"><ele>340.5</ele><time>2026-04-10T13:53:23.999Z</time></trkpt><trkpt lat="45.59631011073694" lon="8.215247013403943"><ele>341.0</ele><time>2026-04-10T13:53:25.999Z</time></trkpt><trkpt lat="45.596312329762945" lon="8.215153215854823"><ele>341.5</ele><time>2026-04-10T13:53:26.999Z</time></trkpt><trkpt lat="45.59630880796934" lon="8.215062173153543"><ele>342.0</ele><time>2026-04-10T13:53:27.999Z</time></trkpt><trkpt lat="45.596292771601114" lon="8.214897066463934"><ele>342.8</ele><time>2026-04-10T13:53:29.998Z</time></trkpt><trkpt lat="45.59625547860142" lon="8.21475658922757"><ele>343.6</ele><time>2026-04-10T13:53:31.998Z</time></trkpt><trkpt lat="45.596203895931744" lon="8.214665207825057"><ele>344.40000000000003</ele><time>2026-04-10T13:53:33.998Z</time></trkpt><trkpt lat="45.596109054375184" lon="8.214617407676936"><ele>345.20000000000005</ele><time>2026-04-10T13:53:35.998Z</time></trkpt><trkpt lat="45.59607615701557" lon="8.214510956992772"><ele>346.0</ele><time>2026-04-10T13:54:06.999Z</time></trkpt><trkpt lat="45.596151212701464" lon="8.214425208017321"><ele>346.0</ele><time>2026-04-10T13:54:08.999Z</time></trkpt><trkpt lat="45.59620821357315" lon="8.214301810880757"><ele>346.0</ele><time>2026-04-10T13:54:10.999Z</time></trkpt><trkpt lat="45.59627293413154" lon="8.214191547398025"><ele>346.0</ele><time>2026-04-10T13:54:12.999Z</time></trkpt><trkpt lat="45.59633005165369" lon="8.214083643320677"><ele>346.0</ele><time>2026-04-10T13:54:14.999Z</time></trkpt><trkpt lat="45.59638532364226" lon="8.213981894836577"><ele>346.0</ele><time>2026-04-10T13:54:16.999Z</time></trkpt><trkpt lat="45.59643645093633" lon="8.213899996770204"><ele>347.0</ele><time>2026-04-10T13:54:18.999Z</time></trkpt><trkpt lat="45.59650819306262" lon="8.213840101026314"><ele>348.0</ele><time>2026-04-10T13:54:20.999Z</time></trkpt><trkpt lat="45.59658442691544" lon="8.21381246186932"><ele>349.0</ele><time>2026-04-10T13:54:22.999Z</time></trkpt><trkpt lat="45.59667786944658" lon="8.213794803543696"><ele>350.0</ele><time>2026-04-10T13:54:24.999Z</time></trkpt><trkpt lat="45.596772566706804" lon="8.213754002105011"><ele>351.0</ele><time>2026-04-10T13:54:26.999Z</time></trkpt><trkpt lat="45.59687408706753" lon="8.21374331140703"><ele>351.0</ele><time>2026-04-10T13:54:28.999Z</time></trkpt><trkpt lat="45.59698024992994" lon="8.21374349989821"><ele>351.0</ele><time>2026-04-10T13:54:30.999Z</time></trkpt><trkpt lat="45.597079373411965" lon="8.213686490196373"><ele>351.0</ele><time>2026-04-10T13:54:32.999Z</time></trkpt><trkpt lat="45.59716280762264" lon="8.213581524876316"><ele>351.0</ele><time>2026-04-10T13:54:34.999Z</time></trkpt><trkpt lat="45.597247926741794" lon="8.213478055125544"><ele>351.0</ele><time>2026-04-10T13:54:36.999Z</time></trkpt><trkpt lat="45.597331505560874" lon="8.213371106127267"><ele>351.6</ele><time>2026-04-10T13:54:38.999Z</time></trkpt><trkpt lat="45.597416930558765" lon="8.213258875510205"><ele>352.20000000000005</ele><time>2026-04-10T13:54:40.999Z</time></trkpt><trkpt lat="45.59746495418518" lon="8.21319890762331"><ele>352.79999999999995</ele><time>2026-04-10T13:54:41.999Z</time></trkpt><trkpt lat="45.59754902217471" lon="8.213083736727514"><ele>353.4</ele><time>2026-04-10T13:54:43.999Z</time></trkpt><trkpt lat="45.597612608055" lon="8.212935550720104"><ele>354.0</ele><time>2026-04-10T13:54:45.999Z</time></trkpt><trkpt lat="45.59765649800405" lon="8.212772603251043"><ele>355.1666666666667</ele><time>2026-04-10T13:54:47.999Z</time></trkpt><trkpt lat="45.597683892432556" lon="8.212689861344037"><ele>356.3333333333333</ele><time>2026-04-10T13:54:48.999Z</time></trkpt><trkpt lat="45.59771328322439" lon="8.212606653205244"><ele>357.5</ele><time>2026-04-10T13:54:49.999Z</time></trkpt><trkpt lat="45.59775185414479" lon="8.21247609280061"><ele>358.66666666666663</ele><time>2026-04-10T13:54:51.999Z</time></trkpt><trkpt lat="45.59778457794693" lon="8.212358279074369"><ele>359.8333333333333</ele><time>2026-04-10T13:54:53.999Z</time></trkpt><trkpt lat="45.59783682655079" lon="8.212225177315775"><ele>361.0</ele><time>2026-04-10T13:54:55.999Z</time></trkpt><trkpt lat="45.59789732130217" lon="8.212069503410227"><ele>361.0</ele><time>2026-04-10T13:54:57.999Z</time></trkpt><trkpt lat="45.59793516295203" lon="8.211993389517072"><ele>361.0</ele><time>2026-04-10T13:54:58.999Z</time></trkpt><trkpt lat="45.59797184538423" lon="8.211914294616175"><ele>361.0</ele><time>2026-04-10T13:54:59.999Z</time></trkpt><trkpt lat="45.59803342137856" lon="8.211769460399026"><ele>361.0</ele><time>2026-04-10T13:55:01.999Z</time></trkpt><trkpt lat="45.59808055365905" lon="8.21162152672177"><ele>361.0</ele><time>2026-04-10T13:55:03.999Z</time></trkpt><trkpt lat="45.59812303931224" lon="8.211477875709445"><ele>362.16666666666663</ele><time>2026-04-10T13:55:05.999Z</time></trkpt><trkpt lat="45.59817016790923" lon="8.21134561915306"><ele>363.3333333333333</ele><time>2026-04-10T13:55:07.999Z</time></trkpt><trkpt lat="45.59821925637522" lon="8.21122716750929"><ele>364.5</ele><time>2026-04-10T13:55:09.999Z</time></trkpt><trkpt lat="45.598264786423655" lon="8.211110209454946"><ele>365.6666666666667</ele><time>2026-04-10T13:55:11.999Z</time></trkpt><trkpt lat="45.59829821509115" lon="8.211027296916722"><ele>366.83333333333337</ele><time>2026-04-10T13:55:13.999Z</time></trkpt><trkpt lat="45.59822043099502" lon="8.210993939677323"><ele>368.0</ele><time>2026-04-10T13:55:55.998Z</time></trkpt><trkpt lat="45.59815180650886" lon="8.211132558377157"><ele>368.0</ele><time>2026-04-10T13:55:57.998Z</time></trkpt><trkpt lat="45.59806934578911" lon="8.211260653649006"><ele>368.0</ele><time>2026-04-10T13:55:59.998Z</time></trkpt><trkpt lat="45.59801897587219" lon="8.21132774392169"><ele>368.0</ele><time>2026-04-10T13:56:00.998Z</time></trkpt><trkpt lat="45.59796748027989" lon="8.211383842264409"><ele>368.0</ele><time>2026-04-10T13:56:01.998Z</time></trkpt><trkpt lat="45.59786379265177" lon="8.211343570159116"><ele>368.0</ele><time>2026-04-10T13:56:03.998Z</time></trkpt><trkpt lat="45.597855070672225" lon="8.211249824582932"><ele>368.0</ele><time>2026-04-10T13:56:04.998Z</time></trkpt><trkpt lat="45.59788500564082" lon="8.211156846809178"><ele>368.0</ele><time>2026-04-10T13:56:05.998Z</time></trkpt><trkpt lat="45.59793790028056" lon="8.211076984349274"><ele>368.0</ele><time>2026-04-10T13:56:06.998Z</time></trkpt><trkpt lat="45.597991640238114" lon="8.210918733058714"><ele>368.0</ele><time>2026-04-10T13:56:09Z</time></trkpt><trkpt lat="45.598015389122516" lon="8.21083047069309"><ele>368.0</ele><time>2026-04-10T13:56:10Z</time></trkpt><trkpt lat="45.5980446526895" lon="8.210744883566543"><ele>368.0</ele><time>2026-04-10T13:56:11Z</time></trkpt><trkpt lat="45.59807413902844" lon="8.210658622866797"><ele>368.0</ele><time>2026-04-10T13:56:12Z</time></trkpt><trkpt lat="45.59810129684838" lon="8.210577131798892"><ele>369.75</ele><time>2026-04-10T13:56:13Z</time></trkpt><trkpt lat="45.59814517413008" lon="8.210409703502606"><ele>371.5</ele><time>2026-04-10T13:56:15Z</time></trkpt><trkpt lat="45.59819650721004" lon="8.21025179535932"><ele>373.25</ele><time>2026-04-10T13:56:17Z</time></trkpt><trkpt lat="45.598244338319304" lon="8.21010052831277"><ele>375.0</ele><time>2026-04-10T13:56:19Z</time></trkpt><trkpt lat="45.59827644416811" lon="8.209947414904402"><ele>376.6666666666667</ele><time>2026-04-10T13:56:21Z</time></trkpt><trkpt lat="45.598297003858704" lon="8.209808775811508"><ele>378.33333333333337</ele><time>2026-04-10T13:56:23Z</time></trkpt><trkpt lat="45.598308423029884" lon="8.209700342639605"><ele>380.0</ele><time>2026-04-10T13:56:26Z</time></trkpt><trkpt lat="45.59824471325498" lon="8.20963482422834"><ele>381.6666666666667</ele><time>2026-04-10T13:57:08.999Z</time></trkpt><trkpt lat="45.5981979765221" lon="8.209710842918264"><ele>383.33333333333337</ele><time>2026-04-10T13:57:10.999Z</time></trkpt><trkpt lat="45.59814009240482" lon="8.209769120121894"><ele>385.0</ele><time>2026-04-10T13:57:12.999Z</time></trkpt><trkpt lat="45.59803873406942" lon="8.209803459430558"><ele>385.00000000000006</ele><time>2026-04-10T13:57:14.999Z</time></trkpt><trkpt lat="45.59792911757501" lon="8.2097990605988"><ele>385.0</ele><time>2026-04-10T13:57:16.999Z</time></trkpt><trkpt lat="45.59781814601502" lon="8.209753683384644"><ele>385.0</ele><time>2026-04-10T13:57:18.999Z</time></trkpt><trkpt lat="45.59775692533983" lon="8.209777230217572"><ele>385.0</ele><time>2026-04-10T13:57:19.999Z</time></trkpt><trkpt lat="45.59768845294421" lon="8.209778972740413"><ele>385.00000000000006</ele><time>2026-04-10T13:57:20.999Z</time></trkpt><trkpt lat="45.5976136465418" lon="8.209780289347844"><ele>385.0</ele><time>2026-04-10T13:57:21.999Z</time></trkpt><trkpt lat="45.59753133506745" lon="8.209787918683249"><ele>383.6666666666667</ele><time>2026-04-10T13:57:22.999Z</time></trkpt><trkpt lat="45.59744465626812" lon="8.20979340515732"><ele>382.33333333333337</ele><time>2026-04-10T13:57:23.999Z</time></trkpt><trkpt lat="45.59735222101181" lon="8.209810132709377"><ele>381.0</ele><time>2026-04-10T13:57:24.999Z</time></trkpt><trkpt lat="45.59726048485997" lon="8.209826574257333"><ele>379.6666666666667</ele><time>2026-04-10T13:57:25.999Z</time></trkpt><trkpt lat="45.59717164809252" lon="8.209850614202708"><ele>378.33333333333337</ele><time>2026-04-10T13:57:26.999Z</time></trkpt><trkpt lat="45.5970929791315" lon="8.209886422375737"><ele>377.0</ele><time>2026-04-10T13:57:27.999Z</time></trkpt><trkpt lat="45.59701750190625" lon="8.209937943311903"><ele>376.33333333333337</ele><time>2026-04-10T13:57:28.999Z</time></trkpt><trkpt lat="45.59694500946605" lon="8.210006429336007"><ele>375.6666666666667</ele><time>2026-04-10T13:57:29.999Z</time></trkpt><trkpt lat="45.59687488692205" lon="8.210095588175783"><ele>375.0</ele><time>2026-04-10T13:57:30.999Z</time></trkpt><trkpt lat="45.59681051104076" lon="8.210188809308912"><ele>374.3333333333333</ele><time>2026-04-10T13:57:31.999Z</time></trkpt><trkpt lat="45.596751586998096" lon="8.210270581912315"><ele>373.66666666666663</ele><time>2026-04-10T13:57:32.999Z</time></trkpt><trkpt lat="45.596689448374654" lon="8.210347662790118"><ele>373.0</ele><time>2026-04-10T13:57:33.999Z</time></trkpt><trkpt lat="45.5966244307153" lon="8.210410374830428"><ele>373.0</ele><time>2026-04-10T13:57:34.999Z</time></trkpt><trkpt lat="45.596553003066965" lon="8.210442763303254"><ele>373.0</ele><time>2026-04-10T13:57:35.999Z</time></trkpt><trkpt lat="45.59647633729356" lon="8.21046277391714"><ele>373.0</ele><time>2026-04-10T13:57:36.999Z</time></trkpt><trkpt lat="45.59640392274215" lon="8.210492249083709"><ele>373.0</ele><time>2026-04-10T13:57:37.999Z</time></trkpt><trkpt lat="45.59633729751499" lon="8.210519696608818"><ele>373.0</ele><time>2026-04-10T13:57:38.999Z</time></trkpt><trkpt lat="45.596271704407634" lon="8.210549513366763"><ele>373.0</ele><time>2026-04-10T13:57:39.999Z</time></trkpt><trkpt lat="45.596212442601754" lon="8.210597650847031"><ele>373.0</ele><time>2026-04-10T13:57:40.999Z</time></trkpt><trkpt lat="45.59614406011439" lon="8.210716678246241"><ele>370.8333333333333</ele><time>2026-04-10T13:57:42.999Z</time></trkpt><trkpt lat="45.596094773387684" lon="8.210809312820226"><ele>368.66666666666663</ele><time>2026-04-10T13:57:44.999Z</time></trkpt><trkpt lat="45.59602848470019" lon="8.210825463777185"><ele>366.5</ele><time>2026-04-10T13:57:47.999Z</time></trkpt><trkpt lat="45.59595150273264" lon="8.210826606798785"><ele>364.3333333333333</ele><time>2026-04-10T13:57:49.999Z</time></trkpt><trkpt lat="45.595869986869324" lon="8.210841770935858"><ele>362.1666666666667</ele><time>2026-04-10T13:57:51.999Z</time></trkpt><trkpt lat="45.59577159820165" lon="8.210859949349539"><ele>360.0</ele><time>2026-04-10T13:57:53.999Z</time></trkpt><trkpt lat="45.59564876201585" lon="8.210877264494103"><ele>360.0</ele><time>2026-04-10T13:57:55.999Z</time></trkpt><trkpt lat="45.59553168823576" lon="8.21091983230847"><ele>360.0</ele><time>2026-04-10T13:57:57.999Z</time></trkpt><trkpt lat="45.595446740531806" lon="8.210973812862097"><ele>360.0</ele><time>2026-04-10T13:57:59.999Z</time></trkpt><trkpt lat="45.59537743609993" lon="8.211049008856952"><ele>360.0</ele><time>2026-04-10T13:58:01.999Z</time></trkpt><trkpt lat="45.59528945999047" lon="8.211086040060309"><ele>360.0</ele><time>2026-04-10T13:58:24Z</time></trkpt><trkpt lat="45.595227639072654" lon="8.211117408237868"><ele>357.6666666666667</ele><time>2026-04-10T13:58:26Z</time></trkpt><trkpt lat="45.595157416185224" lon="8.211188734569557"><ele>355.3333333333333</ele><time>2026-04-10T13:58:29Z</time></trkpt><trkpt lat="45.59507541236494" lon="8.21125191647616"><ele>353.0</ele><time>2026-04-10T13:58:31Z</time></trkpt><trkpt lat="45.59496174099288" lon="8.21131215200172"><ele>350.66666666666663</ele><time>2026-04-10T13:58:33Z</time></trkpt><trkpt lat="45.594888881204014" lon="8.211303661321619"><ele>348.3333333333333</ele><time>2026-04-10T13:58:34Z</time></trkpt><trkpt lat="45.59482469420424" lon="8.211341391979238"><ele>346.0</ele><time>2026-04-10T13:58:35Z</time></trkpt><trkpt lat="45.594763700882666" lon="8.211401608750876"><ele>346.0</ele><time>2026-04-10T13:58:36Z</time></trkpt><trkpt lat="45.594714894597615" lon="8.211476604371985"><ele>346.0</ele><time>2026-04-10T13:58:37Z</time></trkpt><trkpt lat="45.594678254040375" lon="8.21155940292676"><ele>346.0</ele><time>2026-04-10T13:58:38Z</time></trkpt><trkpt lat="45.59466397569301" lon="8.211664750182173"><ele>346.0</ele><time>2026-04-10T13:58:39Z</time></trkpt><trkpt lat="45.59462279104868" lon="8.211839801226072"><ele>346.0</ele><time>2026-04-10T13:58:41Z</time></trkpt><trkpt lat="45.59460179264729" lon="8.211929054016666"><ele>346.0</ele><time>2026-04-10T13:58:42Z</time></trkpt><trkpt lat="45.594542241122745" lon="8.21207535564953"><ele>345.0</ele><time>2026-04-10T13:58:44Z</time></trkpt><trkpt lat="45.59444396309119" lon="8.212186469595308"><ele>344.0</ele><time>2026-04-10T13:58:46Z</time></trkpt><trkpt lat="45.59438212454253" lon="8.212225263975641"><ele>343.0</ele><time>2026-04-10T13:58:47Z</time></trkpt><trkpt lat="45.59431379473719" lon="8.212269204670754"><ele>342.0</ele><time>2026-04-10T13:58:48Z</time></trkpt><trkpt lat="45.59425231872571" lon="8.212307575582615"><ele>341.0</ele><time>2026-04-10T13:58:48.999Z</time></trkpt><trkpt lat="45.594168899644224" lon="8.212360438641197"><ele>340.0</ele><time>2026-04-10T13:58:49.999Z</time></trkpt><trkpt lat="45.59409200768182" lon="8.212411894467804"><ele>339.3333333333333</ele><time>2026-04-10T13:58:50.999Z</time></trkpt><trkpt lat="45.594015543468075" lon="8.212465631357952"><ele>338.66666666666663</ele><time>2026-04-10T13:58:51.999Z</time></trkpt><trkpt lat="45.593936682761395" lon="8.212521054466208"><ele>338.0</ele><time>2026-04-10T13:58:52.999Z</time></trkpt><trkpt lat="45.59385157113814" lon="8.212578006651764"><ele>337.3333333333333</ele><time>2026-04-10T13:58:53.999Z</time></trkpt><trkpt lat="45.59376685709456" lon="8.21262526411864"><ele>336.6666666666667</ele><time>2026-04-10T13:58:54.999Z</time></trkpt><trkpt lat="45.593687026884794" lon="8.212658024112336"><ele>336.0</ele><time>2026-04-10T13:58:55.999Z</time></trkpt><trkpt lat="45.59360299192984" lon="8.212691225864686"><ele>335.6666666666667</ele><time>2026-04-10T13:58:56.999Z</time></trkpt><trkpt lat="45.59352010822663" lon="8.212722168046119"><ele>335.3333333333333</ele><time>2026-04-10T13:58:57.999Z</time></trkpt><trkpt lat="45.59343705968434" lon="8.212757113478048"><ele>335.0</ele><time>2026-04-10T13:58:58.999Z</time></trkpt><trkpt lat="45.59335392040083" lon="8.212798269968015"><ele>334.66666666666663</ele><time>2026-04-10T13:58:59.999Z</time></trkpt><trkpt lat="45.59327517248387" lon="8.21284974194513"><ele>334.3333333333333</ele><time>2026-04-10T13:59:00.999Z</time></trkpt><trkpt lat="45.59320068740222" lon="8.212906177538166"><ele>334.0</ele><time>2026-04-10T13:59:01.999Z</time></trkpt><trkpt lat="45.59312927177552" lon="8.212962039452698"><ele>334.0</ele><time>2026-04-10T13:59:02.999Z</time></trkpt><trkpt lat="45.59305877103477" lon="8.21301566014698"><ele>334.0</ele><time>2026-04-10T13:59:03.999Z</time></trkpt><trkpt lat="45.59298881355917" lon="8.21306448605743"><ele>334.0</ele><time>2026-04-10T13:59:04.999Z</time></trkpt><trkpt lat="45.59292484772747" lon="8.213107298850552"><ele>334.0</ele><time>2026-04-10T13:59:05.999Z</time></trkpt><trkpt lat="45.5928602029651" lon="8.213150566007913"><ele>334.0</ele><time>2026-04-10T13:59:06.999Z</time></trkpt><trkpt lat="45.59279240651903" lon="8.213195942641578"><ele>334.0</ele><time>2026-04-10T13:59:07.999Z</time></trkpt><trkpt lat="45.59272664704453" lon="8.213238911910915"><ele>334.0</ele><time>2026-04-10T13:59:08.999Z</time></trkpt><trkpt lat="45.59266053760048" lon="8.213279847528032"><ele>334.16666666666663</ele><time>2026-04-10T13:59:09.999Z</time></trkpt><trkpt lat="45.592590253200896" lon="8.213322383027068"><ele>334.3333333333333</ele><time>2026-04-10T13:59:10.999Z</time></trkpt><trkpt lat="45.59252026104957" lon="8.213364571523174"><ele>334.5</ele><time>2026-04-10T13:59:11.999Z</time></trkpt><trkpt lat="45.59246331623746" lon="8.213403615447676"><ele>334.6666666666667</ele><time>2026-04-10T13:59:12.999Z</time></trkpt><trkpt lat="45.59234632156676" lon="8.213486136770083"><ele>334.83333333333337</ele><time>2026-04-10T13:59:14.999Z</time></trkpt><trkpt lat="45.59227414902954" lon="8.213523970962333"><ele>335.0</ele><time>2026-04-10T13:59:15.999Z</time></trkpt><trkpt lat="45.592203102017024" lon="8.213551826608104"><ele>335.0</ele><time>2026-04-10T13:59:16.999Z</time></trkpt><trkpt lat="45.5921215576227" lon="8.213579240615683"><ele>335.0</ele><time>2026-04-10T13:59:17.999Z</time></trkpt><trkpt lat="45.59204312640766" lon="8.213605529569945"><ele>335.0</ele><time>2026-04-10T13:59:18.999Z</time></trkpt><trkpt lat="45.5919732377885" lon="8.213627026707014"><ele>335.0</ele><time>2026-04-10T13:59:19.999Z</time></trkpt><trkpt lat="45.59189503155916" lon="8.21364980846893"><ele>335.0</ele><time>2026-04-10T13:59:20.999Z</time></trkpt><trkpt lat="45.59180878408197" lon="8.21368392599862"><ele>335.0</ele><time>2026-04-10T13:59:21.999Z</time></trkpt><trkpt lat="45.5917282352916" lon="8.213714449729105"><ele>334.0</ele><time>2026-04-10T13:59:22.999Z</time></trkpt><trkpt lat="45.591612261150274" lon="8.213734847611846"><ele>333.0</ele><time>2026-04-10T13:59:24.999Z</time></trkpt><trkpt lat="45.59150192729358" lon="8.213751408750722"><ele>332.0</ele><time>2026-04-10T13:59:26.999Z</time></trkpt><trkpt lat="45.59139921436747" lon="8.213766825932158"><ele>331.0</ele><time>2026-04-10T13:59:28.999Z</time></trkpt><trkpt lat="45.59134078469161" lon="8.213876050871603"><ele>330.0</ele><time>2026-04-10T13:59:47.999Z</time></trkpt><trkpt lat="45.5912718953762" lon="8.213894101142813"><ele>330.0</ele><time>2026-04-10T14:01:18.999Z</time></trkpt><trkpt lat="45.59121239080252" lon="8.213981889439665"><ele>330.0</ele><time>2026-04-10T14:01:20.999Z</time></trkpt><trkpt lat="45.59114357543059" lon="8.214077336835274"><ele>330.0</ele><time>2026-04-10T14:01:22.999Z</time></trkpt><trkpt lat="45.591086146557" lon="8.214214029573906"><ele>330.0</ele><time>2026-04-10T14:01:24.999Z</time></trkpt><trkpt lat="45.591054965604854" lon="8.21430059421051"><ele>330.0</ele><time>2026-04-10T14:01:25.999Z</time></trkpt><trkpt lat="45.590959491848544" lon="8.214399951239542"><ele>330.5</ele><time>2026-04-10T14:01:27.999Z</time></trkpt><trkpt lat="45.59087165232244" lon="8.21442935167029"><ele>331.0</ele><time>2026-04-10T14:01:28.999Z</time></trkpt><trkpt lat="45.59079727837195" lon="8.21443651542748"><ele>331.5</ele><time>2026-04-10T14:01:29.999Z</time></trkpt><trkpt lat="45.590730551491774" lon="8.214452370800343"><ele>332.0</ele><time>2026-04-10T14:01:30.999Z</time></trkpt><trkpt lat="45.590664053247096" lon="8.214492023632706"><ele>332.5</ele><time>2026-04-10T14:01:31.999Z</time></trkpt><trkpt lat="45.59054269943812" lon="8.21454465727888"><ele>333.0</ele><time>2026-04-10T14:01:33.999Z</time></trkpt><trkpt lat="45.59047647822079" lon="8.21460346479175"><ele>333.0</ele><time>2026-04-10T14:01:34.999Z</time></trkpt><trkpt lat="45.59042147634675" lon="8.214668530487458"><ele>333.0</ele><time>2026-04-10T14:01:35.999Z</time></trkpt><trkpt lat="45.59036425424708" lon="8.214733166585457"><ele>333.0</ele><time>2026-04-10T14:01:36.999Z</time></trkpt><trkpt lat="45.59028552269625" lon="8.214785131326508"><ele>333.0</ele><time>2026-04-10T14:01:37.999Z</time></trkpt><trkpt lat="45.590216374828806" lon="8.21481357333991"><ele>333.0</ele><time>2026-04-10T14:01:38.999Z</time></trkpt><trkpt lat="45.59014937526532" lon="8.214844576190863"><ele>333.0</ele><time>2026-04-10T14:01:39.999Z</time></trkpt><trkpt lat="45.59007692050322" lon="8.214852596622254"><ele>333.0</ele><time>2026-04-10T14:01:40.999Z</time></trkpt><trkpt lat="45.59000317843137" lon="8.214844616508348"><ele>332.5</ele><time>2026-04-10T14:01:41.999Z</time></trkpt><trkpt lat="45.58991120773122" lon="8.21483990220498"><ele>332.0</ele><time>2026-04-10T14:01:42.999Z</time></trkpt><trkpt lat="45.589828440043" lon="8.21484603249851"><ele>331.5</ele><time>2026-04-10T14:01:43.999Z</time></trkpt><trkpt lat="45.589759699228665" lon="8.214862917410517"><ele>331.0</ele><time>2026-04-10T14:01:44.999Z</time></trkpt><trkpt lat="45.58962744454953" lon="8.214886345599645"><ele>330.5</ele><time>2026-04-10T14:01:46.999Z</time></trkpt><trkpt lat="45.589557431932775" lon="8.214893803262033"><ele>330.0</ele><time>2026-04-10T14:01:47.999Z</time></trkpt><trkpt lat="45.5894400817146" lon="8.214916689244623"><ele>329.3333333333333</ele><time>2026-04-10T14:01:49.999Z</time></trkpt><trkpt lat="45.589373040912626" lon="8.214927101428666"><ele>328.6666666666667</ele><time>2026-04-10T14:01:50.999Z</time></trkpt><trkpt lat="45.58929277081974" lon="8.214951001293976"><ele>328.0</ele><time>2026-04-10T14:01:51.999Z</time></trkpt><trkpt lat="45.58922102889625" lon="8.214960217243496"><ele>327.33333333333337</ele><time>2026-04-10T14:01:52.999Z</time></trkpt><trkpt lat="45.58913491409887" lon="8.214979619190242"><ele>326.6666666666667</ele><time>2026-04-10T14:01:53.999Z</time></trkpt><trkpt lat="45.589055811960684" lon="8.214974103055798"><ele>326.0</ele><time>2026-04-10T14:01:54.999Z</time></trkpt><trkpt lat="45.58898619154244" lon="8.214971407433314"><ele>326.0</ele><time>2026-04-10T14:01:55.999Z</time></trkpt><trkpt lat="45.58889155562529" lon="8.214967591429575"><ele>326.0</ele><time>2026-04-10T14:02:05.999Z</time></trkpt><trkpt lat="45.588817800976756" lon="8.21498013274241"><ele>326.0</ele><time>2026-04-10T14:03:32.999Z</time></trkpt><trkpt lat="45.58875069767051" lon="8.214992098078598"><ele>326.0</ele><time>2026-04-10T14:03:35.999Z</time></trkpt><trkpt lat="45.588675241325326" lon="8.215023137896544"><ele>326.0</ele><time>2026-04-10T14:03:38.999Z</time></trkpt><trkpt lat="45.5885747134007" lon="8.21508286114807"><ele>326.0</ele><time>2026-04-10T14:03:40.999Z</time></trkpt><trkpt lat="45.58848086902726" lon="8.215151085358576"><ele>324.40000000000003</ele><time>2026-04-10T14:03:42.999Z</time></trkpt><trkpt lat="45.58836581095331" lon="8.215208443851317"><ele>322.8</ele><time>2026-04-10T14:03:44.999Z</time></trkpt><trkpt lat="45.58830318051047" lon="8.215246372864565"><ele>321.20000000000005</ele><time>2026-04-10T14:03:45.999Z</time></trkpt><trkpt lat="45.588232724719" lon="8.21529110021588"><ele>319.6</ele><time>2026-04-10T14:03:46.999Z</time></trkpt><trkpt lat="45.588172275870484" lon="8.215339173982661"><ele>318.0</ele><time>2026-04-10T14:03:47.999Z</time></trkpt><trkpt lat="45.58806701759144" lon="8.215422233596016"><ele>318.0</ele><time>2026-04-10T14:03:49.999Z</time></trkpt><trkpt lat="45.58794444894899" lon="8.215424248151452"><ele>318.0</ele><time>2026-04-10T14:03:51.999Z</time></trkpt><trkpt lat="45.58789555083742" lon="8.215358171378428"><ele>318.0</ele><time>2026-04-10T14:03:52.999Z</time></trkpt><trkpt lat="45.587764885958954" lon="8.21532287678171"><ele>318.0</ele><time>2026-04-10T14:03:54.999Z</time></trkpt><trkpt lat="45.587687857057794" lon="8.215364375934032"><ele>318.0</ele><time>2026-04-10T14:03:55.999Z</time></trkpt><trkpt lat="45.5876137903068" lon="8.215398425617499"><ele>317.8333333333333</ele><time>2026-04-10T14:03:56.999Z</time></trkpt><trkpt lat="45.58754780316957" lon="8.215440304767165"><ele>317.6666666666667</ele><time>2026-04-10T14:03:57.999Z</time></trkpt><trkpt lat="45.5874873359425" lon="8.215485932193976"><ele>317.5</ele><time>2026-04-10T14:03:58.999Z</time></trkpt><trkpt lat="45.58737519543163" lon="8.215510901347084"><ele>317.33333333333337</ele><time>2026-04-10T14:04:00.999Z</time></trkpt><trkpt lat="45.58730838427834" lon="8.215537993529832"><ele>317.1666666666667</ele><time>2026-04-10T14:04:01.999Z</time></trkpt><trkpt lat="45.58723770092013" lon="8.215580324559996"><ele>317.0</ele><time>2026-04-10T14:04:02.999Z</time></trkpt><trkpt lat="45.5871755441796" lon="8.215644001229881"><ele>316.0</ele><time>2026-04-10T14:04:03.999Z</time></trkpt><trkpt lat="45.58711236591617" lon="8.215723270300098"><ele>315.0</ele><time>2026-04-10T14:04:04.999Z</time></trkpt><trkpt lat="45.58705700316946" lon="8.215805385664012"><ele>314.0</ele><time>2026-04-10T14:04:05.999Z</time></trkpt><trkpt lat="45.58701141763903" lon="8.215904319698604"><ele>313.0</ele><time>2026-04-10T14:04:06.999Z</time></trkpt><trkpt lat="45.5869675337121" lon="8.215993134515644"><ele>312.0</ele><time>2026-04-10T14:04:07.999Z</time></trkpt><trkpt lat="45.58690342581616" lon="8.216055003105012"><ele>311.0</ele><time>2026-04-10T14:04:08.999Z</time></trkpt><trkpt lat="45.58683630572443" lon="8.216110896639087"><ele>310.83333333333337</ele><time>2026-04-10T14:04:09.999Z</time></trkpt><trkpt lat="45.58678014878515" lon="8.216162650931036"><ele>310.6666666666667</ele><time>2026-04-10T14:04:10.999Z</time></trkpt><trkpt lat="45.58668764146211" lon="8.216264738916662"><ele>310.5</ele><time>2026-04-10T14:04:12.999Z</time></trkpt><trkpt lat="45.58661353518682" lon="8.216389478485329"><ele>310.3333333333333</ele><time>2026-04-10T14:04:14.999Z</time></trkpt><trkpt lat="45.586572313430885" lon="8.216481385521536"><ele>310.16666666666663</ele><time>2026-04-10T14:04:15.999Z</time></trkpt><trkpt lat="45.58653459049038" lon="8.216558538454073"><ele>310.0</ele><time>2026-04-10T14:04:17.999Z</time></trkpt><trkpt lat="45.586491123941514" lon="8.21664429168768"><ele>309.0</ele><time>2026-04-10T14:04:19.998Z</time></trkpt><trkpt lat="45.586455051731996" lon="8.21672348083084"><ele>308.0</ele><time>2026-04-10T14:04:21.998Z</time></trkpt><trkpt lat="45.58638185568584" lon="8.216812995468876"><ele>307.0</ele><time>2026-04-10T14:04:23.998Z</time></trkpt><trkpt lat="45.58629107530018" lon="8.216922471579839"><ele>306.0</ele><time>2026-04-10T14:04:25.998Z</time></trkpt><trkpt lat="45.586241055868825" lon="8.21698602534219"><ele>305.0</ele><time>2026-04-10T14:04:26.998Z</time></trkpt><trkpt lat="45.58618838956239" lon="8.217040182522632"><ele>304.0</ele><time>2026-04-10T14:04:27.998Z</time></trkpt><trkpt lat="45.58614463275464" lon="8.217111059758034"><ele>304.0</ele><time>2026-04-10T14:04:28.998Z</time></trkpt><trkpt lat="45.586071456061994" lon="8.217217940685723"><ele>304.0</ele><time>2026-04-10T14:04:30.998Z</time></trkpt><trkpt lat="45.58601839581256" lon="8.217277122652945"><ele>304.0</ele><time>2026-04-10T14:04:31.998Z</time></trkpt><trkpt lat="45.585955249745965" lon="8.217302873958923"><ele>304.0</ele><time>2026-04-10T14:04:33Z</time></trkpt><trkpt lat="45.58586512882318" lon="8.217368278534801"><ele>304.0</ele><time>2026-04-10T14:04:35Z</time></trkpt><trkpt lat="45.58581319835129" lon="8.217424204809221"><ele>304.0</ele><time>2026-04-10T14:04:42Z</time></trkpt><trkpt lat="45.5857404613672" lon="8.217484986498805"><ele>302.8</ele><time>2026-04-10T14:05:07.999Z</time></trkpt><trkpt lat="45.58567204404361" lon="8.217568675260198"><ele>301.59999999999997</ele><time>2026-04-10T14:05:09.999Z</time></trkpt><trkpt lat="45.58558249983415" lon="8.217662421395964"><ele>300.4</ele><time>2026-04-10T14:05:11.999Z</time></trkpt><trkpt lat="45.58548978212156" lon="8.2177298098097"><ele>299.2</ele><time>2026-04-10T14:05:13.999Z</time></trkpt><trkpt lat="45.58539075678301" lon="8.21780006870921"><ele>298.0</ele><time>2026-04-10T14:05:15.999Z</time></trkpt><trkpt lat="45.58533413440864" lon="8.217848387042096"><ele>298.0</ele><time>2026-04-10T14:05:16.999Z</time></trkpt><trkpt lat="45.585271985590474" lon="8.217900102561538"><ele>298.0</ele><time>2026-04-10T14:05:17.999Z</time></trkpt><trkpt lat="45.585177107101266" lon="8.217979659485"><ele>298.0</ele><time>2026-04-10T14:05:19.999Z</time></trkpt><trkpt lat="45.585031816683475" lon="8.21805945360367"><ele>298.0</ele><time>2026-04-10T14:05:21.999Z</time></trkpt><trkpt lat="45.58492700535975" lon="8.218119011302619"><ele>298.0</ele><time>2026-04-10T14:05:23.999Z</time></trkpt><trkpt lat="45.584836710979" lon="8.218133930751911"><ele>298.0</ele><time>2026-04-10T14:05:25.999Z</time></trkpt><trkpt lat="45.584732287448915" lon="8.218180060420993"><ele>298.0</ele><time>2026-04-10T14:05:27.999Z</time></trkpt><trkpt lat="45.58464624282937" lon="8.218230155220212"><ele>298.0</ele><time>2026-04-10T14:05:29.999Z</time></trkpt><trkpt lat="45.58456867700185" lon="8.218271935676709"><ele>298.0</ele><time>2026-04-10T14:05:31.999Z</time></trkpt><trkpt lat="45.584457331188005" lon="8.218283716824025"><ele>295.3333333333333</ele><time>2026-04-10T14:05:33.999Z</time></trkpt><trkpt lat="45.58439024136548" lon="8.218281473503229"><ele>292.66666666666663</ele><time>2026-04-10T14:05:34.999Z</time></trkpt><trkpt lat="45.58432259272331" lon="8.218285165695708"><ele>290.0</ele><time>2026-04-10T14:05:35.999Z</time></trkpt><trkpt lat="45.584259610501604" lon="8.218282629914267"><ele>287.3333333333333</ele><time>2026-04-10T14:05:36.999Z</time></trkpt><trkpt lat="45.584155362179885" lon="8.218263408968612"><ele>284.6666666666667</ele><time>2026-04-10T14:05:38.999Z</time></trkpt><trkpt lat="45.584098786864935" lon="8.218207559473159"><ele>282.0</ele><time>2026-04-10T14:05:41.999Z</time></trkpt><trkpt lat="45.58409145525641" lon="8.218329363570366"><ele>282.0</ele><time>2026-04-10T14:05:50.999Z</time></trkpt><trkpt lat="45.58398628015097" lon="8.218307163867397"><ele>282.0</ele><time>2026-04-10T14:06:12.999Z</time></trkpt><trkpt lat="45.58392544369174" lon="8.21827897982222"><ele>282.0</ele><time>2026-04-10T14:06:37.998Z</time></trkpt><trkpt lat="45.58400204992898" lon="8.2182736541002"><ele>282.0</ele><time>2026-04-10T14:08:00.999Z</time></trkpt><trkpt lat="45.583863903673354" lon="8.2182980713487"><ele>282.0</ele><time>2026-04-10T14:08:38.998Z</time></trkpt><trkpt lat="45.58378291162626" lon="8.218282149219387"><ele>282.0</ele><time>2026-04-10T14:08:41.998Z</time></trkpt><trkpt lat="45.58370053518881" lon="8.218241473871332"><ele>282.0</ele><time>2026-04-10T14:08:45Z</time></trkpt><trkpt lat="45.58362842097433" lon="8.218238532169343"><ele>282.0</ele><time>2026-04-10T14:08:47Z</time></trkpt><trkpt lat="45.58353675662459" lon="8.218227974823721"><ele>282.0</ele><time>2026-04-10T14:08:49Z</time></trkpt><trkpt lat="45.58342186768597" lon="8.21826486308514"><ele>282.0</ele><time>2026-04-10T14:08:51Z</time></trkpt><trkpt lat="45.58331185260474" lon="8.218304734967857"><ele>280.2</ele><time>2026-04-10T14:08:53Z</time></trkpt><trkpt lat="45.5832095086506" lon="8.218317018700164"><ele>278.4</ele><time>2026-04-10T14:08:55Z</time></trkpt><trkpt lat="45.58307849845232" lon="8.218364926942876"><ele>276.6</ele><time>2026-04-10T14:08:56Z</time></trkpt><trkpt lat="45.58301569084541" lon="8.218316919277026"><ele>274.8</ele><time>2026-04-10T14:09:04.001Z</time></trkpt><trkpt lat="45.582913200023576" lon="8.218282612666847"><ele>273.0</ele><time>2026-04-10T14:09:06.001Z</time></trkpt><trkpt lat="45.58282100240924" lon="8.218244516306157"><ele>272.0</ele><time>2026-04-10T14:09:08.001Z</time></trkpt><trkpt lat="45.582716831464055" lon="8.218213460806208"><ele>271.0</ele><time>2026-04-10T14:09:10.001Z</time></trkpt><trkpt lat="45.58264371729623" lon="8.218193724518473"><ele>270.0</ele><time>2026-04-10T14:09:11Z</time></trkpt><trkpt lat="45.58256875664858" lon="8.218210093467912"><ele>269.0</ele><time>2026-04-10T14:09:13Z</time></trkpt><trkpt lat="45.58253222325231" lon="8.218296385084795"><ele>268.0</ele><time>2026-04-10T14:11:08.001Z</time></trkpt><trkpt lat="45.582483764883634" lon="8.21835446092286"><ele>267.0</ele><time>2026-04-10T14:11:12.001Z</time></trkpt><trkpt lat="45.58240049652036" lon="8.218464273215186"><ele>267.0</ele><time>2026-04-10T14:11:14.001Z</time></trkpt><trkpt lat="45.58234356963864" lon="8.218515200637551"><ele>267.0</ele><time>2026-04-10T14:11:16Z</time></trkpt><trkpt lat="45.582274205728844" lon="8.218546122203755"><ele>267.0</ele><time>2026-04-10T14:11:20Z</time></trkpt><trkpt lat="45.582262074964355" lon="8.21868135516335"><ele>267.0</ele><time>2026-04-10T14:11:22Z</time></trkpt><trkpt lat="45.582322022188755" lon="8.218827676541691"><ele>267.0</ele><time>2026-04-10T14:11:24Z</time></trkpt><trkpt lat="45.582365257549235" lon="8.218917265529647"><ele>267.0</ele><time>2026-04-10T14:11:25Z</time></trkpt><trkpt lat="45.582401351710615" lon="8.219010801379435"><ele>267.00000000000006</ele><time>2026-04-10T14:11:27Z</time></trkpt><trkpt lat="45.582333320087066" lon="8.219025244635613"><ele>267.0</ele><time>2026-04-10T14:11:29Z</time></trkpt><trkpt lat="45.582267827900935" lon="8.21901756732323"><ele>267.0</ele><time>2026-04-10T14:11:31Z</time></trkpt><trkpt lat="45.58220435613279" lon="8.219017930189482"><ele>267.0</ele><time>2026-04-10T14:11:34Z</time></trkpt><trkpt lat="45.58214257637996" lon="8.218947915919749"><ele>267.0</ele><time>2026-04-10T14:11:38Z</time></trkpt><trkpt lat="45.582089887157274" lon="8.218886489049233"><ele>267.00000000000006</ele><time>2026-04-10T14:11:39Z</time></trkpt><trkpt lat="45.58204863982564" lon="8.218801564140822"><ele>267.0</ele><time>2026-04-10T14:11:40Z</time></trkpt><trkpt lat="45.58196054632208" lon="8.218792466578059"><ele>265.3333333333333</ele><time>2026-04-10T14:11:42Z</time></trkpt><trkpt lat="45.58187861444015" lon="8.218758937002463"><ele>263.6666666666667</ele><time>2026-04-10T14:11:44Z</time></trkpt><trkpt lat="45.58180428048135" lon="8.218691857361557"><ele>262.0</ele><time>2026-04-10T14:11:47Z</time></trkpt><trkpt lat="45.581732649088565" lon="8.218662556163084"><ele>260.33333333333337</ele><time>2026-04-10T14:11:49Z</time></trkpt><trkpt lat="45.58166597007486" lon="8.218630930962538"><ele>258.6666666666667</ele><time>2026-04-10T14:11:52Z</time></trkpt><trkpt lat="45.581600999657695" lon="8.21857749967813"><ele>257.0</ele><time>2026-04-10T14:12:00Z</time></trkpt><trkpt lat="45.58148662488912" lon="8.218549388905416"><ele>257.0</ele><time>2026-04-10T14:12:02Z</time></trkpt><trkpt lat="45.581380107505275" lon="8.218512618190424"><ele>257.0</ele><time>2026-04-10T14:12:03Z</time></trkpt><trkpt lat="45.58130596903156" lon="8.218500943607417"><ele>257.0</ele><time>2026-04-10T14:12:04Z</time></trkpt><trkpt lat="45.58123057046194" lon="8.218491432928484"><ele>257.0</ele><time>2026-04-10T14:12:05Z</time></trkpt><trkpt lat="45.58114674400535" lon="8.218521353575936"><ele>257.0</ele><time>2026-04-10T14:12:06Z</time></trkpt><trkpt lat="45.58108161434639" lon="8.21853338214051"><ele>257.0</ele><time>2026-04-10T14:12:07Z</time></trkpt><trkpt lat="45.58101800134297" lon="8.218540906067128"><ele>256.4</ele><time>2026-04-10T14:12:08Z</time></trkpt><trkpt lat="45.58095457903354" lon="8.21854617669034"><ele>255.79999999999998</ele><time>2026-04-10T14:12:09Z</time></trkpt><trkpt lat="45.580842445043494" lon="8.218586266573213"><ele>255.2</ele><time>2026-04-10T14:12:11Z</time></trkpt><trkpt lat="45.58073695249431" lon="8.218666432790593"><ele>254.6</ele><time>2026-04-10T14:12:13Z</time></trkpt><trkpt lat="45.580702482291244" lon="8.218744543747176"><ele>254.0</ele><time>2026-04-10T14:12:14Z</time></trkpt><trkpt lat="45.58064870153448" lon="8.21885841927391"><ele>254.0</ele><time>2026-04-10T14:12:15Z</time></trkpt><trkpt lat="45.580609394531365" lon="8.218938738059345"><ele>254.0</ele><time>2026-04-10T14:12:16Z</time></trkpt><trkpt lat="45.580595669876985" lon="8.219034603488636"><ele>254.0</ele><time>2026-04-10T14:12:19Z</time></trkpt><trkpt lat="45.58052702097039" lon="8.21900580761198"><ele>254.0</ele><time>2026-04-10T14:13:23Z</time></trkpt><trkpt lat="45.58046717397837" lon="8.219052781690252"><ele>254.0</ele><time>2026-04-10T14:13:32Z</time></trkpt><trkpt lat="45.58040718688291" lon="8.21901795699326"><ele>254.0</ele><time>2026-04-10T14:13:40Z</time></trkpt><trkpt lat="45.58047856291828" lon="8.219036380579643"><ele>254.0</ele><time>2026-04-10T14:14:10Z</time></trkpt><trkpt lat="45.5805321909178" lon="8.21897146527838"><ele>254.00000000000003</ele><time>2026-04-10T14:14:17.999Z</time></trkpt><trkpt lat="45.580596328740256" lon="8.2189403780308"><ele>254.0</ele><time>2026-04-10T14:14:24.999Z</time></trkpt><trkpt lat="45.580545152829906" lon="8.218993268995645"><ele>254.0</ele><time>2026-04-10T14:14:56.999Z</time></trkpt><trkpt lat="45.58046200736651" lon="8.219002711526745"><ele>254.0</ele><time>2026-04-10T14:15:01Z</time></trkpt><trkpt lat="45.580413741612745" lon="8.218939311974372"><ele>254.00000000000003</ele><time>2026-04-10T14:15:09Z</time></trkpt><trkpt lat="45.580358368648014" lon="8.2188513409229"><ele>254.0</ele><time>2026-04-10T14:15:12Z</time></trkpt><trkpt lat="45.58031305310972" lon="8.218693873566712"><ele>255.00000000000003</ele><time>2026-04-10T14:17:31Z</time></trkpt><trkpt lat="45.580299988886466" lon="8.218592126001884"><ele>256.0</ele><time>2026-04-10T14:17:36Z</time></trkpt><trkpt lat="45.5803057441196" lon="8.218491456786548"><ele>257.0</ele><time>2026-04-10T14:17:39Z</time></trkpt><trkpt lat="45.580272315686244" lon="8.218412212662527"><ele>258.0</ele><time>2026-04-10T14:17:41Z</time></trkpt><trkpt lat="45.58019944071342" lon="8.2183017514242"><ele>259.0</ele><time>2026-04-10T14:17:43Z</time></trkpt><trkpt lat="45.580225205034836" lon="8.21820042960088"><ele>260.0</ele><time>2026-04-10T14:17:45Z</time></trkpt><trkpt lat="45.58028162130076" lon="8.21810744495594"><ele>259.83333333333337</ele><time>2026-04-10T14:17:47Z</time></trkpt><trkpt lat="45.58034300983605" lon="8.217996970921659"><ele>259.6666666666667</ele><time>2026-04-10T14:17:51Z</time></trkpt><trkpt lat="45.58041069393799" lon="8.21795626666712"><ele>259.5</ele><time>2026-04-10T14:17:53Z</time></trkpt><trkpt lat="45.58049270084557" lon="8.217925160610132"><ele>259.3333333333333</ele><time>2026-04-10T14:17:54Z</time></trkpt><trkpt lat="45.58057416358467" lon="8.217864383507676"><ele>259.16666666666663</ele><time>2026-04-10T14:17:55Z</time></trkpt><trkpt lat="45.580631870808084" lon="8.217792039834489"><ele>259.0</ele><time>2026-04-10T14:17:56Z</time></trkpt><trkpt lat="45.58063579623982" lon="8.217610403571145"><ele>259.0</ele><time>2026-04-10T14:17:58Z</time></trkpt><trkpt lat="45.58062727036094" lon="8.217446048461094"><ele>259.0</ele><time>2026-04-10T14:17:59Z</time></trkpt><trkpt lat="45.58064040652044" lon="8.217229697301532"><ele>259.0</ele><time>2026-04-10T14:18:00Z</time></trkpt><trkpt lat="45.58068664945188" lon="8.217060219112925"><ele>259.0</ele><time>2026-04-10T14:18:01Z</time></trkpt><trkpt lat="45.58070011956206" lon="8.216924615434884"><ele>260.16666666666663</ele><time>2026-04-10T14:18:02Z</time></trkpt><trkpt lat="45.58074929434847" lon="8.216844115952217"><ele>261.3333333333333</ele><time>2026-04-10T14:18:04Z</time></trkpt><trkpt lat="45.58079611985707" lon="8.216927328875755"><ele>262.5</ele><time>2026-04-10T14:18:08Z</time></trkpt><trkpt lat="45.58087969383107" lon="8.216888455071786"><ele>263.6666666666667</ele><time>2026-04-10T14:18:11Z</time></trkpt><trkpt lat="45.580918805229075" lon="8.216783714356094"><ele>264.83333333333337</ele><time>2026-04-10T14:18:13Z</time></trkpt><trkpt lat="45.5809574847882" lon="8.216650270578512"><ele>266.0</ele><time>2026-04-10T14:18:15Z</time></trkpt><trkpt lat="45.58102671717368" lon="8.21658285265339"><ele>266.0</ele><time>2026-04-10T14:18:17Z</time></trkpt><trkpt lat="45.58110484184723" lon="8.216565141037538"><ele>266.0</ele><time>2026-04-10T14:18:18.999Z</time></trkpt><trkpt lat="45.58119046431534" lon="8.216628990581436"><ele>266.0</ele><time>2026-04-10T14:18:20.999Z</time></trkpt><trkpt lat="45.58130122108854" lon="8.216699980689237"><ele>266.0</ele><time>2026-04-10T14:18:24.999Z</time></trkpt><trkpt lat="45.58137434554391" lon="8.21670284543062"><ele>266.0</ele><time>2026-04-10T14:18:25.999Z</time></trkpt><trkpt lat="45.58145039278473" lon="8.216702061783911"><ele>266.0</ele><time>2026-04-10T14:18:26.999Z</time></trkpt><trkpt lat="45.58155699208221" lon="8.216687299518066"><ele>268.2</ele><time>2026-04-10T14:18:28.999Z</time></trkpt><trkpt lat="45.581622880160005" lon="8.21664385800065"><ele>270.40000000000003</ele><time>2026-04-10T14:18:30.999Z</time></trkpt><trkpt lat="45.58170372718932" lon="8.216572579893713"><ele>272.6</ele><time>2026-04-10T14:18:32.999Z</time></trkpt><trkpt lat="45.581760651604306" lon="8.216530737891278"><ele>274.8</ele><time>2026-04-10T14:18:34.999Z</time></trkpt><trkpt lat="45.58194059915668" lon="8.216482969151919"><ele>277.0</ele><time>2026-04-10T14:18:35.999Z</time></trkpt><trkpt lat="45.58200506382476" lon="8.216435200398728"><ele>279.5</ele><time>2026-04-10T14:18:36.999Z</time></trkpt><trkpt lat="45.582070985816685" lon="8.216395850437625"><ele>282.0</ele><time>2026-04-10T14:18:37.999Z</time></trkpt><trkpt lat="45.58214993361249" lon="8.216338816205543"><ele>284.5</ele><time>2026-04-10T14:18:38.999Z</time></trkpt><trkpt lat="45.58222824002644" lon="8.216274418045849"><ele>287.0</ele><time>2026-04-10T14:18:39.999Z</time></trkpt><trkpt lat="45.58229354263478" lon="8.216214986599978"><ele>289.5</ele><time>2026-04-10T14:18:40.999Z</time></trkpt><trkpt lat="45.58235061601056" lon="8.21615605088182"><ele>292.0</ele><time>2026-04-10T14:18:41.999Z</time></trkpt><trkpt lat="45.5823996155377" lon="8.21608833333925"><ele>292.0</ele><time>2026-04-10T14:18:42.999Z</time></trkpt><trkpt lat="45.58244911291891" lon="8.216021396835043"><ele>292.0</ele><time>2026-04-10T14:18:43.999Z</time></trkpt><trkpt lat="45.58249354195761" lon="8.215956893487494"><ele>292.0</ele><time>2026-04-10T14:18:44.999Z</time></trkpt><trkpt lat="45.58253399284965" lon="8.215876540058428"><ele>292.0</ele><time>2026-04-10T14:18:45.999Z</time></trkpt><trkpt lat="45.58257291384879" lon="8.215791495258294"><ele>292.0</ele><time>2026-04-10T14:18:46.999Z</time></trkpt><trkpt lat="45.58261691267452" lon="8.215699991596539"><ele>292.0</ele><time>2026-04-10T14:18:47.999Z</time></trkpt><trkpt lat="45.58265457486279" lon="8.21561889495647"><ele>292.0</ele><time>2026-04-10T14:18:48.999Z</time></trkpt><trkpt lat="45.58269381754246" lon="8.215527522050118"><ele>293.0</ele><time>2026-04-10T14:18:49.999Z</time></trkpt><trkpt lat="45.58272650583742" lon="8.215438183593232"><ele>294.0</ele><time>2026-04-10T14:18:50.999Z</time></trkpt><trkpt lat="45.582753900030966" lon="8.21533915621327"><ele>295.0</ele><time>2026-04-10T14:18:51.999Z</time></trkpt><trkpt lat="45.58278113366698" lon="8.21524776587876"><ele>296.0</ele><time>2026-04-10T14:18:52.999Z</time></trkpt><trkpt lat="45.58280446334989" lon="8.215148226463386"><ele>297.0</ele><time>2026-04-10T14:18:53.999Z</time></trkpt><trkpt lat="45.582820420987765" lon="8.2150433304624"><ele>298.0</ele><time>2026-04-10T14:18:54.999Z</time></trkpt><trkpt lat="45.58278394807469" lon="8.214901191797916"><ele>298.16666666666663</ele><time>2026-04-10T14:18:55.999Z</time></trkpt><trkpt lat="45.58280720453476" lon="8.214802038270818"><ele>298.3333333333333</ele><time>2026-04-10T14:18:56.999Z</time></trkpt><trkpt lat="45.58281537208826" lon="8.214684596631551"><ele>298.5</ele><time>2026-04-10T14:18:57.999Z</time></trkpt><trkpt lat="45.58280983611924" lon="8.214589439831869"><ele>298.6666666666667</ele><time>2026-04-10T14:18:58.999Z</time></trkpt><trkpt lat="45.58281127016702" lon="8.214483774274807"><ele>298.83333333333337</ele><time>2026-04-10T14:18:59.999Z</time></trkpt><trkpt lat="45.582827245420695" lon="8.214391900979887"><ele>299.0</ele><time>2026-04-10T14:19:00.999Z</time></trkpt><trkpt lat="45.582903411372335" lon="8.21430081003635"><ele>301.59999999999997</ele><time>2026-04-10T14:19:02.999Z</time></trkpt><trkpt lat="45.5830207527223" lon="8.214249337997993"><ele>304.2</ele><time>2026-04-10T14:19:04.999Z</time></trkpt><trkpt lat="45.58309488147665" lon="8.214219272701849"><ele>306.79999999999995</ele><time>2026-04-10T14:19:05.999Z</time></trkpt><trkpt lat="45.5831667227105" lon="8.214202470042434"><ele>309.4</ele><time>2026-04-10T14:19:06.999Z</time></trkpt><trkpt lat="45.58323763273093" lon="8.214170744867484"><ele>312.0</ele><time>2026-04-10T14:19:07.999Z</time></trkpt><trkpt lat="45.5833215376806" lon="8.21405346973214"><ele>312.6666666666667</ele><time>2026-04-10T14:19:09.999Z</time></trkpt><trkpt lat="45.58337615873237" lon="8.213935830867472"><ele>313.33333333333337</ele><time>2026-04-10T14:19:14Z</time></trkpt><trkpt lat="45.58344826334802" lon="8.213871511335935"><ele>314.0</ele><time>2026-04-10T14:19:17Z</time></trkpt><trkpt lat="45.58372531422681" lon="8.213692110238371"><ele>314.1666666666667</ele><time>2026-04-10T14:19:19Z</time></trkpt><trkpt lat="45.58379202625595" lon="8.213694452795353"><ele>314.33333333333337</ele><time>2026-04-10T14:19:20Z</time></trkpt><trkpt lat="45.5838913720259" lon="8.213635162026979"><ele>314.5</ele><time>2026-04-10T14:19:22Z</time></trkpt><trkpt lat="45.58397482577068" lon="8.213503640502214"><ele>314.6666666666667</ele><time>2026-04-10T14:19:24Z</time></trkpt><trkpt lat="45.5840127995133" lon="8.213416297334303"><ele>314.8333333333333</ele><time>2026-04-10T14:19:25Z</time></trkpt><trkpt lat="45.58405255740684" lon="8.213322967504178"><ele>315.0</ele><time>2026-04-10T14:19:26Z</time></trkpt><trkpt lat="45.584087770072195" lon="8.213141303202566"><ele>316.2</ele><time>2026-04-10T14:19:28Z</time></trkpt><trkpt lat="45.584100655858606" lon="8.21296616507109"><ele>317.4</ele><time>2026-04-10T14:19:30Z</time></trkpt><trkpt lat="45.58410593982335" lon="8.212867155869477"><ele>318.6</ele><time>2026-04-10T14:19:31Z</time></trkpt><trkpt lat="45.584115602058894" lon="8.212747513267361"><ele>319.8</ele><time>2026-04-10T14:19:32Z</time></trkpt><trkpt lat="45.584164742892604" lon="8.212589730848046"><ele>321.0</ele><time>2026-04-10T14:19:34Z</time></trkpt><trkpt lat="45.58422002243801" lon="8.212530815435374"><ele>321.0</ele><time>2026-04-10T14:19:35Z</time></trkpt><trkpt lat="45.58428053069254" lon="8.212481823086936"><ele>321.0</ele><time>2026-04-10T14:19:36Z</time></trkpt><trkpt lat="45.584365532689006" lon="8.21243271611072"><ele>321.0</ele><time>2026-04-10T14:19:37Z</time></trkpt><trkpt lat="45.58444232138044" lon="8.21237519613166"><ele>321.0</ele><time>2026-04-10T14:19:38Z</time></trkpt><trkpt lat="45.584517116517326" lon="8.212314176652077"><ele>321.0</ele><time>2026-04-10T14:19:39Z</time></trkpt><trkpt lat="45.584581938459976" lon="8.21225762565806"><ele>321.0</ele><time>2026-04-10T14:19:40Z</time></trkpt><trkpt lat="45.584651695815744" lon="8.21213822387318"><ele>321.1666666666667</ele><time>2026-04-10T14:19:42Z</time></trkpt><trkpt lat="45.584715925255985" lon="8.212032437082739"><ele>321.3333333333333</ele><time>2026-04-10T14:19:44Z</time></trkpt><trkpt lat="45.584772770619196" lon="8.211969174348207"><ele>321.5</ele><time>2026-04-10T14:19:46Z</time></trkpt><trkpt lat="45.584850576963774" lon="8.211876638800414"><ele>321.66666666666663</ele><time>2026-04-10T14:20:34.999Z</time></trkpt><trkpt lat="45.58483686037699" lon="8.211987089030316"><ele>321.8333333333333</ele><time>2026-04-10T14:21:35Z</time></trkpt><trkpt lat="45.58485743748282" lon="8.212099764763146"><ele>322.0</ele><time>2026-04-10T14:21:37Z</time></trkpt><trkpt lat="45.5848822039482" lon="8.212270247019783"><ele>320.40000000000003</ele><time>2026-04-10T14:21:39Z</time></trkpt><trkpt lat="45.5849112577021" lon="8.21246041284981"><ele>318.8</ele><time>2026-04-10T14:21:41Z</time></trkpt><trkpt lat="45.58492764781829" lon="8.212571610105192"><ele>317.2</ele><time>2026-04-10T14:21:42Z</time></trkpt><trkpt lat="45.58494582232566" lon="8.21269486882657"><ele>315.6</ele><time>2026-04-10T14:21:43Z</time></trkpt><trkpt lat="45.58495450295032" lon="8.212807845451058"><ele>314.0</ele><time>2026-04-10T14:21:44Z</time></trkpt><trkpt lat="45.58495266007903" lon="8.212986065761616"><ele>314.0</ele><time>2026-04-10T14:21:46Z</time></trkpt><trkpt lat="45.58496370466862" lon="8.21314313691831"><ele>314.0</ele><time>2026-04-10T14:21:48Z</time></trkpt><trkpt lat="45.58502627611247" lon="8.213177729147345"><ele>314.0</ele><time>2026-04-10T14:21:50Z</time></trkpt><trkpt lat="45.585102079071525" lon="8.2131838687275"><ele>314.0</ele><time>2026-04-10T14:21:53Z</time></trkpt><trkpt lat="45.58511865117679" lon="8.213075647375609"><ele>314.0</ele><time>2026-04-10T14:21:57Z</time></trkpt><trkpt lat="45.58513343858138" lon="8.212986176171615"><ele>314.0</ele><time>2026-04-10T14:22:00Z</time></trkpt><trkpt lat="45.58513692991939" lon="8.212880797168392"><ele>314.0</ele><time>2026-04-10T14:22:02Z</time></trkpt><trkpt lat="45.585139462827016" lon="8.212713721876005"><ele>314.0</ele><time>2026-04-10T14:22:04Z</time></trkpt><trkpt lat="45.58519142967683" lon="8.212577680735468"><ele>314.0</ele><time>2026-04-10T14:22:06Z</time></trkpt><trkpt lat="45.58529986689979" lon="8.21265952623902"><ele>314.0</ele><time>2026-04-10T14:22:08Z</time></trkpt><trkpt lat="45.58535175386652" lon="8.212716328176466"><ele>314.0</ele><time>2026-04-10T14:22:09Z</time></trkpt><trkpt lat="45.58542500234068" lon="8.212764339640108"><ele>314.1666666666667</ele><time>2026-04-10T14:22:11Z</time></trkpt><trkpt lat="45.585456312021165" lon="8.212685349655755"><ele>314.33333333333337</ele><time>2026-04-10T14:22:13Z</time></trkpt><trkpt lat="45.585389790207046" lon="8.212551438230966"><ele>314.5</ele><time>2026-04-10T14:22:29.999Z</time></trkpt><trkpt lat="45.585453128235805" lon="8.212583571146903"><ele>314.6666666666667</ele><time>2026-04-10T14:23:07.999Z</time></trkpt><trkpt lat="45.58540753938082" lon="8.212481836783034"><ele>314.8333333333333</ele><time>2026-04-10T14:23:54Z</time></trkpt><trkpt lat="45.58540422681966" lon="8.21238253461363"><ele>315.0</ele><time>2026-04-10T14:23:56Z</time></trkpt><trkpt lat="45.58540845947141" lon="8.212291561488943"><ele>315.0</ele><time>2026-04-10T14:23:58Z</time></trkpt><trkpt lat="45.58539695867067" lon="8.212193013406047"><ele>315.0</ele><time>2026-04-10T14:24:01Z</time></trkpt><trkpt lat="45.585368545775324" lon="8.2120696099142"><ele>315.0</ele><time>2026-04-10T14:24:04Z</time></trkpt><trkpt lat="45.5854020719811" lon="8.211988219261674"><ele>315.0</ele><time>2026-04-10T14:24:09Z</time></trkpt><trkpt lat="45.58550818772176" lon="8.211983829424694"><ele>315.0</ele><time>2026-04-10T14:30:39Z</time></trkpt><trkpt lat="45.585587925105216" lon="8.211949209086903"><ele>315.0</ele><time>2026-04-10T14:30:41.999Z</time></trkpt><trkpt lat="45.58566158309399" lon="8.2119429366591"><ele>315.0</ele><time>2026-04-10T14:30:43.999Z</time></trkpt><trkpt lat="45.58571600416517" lon="8.212051635827107"><ele>315.0</ele><time>2026-04-10T14:30:45.999Z</time></trkpt><trkpt lat="45.58579391805056" lon="8.212014604337316"><ele>315.0</ele><time>2026-04-10T14:30:48.999Z</time></trkpt><trkpt lat="45.5858138135504" lon="8.21192078171245"><ele>315.0</ele><time>2026-04-10T14:30:50.999Z</time></trkpt><trkpt lat="45.58585705131967" lon="8.211769963795282"><ele>315.0</ele><time>2026-04-10T14:30:52.999Z</time></trkpt><trkpt lat="45.585880512731514" lon="8.211658613148266"><ele>315.0</ele><time>2026-04-10T14:30:53.999Z</time></trkpt><trkpt lat="45.58587867891581" lon="8.211560904486705"><ele>315.6</ele><time>2026-04-10T14:30:54.999Z</time></trkpt><trkpt lat="45.585872544398185" lon="8.211359898567586"><ele>316.2</ele><time>2026-04-10T14:30:56.999Z</time></trkpt><trkpt lat="45.58589064160394" lon="8.211231757994044"><ele>316.8</ele><time>2026-04-10T14:30:57.999Z</time></trkpt><trkpt lat="45.58588590955911" lon="8.211104331625027"><ele>317.4</ele><time>2026-04-10T14:30:58.999Z</time></trkpt><trkpt lat="45.5858828408127" lon="8.210985335676327"><ele>318.0</ele><time>2026-04-10T14:31:00.999Z</time></trkpt><trkpt lat="45.585928515034745" lon="8.210909271075224"><ele>318.0</ele><time>2026-04-10T14:31:02.999Z</time></trkpt><trkpt lat="45.585979323535966" lon="8.210748832201633"><ele>318.0</ele><time>2026-04-10T14:31:04.999Z</time></trkpt><trkpt lat="45.586050450480066" lon="8.2106948333309"><ele>318.0</ele><time>2026-04-10T14:31:06.999Z</time></trkpt><trkpt lat="45.5861096604361" lon="8.210768108558087"><ele>318.0</ele><time>2026-04-10T14:31:08.999Z</time></trkpt><trkpt lat="45.586159886098585" lon="8.210894411668113"><ele>318.0</ele><time>2026-04-10T14:31:10.999Z</time></trkpt><trkpt lat="45.58620199506221" lon="8.211014961503126"><ele>318.0</ele><time>2026-04-10T14:31:12.999Z</time></trkpt><trkpt lat="45.58629451480266" lon="8.21099878839328"><ele>318.0</ele><time>2026-04-10T14:31:15.999Z</time></trkpt><trkpt lat="45.58638406598551" lon="8.210979619045503"><ele>318.0</ele><time>2026-04-10T14:31:18.999Z</time></trkpt><trkpt lat="45.58641722310341" lon="8.210858693757201"><ele>318.0</ele><time>2026-04-10T14:31:21.999Z</time></trkpt><trkpt lat="45.58646674854734" lon="8.210747127783835"><ele>318.0</ele><time>2026-04-10T14:31:23.999Z</time></trkpt><trkpt lat="45.586534502877996" lon="8.210704682779602"><ele>318.0</ele><time>2026-04-10T14:31:25.999Z</time></trkpt><trkpt lat="45.58661054607937" lon="8.21066980145856"><ele>318.4</ele><time>2026-04-10T14:31:26.999Z</time></trkpt><trkpt lat="45.58675214769412" lon="8.210603023658223"><ele>318.8</ele><time>2026-04-10T14:31:28.999Z</time></trkpt><trkpt lat="45.5868420584218" lon="8.210557303976534"><ele>319.2</ele><time>2026-04-10T14:31:29.999Z</time></trkpt><trkpt lat="45.58692015156194" lon="8.21051297772656"><ele>319.6</ele><time>2026-04-10T14:31:30.999Z</time></trkpt><trkpt lat="45.58698539489767" lon="8.210467721659121"><ele>320.0</ele><time>2026-04-10T14:31:31.999Z</time></trkpt><trkpt lat="45.58704396376166" lon="8.210422306456769"><ele>320.0</ele><time>2026-04-10T14:31:32.999Z</time></trkpt><trkpt lat="45.58703100951753" lon="8.2102712356088"><ele>320.0</ele><time>2026-04-10T14:31:34.999Z</time></trkpt><trkpt lat="45.58701181851182" lon="8.210173495019632"><ele>320.0</ele><time>2026-04-10T14:31:35.999Z</time></trkpt><trkpt lat="45.586984117154614" lon="8.210042318867393"><ele>320.0</ele><time>2026-04-10T14:31:37.999Z</time></trkpt><trkpt lat="45.58692863912918" lon="8.209998110077168"><ele>320.0</ele><time>2026-04-10T14:31:39.999Z</time></trkpt><trkpt lat="45.58686467959859" lon="8.209969104147598"><ele>320.0</ele><time>2026-04-10T14:31:42.999Z</time></trkpt><trkpt lat="45.58692909655987" lon="8.209943234656588"><ele>320.0</ele><time>2026-04-10T14:33:27.999Z</time></trkpt><trkpt lat="45.586988910462765" lon="8.209976109203375"><ele>320.0</ele><time>2026-04-10T14:33:29.999Z</time></trkpt><trkpt lat="45.58705767044496" lon="8.210010994548862"><ele>320.0</ele><time>2026-04-10T14:33:31.999Z</time></trkpt><trkpt lat="45.58715909326134" lon="8.210061138658817"><ele>320.0</ele><time>2026-04-10T14:33:33.999Z</time></trkpt><trkpt lat="45.58727759754702" lon="8.21011498427375"><ele>320.0</ele><time>2026-04-10T14:33:35.999Z</time></trkpt><trkpt lat="45.58734553104579" lon="8.210145117540113"><ele>320.0</ele><time>2026-04-10T14:33:36.999Z</time></trkpt><trkpt lat="45.58741149119016" lon="8.210190067528615"><ele>320.0</ele><time>2026-04-10T14:33:37.999Z</time></trkpt><trkpt lat="45.58748180834128" lon="8.21024043366409"><ele>320.0</ele><time>2026-04-10T14:33:38.999Z</time></trkpt><trkpt lat="45.587559626099946" lon="8.210295249982444"><ele>320.0</ele><time>2026-04-10T14:33:39.999Z</time></trkpt><trkpt lat="45.587632162372344" lon="8.21036112968937"><ele>320.0</ele><time>2026-04-10T14:33:40.999Z</time></trkpt><trkpt lat="45.58767302091722" lon="8.210435504999541"><ele>320.0</ele><time>2026-04-10T14:33:41.999Z</time></trkpt><trkpt lat="45.58771426911192" lon="8.210520240673535"><ele>320.0</ele><time>2026-04-10T14:33:42.999Z</time></trkpt><trkpt lat="45.58774837786453" lon="8.210615940825988"><ele>319.5</ele><time>2026-04-10T14:33:43.999Z</time></trkpt><trkpt lat="45.58777823685564" lon="8.21071496282161"><ele>319.0</ele><time>2026-04-10T14:33:44.999Z</time></trkpt><trkpt lat="45.58781977926843" lon="8.210786845150812"><ele>318.5</ele><time>2026-04-10T14:33:45.999Z</time></trkpt><trkpt lat="45.58787254288644" lon="8.210849474514424"><ele>318.0</ele><time>2026-04-10T14:33:46.999Z</time></trkpt><trkpt lat="45.58792392025755" lon="8.210931751216973"><ele>317.5</ele><time>2026-04-10T14:33:47.999Z</time></trkpt><trkpt lat="45.58797921172947" lon="8.211056290245871"><ele>317.0</ele><time>2026-04-10T14:33:49.998Z</time></trkpt><trkpt lat="45.58793865948817" lon="8.211228412553586"><ele>314.6666666666667</ele><time>2026-04-10T14:33:51.998Z</time></trkpt><trkpt lat="45.587902165388904" lon="8.211324323930796"><ele>312.33333333333337</ele><time>2026-04-10T14:33:53Z</time></trkpt><trkpt lat="45.58786114679565" lon="8.211403466660746"><ele>310.0</ele><time>2026-04-10T14:33:54Z</time></trkpt><trkpt lat="45.587822010300876" lon="8.211498646028675"><ele>307.6666666666667</ele><time>2026-04-10T14:33:55Z</time></trkpt><trkpt lat="45.587775827930244" lon="8.211562937812861"><ele>305.3333333333333</ele><time>2026-04-10T14:33:56Z</time></trkpt><trkpt lat="45.5876954524028" lon="8.211614880841488"><ele>303.0</ele><time>2026-04-10T14:33:58Z</time></trkpt><trkpt lat="45.58782335868761" lon="8.211598160872548"><ele>302.0</ele><time>2026-04-10T14:34:04Z</time></trkpt><trkpt lat="45.5878810494427" lon="8.211540256801538"><ele>301.0</ele><time>2026-04-10T14:34:05Z</time></trkpt><trkpt lat="45.58793399549125" lon="8.211467220698658"><ele>300.0</ele><time>2026-04-10T14:34:06Z</time></trkpt><trkpt lat="45.58799510648838" lon="8.211403885476683"><ele>299.0</ele><time>2026-04-10T14:34:07Z</time></trkpt><trkpt lat="45.58805128320749" lon="8.211360488474988"><ele>298.0</ele><time>2026-04-10T14:34:08Z</time></trkpt><trkpt lat="45.58816018438164" lon="8.211278724173686"><ele>297.0</ele><time>2026-04-10T14:34:10Z</time></trkpt><trkpt lat="45.58826241201741" lon="8.211202835757518"><ele>297.0</ele><time>2026-04-10T14:34:12Z</time></trkpt><trkpt lat="45.58831664488148" lon="8.211093101004133"><ele>297.0</ele><time>2026-04-10T14:34:14Z</time></trkpt><trkpt lat="45.58829091976411" lon="8.210964694517775"><ele>297.0</ele><time>2026-04-10T14:34:16Z</time></trkpt><trkpt lat="45.58824376745941" lon="8.210792045057785"><ele>297.0</ele><time>2026-04-10T14:34:18Z</time></trkpt><trkpt lat="45.58821627561713" lon="8.210652400207634"><ele>297.0</ele><time>2026-04-10T14:34:20Z</time></trkpt><trkpt lat="45.58818080332164" lon="8.210492411672744"><ele>297.2</ele><time>2026-04-10T14:34:22Z</time></trkpt><trkpt lat="45.588193456662445" lon="8.210298256050233"><ele>297.4</ele><time>2026-04-10T14:34:24Z</time></trkpt><trkpt lat="45.58820502330446" lon="8.210186602229479"><ele>297.6</ele><time>2026-04-10T14:34:25Z</time></trkpt><trkpt lat="45.58820755588591" lon="8.210040197635557"><ele>297.8</ele><time>2026-04-10T14:34:27Z</time></trkpt><trkpt lat="45.58830518586317" lon="8.209996479366604"><ele>298.0</ele><time>2026-04-10T14:34:30Z</time></trkpt><trkpt lat="45.58841110280057" lon="8.210039163871222"><ele>298.0</ele><time>2026-04-10T14:34:32Z</time></trkpt><trkpt lat="45.588476133945164" lon="8.209944576139264"><ele>298.0</ele><time>2026-04-10T14:34:34Z</time></trkpt><trkpt lat="45.58850165864673" lon="8.209829770283775"><ele>298.0</ele><time>2026-04-10T14:34:37Z</time></trkpt><trkpt lat="45.58851349863279" lon="8.209714503731343"><ele>298.0</ele><time>2026-04-10T14:34:40.999Z</time></trkpt><trkpt lat="45.58845711471841" lon="8.209581771785412"><ele>298.0</ele><time>2026-04-10T14:34:42.999Z</time></trkpt><trkpt lat="45.588435988556036" lon="8.209493741628602"><ele>298.0</ele><time>2026-04-10T14:34:43.999Z</time></trkpt><trkpt lat="45.58841027025378" lon="8.209405951194297"><ele>298.8333333333333</ele><time>2026-04-10T14:34:44.999Z</time></trkpt><trkpt lat="45.58840661544236" lon="8.20929654110408"><ele>299.66666666666663</ele><time>2026-04-10T14:34:45.999Z</time></trkpt><trkpt lat="45.58840207524058" lon="8.209196507901499"><ele>300.5</ele><time>2026-04-10T14:34:46.999Z</time></trkpt><trkpt lat="45.588425201177344" lon="8.20905229120887"><ele>301.3333333333333</ele><time>2026-04-10T14:34:48.999Z</time></trkpt><trkpt lat="45.58850894118749" lon="8.208970929898168"><ele>302.1666666666667</ele><time>2026-04-10T14:34:50.999Z</time></trkpt><trkpt lat="45.58858548679104" lon="8.208977005173065"><ele>303.0</ele><time>2026-04-10T14:34:51.999Z</time></trkpt><trkpt lat="45.5887157739786" lon="8.20904104341691"><ele>303.4</ele><time>2026-04-10T14:34:53.999Z</time></trkpt><trkpt lat="45.5888336717617" lon="8.20906365563398"><ele>303.8</ele><time>2026-04-10T14:34:55.999Z</time></trkpt><trkpt lat="45.588940360294096" lon="8.20899297281693"><ele>304.2</ele><time>2026-04-10T14:34:57.999Z</time></trkpt><trkpt lat="45.589054195833405" lon="8.208936555504728"><ele>304.6</ele><time>2026-04-10T14:34:59.999Z</time></trkpt><trkpt lat="45.5891141043029" lon="8.208881113059745"><ele>305.0</ele><time>2026-04-10T14:35:00.999Z</time></trkpt><trkpt lat="45.58917403215643" lon="8.20882840805327"><ele>305.0</ele><time>2026-04-10T14:35:01.999Z</time></trkpt><trkpt lat="45.58922722574201" lon="8.208770035947609"><ele>305.0</ele><time>2026-04-10T14:35:02.999Z</time></trkpt><trkpt lat="45.5892802866669" lon="8.208703976342896"><ele>305.0</ele><time>2026-04-10T14:35:03.999Z</time></trkpt><trkpt lat="45.58931725985518" lon="8.208625088985622"><ele>305.0</ele><time>2026-04-10T14:35:04.999Z</time></trkpt><trkpt lat="45.589375781427556" lon="8.20849000443615"><ele>305.0</ele><time>2026-04-10T14:35:06.999Z</time></trkpt><trkpt lat="45.58939818370351" lon="8.208321117573693"><ele>305.0</ele><time>2026-04-10T14:35:08.999Z</time></trkpt><trkpt lat="45.589415874993044" lon="8.208228005843196"><ele>306.33333333333337</ele><time>2026-04-10T14:35:09.999Z</time></trkpt><trkpt lat="45.5894370106183" lon="8.208139040276533"><ele>307.6666666666667</ele><time>2026-04-10T14:35:10.999Z</time></trkpt><trkpt lat="45.589474436395456" lon="8.207983430371922"><ele>309.0</ele><time>2026-04-10T14:35:12.999Z</time></trkpt><trkpt lat="45.58940791414543" lon="8.207912715938157"><ele>310.3333333333333</ele><time>2026-04-10T14:35:16.999Z</time></trkpt><trkpt lat="45.58931875207667" lon="8.207868235218495"><ele>311.66666666666663</ele><time>2026-04-10T14:35:18.999Z</time></trkpt><trkpt lat="45.58925734695655" lon="8.207840411301259"><ele>313.0</ele><time>2026-04-10T14:35:19.999Z</time></trkpt><trkpt lat="45.5891730132923" lon="8.207866051828333"><ele>313.0</ele><time>2026-04-10T14:35:21.999Z</time></trkpt><trkpt lat="45.58911215142195" lon="8.207925661952663"><ele>313.0</ele><time>2026-04-10T14:35:22.999Z</time></trkpt><trkpt lat="45.589049939267646" lon="8.207993851754775"><ele>313.0</ele><time>2026-04-10T14:35:23.999Z</time></trkpt><trkpt lat="45.58898529087492" lon="8.20808916270477"><ele>313.0</ele><time>2026-04-10T14:35:24.999Z</time></trkpt><trkpt lat="45.588923352130635" lon="8.208199400149514"><ele>313.0</ele><time>2026-04-10T14:35:25.999Z</time></trkpt><trkpt lat="45.5888517855708" lon="8.208296070991455"><ele>313.0</ele><time>2026-04-10T14:35:26.999Z</time></trkpt><trkpt lat="45.58877455965201" lon="8.208382698305666"><ele>313.0</ele><time>2026-04-10T14:35:27.999Z</time></trkpt><trkpt lat="45.58869857784687" lon="8.20845061620346"><ele>313.0</ele><time>2026-04-10T14:35:28.999Z</time></trkpt><trkpt lat="45.58861974336474" lon="8.208500142512671"><ele>313.0</ele><time>2026-04-10T14:35:29.999Z</time></trkpt><trkpt lat="45.58854071386482" lon="8.208537547411845"><ele>313.0</ele><time>2026-04-10T14:35:30.999Z</time></trkpt><trkpt lat="45.588459321315796" lon="8.208555425747084"><ele>313.0</ele><time>2026-04-10T14:35:31.999Z</time></trkpt><trkpt lat="45.588379175186155" lon="8.20858584284668"><ele>313.0</ele><time>2026-04-10T14:35:32.999Z</time></trkpt><trkpt lat="45.588284783104456" lon="8.20860638412986"><ele>313.0</ele><time>2026-04-10T14:35:33.999Z</time></trkpt><trkpt lat="45.58819069822415" lon="8.208617400512015"><ele>313.0</ele><time>2026-04-10T14:35:34.999Z</time></trkpt><trkpt lat="45.58812509734704" lon="8.208613477705697"><ele>313.0</ele><time>2026-04-10T14:35:35.999Z</time></trkpt><trkpt lat="45.58804173658061" lon="8.208592717458117"><ele>313.0</ele><time>2026-04-10T14:35:37.999Z</time></trkpt><trkpt lat="45.587985794003785" lon="8.20866627096203"><ele>313.0</ele><time>2026-04-10T14:35:40.999Z</time></trkpt><trkpt lat="45.588041813000615" lon="8.208816372490084"><ele>313.0</ele><time>2026-04-10T14:35:42.999Z</time></trkpt><trkpt lat="45.58806248934161" lon="8.208943794020229"><ele>313.0</ele><time>2026-04-10T14:35:44.999Z</time></trkpt><trkpt lat="45.58798945319313" lon="8.209029608087318"><ele>313.0</ele><time>2026-04-10T14:35:46.999Z</time></trkpt><trkpt lat="45.58787301986054" lon="8.20897394478425"><ele>313.0</ele><time>2026-04-10T14:35:48.999Z</time></trkpt><trkpt lat="45.58785183158585" lon="8.208818849526628"><ele>313.0</ele><time>2026-04-10T14:35:50.999Z</time></trkpt><trkpt lat="45.5878622147802" lon="8.20864500850063"><ele>313.0</ele><time>2026-04-10T14:35:52.998Z</time></trkpt><trkpt lat="45.5878563171569" lon="8.208543391334901"><ele>313.0</ele><time>2026-04-10T14:35:53.998Z</time></trkpt><trkpt lat="45.5878496673375" lon="8.208449144578609"><ele>313.0</ele><time>2026-04-10T14:35:54.998Z</time></trkpt><trkpt lat="45.58783575873869" lon="8.208339631516752"><ele>313.0</ele><time>2026-04-10T14:35:55.998Z</time></trkpt><trkpt lat="45.58785020167808" lon="8.208238349002698"><ele>313.0</ele><time>2026-04-10T14:35:56.998Z</time></trkpt><trkpt lat="45.5879000750513" lon="8.208162874919966"><ele>313.0</ele><time>2026-04-10T14:35:57.998Z</time></trkpt><trkpt lat="45.58796376571247" lon="8.208129819417563"><ele>313.0</ele><time>2026-04-10T14:35:59Z</time></trkpt><trkpt lat="45.588025759412545" lon="8.208175916355062"><ele>313.0</ele><time>2026-04-10T14:36:00Z</time></trkpt><trkpt lat="45.58807687588989" lon="8.208272197967942"><ele>313.0</ele><time>2026-04-10T14:36:01Z</time></trkpt><trkpt lat="45.58813576711621" lon="8.208366857574095"><ele>313.0</ele><time>2026-04-10T14:36:02Z</time></trkpt><trkpt lat="45.588216227347964" lon="8.208342648537291"><ele>313.0</ele><time>2026-04-10T14:36:05Z</time></trkpt><trkpt lat="45.58829385251802" lon="8.20829562158501"><ele>313.0</ele><time>2026-04-10T14:36:06Z</time></trkpt><trkpt lat="45.58839112453951" lon="8.208257365142229"><ele>313.0</ele><time>2026-04-10T14:36:07Z</time></trkpt><trkpt lat="45.588471511401664" lon="8.208221536200393"><ele>313.0</ele><time>2026-04-10T14:36:08Z</time></trkpt><trkpt lat="45.58856962917904" lon="8.208191036066397"><ele>313.0</ele><time>2026-04-10T14:36:09Z</time></trkpt><trkpt lat="45.58865160484236" lon="8.208108468453835"><ele>313.0</ele><time>2026-04-10T14:36:11Z</time></trkpt><trkpt lat="45.58869107376163" lon="8.20802717908128"><ele>313.0</ele><time>2026-04-10T14:36:12Z</time></trkpt><trkpt lat="45.58870822227259" lon="8.207926126144136"><ele>313.0</ele><time>2026-04-10T14:36:13Z</time></trkpt><trkpt lat="45.58873295993053" lon="8.207837805552149"><ele>313.0</ele><time>2026-04-10T14:36:14Z</time></trkpt><trkpt lat="45.588781715278785" lon="8.207753039513817"><ele>313.0</ele><time>2026-04-10T14:36:15Z</time></trkpt><trkpt lat="45.588838586672" lon="8.20766978505457"><ele>313.0</ele><time>2026-04-10T14:36:16Z</time></trkpt><trkpt lat="45.588875606482745" lon="8.207574534259562"><ele>313.0</ele><time>2026-04-10T14:36:17Z</time></trkpt><trkpt lat="45.58890880129806" lon="8.207483853219056"><ele>313.0</ele><time>2026-04-10T14:36:18Z</time></trkpt><trkpt lat="45.588935235507655" lon="8.207391249395807"><ele>313.0</ele><time>2026-04-10T14:36:19Z</time></trkpt><trkpt lat="45.58896996685632" lon="8.207309025544156"><ele>313.0</ele><time>2026-04-10T14:36:20Z</time></trkpt><trkpt lat="45.58903340520299" lon="8.207188867646828"><ele>313.8333333333333</ele><time>2026-04-10T14:36:22Z</time></trkpt><trkpt lat="45.58906094692697" lon="8.207092727044417"><ele>314.66666666666663</ele><time>2026-04-10T14:36:24Z</time></trkpt><trkpt lat="45.589043602987296" lon="8.206917381496112"><ele>315.5</ele><time>2026-04-10T14:36:26Z</time></trkpt><trkpt lat="45.588987967789926" lon="8.206848221255045"><ele>316.3333333333333</ele><time>2026-04-10T14:36:27Z</time></trkpt><trkpt lat="45.58891712754921" lon="8.206762146543891"><ele>317.1666666666667</ele><time>2026-04-10T14:36:28Z</time></trkpt><trkpt lat="45.588864939957894" lon="8.206703116966505"><ele>318.0</ele><time>2026-04-10T14:36:29Z</time></trkpt><trkpt lat="45.58879263031111" lon="8.206704300502965"><ele>318.0</ele><time>2026-04-10T14:36:31Z</time></trkpt><trkpt lat="45.588780103630036" lon="8.206799262178823"><ele>318.0</ele><time>2026-04-10T14:36:33Z</time></trkpt><trkpt lat="45.58878632980545" lon="8.206922830295863"><ele>318.0</ele><time>2026-04-10T14:36:35Z</time></trkpt><trkpt lat="45.58873595498541" lon="8.207012959565356"><ele>318.0</ele><time>2026-04-10T14:36:37Z</time></trkpt><trkpt lat="45.58866030074531" lon="8.206974146741235"><ele>318.0</ele><time>2026-04-10T14:36:39Z</time></trkpt><trkpt lat="45.58859735601538" lon="8.20690663350417"><ele>318.0</ele><time>2026-04-10T14:36:40Z</time></trkpt><trkpt lat="45.58853216582022" lon="8.206823978072295"><ele>319.6666666666667</ele><time>2026-04-10T14:36:41Z</time></trkpt><trkpt lat="45.58848066715667" lon="8.206733776128022"><ele>321.3333333333333</ele><time>2026-04-10T14:36:44.999Z</time></trkpt><trkpt lat="45.588440961448924" lon="8.206663310343256"><ele>323.0</ele><time>2026-04-10T14:36:46.999Z</time></trkpt><trkpt lat="45.58839576216578" lon="8.206565190805666"><ele>324.66666666666663</ele><time>2026-04-10T14:36:48.999Z</time></trkpt><trkpt lat="45.58834679627366" lon="8.206492492080738"><ele>326.3333333333333</ele><time>2026-04-10T14:36:50.999Z</time></trkpt><trkpt lat="45.588286369295275" lon="8.20645903672424"><ele>328.0</ele><time>2026-04-10T14:36:51.999Z</time></trkpt><trkpt lat="45.588216239092205" lon="8.20638422602351"><ele>328.8333333333333</ele><time>2026-04-10T14:36:53.999Z</time></trkpt><trkpt lat="45.588138804907786" lon="8.206306702695185"><ele>329.66666666666663</ele><time>2026-04-10T14:36:55.999Z</time></trkpt><trkpt lat="45.588070534365464" lon="8.206223202560997"><ele>330.5</ele><time>2026-04-10T14:36:57.999Z</time></trkpt><trkpt lat="45.58799973022138" lon="8.206140549396256"><ele>331.3333333333333</ele><time>2026-04-10T14:36:59.999Z</time></trkpt><trkpt lat="45.58798807305116" lon="8.206014638645536"><ele>332.1666666666667</ele><time>2026-04-10T14:37:02.999Z</time></trkpt><trkpt lat="45.588019942552656" lon="8.20591948770606"><ele>333.0</ele><time>2026-04-10T14:37:06.999Z</time></trkpt><trkpt lat="45.588065183478726" lon="8.205854521527527"><ele>333.0</ele><time>2026-04-10T14:37:16.999Z</time></trkpt><trkpt lat="45.58810536111556" lon="8.205783375141182"><ele>333.0</ele><time>2026-04-10T14:37:19.999Z</time></trkpt><trkpt lat="45.588174601005" lon="8.20570704334716"><ele>333.0</ele><time>2026-04-10T14:37:39.999Z</time></trkpt><trkpt lat="45.5882221668148" lon="8.205620480358835"><ele>333.0</ele><time>2026-04-10T14:37:41.999Z</time></trkpt><trkpt lat="45.58830522383632" lon="8.205537813318275"><ele>333.0</ele><time>2026-04-10T14:37:43.999Z</time></trkpt><trkpt lat="45.58836552187762" lon="8.205503945206827"><ele>333.0</ele><time>2026-04-10T14:37:44.999Z</time></trkpt><trkpt lat="45.588481770020465" lon="8.20541132333668"><ele>333.6666666666667</ele><time>2026-04-10T14:37:46.999Z</time></trkpt><trkpt lat="45.588569855030606" lon="8.20541331344771"><ele>334.3333333333333</ele><time>2026-04-10T14:37:47.999Z</time></trkpt><trkpt lat="45.58863515581418" lon="8.20535049841292"><ele>335.0</ele><time>2026-04-10T14:37:48.999Z</time></trkpt><trkpt lat="45.58870101866721" lon="8.205289530963244"><ele>335.66666666666663</ele><time>2026-04-10T14:37:49.999Z</time></trkpt><trkpt lat="45.588762480051855" lon="8.205232637923544"><ele>336.3333333333333</ele><time>2026-04-10T14:37:50.999Z</time></trkpt><trkpt lat="45.58883322874151" lon="8.20516714773224"><ele>337.0</ele><time>2026-04-10T14:37:51.999Z</time></trkpt><trkpt lat="45.58891118485043" lon="8.205094952411203"><ele>337.0</ele><time>2026-04-10T14:37:52.998Z</time></trkpt><trkpt lat="45.58898746135952" lon="8.205024176174136"><ele>337.0</ele><time>2026-04-10T14:37:53.998Z</time></trkpt><trkpt lat="45.589057443470345" lon="8.204938923705827"><ele>337.0</ele><time>2026-04-10T14:37:54.998Z</time></trkpt><trkpt lat="45.58913734915044" lon="8.20486652131018"><ele>337.0</ele><time>2026-04-10T14:37:55.998Z</time></trkpt><trkpt lat="45.58921601527884" lon="8.204799635646168"><ele>337.0</ele><time>2026-04-10T14:37:56.998Z</time></trkpt><trkpt lat="45.589295528946614" lon="8.204727670177622"><ele>336.8333333333333</ele><time>2026-04-10T14:37:57.998Z</time></trkpt><trkpt lat="45.58937321707677" lon="8.204654245974716"><ele>336.66666666666663</ele><time>2026-04-10T14:37:58.998Z</time></trkpt><trkpt lat="45.5894493980906" lon="8.204579582986963"><ele>336.5</ele><time>2026-04-10T14:37:59.998Z</time></trkpt><trkpt lat="45.58951081439841" lon="8.204533497500199"><ele>336.3333333333333</ele><time>2026-04-10T14:38:00.998Z</time></trkpt><trkpt lat="45.58958482707442" lon="8.204464457419046"><ele>336.1666666666667</ele><time>2026-04-10T14:38:01.998Z</time></trkpt><trkpt lat="45.58966288256927" lon="8.204391646031288"><ele>336.0</ele><time>2026-04-10T14:38:02.998Z</time></trkpt><trkpt lat="45.589739005662366" lon="8.204320637471605"><ele>336.0</ele><time>2026-04-10T14:38:03.998Z</time></trkpt><trkpt lat="45.58981856897705" lon="8.204246419474174"><ele>336.0</ele><time>2026-04-10T14:38:05Z</time></trkpt><trkpt lat="45.58989509886577" lon="8.204175031337149"><ele>336.0</ele><time>2026-04-10T14:38:06Z</time></trkpt><trkpt lat="45.58997301082352" lon="8.204101392670674"><ele>336.0</ele><time>2026-04-10T14:38:07Z</time></trkpt><trkpt lat="45.5900498701974" lon="8.204028322592812"><ele>336.0</ele><time>2026-04-10T14:38:08Z</time></trkpt><trkpt lat="45.590127334636115" lon="8.203954676855233"><ele>335.8333333333333</ele><time>2026-04-10T14:38:09Z</time></trkpt><trkpt lat="45.59020214892808" lon="8.203883669900634"><ele>335.6666666666667</ele><time>2026-04-10T14:38:10Z</time></trkpt><trkpt lat="45.59027428429036" lon="8.203816813821886"><ele>335.5</ele><time>2026-04-10T14:38:11Z</time></trkpt><trkpt lat="45.59034339939191" lon="8.203752756885645"><ele>335.33333333333337</ele><time>2026-04-10T14:38:12Z</time></trkpt><trkpt lat="45.59041315804956" lon="8.203690678677322"><ele>335.1666666666667</ele><time>2026-04-10T14:38:13Z</time></trkpt><trkpt lat="45.59046719389283" lon="8.20358719857034"><ele>335.0</ele><time>2026-04-10T14:38:14Z</time></trkpt><trkpt lat="45.59054259213894" lon="8.203534138837163"><ele>335.0</ele><time>2026-04-10T14:38:15Z</time></trkpt><trkpt lat="45.59062317787512" lon="8.20349700009642"><ele>335.0</ele><time>2026-04-10T14:38:16Z</time></trkpt><trkpt lat="45.59070281971205" lon="8.203471587505847"><ele>335.0</ele><time>2026-04-10T14:38:17Z</time></trkpt><trkpt lat="45.59077669553026" lon="8.203464484805746"><ele>335.0</ele><time>2026-04-10T14:38:18Z</time></trkpt><trkpt lat="45.59087248185426" lon="8.203500739825715"><ele>335.0</ele><time>2026-04-10T14:38:20Z</time></trkpt><trkpt lat="45.59093234564498" lon="8.20354180204973"><ele>335.0</ele><time>2026-04-10T14:38:23Z</time></trkpt><trkpt lat="45.59101145259113" lon="8.203527733482169"><ele>335.0</ele><time>2026-04-10T14:38:29Z</time></trkpt><trkpt lat="45.59113098085901" lon="8.20360975259281"><ele>335.0</ele><time>2026-04-10T14:38:31Z</time></trkpt><trkpt lat="45.5912012573035" lon="8.2036858972133"><ele>335.0</ele><time>2026-04-10T14:38:32Z</time></trkpt><trkpt lat="45.59127190966103" lon="8.203763081047967"><ele>335.0</ele><time>2026-04-10T14:38:33Z</time></trkpt><trkpt lat="45.591330264457085" lon="8.203860324025895"><ele>335.0</ele><time>2026-04-10T14:38:34Z</time></trkpt><trkpt lat="45.59137471996256" lon="8.203978526069305"><ele>333.0</ele><time>2026-04-10T14:38:35Z</time></trkpt><trkpt lat="45.59140597980214" lon="8.204103822506832"><ele>331.0</ele><time>2026-04-10T14:38:36Z</time></trkpt><trkpt lat="45.59143137688731" lon="8.204233066081455"><ele>329.0</ele><time>2026-04-10T14:38:37Z</time></trkpt><trkpt lat="45.59146014986862" lon="8.204360107199848"><ele>327.0</ele><time>2026-04-10T14:38:38Z</time></trkpt><trkpt lat="45.59148981475386" lon="8.204485343147592"><ele>325.0</ele><time>2026-04-10T14:38:39Z</time></trkpt><trkpt lat="45.59152128383523" lon="8.20460476044274"><ele>325.0</ele><time>2026-04-10T14:38:40Z</time></trkpt><trkpt lat="45.59154939041778" lon="8.204713286627742"><ele>325.0</ele><time>2026-04-10T14:38:41Z</time></trkpt><trkpt lat="45.59157168585665" lon="8.204811214178642"><ele>325.0</ele><time>2026-04-10T14:38:42Z</time></trkpt><trkpt lat="45.59158000018393" lon="8.204904020647055"><ele>325.0</ele><time>2026-04-10T14:38:43Z</time></trkpt><trkpt lat="45.59161163736781" lon="8.205025593589786"><ele>325.0</ele><time>2026-04-10T14:38:44.999Z</time></trkpt><trkpt lat="45.59168631916123" lon="8.205005875536916"><ele>325.0</ele><time>2026-04-10T14:39:18.999Z</time></trkpt><trkpt lat="45.59174806472342" lon="8.20502665521055"><ele>325.0</ele><time>2026-04-10T14:39:43.999Z</time></trkpt><trkpt lat="45.59182203225615" lon="8.205049662180375"><ele>325.2</ele><time>2026-04-10T14:39:45.999Z</time></trkpt><trkpt lat="45.5919120807838" lon="8.205139507619785"><ele>325.4</ele><time>2026-04-10T14:39:47.999Z</time></trkpt><trkpt lat="45.59197382558944" lon="8.205215584597163"><ele>325.6</ele><time>2026-04-10T14:39:49.999Z</time></trkpt><trkpt lat="45.592028779930125" lon="8.20536668607368"><ele>325.8</ele><time>2026-04-10T14:39:51.999Z</time></trkpt><trkpt lat="45.59210290614042" lon="8.205508634909858"><ele>326.0</ele><time>2026-04-10T14:39:53.999Z</time></trkpt><trkpt lat="45.592138447856804" lon="8.20559632097093"><ele>331.0</ele><time>2026-04-10T14:39:54.999Z</time></trkpt><trkpt lat="45.59216770014226" lon="8.205676304052655"><ele>336.0</ele><time>2026-04-10T14:39:55.998Z</time></trkpt><trkpt lat="45.59224673531818" lon="8.2057817512774"><ele>341.0</ele><time>2026-04-10T14:39:57.998Z</time></trkpt><trkpt lat="45.59233245594929" lon="8.20591837491163"><ele>346.0</ele><time>2026-04-10T14:39:59.998Z</time></trkpt><trkpt lat="45.59239094794806" lon="8.205991509603948"><ele>351.0</ele><time>2026-04-10T14:40:00.998Z</time></trkpt><trkpt lat="45.592458534849975" lon="8.206067818281692"><ele>351.0</ele><time>2026-04-10T14:40:01.998Z</time></trkpt><trkpt lat="45.5925148132983" lon="8.206139736642497"><ele>351.0</ele><time>2026-04-10T14:40:02.998Z</time></trkpt><trkpt lat="45.59262146385685" lon="8.20622676082767"><ele>351.0</ele><time>2026-04-10T14:40:04.998Z</time></trkpt><trkpt lat="45.5926985788042" lon="8.2063095424476"><ele>351.0</ele><time>2026-04-10T14:40:06.998Z</time></trkpt><trkpt lat="45.59277875861351" lon="8.206371268563862"><ele>351.0</ele><time>2026-04-10T14:40:08.998Z</time></trkpt><trkpt lat="45.592855783898294" lon="8.206477005313474"><ele>351.6</ele><time>2026-04-10T14:40:12Z</time></trkpt><trkpt lat="45.592932192671064" lon="8.206543059687236"><ele>352.20000000000005</ele><time>2026-04-10T14:40:14Z</time></trkpt><trkpt lat="45.59301274903979" lon="8.206578385575392"><ele>352.79999999999995</ele><time>2026-04-10T14:40:17Z</time></trkpt><trkpt lat="45.59312949588873" lon="8.20659687843567"><ele>353.4</ele><time>2026-04-10T14:40:18Z</time></trkpt><trkpt lat="45.593221947540286" lon="8.206580511934236"><ele>354.0</ele><time>2026-04-10T14:40:20Z</time></trkpt><trkpt lat="45.59329673050209" lon="8.20658410574894"><ele>354.0</ele><time>2026-04-10T14:40:22Z</time></trkpt><trkpt lat="45.59335482585406" lon="8.206526977414741"><ele>354.0</ele><time>2026-04-10T14:40:44Z</time></trkpt><trkpt lat="45.593448786176154" lon="8.20638825319625"><ele>354.0</ele><time>2026-04-10T14:40:46Z</time></trkpt><trkpt lat="45.593487575816326" lon="8.206314380857163"><ele>354.0</ele><time>2026-04-10T14:40:47Z</time></trkpt><trkpt lat="45.5934358686487" lon="8.206246734716661"><ele>354.0</ele><time>2026-04-10T14:40:48.999Z</time></trkpt><trkpt lat="45.593474971712894" lon="8.206163358593852"><ele>354.0</ele><time>2026-04-10T14:40:49.999Z</time></trkpt><trkpt lat="45.59348684234684" lon="8.206006223115468"><ele>355.79999999999995</ele><time>2026-04-10T14:40:51.999Z</time></trkpt><trkpt lat="45.59348221898366" lon="8.205864706884931"><ele>357.59999999999997</ele><time>2026-04-10T14:40:53.999Z</time></trkpt><trkpt lat="45.59351991765684" lon="8.205768578968929"><ele>359.4</ele><time>2026-04-10T14:40:55.999Z</time></trkpt><trkpt lat="45.59359669430473" lon="8.205626695993585"><ele>361.2</ele><time>2026-04-10T14:40:57.999Z</time></trkpt><trkpt lat="45.593655313144076" lon="8.20552590060057"><ele>363.0</ele><time>2026-04-10T14:40:59.999Z</time></trkpt><trkpt lat="45.59370638530774" lon="8.205461403856201"><ele>365.0</ele><time>2026-04-10T14:41:01.999Z</time></trkpt><trkpt lat="45.59378276445103" lon="8.205421692298854"><ele>367.0</ele><time>2026-04-10T14:41:03.999Z</time></trkpt><trkpt lat="45.593907754187654" lon="8.205358967733526"><ele>369.0</ele><time>2026-04-10T14:41:05.999Z</time></trkpt><trkpt lat="45.59401296491152" lon="8.205282990864198"><ele>371.0</ele><time>2026-04-10T14:41:07.999Z</time></trkpt><trkpt lat="45.594071965350174" lon="8.205195804960642"><ele>373.0</ele><time>2026-04-10T14:41:08.999Z</time></trkpt><trkpt lat="45.594112424564365" lon="8.205110653220467"><ele>373.0</ele><time>2026-04-10T14:41:09.999Z</time></trkpt><trkpt lat="45.59414950734092" lon="8.205030929844169"><ele>373.0</ele><time>2026-04-10T14:41:10.999Z</time></trkpt><trkpt lat="45.59418760557887" lon="8.204947443823084"><ele>373.0</ele><time>2026-04-10T14:41:11.999Z</time></trkpt><trkpt lat="45.59422978048711" lon="8.204855024321148"><ele>373.0</ele><time>2026-04-10T14:41:12.999Z</time></trkpt><trkpt lat="45.594271382901" lon="8.204770483089295"><ele>373.0</ele><time>2026-04-10T14:41:13.999Z</time></trkpt><trkpt lat="45.594312639050585" lon="8.204687013305842"><ele>373.0</ele><time>2026-04-10T14:41:14.999Z</time></trkpt><trkpt lat="45.59435171033485" lon="8.204598270406532"><ele>373.0</ele><time>2026-04-10T14:41:15.999Z</time></trkpt><trkpt lat="45.59438407169988" lon="8.204503939190234"><ele>373.0</ele><time>2026-04-10T14:41:16.999Z</time></trkpt><trkpt lat="45.59437701214431" lon="8.20437891697012"><ele>373.0</ele><time>2026-04-10T14:41:17.999Z</time></trkpt><trkpt lat="45.59439002372639" lon="8.204242139463945"><ele>373.0</ele><time>2026-04-10T14:41:19.999Z</time></trkpt><trkpt lat="45.59445252702425" lon="8.204169416118008"><ele>373.0</ele><time>2026-04-10T14:41:21.999Z</time></trkpt><trkpt lat="45.59455310765373" lon="8.204149721354543"><ele>373.0</ele><time>2026-04-10T14:41:23.999Z</time></trkpt><trkpt lat="45.594607424627355" lon="8.204200361989974"><ele>373.0</ele><time>2026-04-10T14:41:24.999Z</time></trkpt><trkpt lat="45.59465477995948" lon="8.204280999375966"><ele>375.16666666666663</ele><time>2026-04-10T14:41:25.999Z</time></trkpt><trkpt lat="45.594711727768555" lon="8.204349198475242"><ele>377.3333333333333</ele><time>2026-04-10T14:41:26.999Z</time></trkpt><trkpt lat="45.59477773145658" lon="8.204408380999668"><ele>379.5</ele><time>2026-04-10T14:41:27.999Z</time></trkpt><trkpt lat="45.594847759386404" lon="8.204438048616117"><ele>381.66666666666663</ele><time>2026-04-10T14:41:28.999Z</time></trkpt><trkpt lat="45.59496529639935" lon="8.204378457097418"><ele>383.8333333333333</ele><time>2026-04-10T14:41:30.999Z</time></trkpt><trkpt lat="45.59497590127079" lon="8.20424004527557"><ele>386.0</ele><time>2026-04-10T14:41:31.999Z</time></trkpt><trkpt lat="45.59498611419211" lon="8.204127381873654"><ele>386.00000000000006</ele><time>2026-04-10T14:41:32.999Z</time></trkpt><trkpt lat="45.59499468617883" lon="8.204027717672714"><ele>386.0</ele><time>2026-04-10T14:41:33.999Z</time></trkpt><trkpt lat="45.59500948132813" lon="8.203935663333661"><ele>386.0</ele><time>2026-04-10T14:41:34.999Z</time></trkpt><trkpt lat="45.595030910293836" lon="8.203839509773974"><ele>386.0</ele><time>2026-04-10T14:41:35.999Z</time></trkpt><trkpt lat="45.59506972886529" lon="8.203766164241449"><ele>386.0</ele><time>2026-04-10T14:41:36.999Z</time></trkpt><trkpt lat="45.595117309474404" lon="8.203698557331148"><ele>386.00000000000006</ele><time>2026-04-10T14:41:37.999Z</time></trkpt><trkpt lat="45.59518093824222" lon="8.203665602242452"><ele>386.0</ele><time>2026-04-10T14:41:38.999Z</time></trkpt><trkpt lat="45.59524612179009" lon="8.203616976424833"><ele>386.3333333333333</ele><time>2026-04-10T14:41:39.999Z</time></trkpt><trkpt lat="45.59531567801657" lon="8.203570275439128"><ele>386.66666666666663</ele><time>2026-04-10T14:41:40.999Z</time></trkpt><trkpt lat="45.59538940160793" lon="8.203522560794012"><ele>387.0</ele><time>2026-04-10T14:41:41.999Z</time></trkpt><trkpt lat="45.59545775451869" lon="8.20349164356797"><ele>387.33333333333337</ele><time>2026-04-10T14:41:42.999Z</time></trkpt><trkpt lat="45.59552839429018" lon="8.203456064387797"><ele>387.6666666666667</ele><time>2026-04-10T14:41:43.999Z</time></trkpt><trkpt lat="45.595593922751206" lon="8.203514361459636"><ele>388.0</ele><time>2026-04-10T14:41:44.999Z</time></trkpt><trkpt lat="45.59566564640442" lon="8.20354307864296"><ele>388.50000000000006</ele><time>2026-04-10T14:41:45.999Z</time></trkpt><trkpt lat="45.59573486814261" lon="8.20355759710801"><ele>389.0</ele><time>2026-04-10T14:41:46.999Z</time></trkpt><trkpt lat="45.59584628048693" lon="8.203607196297282"><ele>389.5</ele><time>2026-04-10T14:41:48.999Z</time></trkpt><trkpt lat="45.595929042718446" lon="8.203672192057875"><ele>390.0</ele><time>2026-04-10T14:41:50.999Z</time></trkpt><trkpt lat="45.5959800408438" lon="8.203579534833162"><ele>390.50000000000006</ele><time>2026-04-10T14:42:18Z</time></trkpt><trkpt lat="45.596010830851945" lon="8.203499292764144"><ele>391.0</ele><time>2026-04-10T14:42:20Z</time></trkpt><trkpt lat="45.59610688812082" lon="8.203476344653616"><ele>392.50000000000006</ele><time>2026-04-10T14:42:22Z</time></trkpt><trkpt lat="45.59621656210904" lon="8.20344514642118"><ele>394.0</ele><time>2026-04-10T14:42:24Z</time></trkpt><trkpt lat="45.5962813948496" lon="8.203397670096884"><ele>395.5</ele><time>2026-04-10T14:42:25Z</time></trkpt><trkpt lat="45.596345672488255" lon="8.203353181898041"><ele>397.0</ele><time>2026-04-10T14:42:26Z</time></trkpt><trkpt lat="45.59641300607405" lon="8.203317180478551"><ele>398.50000000000006</ele><time>2026-04-10T14:42:27Z</time></trkpt><trkpt lat="45.59652879704004" lon="8.20327743172753"><ele>400.0</ele><time>2026-04-10T14:42:29Z</time></trkpt><trkpt lat="45.59662345384038" lon="8.203205404929184"><ele>398.7142857142857</ele><time>2026-04-10T14:42:31Z</time></trkpt><trkpt lat="45.596660507093354" lon="8.203127493100848"><ele>397.42857142857144</ele><time>2026-04-10T14:42:32Z</time></trkpt><trkpt lat="45.59670320319941" lon="8.203042985415275"><ele>396.1428571428571</ele><time>2026-04-10T14:42:33Z</time></trkpt><trkpt lat="45.5967383244453" lon="8.202963514618098"><ele>394.8571428571429</ele><time>2026-04-10T14:42:34Z</time></trkpt><trkpt lat="45.59678149876243" lon="8.202896588671027"><ele>393.57142857142856</ele><time>2026-04-10T14:42:35Z</time></trkpt><trkpt lat="45.596835655999634" lon="8.20284261994916"><ele>392.2857142857143</ele><time>2026-04-10T14:42:36Z</time></trkpt><trkpt lat="45.59690054572275" lon="8.202800911935862"><ele>391.0</ele><time>2026-04-10T14:42:37Z</time></trkpt><trkpt lat="45.59696884626939" lon="8.202773997688917"><ele>393.00000000000006</ele><time>2026-04-10T14:42:38Z</time></trkpt><trkpt lat="45.59703755046698" lon="8.202759747958112"><ele>395.0</ele><time>2026-04-10T14:42:39Z</time></trkpt><trkpt lat="45.59710912691127" lon="8.20271746425222"><ele>397.0</ele><time>2026-04-10T14:42:40Z</time></trkpt><trkpt lat="45.5971796379815" lon="8.202655697193386"><ele>399.0</ele><time>2026-04-10T14:42:41Z</time></trkpt><trkpt lat="45.59725470397575" lon="8.202583911037504"><ele>401.00000000000006</ele><time>2026-04-10T14:42:42Z</time></trkpt><trkpt lat="45.59734599187467" lon="8.202561456731917"><ele>403.0</ele><time>2026-04-10T14:42:43Z</time></trkpt><trkpt lat="45.59742114234089" lon="8.202554214023893"><ele>403.0</ele><time>2026-04-10T14:42:44Z</time></trkpt><trkpt lat="45.597489606310795" lon="8.202573673849768"><ele>403.0</ele><time>2026-04-10T14:42:45Z</time></trkpt><trkpt lat="45.59755297283394" lon="8.202599754212553"><ele>403.0</ele><time>2026-04-10T14:42:46Z</time></trkpt><trkpt lat="45.597644425353366" lon="8.202587229331694"><ele>403.0</ele><time>2026-04-10T14:42:48Z</time></trkpt><trkpt lat="45.597668868119314" lon="8.202496731233085"><ele>403.0</ele><time>2026-04-10T14:42:50Z</time></trkpt><trkpt lat="45.597666792809186" lon="8.202406274104916"><ele>403.0</ele><time>2026-04-10T14:43:12.999Z</time></trkpt><trkpt lat="45.59765062573337" lon="8.20230088775339"><ele>403.0</ele><time>2026-04-10T14:45:19.999Z</time></trkpt><trkpt lat="45.5976219062811" lon="8.202193111494422"><ele>401.2857142857143</ele><time>2026-04-10T14:45:24.999Z</time></trkpt><trkpt lat="45.59759414265079" lon="8.20208834895983"><ele>399.57142857142856</ele><time>2026-04-10T14:45:29.999Z</time></trkpt><trkpt lat="45.59755175300674" lon="8.20200079015697"><ele>397.85714285714283</ele><time>2026-04-10T14:45:32.999Z</time></trkpt><trkpt lat="45.59752823131465" lon="8.201912459793064"><ele>396.1428571428571</ele><time>2026-04-10T14:45:33.999Z</time></trkpt><trkpt lat="45.597478744837495" lon="8.201823612148978"><ele>394.42857142857144</ele><time>2026-04-10T14:45:38.999Z</time></trkpt><trkpt lat="45.597445324080525" lon="8.20174533051207"><ele>392.71428571428567</ele><time>2026-04-10T14:45:42.999Z</time></trkpt><trkpt lat="45.59740511291999" lon="8.201675794576595"><ele>391.0</ele><time>2026-04-10T14:45:45.999Z</time></trkpt><trkpt lat="45.59741641332548" lon="8.201582279580483"><ele>388.83333333333337</ele><time>2026-04-10T14:45:48.999Z</time></trkpt><trkpt lat="45.597443700381575" lon="8.201486543311718"><ele>386.6666666666667</ele><time>2026-04-10T14:45:52.999Z</time></trkpt><trkpt lat="45.59747066398858" lon="8.201397134860887"><ele>384.5</ele><time>2026-04-10T14:45:56.999Z</time></trkpt><trkpt lat="45.59749887243381" lon="8.201282285958532"><ele>382.33333333333337</ele><time>2026-04-10T14:46:00.999Z</time></trkpt><trkpt lat="45.597551682795434" lon="8.201164919465263"><ele>380.1666666666667</ele><time>2026-04-10T14:46:03.999Z</time></trkpt><trkpt lat="45.59760521252991" lon="8.2010507116071"><ele>378.0</ele><time>2026-04-10T14:46:06.999Z</time></trkpt><trkpt lat="45.597673157096104" lon="8.20101561530916"><ele>378.0</ele><time>2026-04-10T14:46:12.998Z</time></trkpt><trkpt lat="45.59772609741767" lon="8.20095405077292"><ele>378.0</ele><time>2026-04-10T14:48:31.998Z</time></trkpt><trkpt lat="45.597804628123704" lon="8.200939593914923"><ele>378.0</ele><time>2026-04-10T14:48:34Z</time></trkpt><trkpt lat="45.5979261800267" lon="8.200925548530027"><ele>378.0</ele><time>2026-04-10T14:48:36Z</time></trkpt><trkpt lat="45.59803033995663" lon="8.200924272199117"><ele>378.0</ele><time>2026-04-10T14:48:38Z</time></trkpt><trkpt lat="45.59815120103919" lon="8.200945572106146"><ele>378.8333333333333</ele><time>2026-04-10T14:48:40Z</time></trkpt><trkpt lat="45.59820701164485" lon="8.200870326417078"><ele>379.6666666666667</ele><time>2026-04-10T14:48:42Z</time></trkpt><trkpt lat="45.59817749870614" lon="8.200750958524923"><ele>380.5</ele><time>2026-04-10T14:48:44Z</time></trkpt><trkpt lat="45.59818663419488" lon="8.200635579941709"><ele>381.33333333333337</ele><time>2026-04-10T14:48:46Z</time></trkpt><trkpt lat="45.598120102820104" lon="8.200743496676843"><ele>382.1666666666667</ele><time>2026-04-10T14:48:54Z</time></trkpt><trkpt lat="45.59802450001672" lon="8.200712295241972"><ele>383.0</ele><time>2026-04-10T14:48:56Z</time></trkpt><trkpt lat="45.59795127175626" lon="8.200650538334472"><ele>383.0</ele><time>2026-04-10T14:48:57Z</time></trkpt><trkpt lat="45.59790418925351" lon="8.200533419870414"><ele>383.0</ele><time>2026-04-10T14:48:59Z</time></trkpt><trkpt lat="45.59789762306251" lon="8.200428658326716"><ele>383.0</ele><time>2026-04-10T14:49:02Z</time></trkpt><trkpt lat="45.59794603849922" lon="8.200521619248802"><ele>383.0</ele><time>2026-04-10T14:49:07.999Z</time></trkpt><trkpt lat="45.5979860606469" lon="8.200614038524419"><ele>383.0</ele><time>2026-04-10T14:49:09.999Z</time></trkpt><trkpt lat="45.59801611819361" lon="8.200509739326586"><ele>383.0</ele><time>2026-04-10T14:49:14.999Z</time></trkpt><trkpt lat="45.598058198914856" lon="8.20037277698615"><ele>383.0</ele><time>2026-04-10T14:49:16.999Z</time></trkpt><trkpt lat="45.598086532444846" lon="8.200283731309542"><ele>383.0</ele><time>2026-04-10T14:49:17.999Z</time></trkpt><trkpt lat="45.59812589778074" lon="8.200160057970388"><ele>383.0</ele><time>2026-04-10T14:49:19.999Z</time></trkpt><trkpt lat="45.598130731655814" lon="8.200020380333235"><ele>383.0</ele><time>2026-04-10T14:49:21.999Z</time></trkpt><trkpt lat="45.598096005490916" lon="8.199917107674413"><ele>383.0</ele><time>2026-04-10T14:49:23.999Z</time></trkpt><trkpt lat="45.598005921994684" lon="8.199804768341242"><ele>381.5</ele><time>2026-04-10T14:49:25.999Z</time></trkpt><trkpt lat="45.59796193062679" lon="8.199737237681456"><ele>380.0</ele><time>2026-04-10T14:49:26.999Z</time></trkpt><trkpt lat="45.597914976937815" lon="8.199663396278329"><ele>378.5</ele><time>2026-04-10T14:49:27.999Z</time></trkpt><trkpt lat="45.59787534173588" lon="8.199589529873887"><ele>377.0</ele><time>2026-04-10T14:49:28.999Z</time></trkpt><trkpt lat="45.59781068363557" lon="8.19945987861139"><ele>375.5</ele><time>2026-04-10T14:49:30.999Z</time></trkpt><trkpt lat="45.597768530336026" lon="8.199315237398668"><ele>374.0</ele><time>2026-04-10T14:49:32.999Z</time></trkpt><trkpt lat="45.5977295765854" lon="8.199169510038043"><ele>370.6666666666667</ele><time>2026-04-10T14:49:34.999Z</time></trkpt><trkpt lat="45.59769762031697" lon="8.199056951466389"><ele>367.33333333333337</ele><time>2026-04-10T14:49:36.999Z</time></trkpt><trkpt lat="45.597699884113375" lon="8.198956866422403"><ele>364.0</ele><time>2026-04-10T14:49:41.999Z</time></trkpt><trkpt lat="45.597725305609714" lon="8.198858075187243"><ele>360.6666666666667</ele><time>2026-04-10T14:49:44.999Z</time></trkpt><trkpt lat="45.59775633659721" lon="8.198773260723632"><ele>357.3333333333333</ele><time>2026-04-10T14:49:46.999Z</time></trkpt><trkpt lat="45.597800176221895" lon="8.198652078123668"><ele>354.0</ele><time>2026-04-10T14:49:48.999Z</time></trkpt><trkpt lat="45.59783823008284" lon="8.198545602235397"><ele>354.0</ele><time>2026-04-10T14:49:50.999Z</time></trkpt><trkpt lat="45.5979206217964" lon="8.198474002509094"><ele>354.0</ele><time>2026-04-10T14:49:52.999Z</time></trkpt><trkpt lat="45.597899543463114" lon="8.198365807150973"><ele>354.0</ele><time>2026-04-10T14:49:56.999Z</time></trkpt><trkpt lat="45.597871672314284" lon="8.198271896995042"><ele>354.0</ele><time>2026-04-10T14:49:58.999Z</time></trkpt><trkpt lat="45.59788663633168" lon="8.198104774132378"><ele>354.0</ele><time>2026-04-10T14:50:00.999Z</time></trkpt><trkpt lat="45.59785983222351" lon="8.198011385098917"><ele>354.0</ele><time>2026-04-10T14:50:03.999Z</time></trkpt><trkpt lat="45.597853089753436" lon="8.197921035837124"><ele>352.1666666666667</ele><time>2026-04-10T14:50:11.999Z</time></trkpt><trkpt lat="45.597851532401855" lon="8.197829364694142"><ele>350.3333333333333</ele><time>2026-04-10T14:50:16.999Z</time></trkpt><trkpt lat="45.597843421182496" lon="8.197738215200014"><ele>348.5</ele><time>2026-04-10T14:50:20.998Z</time></trkpt><trkpt lat="45.597821458255446" lon="8.197636193031798"><ele>346.66666666666663</ele><time>2026-04-10T14:50:28.998Z</time></trkpt><trkpt lat="45.59780793448787" lon="8.197522488799939"><ele>344.8333333333333</ele><time>2026-04-10T14:50:29.998Z</time></trkpt><trkpt lat="45.597888651610894" lon="8.197435020476533"><ele>343.0</ele><time>2026-04-10T14:50:32.998Z</time></trkpt><trkpt lat="45.597933891639855" lon="8.19736671161497"><ele>343.2</ele><time>2026-04-10T14:50:34.998Z</time></trkpt><trkpt lat="45.59800059068367" lon="8.197277018005254"><ele>343.4</ele><time>2026-04-10T14:50:37.998Z</time></trkpt><trkpt lat="45.598051592859214" lon="8.197210500996194"><ele>343.59999999999997</ele><time>2026-04-10T14:50:40Z</time></trkpt><trkpt lat="45.59809999891126" lon="8.197142963707533"><ele>343.79999999999995</ele><time>2026-04-10T14:50:45Z</time></trkpt><trkpt lat="45.598260034659646" lon="8.197105839573272"><ele>344.0</ele><time>2026-04-10T14:52:46Z</time></trkpt><trkpt lat="45.59831239537415" lon="8.197029334162288"><ele>344.0</ele><time>2026-04-10T14:52:48Z</time></trkpt><trkpt lat="45.59838850390524" lon="8.196995653133682"><ele>344.0</ele><time>2026-04-10T14:52:50Z</time></trkpt><trkpt lat="45.59844365291221" lon="8.196945140257881"><ele>344.0</ele><time>2026-04-10T14:52:52Z</time></trkpt><trkpt lat="45.59852657431608" lon="8.196963372315427"><ele>344.0</ele><time>2026-04-10T14:52:55Z</time></trkpt><trkpt lat="45.59859793529021" lon="8.197031325806504"><ele>344.0</ele><time>2026-04-10T14:52:58Z</time></trkpt><trkpt lat="45.59866331758079" lon="8.197110316554781"><ele>344.0</ele><time>2026-04-10T14:53:00Z</time></trkpt><trkpt lat="45.59885074017996" lon="8.197120087830383"><ele>344.4</ele><time>2026-04-10T14:53:06Z</time></trkpt><trkpt lat="45.598902871060645" lon="8.197187767985149"><ele>344.79999999999995</ele><time>2026-04-10T14:53:08.999Z</time></trkpt><trkpt lat="45.59897611018967" lon="8.197239265958135"><ele>345.20000000000005</ele><time>2026-04-10T14:53:11.999Z</time></trkpt><trkpt lat="45.59903630460016" lon="8.197310940061122"><ele>345.6</ele><time>2026-04-10T14:53:14.999Z</time></trkpt><trkpt lat="45.59912395077019" lon="8.197363713850462"><ele>346.0</ele><time>2026-04-10T14:53:17.999Z</time></trkpt><trkpt lat="45.599250409044025" lon="8.197368219346073"><ele>345.4</ele><time>2026-04-10T14:53:19.999Z</time></trkpt><trkpt lat="45.599315884110375" lon="8.197369978363067"><ele>344.8</ele><time>2026-04-10T14:53:20.999Z</time></trkpt><trkpt lat="45.59941742697179" lon="8.197353679426074"><ele>344.2</ele><time>2026-04-10T14:53:22.999Z</time></trkpt><trkpt lat="45.59953772358728" lon="8.197234912365207"><ele>343.59999999999997</ele><time>2026-04-10T14:53:24.999Z</time></trkpt><trkpt lat="45.599601460397004" lon="8.197201598635314"><ele>343.0</ele><time>2026-04-10T14:53:25.999Z</time></trkpt><trkpt lat="45.59971546239441" lon="8.197165201403992"><ele>343.0</ele><time>2026-04-10T14:53:35.999Z</time></trkpt><trkpt lat="45.59978458591909" lon="8.197271498893022"><ele>343.0</ele><time>2026-04-10T14:53:38.999Z</time></trkpt><trkpt lat="45.59983480932291" lon="8.197339508456166"><ele>343.0</ele><time>2026-04-10T14:53:40.999Z</time></trkpt><trkpt lat="45.59982790353762" lon="8.197453297614713"><ele>343.0</ele><time>2026-04-10T14:53:44.999Z</time></trkpt><trkpt lat="45.59974071759158" lon="8.197487214755292"><ele>343.0</ele><time>2026-04-10T14:53:46.999Z</time></trkpt><trkpt lat="45.59971738918118" lon="8.197623121572054"><ele>343.0</ele><time>2026-04-10T14:53:50.999Z</time></trkpt><trkpt lat="45.599776257672985" lon="8.197703507450774"><ele>343.16666666666663</ele><time>2026-04-10T14:53:53.999Z</time></trkpt><trkpt lat="45.5997752841677" lon="8.197796337129876"><ele>343.3333333333333</ele><time>2026-04-10T14:53:56.999Z</time></trkpt><trkpt lat="45.59977566248788" lon="8.197935417970072"><ele>343.5</ele><time>2026-04-10T14:53:59.999Z</time></trkpt><trkpt lat="45.59978119346995" lon="8.198043910253096"><ele>343.6666666666667</ele><time>2026-04-10T14:54:02.999Z</time></trkpt><trkpt lat="45.59973421244214" lon="8.198109006058775"><ele>343.83333333333337</ele><time>2026-04-10T14:54:05.999Z</time></trkpt><trkpt lat="45.59969597305814" lon="8.19818534920501"><ele>344.0</ele><time>2026-04-10T14:54:18.999Z</time></trkpt><trkpt lat="45.59961843608792" lon="8.19824976771969"><ele>345.14285714285717</ele><time>2026-04-10T14:54:22.998Z</time></trkpt><trkpt lat="45.59956771777853" lon="8.198345787779354"><ele>346.2857142857143</ele><time>2026-04-10T14:54:24.998Z</time></trkpt><trkpt lat="45.599537796042796" lon="8.198436539843726"><ele>347.42857142857144</ele><time>2026-04-10T14:54:26.998Z</time></trkpt><trkpt lat="45.59947474059501" lon="8.198460572492047"><ele>348.57142857142856</ele><time>2026-04-10T14:54:31.998Z</time></trkpt><trkpt lat="45.59944032354829" lon="8.198554158483137"><ele>349.7142857142857</ele><time>2026-04-10T14:54:43.998Z</time></trkpt><trkpt lat="45.599448734239246" lon="8.19865651529578"><ele>350.8571428571429</ele><time>2026-04-10T14:55:18.999Z</time></trkpt><trkpt lat="45.599424280635965" lon="8.198739910043848"><ele>352.0</ele><time>2026-04-10T14:55:21.999Z</time></trkpt><trkpt lat="45.59941551931376" lon="8.19883007087711"><ele>353.20000000000005</ele><time>2026-04-10T14:55:24.999Z</time></trkpt><trkpt lat="45.59937053808639" lon="8.198933294993875"><ele>354.4</ele><time>2026-04-10T14:55:27.999Z</time></trkpt><trkpt lat="45.59930684034228" lon="8.199079161506129"><ele>355.6</ele><time>2026-04-10T14:55:29.999Z</time></trkpt><trkpt lat="45.59928915351942" lon="8.199170164267269"><ele>356.79999999999995</ele><time>2026-04-10T14:55:30.999Z</time></trkpt><trkpt lat="45.59928619170297" lon="8.199321684499823"><ele>358.0</ele><time>2026-04-10T14:55:32.999Z</time></trkpt><trkpt lat="45.59931375924691" lon="8.199461339036192"><ele>358.66666666666663</ele><time>2026-04-10T14:55:34.999Z</time></trkpt><trkpt lat="45.59933342067549" lon="8.19956278660906"><ele>359.3333333333333</ele><time>2026-04-10T14:55:36.999Z</time></trkpt><trkpt lat="45.59938408893729" lon="8.19964770354812"><ele>360.0</ele><time>2026-04-10T14:55:39.999Z</time></trkpt><trkpt lat="45.59947646840896" lon="8.1996758686627"><ele>360.6666666666667</ele><time>2026-04-10T14:55:41.999Z</time></trkpt><trkpt lat="45.59955810828791" lon="8.199744956837009"><ele>361.33333333333337</ele><time>2026-04-10T14:55:43.999Z</time></trkpt><trkpt lat="45.599535786742834" lon="8.199839071660513"><ele>362.0</ele><time>2026-04-10T14:55:44.999Z</time></trkpt><trkpt lat="45.59947713813368" lon="8.199978831973635"><ele>367.33333333333337</ele><time>2026-04-10T14:55:46.999Z</time></trkpt><trkpt lat="45.599414154734376" lon="8.200133745856307"><ele>372.6666666666667</ele><time>2026-04-10T14:55:48.999Z</time></trkpt><trkpt lat="45.59939930723286" lon="8.200241767231935"><ele>378.0</ele><time>2026-04-10T14:55:49.999Z</time></trkpt><trkpt lat="45.59935729413258" lon="8.200334701129014"><ele>383.33333333333337</ele><time>2026-04-10T14:55:50.999Z</time></trkpt><trkpt lat="45.59937489617439" lon="8.200478430292836"><ele>388.6666666666667</ele><time>2026-04-10T14:55:52.999Z</time></trkpt><trkpt lat="45.599325114129336" lon="8.200535725365743"><ele>394.0</ele><time>2026-04-10T14:55:54.999Z</time></trkpt><trkpt lat="45.59930672908337" lon="8.20063009173714"><ele>396.2</ele><time>2026-04-10T14:55:56.999Z</time></trkpt><trkpt lat="45.599324727828424" lon="8.20073918268934"><ele>398.4</ele><time>2026-04-10T14:55:59.999Z</time></trkpt><trkpt lat="45.5993075403782" lon="8.200826183011658"><ele>400.6</ele><time>2026-04-10T14:56:02.999Z</time></trkpt><trkpt lat="45.59934601208531" lon="8.200938579279912"><ele>402.8</ele><time>2026-04-10T14:56:04.999Z</time></trkpt><trkpt lat="45.59940479938163" lon="8.201130244602618"><ele>405.0</ele><time>2026-04-10T14:56:06.999Z</time></trkpt><trkpt lat="45.59941514668809" lon="8.201260660040338"><ele>405.0</ele><time>2026-04-10T14:56:08.999Z</time></trkpt><trkpt lat="45.5993907103548" lon="8.201349243958223"><ele>405.0</ele><time>2026-04-10T14:56:10.999Z</time></trkpt><trkpt lat="45.599430567626904" lon="8.201420050683408"><ele>405.0</ele><time>2026-04-10T14:56:13.999Z</time></trkpt><trkpt lat="45.59940028485371" lon="8.20154106275879"><ele>405.0</ele><time>2026-04-10T14:56:16.999Z</time></trkpt><trkpt lat="45.59938009340576" lon="8.201656851423971"><ele>405.0</ele><time>2026-04-10T14:56:18.999Z</time></trkpt><trkpt lat="45.599320136705636" lon="8.201724958629011"><ele>405.0</ele><time>2026-04-10T14:56:20.999Z</time></trkpt><trkpt lat="45.59924385155333" lon="8.201781568935662"><ele>406.6666666666667</ele><time>2026-04-10T14:56:22.999Z</time></trkpt><trkpt lat="45.599182655633996" lon="8.201836480652746"><ele>408.33333333333337</ele><time>2026-04-10T14:56:28.998Z</time></trkpt><trkpt lat="45.5991668839988" lon="8.201932760788981"><ele>410.0</ele><time>2026-04-10T14:57:06Z</time></trkpt><trkpt lat="45.599111120940776" lon="8.201989018599138"><ele>411.6666666666667</ele><time>2026-04-10T14:57:08Z</time></trkpt><trkpt lat="45.599069548682465" lon="8.202110358819265"><ele>413.33333333333337</ele><time>2026-04-10T14:57:10Z</time></trkpt><trkpt lat="45.5990951107602" lon="8.202206518558636"><ele>415.0</ele><time>2026-04-10T14:57:25.999Z</time></trkpt><trkpt lat="45.599168484931184" lon="8.202226102789025"><ele>415.0</ele><time>2026-04-10T14:57:28.999Z</time></trkpt><trkpt lat="45.5992503116953" lon="8.202230946590996"><ele>415.0</ele><time>2026-04-10T14:57:30.999Z</time></trkpt><trkpt lat="45.599349622041736" lon="8.202332015198586"><ele>415.0</ele><time>2026-04-10T14:57:32.999Z</time></trkpt><trkpt lat="45.59939711118675" lon="8.20241396766268"><ele>415.0</ele><time>2026-04-10T14:57:33.999Z</time></trkpt><trkpt lat="45.59941017787953" lon="8.202552676267478"><ele>415.0</ele><time>2026-04-10T14:57:35.999Z</time></trkpt><trkpt lat="45.599311021349656" lon="8.202652730675869"><ele>416.83333333333337</ele><time>2026-04-10T14:57:37.999Z</time></trkpt><trkpt lat="45.599248274386156" lon="8.202704408869758"><ele>418.6666666666667</ele><time>2026-04-10T14:57:38.999Z</time></trkpt><trkpt lat="45.5992249730941" lon="8.202868078841645"><ele>420.5</ele><time>2026-04-10T14:57:40.999Z</time></trkpt><trkpt lat="45.599244620913716" lon="8.202983589541848"><ele>422.33333333333337</ele><time>2026-04-10T14:57:41.999Z</time></trkpt><trkpt lat="45.59925025278444" lon="8.203094806501484"><ele>424.1666666666667</ele><time>2026-04-10T14:57:42.999Z</time></trkpt><trkpt lat="45.599246552737974" lon="8.203195504895547"><ele>426.0</ele><time>2026-04-10T14:57:43.999Z</time></trkpt><trkpt lat="45.599280481198974" lon="8.203336570264106"><ele>425.71428571428567</ele><time>2026-04-10T14:57:45.999Z</time></trkpt><trkpt lat="45.59933032240993" lon="8.20339194770832"><ele>425.42857142857144</ele><time>2026-04-10T14:57:46.999Z</time></trkpt><trkpt lat="45.59936861211349" lon="8.203465602680712"><ele>425.1428571428571</ele><time>2026-04-10T14:57:47.999Z</time></trkpt><trkpt lat="45.59940288920871" lon="8.203547328390721"><ele>424.85714285714283</ele><time>2026-04-10T14:57:48.999Z</time></trkpt><trkpt lat="45.59945688288007" lon="8.203639027101111"><ele>424.57142857142856</ele><time>2026-04-10T14:57:49.999Z</time></trkpt><trkpt lat="45.599514393548525" lon="8.20373523284184"><ele>424.2857142857143</ele><time>2026-04-10T14:57:50.999Z</time></trkpt><trkpt lat="45.599563179236625" lon="8.203826991626434"><ele>424.0</ele><time>2026-04-10T14:57:51.999Z</time></trkpt><trkpt lat="45.599607260114226" lon="8.203920392207612"><ele>426.00000000000006</ele><time>2026-04-10T14:57:52.999Z</time></trkpt><trkpt lat="45.59965064906083" lon="8.204005130825072"><ele>428.0</ele><time>2026-04-10T14:57:53.999Z</time></trkpt><trkpt lat="45.59970028512582" lon="8.204073418728026"><ele>430.0</ele><time>2026-04-10T14:57:54.999Z</time></trkpt><trkpt lat="45.5997573202001" lon="8.204133314085622"><ele>432.0</ele><time>2026-04-10T14:57:55.999Z</time></trkpt><trkpt lat="45.599835493195776" lon="8.204237935867559"><ele>434.00000000000006</ele><time>2026-04-10T14:57:57.999Z</time></trkpt><trkpt lat="45.59991615715076" lon="8.204323349859466"><ele>436.0</ele><time>2026-04-10T14:57:59.999Z</time></trkpt><trkpt lat="45.599977115266185" lon="8.204428471593857"><ele>436.00000000000006</ele><time>2026-04-10T14:58:01.999Z</time></trkpt><trkpt lat="45.600017354734504" lon="8.204570969374249"><ele>436.0</ele><time>2026-04-10T14:58:03.999Z</time></trkpt><trkpt lat="45.60002448944667" lon="8.20468440113008"><ele>436.0</ele><time>2026-04-10T14:58:05.999Z</time></trkpt><trkpt lat="45.60005525223061" lon="8.204768785519814"><ele>436.0</ele><time>2026-04-10T14:58:08.999Z</time></trkpt><trkpt lat="45.600074648835054" lon="8.204863084012398"><ele>436.00000000000006</ele><time>2026-04-10T14:58:10.999Z</time></trkpt><trkpt lat="45.60011940353204" lon="8.204974618214422"><ele>436.0</ele><time>2026-04-10T14:58:12.999Z</time></trkpt><trkpt lat="45.60017307529362" lon="8.205078546710412"><ele>437.33333333333337</ele><time>2026-04-10T14:58:14.999Z</time></trkpt><trkpt lat="45.60021969801557" lon="8.205140383363526"><ele>438.6666666666667</ele><time>2026-04-10T14:58:17.999Z</time></trkpt><trkpt lat="45.60027564046745" lon="8.205192528598745"><ele>440.0</ele><time>2026-04-10T14:58:19.999Z</time></trkpt><trkpt lat="45.6003424021922" lon="8.205257892070517"><ele>441.33333333333337</ele><time>2026-04-10T14:58:21.999Z</time></trkpt><trkpt lat="45.600335110147974" lon="8.205350257561719"><ele>442.6666666666667</ele><time>2026-04-10T14:58:26.999Z</time></trkpt><trkpt lat="45.60034863434508" lon="8.20544701247894"><ele>444.0</ele><time>2026-04-10T14:58:28.999Z</time></trkpt><trkpt lat="45.60043266039065" lon="8.205542632423874"><ele>440.0</ele><time>2026-04-10T14:58:30.998Z</time></trkpt><trkpt lat="45.600544907100094" lon="8.205593992810428"><ele>436.0</ele><time>2026-04-10T14:58:32.998Z</time></trkpt><trkpt lat="45.60066963975134" lon="8.205609745709857"><ele>432.0</ele><time>2026-04-10T14:58:34.998Z</time></trkpt><trkpt lat="45.60080477828907" lon="8.205640698548853"><ele>428.0</ele><time>2026-04-10T14:58:36.998Z</time></trkpt><trkpt lat="45.60093307606223" lon="8.205660442196836"><ele>428.00000000000006</ele><time>2026-04-10T14:58:38.998Z</time></trkpt><trkpt lat="45.60100382505255" lon="8.205669661624883"><ele>428.0</ele><time>2026-04-10T14:58:39.998Z</time></trkpt><trkpt lat="45.601071104261706" lon="8.205634182194473"><ele>428.0</ele><time>2026-04-10T14:58:40.998Z</time></trkpt><trkpt lat="45.60113452778716" lon="8.205576594005848"><ele>428.0</ele><time>2026-04-10T14:58:41.998Z</time></trkpt><trkpt lat="45.601178091417495" lon="8.205495468246099"><ele>428.0</ele><time>2026-04-10T14:58:42.998Z</time></trkpt><trkpt lat="45.60123042796054" lon="8.205435716958373"><ele>428.00000000000006</ele><time>2026-04-10T14:58:43.998Z</time></trkpt><trkpt lat="45.60128784909913" lon="8.205395877256825"><ele>428.0</ele><time>2026-04-10T14:58:44.998Z</time></trkpt><trkpt lat="45.60138199289328" lon="8.205397916563546"><ele>428.66666666666663</ele><time>2026-04-10T14:58:46.998Z</time></trkpt><trkpt lat="45.60145582602485" lon="8.205533578382578"><ele>429.3333333333333</ele><time>2026-04-10T14:58:48.998Z</time></trkpt><trkpt lat="45.601490502838125" lon="8.205616378266953"><ele>430.0</ele><time>2026-04-10T14:58:49.998Z</time></trkpt><trkpt lat="45.60154174476188" lon="8.205697609646968"><ele>430.66666666666663</ele><time>2026-04-10T14:58:50.998Z</time></trkpt><trkpt lat="45.601587548500945" lon="8.205767483907225"><ele>431.3333333333333</ele><time>2026-04-10T14:58:51.998Z</time></trkpt><trkpt lat="45.60163945000032" lon="8.205832129464373"><ele>432.0</ele><time>2026-04-10T14:58:52.998Z</time></trkpt><trkpt lat="45.60170313638574" lon="8.205887429718727"><ele>432.0</ele><time>2026-04-10T14:58:53.998Z</time></trkpt><trkpt lat="45.6017622357178" lon="8.205921743708105"><ele>432.0</ele><time>2026-04-10T14:58:54.998Z</time></trkpt><trkpt lat="45.60182551725732" lon="8.205944293240865"><ele>432.0</ele><time>2026-04-10T14:58:55.998Z</time></trkpt><trkpt lat="45.601915761376254" lon="8.205980788031544"><ele>432.0</ele><time>2026-04-10T14:58:57.998Z</time></trkpt><trkpt lat="45.60198314818488" lon="8.205982872778208"><ele>432.0</ele><time>2026-04-10T14:59:01.998Z</time></trkpt><trkpt lat="45.60194984092025" lon="8.205885026188897"><ele>432.0</ele><time>2026-04-10T14:59:11Z</time></trkpt><trkpt lat="45.60187768204406" lon="8.205848253548817"><ele>432.0</ele><time>2026-04-10T14:59:13Z</time></trkpt><trkpt lat="45.601791085570454" lon="8.20575991812317"><ele>429.20000000000005</ele><time>2026-04-10T14:59:15Z</time></trkpt><trkpt lat="45.60169331208958" lon="8.205635981924733"><ele>426.40000000000003</ele><time>2026-04-10T14:59:17Z</time></trkpt><trkpt lat="45.60164428121169" lon="8.205546637879658"><ele>423.6</ele><time>2026-04-10T14:59:18Z</time></trkpt><trkpt lat="45.60159518147585" lon="8.205445063877988"><ele>420.79999999999995</ele><time>2026-04-10T14:59:19Z</time></trkpt><trkpt lat="45.601555756857415" lon="8.205329144312895"><ele>418.0</ele><time>2026-04-10T14:59:20Z</time></trkpt><trkpt lat="45.60155504328937" lon="8.205152944000766"><ele>418.0</ele><time>2026-04-10T14:59:22Z</time></trkpt><trkpt lat="45.60156116651278" lon="8.205050160425293"><ele>418.0</ele><time>2026-04-10T14:59:22.999Z</time></trkpt><trkpt lat="45.60155299968002" lon="8.204942609422444"><ele>418.0</ele><time>2026-04-10T14:59:23.999Z</time></trkpt><trkpt lat="45.601490561742544" lon="8.20488049031297"><ele>418.0</ele><time>2026-04-10T14:59:25.999Z</time></trkpt><trkpt lat="45.601420727090115" lon="8.204896049455062"><ele>418.0</ele><time>2026-04-10T14:59:28.999Z</time></trkpt><trkpt lat="45.601246475934445" lon="8.204864281238583"><ele>418.1666666666667</ele><time>2026-04-10T14:59:31.999Z</time></trkpt><trkpt lat="45.60115676015291" lon="8.20487300243434"><ele>418.33333333333337</ele><time>2026-04-10T14:59:32.999Z</time></trkpt><trkpt lat="45.60107710653181" lon="8.204898492125578"><ele>418.5</ele><time>2026-04-10T14:59:33.999Z</time></trkpt><trkpt lat="45.60098532809323" lon="8.20492264854906"><ele>418.66666666666663</ele><time>2026-04-10T14:59:34.999Z</time></trkpt><trkpt lat="45.60092341929053" lon="8.20495010121257"><ele>418.8333333333333</ele><time>2026-04-10T14:59:35.999Z</time></trkpt><trkpt lat="45.60083167975605" lon="8.204905705050578"><ele>419.0</ele><time>2026-04-10T14:59:37.999Z</time></trkpt><trkpt lat="45.60080392322547" lon="8.204731831481748"><ele>418.99999999999994</ele><time>2026-04-10T14:59:39.999Z</time></trkpt><trkpt lat="45.60080650393793" lon="8.204612743502341"><ele>419.0</ele><time>2026-04-10T14:59:40.999Z</time></trkpt><trkpt lat="45.600819550359816" lon="8.204512547100562"><ele>419.0</ele><time>2026-04-10T14:59:41.999Z</time></trkpt><trkpt lat="45.60083594940569" lon="8.204423402800614"><ele>419.0</ele><time>2026-04-10T14:59:42.999Z</time></trkpt><trkpt lat="45.60085710862339" lon="8.204289350896966"><ele>418.99999999999994</ele><time>2026-04-10T14:59:44.999Z</time></trkpt><trkpt lat="45.600767531396656" lon="8.204181482987767"><ele>419.0</ele><time>2026-04-10T14:59:46.999Z</time></trkpt><trkpt lat="45.600732390046616" lon="8.2041020561325"><ele>418.99999999999994</ele><time>2026-04-10T14:59:47.999Z</time></trkpt><trkpt lat="45.60081263065634" lon="8.204032246524715"><ele>419.0</ele><time>2026-04-10T14:59:51.999Z</time></trkpt><trkpt lat="45.600867292361755" lon="8.203987284017371"><ele>419.0</ele><time>2026-04-10T14:59:52.999Z</time></trkpt><trkpt lat="45.60093624267283" lon="8.203928549172453"><ele>419.0</ele><time>2026-04-10T14:59:53.999Z</time></trkpt><trkpt lat="45.600988064138114" lon="8.20385885455752"><ele>418.99999999999994</ele><time>2026-04-10T14:59:54.999Z</time></trkpt><trkpt lat="45.60103602003688" lon="8.203758132165618"><ele>419.0</ele><time>2026-04-10T14:59:55.999Z</time></trkpt><trkpt lat="45.60104366000629" lon="8.203619561689258"><ele>418.49999999999994</ele><time>2026-04-10T14:59:56.999Z</time></trkpt><trkpt lat="45.60105949868799" lon="8.203492216410593"><ele>418.0</ele><time>2026-04-10T14:59:57.999Z</time></trkpt><trkpt lat="45.601093832485894" lon="8.203385566114944"><ele>417.5</ele><time>2026-04-10T14:59:58.999Z</time></trkpt><trkpt lat="45.601164450765076" lon="8.203314902196718"><ele>417.0</ele><time>2026-04-10T14:59:59.999Z</time></trkpt><trkpt lat="45.60122724111164" lon="8.203267028643603"><ele>416.49999999999994</ele><time>2026-04-10T15:00:01Z</time></trkpt><trkpt lat="45.60131351986021" lon="8.203149060193512"><ele>416.0</ele><time>2026-04-10T15:00:03Z</time></trkpt><trkpt lat="45.60140173837969" lon="8.203097475424045"><ele>415.66666666666663</ele><time>2026-04-10T15:00:04Z</time></trkpt><trkpt lat="45.60148856106828" lon="8.203084300494577"><ele>415.3333333333333</ele><time>2026-04-10T15:00:05Z</time></trkpt><trkpt lat="45.60155116132864" lon="8.203058298232484"><ele>415.0</ele><time>2026-04-10T15:00:06Z</time></trkpt><trkpt lat="45.60157972738325" lon="8.202883907699167"><ele>414.66666666666663</ele><time>2026-04-10T15:00:08Z</time></trkpt><trkpt lat="45.60158861228669" lon="8.202780920888094"><ele>414.3333333333333</ele><time>2026-04-10T15:00:09Z</time></trkpt><trkpt lat="45.60157481368288" lon="8.20268917101761"><ele>414.0</ele><time>2026-04-10T15:00:10Z</time></trkpt><trkpt lat="45.60156948471196" lon="8.20258432978441"><ele>414.0</ele><time>2026-04-10T15:00:11Z</time></trkpt><trkpt lat="45.601575215727856" lon="8.202488606960628"><ele>414.0</ele><time>2026-04-10T15:00:12Z</time></trkpt><trkpt lat="45.6016344092017" lon="8.202379453034705"><ele>414.0</ele><time>2026-04-10T15:00:13Z</time></trkpt><trkpt lat="45.60166067783686" lon="8.202270051726494"><ele>414.0</ele><time>2026-04-10T15:00:14Z</time></trkpt><trkpt lat="45.60167188443455" lon="8.202175594690654"><ele>414.0</ele><time>2026-04-10T15:00:15Z</time></trkpt><trkpt lat="45.60165459616172" lon="8.202032341330323"><ele>414.0</ele><time>2026-04-10T15:00:17Z</time></trkpt><trkpt lat="45.60161477870852" lon="8.201946838859723"><ele>414.0</ele><time>2026-04-10T15:00:18Z</time></trkpt><trkpt lat="45.601578739153034" lon="8.20185301547337"><ele>414.0</ele><time>2026-04-10T15:00:19Z</time></trkpt><trkpt lat="45.601563992558056" lon="8.201742358875844"><ele>414.0</ele><time>2026-04-10T15:00:21Z</time></trkpt><trkpt lat="45.60166195411606" lon="8.201628924579905"><ele>414.0</ele><time>2026-04-10T15:00:29Z</time></trkpt><trkpt lat="45.60173235200385" lon="8.201589100924828"><ele>414.0</ele><time>2026-04-10T15:00:30Z</time></trkpt><trkpt lat="45.6018270605726" lon="8.201535434825088"><ele>413.2</ele><time>2026-04-10T15:00:31.999Z</time></trkpt><trkpt lat="45.60189848514638" lon="8.201424293942535"><ele>412.4</ele><time>2026-04-10T15:00:33.999Z</time></trkpt><trkpt lat="45.601929046074126" lon="8.20133020039473"><ele>411.6</ele><time>2026-04-10T15:00:34.999Z</time></trkpt><trkpt lat="45.60201177189876" lon="8.201217661375575"><ele>410.8</ele><time>2026-04-10T15:00:36.999Z</time></trkpt><trkpt lat="45.60207953420702" lon="8.201128421384253"><ele>410.0</ele><time>2026-04-10T15:00:38.999Z</time></trkpt><trkpt lat="45.602085379521625" lon="8.201014374082924"><ele>410.0</ele><time>2026-04-10T15:00:41.999Z</time></trkpt><trkpt lat="45.60207256326891" lon="8.200876655402565"><ele>410.0</ele><time>2026-04-10T15:00:43.999Z</time></trkpt><trkpt lat="45.60197080289605" lon="8.200774195592523"><ele>410.0</ele><time>2026-04-10T15:00:45.999Z</time></trkpt><trkpt lat="45.60188004922235" lon="8.200741917429928"><ele>410.0</ele><time>2026-04-10T15:00:46.999Z</time></trkpt><trkpt lat="45.601787554300024" lon="8.200714983556"><ele>410.0</ele><time>2026-04-10T15:00:47.999Z</time></trkpt><trkpt lat="45.60173461274332" lon="8.200616996903596"><ele>406.8</ele><time>2026-04-10T15:00:49.999Z</time></trkpt><trkpt lat="45.60167652776643" lon="8.20047613096686"><ele>403.6</ele><time>2026-04-10T15:00:51.999Z</time></trkpt><trkpt lat="45.60161434358806" lon="8.200370851581939"><ele>400.4</ele><time>2026-04-10T15:00:52.999Z</time></trkpt><trkpt lat="45.60155516365444" lon="8.200253698781234"><ele>397.2</ele><time>2026-04-10T15:00:53.999Z</time></trkpt><trkpt lat="45.601503103268115" lon="8.20015513913559"><ele>394.0</ele><time>2026-04-10T15:00:54.999Z</time></trkpt><trkpt lat="45.60143469977956" lon="8.2000687815867"><ele>394.00000000000006</ele><time>2026-04-10T15:00:55.999Z</time></trkpt><trkpt lat="45.60137855166863" lon="8.199960348853518"><ele>394.0</ele><time>2026-04-10T15:00:56.999Z</time></trkpt><trkpt lat="45.6013226136242" lon="8.199883546315274"><ele>394.0</ele><time>2026-04-10T15:00:57.999Z</time></trkpt><trkpt lat="45.601240227033145" lon="8.199856819909154"><ele>394.0</ele><time>2026-04-10T15:00:58.999Z</time></trkpt><trkpt lat="45.60115927526549" lon="8.199835157134695"><ele>394.00000000000006</ele><time>2026-04-10T15:00:59.999Z</time></trkpt><trkpt lat="45.60110583887745" lon="8.199731189765323"><ele>394.0</ele><time>2026-04-10T15:01:12.001Z</time></trkpt><trkpt lat="45.60108095012206" lon="8.19961679925286"><ele>391.42857142857144</ele><time>2026-04-10T15:01:15.001Z</time></trkpt><trkpt lat="45.60104540679765" lon="8.199534681206448"><ele>388.8571428571429</ele><time>2026-04-10T15:01:18.001Z</time></trkpt><trkpt lat="45.60097884321553" lon="8.199501873727513"><ele>386.2857142857143</ele><time>2026-04-10T15:01:30Z</time></trkpt><trkpt lat="45.60091023362711" lon="8.19950958071184"><ele>383.7142857142857</ele><time>2026-04-10T15:01:33Z</time></trkpt><trkpt lat="45.60084005647774" lon="8.199543873400492"><ele>381.1428571428571</ele><time>2026-04-10T15:01:35Z</time></trkpt><trkpt lat="45.60076851905425" lon="8.19957806190393"><ele>378.57142857142856</ele><time>2026-04-10T15:01:50Z</time></trkpt><trkpt lat="45.60067796366717" lon="8.199593597420415"><ele>376.0</ele><time>2026-04-10T15:01:54Z</time></trkpt><trkpt lat="45.600638343193765" lon="8.19949800832635"><ele>376.0</ele><time>2026-04-10T15:01:57Z</time></trkpt><trkpt lat="45.60062849118808" lon="8.199397612527509"><ele>376.0</ele><time>2026-04-10T15:02:01Z</time></trkpt><trkpt lat="45.60059370728131" lon="8.19930899411144"><ele>376.0</ele><time>2026-04-10T15:02:03Z</time></trkpt><trkpt lat="45.600623308480195" lon="8.19919932866006"><ele>376.0</ele><time>2026-04-10T15:02:05Z</time></trkpt><trkpt lat="45.60062749285614" lon="8.199034954023615"><ele>376.0</ele><time>2026-04-10T15:02:07Z</time></trkpt><trkpt lat="45.60062295391485" lon="8.198941176491578"><ele>376.0</ele><time>2026-04-10T15:02:08Z</time></trkpt><trkpt lat="45.60060934054068" lon="8.19885257738916"><ele>373.42857142857144</ele><time>2026-04-10T15:02:09Z</time></trkpt><trkpt lat="45.60059668869497" lon="8.198761010768493"><ele>370.85714285714283</ele><time>2026-04-10T15:02:10Z</time></trkpt><trkpt lat="45.60058091891032" lon="8.198668596789501"><ele>368.28571428571433</ele><time>2026-04-10T15:02:11Z</time></trkpt><trkpt lat="45.60055940954804" lon="8.198565110824045"><ele>365.7142857142857</ele><time>2026-04-10T15:02:13Z</time></trkpt><trkpt lat="45.60057265724087" lon="8.19845590879164"><ele>363.14285714285717</ele><time>2026-04-10T15:02:15Z</time></trkpt><trkpt lat="45.60064462552166" lon="8.198375871950603"><ele>360.5714285714286</ele><time>2026-04-10T15:02:17Z</time></trkpt><trkpt lat="45.60068965089864" lon="8.198306299842264"><ele>358.0</ele><time>2026-04-10T15:02:21Z</time></trkpt><trkpt lat="45.600745992178815" lon="8.198265849823645"><ele>356.28571428571433</ele><time>2026-04-10T15:02:26Z</time></trkpt><trkpt lat="45.60074186873328" lon="8.198156111700605"><ele>354.57142857142856</ele><time>2026-04-10T15:15:16.999Z</time></trkpt><trkpt lat="45.600675370682765" lon="8.198099981910783"><ele>352.8571428571429</ele><time>2026-04-10T15:15:28.999Z</time></trkpt><trkpt lat="45.60060333903237" lon="8.198117676167948"><ele>351.14285714285717</ele><time>2026-04-10T15:15:33.999Z</time></trkpt><trkpt lat="45.60057068602574" lon="8.198038543319564"><ele>349.42857142857144</ele><time>2026-04-10T15:15:37.999Z</time></trkpt><trkpt lat="45.60056869371971" lon="8.197918776476183"><ele>347.7142857142857</ele><time>2026-04-10T15:15:40.999Z</time></trkpt><trkpt lat="45.6005212856501" lon="8.197842774509503"><ele>346.0</ele><time>2026-04-10T15:15:43.999Z</time></trkpt><trkpt lat="45.60046390103571" lon="8.197775887160624"><ele>346.0</ele><time>2026-04-10T15:15:57Z</time></trkpt><trkpt lat="45.600376347242594" lon="8.197775135624763"><ele>346.0</ele><time>2026-04-10T15:16:00Z</time></trkpt><trkpt lat="45.60032201280816" lon="8.197710300041852"><ele>346.0</ele><time>2026-04-10T15:16:03Z</time></trkpt><trkpt lat="45.600329219494924" lon="8.197619543533179"><ele>346.0</ele><time>2026-04-10T15:16:05Z</time></trkpt><trkpt lat="45.60027203788167" lon="8.197576743980386"><ele>346.0</ele><time>2026-04-10T15:16:09Z</time></trkpt><trkpt lat="45.600219531424244" lon="8.197520026977068"><ele>346.0</ele><time>2026-04-10T15:16:13Z</time></trkpt><trkpt lat="45.60020616434922" lon="8.19742950409562"><ele>346.0</ele><time>2026-04-10T15:16:18Z</time></trkpt><trkpt lat="45.600135445236404" lon="8.197459027562827"><ele>345.66666666666663</ele><time>2026-04-10T15:16:21Z</time></trkpt><trkpt lat="45.60007396999742" lon="8.197397789842189"><ele>345.3333333333333</ele><time>2026-04-10T15:16:25Z</time></trkpt><trkpt lat="45.60000009882292" lon="8.197392986653288"><ele>345.0</ele><time>2026-04-10T15:16:28Z</time></trkpt><trkpt lat="45.599925153335896" lon="8.197397719019548"><ele>344.6666666666667</ele><time>2026-04-10T15:16:31Z</time></trkpt><trkpt lat="45.59983791283389" lon="8.197339672003285"><ele>344.33333333333337</ele><time>2026-04-10T15:16:43Z</time></trkpt><trkpt lat="45.5997872766774" lon="8.197283818169137"><ele>344.0</ele><time>2026-04-10T15:16:44.999Z</time></trkpt><trkpt lat="45.59975198590183" lon="8.1972024689784"><ele>343.83333333333337</ele><time>2026-04-10T15:16:46.999Z</time></trkpt><trkpt lat="45.59982222203344" lon="8.197085394478348"><ele>343.6666666666667</ele><time>2026-04-10T15:16:49.999Z</time></trkpt><trkpt lat="45.599878268093974" lon="8.197033254447144"><ele>343.5</ele><time>2026-04-10T15:16:50.999Z</time></trkpt><trkpt lat="45.59993932888716" lon="8.197007506304201"><ele>343.3333333333333</ele><time>2026-04-10T15:16:51.999Z</time></trkpt><trkpt lat="45.60001018409656" lon="8.196933479314865"><ele>343.16666666666663</ele><time>2026-04-10T15:16:53.999Z</time></trkpt><trkpt lat="45.60001953013677" lon="8.196831564822173"><ele>343.0</ele><time>2026-04-10T15:16:55.999Z</time></trkpt><trkpt lat="45.60005458165098" lon="8.196727658294376"><ele>343.0</ele><time>2026-04-10T15:16:57.999Z</time></trkpt><trkpt lat="45.6001115907889" lon="8.196680909455194"><ele>343.0</ele><time>2026-04-10T15:17:00.999Z</time></trkpt><trkpt lat="45.60016330052147" lon="8.19660471082711"><ele>343.0</ele><time>2026-04-10T15:17:02.999Z</time></trkpt><trkpt lat="45.600215048465024" lon="8.196667475292333"><ele>343.0</ele><time>2026-04-10T15:17:06.999Z</time></trkpt><trkpt lat="45.600269460290356" lon="8.1967223587765"><ele>343.0</ele><time>2026-04-10T15:17:09.999Z</time></trkpt><trkpt lat="45.60031012681963" lon="8.196797214418911"><ele>343.0</ele><time>2026-04-10T15:17:12.999Z</time></trkpt><trkpt lat="45.60028977158272" lon="8.196897259977979"><ele>343.0</ele><time>2026-04-10T15:17:16.999Z</time></trkpt><trkpt lat="45.600357701724135" lon="8.196972297513648"><ele>343.59999999999997</ele><time>2026-04-10T15:17:20.999Z</time></trkpt><trkpt lat="45.60041831627661" lon="8.197000381176688"><ele>344.2</ele><time>2026-04-10T15:17:21.999Z</time></trkpt><trkpt lat="45.60049440346206" lon="8.19705526620095"><ele>344.8</ele><time>2026-04-10T15:17:24.999Z</time></trkpt><trkpt lat="45.600560493859106" lon="8.197152004327506"><ele>345.4</ele><time>2026-04-10T15:17:27.999Z</time></trkpt><trkpt lat="45.60073347842097" lon="8.197292186752774"><ele>346.0</ele><time>2026-04-10T15:17:29.999Z</time></trkpt><trkpt lat="45.60081214767119" lon="8.197377244708404"><ele>346.0</ele><time>2026-04-10T15:17:31.999Z</time></trkpt><trkpt lat="45.60086522852264" lon="8.197431693679547"><ele>346.0</ele><time>2026-04-10T15:17:32.999Z</time></trkpt><trkpt lat="45.60097222829359" lon="8.197512332555302"><ele>346.0</ele><time>2026-04-10T15:17:34.999Z</time></trkpt><trkpt lat="45.60104740357413" lon="8.197552829627845"><ele>346.0</ele><time>2026-04-10T15:17:36.999Z</time></trkpt><trkpt lat="45.60113283319374" lon="8.197589212939226"><ele>346.0</ele><time>2026-04-10T15:17:39.999Z</time></trkpt><trkpt lat="45.60122161020302" lon="8.19762839654743"><ele>346.0</ele><time>2026-04-10T15:17:42.999Z</time></trkpt><trkpt lat="45.601285666934615" lon="8.197629382149966"><ele>348.8</ele><time>2026-04-10T15:17:45.999Z</time></trkpt><trkpt lat="45.6013469659059" lon="8.197711549717326"><ele>351.6</ele><time>2026-04-10T15:17:48.999Z</time></trkpt><trkpt lat="45.601470213811346" lon="8.197839234885908"><ele>354.4</ele><time>2026-04-10T15:17:50.999Z</time></trkpt><trkpt lat="45.601531242041226" lon="8.19787673569354"><ele>357.2</ele><time>2026-04-10T15:17:51.999Z</time></trkpt><trkpt lat="45.60159793516915" lon="8.197947827364054"><ele>360.0</ele><time>2026-04-10T15:17:53.999Z</time></trkpt><trkpt lat="45.60166219649725" lon="8.198041201281624"><ele>360.0</ele><time>2026-04-10T15:17:56Z</time></trkpt><trkpt lat="45.60170521153634" lon="8.198123005693812"><ele>360.0</ele><time>2026-04-10T15:17:57Z</time></trkpt><trkpt lat="45.60176348155383" lon="8.198180216267541"><ele>360.0</ele><time>2026-04-10T15:17:58Z</time></trkpt><trkpt lat="45.6018540602753" lon="8.198293381223715"><ele>360.0</ele><time>2026-04-10T15:18:00Z</time></trkpt><trkpt lat="45.601908235078575" lon="8.198340267300596"><ele>360.0</ele><time>2026-04-10T15:18:02Z</time></trkpt><trkpt lat="45.601974406629594" lon="8.198351958196772"><ele>360.0</ele><time>2026-04-10T15:18:05Z</time></trkpt><trkpt lat="45.60205307765695" lon="8.198416003513143"><ele>360.0</ele><time>2026-04-10T15:18:15Z</time></trkpt><trkpt lat="45.60214880026667" lon="8.198457056982672"><ele>360.0</ele><time>2026-04-10T15:18:17Z</time></trkpt><trkpt lat="45.60222197259147" lon="8.198454464846943"><ele>360.0</ele><time>2026-04-10T15:18:18Z</time></trkpt><trkpt lat="45.60229946745605" lon="8.198475213484562"><ele>360.0</ele><time>2026-04-10T15:18:19Z</time></trkpt><trkpt lat="45.60238775379168" lon="8.198483724525536"><ele>360.0</ele><time>2026-04-10T15:18:21Z</time></trkpt><trkpt lat="45.60246175435333" lon="8.198456751527301"><ele>360.0</ele><time>2026-04-10T15:18:23Z</time></trkpt><trkpt lat="45.60247968298584" lon="8.198359298104737"><ele>360.0</ele><time>2026-04-10T15:18:25Z</time></trkpt><trkpt lat="45.60254482982876" lon="8.19829397622931"><ele>360.0</ele><time>2026-04-10T15:18:26Z</time></trkpt><trkpt lat="45.60260443383637" lon="8.198256107654668"><ele>360.0</ele><time>2026-04-10T15:18:27Z</time></trkpt><trkpt lat="45.60271831104677" lon="8.198266659305771"><ele>360.0</ele><time>2026-04-10T15:18:29Z</time></trkpt><trkpt lat="45.602785889721204" lon="8.198259086259528"><ele>360.0</ele><time>2026-04-10T15:18:31Z</time></trkpt><trkpt lat="45.60289408497227" lon="8.198250097059683"><ele>360.0</ele><time>2026-04-10T15:18:33Z</time></trkpt><trkpt lat="45.602971250082526" lon="8.198284580128206"><ele>360.8333333333333</ele><time>2026-04-10T15:18:35Z</time></trkpt><trkpt lat="45.60300141805648" lon="8.198370587102017"><ele>361.6666666666667</ele><time>2026-04-10T15:18:37Z</time></trkpt><trkpt lat="45.60308538911919" lon="8.198387947082587"><ele>362.5</ele><time>2026-04-10T15:18:40Z</time></trkpt><trkpt lat="45.603150244782476" lon="8.198396644904996"><ele>363.33333333333337</ele><time>2026-04-10T15:18:43Z</time></trkpt><trkpt lat="45.60323948138779" lon="8.198374107946968"><ele>364.1666666666667</ele><time>2026-04-10T15:18:46Z</time></trkpt><trkpt lat="45.603321787530085" lon="8.198457366952429"><ele>365.0</ele><time>2026-04-10T15:18:48.999Z</time></trkpt><trkpt lat="45.60341233579187" lon="8.198514357850414"><ele>365.0</ele><time>2026-04-10T15:18:49.999Z</time></trkpt><trkpt lat="45.60346858145065" lon="8.198597570079139"><ele>365.0</ele><time>2026-04-10T15:18:50.999Z</time></trkpt><trkpt lat="45.60351704974225" lon="8.1986604894813"><ele>365.0</ele><time>2026-04-10T15:18:53.999Z</time></trkpt><trkpt lat="45.60358112229384" lon="8.198696639474015"><ele>365.0</ele><time>2026-04-10T15:18:56.999Z</time></trkpt><trkpt lat="45.6036502318192" lon="8.19859425826161"><ele>365.0</ele><time>2026-04-10T15:18:58.999Z</time></trkpt><trkpt lat="45.60372737673325" lon="8.198532511931631"><ele>365.0</ele><time>2026-04-10T15:18:59.999Z</time></trkpt><trkpt lat="45.603831433080835" lon="8.198516008867683"><ele>365.33333333333337</ele><time>2026-04-10T15:19:01.999Z</time></trkpt><trkpt lat="45.603908524123504" lon="8.198536876671572"><ele>365.6666666666667</ele><time>2026-04-10T15:19:04.999Z</time></trkpt><trkpt lat="45.60397430449386" lon="8.198581835025156"><ele>366.0</ele><time>2026-04-10T15:19:06.999Z</time></trkpt><trkpt lat="45.60403574453457" lon="8.198657161849443"><ele>366.3333333333333</ele><time>2026-04-10T15:19:08.999Z</time></trkpt><trkpt lat="45.60407788153155" lon="8.19873171606101"><ele>366.66666666666663</ele><time>2026-04-10T15:19:09.999Z</time></trkpt><trkpt lat="45.604166124408984" lon="8.198727121693127"><ele>367.0</ele><time>2026-04-10T15:19:13.999Z</time></trkpt><trkpt lat="45.60425950160139" lon="8.19874879510734"><ele>367.0</ele><time>2026-04-10T15:19:15.999Z</time></trkpt><trkpt lat="45.60437671324724" lon="8.198734305706132"><ele>367.0</ele><time>2026-04-10T15:19:17.999Z</time></trkpt><trkpt lat="45.60445135154592" lon="8.198880087032661"><ele>367.0</ele><time>2026-04-10T15:19:20.999Z</time></trkpt><trkpt lat="45.60451579023604" lon="8.199018383429948"><ele>367.0</ele><time>2026-04-10T15:19:22.999Z</time></trkpt><trkpt lat="45.60456502192228" lon="8.199099328619472"><ele>367.0</ele><time>2026-04-10T15:19:23.999Z</time></trkpt><trkpt lat="45.60456443301898" lon="8.19920263392115"><ele>367.8</ele><time>2026-04-10T15:19:26.999Z</time></trkpt><trkpt lat="45.60457650442403" lon="8.199302072754875"><ele>368.6</ele><time>2026-04-10T15:19:31.999Z</time></trkpt><trkpt lat="45.604480632489555" lon="8.19941166922676"><ele>369.40000000000003</ele><time>2026-04-10T15:20:55Z</time></trkpt><trkpt lat="45.60439637828194" lon="8.199468714445562"><ele>370.20000000000005</ele><time>2026-04-10T15:20:57.999Z</time></trkpt><trkpt lat="45.60435951867884" lon="8.199547638389275"><ele>371.0</ele><time>2026-04-10T15:20:58.999Z</time></trkpt><trkpt lat="45.60430075396849" lon="8.199674377717619"><ele>371.0</ele><time>2026-04-10T15:21:00.999Z</time></trkpt><trkpt lat="45.60424828062526" lon="8.199619822075437"><ele>371.0</ele><time>2026-04-10T15:21:03.999Z</time></trkpt><trkpt lat="45.60419184555156" lon="8.199708611939572"><ele>371.0</ele><time>2026-04-10T15:21:08.999Z</time></trkpt><trkpt lat="45.6041686134839" lon="8.19982205821889"><ele>371.0</ele><time>2026-04-10T15:21:10.999Z</time></trkpt><trkpt lat="45.60414255677559" lon="8.199936490677333"><ele>371.0</ele><time>2026-04-10T15:21:12.999Z</time></trkpt><trkpt lat="45.60408956490703" lon="8.200068257037348"><ele>371.0</ele><time>2026-04-10T15:21:14.999Z</time></trkpt><trkpt lat="45.604047577376434" lon="8.200188996999488"><ele>371.83333333333337</ele><time>2026-04-10T15:21:16.999Z</time></trkpt><trkpt lat="45.604010599582764" lon="8.200299765108666"><ele>372.6666666666667</ele><time>2026-04-10T15:21:18.999Z</time></trkpt><trkpt lat="45.6039624704863" lon="8.2004584187608"><ele>373.5</ele><time>2026-04-10T15:21:20.999Z</time></trkpt><trkpt lat="45.60393365432563" lon="8.200547538502432"><ele>374.3333333333333</ele><time>2026-04-10T15:21:22.999Z</time></trkpt><trkpt lat="45.60389052277236" lon="8.200652267943234"><ele>375.16666666666663</ele><time>2026-04-10T15:21:25.999Z</time></trkpt><trkpt lat="45.60383926418254" lon="8.200725939213553"><ele>376.0</ele><time>2026-04-10T15:21:28.999Z</time></trkpt><trkpt lat="45.60378113810899" lon="8.200805157442652"><ele>376.0</ele><time>2026-04-10T15:21:30.999Z</time></trkpt><trkpt lat="45.60374962229171" lon="8.200921044611716"><ele>376.0</ele><time>2026-04-10T15:21:32.999Z</time></trkpt><trkpt lat="45.603703458778355" lon="8.201006286858249"><ele>376.0</ele><time>2026-04-10T15:21:33.999Z</time></trkpt><trkpt lat="45.60366441228779" lon="8.20108584373297"><ele>376.0</ele><time>2026-04-10T15:21:34.999Z</time></trkpt><trkpt lat="45.60361186359621" lon="8.201153447769231"><ele>376.0</ele><time>2026-04-10T15:21:36.999Z</time></trkpt><trkpt lat="45.603539336195304" lon="8.20122386052359"><ele>376.0</ele><time>2026-04-10T15:21:39.999Z</time></trkpt><trkpt lat="45.6034835874962" lon="8.201268111530462"><ele>377.0</ele><time>2026-04-10T15:21:41.999Z</time></trkpt><trkpt lat="45.603422551369185" lon="8.201320251275686"><ele>378.0</ele><time>2026-04-10T15:21:44.999Z</time></trkpt><trkpt lat="45.60338645216057" lon="8.201405687181415"><ele>379.0</ele><time>2026-04-10T15:21:48.999Z</time></trkpt><trkpt lat="45.60336018219313" lon="8.201489257544553"><ele>380.0</ele><time>2026-04-10T15:21:56.999Z</time></trkpt><trkpt lat="45.60330662172028" lon="8.201570635405819"><ele>381.0</ele><time>2026-04-10T15:23:31.999Z</time></trkpt><trkpt lat="45.603335753695184" lon="8.201718311789818"><ele>382.0</ele><time>2026-04-10T15:23:34.999Z</time></trkpt><trkpt lat="45.60337546714038" lon="8.2017916152997"><ele>382.0</ele><time>2026-04-10T15:23:36.999Z</time></trkpt><trkpt lat="45.60345577580223" lon="8.20179579619227"><ele>382.0</ele><time>2026-04-10T15:23:38.999Z</time></trkpt><trkpt lat="45.60352686122537" lon="8.201867851879879"><ele>382.0</ele><time>2026-04-10T15:23:40.999Z</time></trkpt><trkpt lat="45.603565797809466" lon="8.201945281506287"><ele>382.0</ele><time>2026-04-10T15:23:42.999Z</time></trkpt><trkpt lat="45.603639754309086" lon="8.20190466386376"><ele>382.0</ele><time>2026-04-10T15:23:45.999Z</time></trkpt><trkpt lat="45.60371819612636" lon="8.201902547632553"><ele>382.0</ele><time>2026-04-10T15:23:47.999Z</time></trkpt><trkpt lat="45.60380955546476" lon="8.201961064202191"><ele>381.66666666666663</ele><time>2026-04-10T15:23:49.999Z</time></trkpt><trkpt lat="45.60387602273864" lon="8.20209898136822"><ele>381.3333333333333</ele><time>2026-04-10T15:23:51.999Z</time></trkpt><trkpt lat="45.60393786897136" lon="8.202152335066952"><ele>381.0</ele><time>2026-04-10T15:23:53.999Z</time></trkpt><trkpt lat="45.60395629641507" lon="8.20224814714807"><ele>380.6666666666667</ele><time>2026-04-10T15:23:56.999Z</time></trkpt><trkpt lat="45.603912918974814" lon="8.202320227879774"><ele>380.33333333333337</ele><time>2026-04-10T15:23:59.999Z</time></trkpt><trkpt lat="45.60387525985471" lon="8.202393637040098"><ele>380.0</ele><time>2026-04-10T15:24:01.999Z</time></trkpt><trkpt lat="45.603804901503906" lon="8.202384208759723"><ele>381.1666666666667</ele><time>2026-04-10T15:24:04.999Z</time></trkpt><trkpt lat="45.603746428731064" lon="8.202473565202268"><ele>382.33333333333337</ele><time>2026-04-10T15:24:08.999Z</time></trkpt><trkpt lat="45.603717949749296" lon="8.202571671987824"><ele>383.5</ele><time>2026-04-10T15:24:10.999Z</time></trkpt><trkpt lat="45.60365492422612" lon="8.202666994677006"><ele>384.6666666666667</ele><time>2026-04-10T15:24:11.999Z</time></trkpt><trkpt lat="45.60361339344191" lon="8.202742221737276"><ele>385.8333333333333</ele><time>2026-04-10T15:24:13Z</time></trkpt><trkpt lat="45.60357815381441" lon="8.202831849528557"><ele>387.0</ele><time>2026-04-10T15:24:14Z</time></trkpt><trkpt lat="45.6035543791285" lon="8.20292685835803"><ele>387.3333333333333</ele><time>2026-04-10T15:24:15Z</time></trkpt><trkpt lat="45.603508196205084" lon="8.203013974590116"><ele>387.66666666666663</ele><time>2026-04-10T15:24:16Z</time></trkpt><trkpt lat="45.60341788712103" lon="8.203139083140993"><ele>388.0</ele><time>2026-04-10T15:24:18Z</time></trkpt><trkpt lat="45.60339510709406" lon="8.203254761181062"><ele>388.3333333333333</ele><time>2026-04-10T15:24:20Z</time></trkpt><trkpt lat="45.60341401795513" lon="8.203346323760385"><ele>388.66666666666663</ele><time>2026-04-10T15:24:23Z</time></trkpt><trkpt lat="45.603414788698025" lon="8.2034368793888"><ele>389.0</ele><time>2026-04-10T15:26:06.999Z</time></trkpt><trkpt lat="45.60342322002691" lon="8.2035456030066"><ele>389.2857142857143</ele><time>2026-04-10T15:26:13.999Z</time></trkpt><trkpt lat="45.60344298893683" lon="8.203632132072913"><ele>389.57142857142856</ele><time>2026-04-10T15:26:16.999Z</time></trkpt><trkpt lat="45.60344476100505" lon="8.203746332080602"><ele>389.85714285714283</ele><time>2026-04-10T15:26:21Z</time></trkpt><trkpt lat="45.60349045808075" lon="8.203814837310883"><ele>390.1428571428571</ele><time>2026-04-10T15:26:25Z</time></trkpt><trkpt lat="45.603555801797576" lon="8.203836131040775"><ele>390.42857142857144</ele><time>2026-04-10T15:26:45Z</time></trkpt><trkpt lat="45.603624719834414" lon="8.20384321269113"><ele>390.71428571428567</ele><time>2026-04-10T15:28:21.999Z</time></trkpt><trkpt lat="45.60370038045743" lon="8.203816366282519"><ele>391.0</ele><time>2026-04-10T15:28:47Z</time></trkpt><trkpt lat="45.60373630689629" lon="8.203691988562058"><ele>391.00000000000006</ele><time>2026-04-10T15:29:40.999Z</time></trkpt><trkpt lat="45.60375096954249" lon="8.203562309679159"><ele>391.0</ele><time>2026-04-10T15:29:42.999Z</time></trkpt><trkpt lat="45.603805265684386" lon="8.203468288319216"><ele>391.0</ele><time>2026-04-10T15:29:44.999Z</time></trkpt><trkpt lat="45.603846226652735" lon="8.203368389375472"><ele>391.0</ele><time>2026-04-10T15:29:46.999Z</time></trkpt><trkpt lat="45.6038551644803" lon="8.203277603425438"><ele>391.00000000000006</ele><time>2026-04-10T15:29:49.999Z</time></trkpt><trkpt lat="45.60389812452516" lon="8.203186875970905"><ele>391.0</ele><time>2026-04-10T15:29:51.999Z</time></trkpt><trkpt lat="45.603956618087956" lon="8.203104914575698"><ele>390.20000000000005</ele><time>2026-04-10T15:29:53.999Z</time></trkpt><trkpt lat="45.604020411515066" lon="8.203041287458682"><ele>389.40000000000003</ele><time>2026-04-10T15:29:55.999Z</time></trkpt><trkpt lat="45.60406707331599" lon="8.202930728996812"><ele>388.6</ele><time>2026-04-10T15:29:58.999Z</time></trkpt><trkpt lat="45.60410733651813" lon="8.20276850121756"><ele>387.8</ele><time>2026-04-10T15:30:00.999Z</time></trkpt><trkpt lat="45.6041576303387" lon="8.202658295681061"><ele>387.0</ele><time>2026-04-10T15:30:01.999Z</time></trkpt><trkpt lat="45.60421341982079" lon="8.202552589744846"><ele>387.0</ele><time>2026-04-10T15:30:02.999Z</time></trkpt><trkpt lat="45.604272682295615" lon="8.20242544579044"><ele>387.0</ele><time>2026-04-10T15:30:03.999Z</time></trkpt><trkpt lat="45.604312683785736" lon="8.202321597320033"><ele>387.0</ele><time>2026-04-10T15:30:04.999Z</time></trkpt><trkpt lat="45.60436793538787" lon="8.202258416158093"><ele>387.0</ele><time>2026-04-10T15:30:05.999Z</time></trkpt><trkpt lat="45.60443255811559" lon="8.202209259314031"><ele>387.0</ele><time>2026-04-10T15:30:06.999Z</time></trkpt><trkpt lat="45.60450025337091" lon="8.202168518291844"><ele>387.0</ele><time>2026-04-10T15:30:07.999Z</time></trkpt><trkpt lat="45.60456319414531" lon="8.202144193180848"><ele>386.5</ele><time>2026-04-10T15:30:08.999Z</time></trkpt><trkpt lat="45.60462231879658" lon="8.202091412955577"><ele>386.0</ele><time>2026-04-10T15:30:09.999Z</time></trkpt><trkpt lat="45.60470082415361" lon="8.20206054102672"><ele>385.5</ele><time>2026-04-10T15:30:10.999Z</time></trkpt><trkpt lat="45.604771753068924" lon="8.202025189434561"><ele>385.0</ele><time>2026-04-10T15:30:11.999Z</time></trkpt><trkpt lat="45.604841131594725" lon="8.201989128740658"><ele>384.5</ele><time>2026-04-10T15:30:12.999Z</time></trkpt><trkpt lat="45.60490701058986" lon="8.201985203921879"><ele>384.0</ele><time>2026-04-10T15:30:13.999Z</time></trkpt><trkpt lat="45.60502081394795" lon="8.202324158081629"><ele>384.0</ele><time>2026-04-10T15:30:14.999Z</time></trkpt><trkpt lat="45.605096652134485" lon="8.2022367321163"><ele>384.0</ele><time>2026-04-10T15:30:19.999Z</time></trkpt><trkpt lat="45.60517099033641" lon="8.202191126660892"><ele>384.0</ele><time>2026-04-10T15:36:32.998Z</time></trkpt><trkpt lat="45.60524367187704" lon="8.202077617974952"><ele>384.0</ele><time>2026-04-10T15:36:34.998Z</time></trkpt><trkpt lat="45.60530639792791" lon="8.201997188023888"><ele>384.0</ele><time>2026-04-10T15:36:35.998Z</time></trkpt><trkpt lat="45.60537696842875" lon="8.201888850974917"><ele>383.0</ele><time>2026-04-10T15:36:36.998Z</time></trkpt><trkpt lat="45.60545071570226" lon="8.2017782152098"><ele>382.0</ele><time>2026-04-10T15:36:37.998Z</time></trkpt><trkpt lat="45.6055238911631" lon="8.201651901739444"><ele>381.0</ele><time>2026-04-10T15:36:38.998Z</time></trkpt><trkpt lat="45.60558913020604" lon="8.201512892604958"><ele>380.0</ele><time>2026-04-10T15:36:39.998Z</time></trkpt><trkpt lat="45.605629511666706" lon="8.201362933402915"><ele>379.8</ele><time>2026-04-10T15:36:40.998Z</time></trkpt><trkpt lat="45.60564010840457" lon="8.201210880724938"><ele>379.6</ele><time>2026-04-10T15:36:41.998Z</time></trkpt><trkpt lat="45.605628169735404" lon="8.2010533539847"><ele>379.4</ele><time>2026-04-10T15:36:42.998Z</time></trkpt><trkpt lat="45.60560284444503" lon="8.200893212552657"><ele>379.2</ele><time>2026-04-10T15:36:43.998Z</time></trkpt><trkpt lat="45.605574934560586" lon="8.200733013328199"><ele>379.0</ele><time>2026-04-10T15:36:44.998Z</time></trkpt><trkpt lat="45.60554695142136" lon="8.200568589842476"><ele>379.0</ele><time>2026-04-10T15:36:45.998Z</time></trkpt><trkpt lat="45.605525147129775" lon="8.200407825926801"><ele>379.0</ele><time>2026-04-10T15:36:46.998Z</time></trkpt><trkpt lat="45.60550046655233" lon="8.200247838960797"><ele>379.0</ele><time>2026-04-10T15:36:48Z</time></trkpt><trkpt lat="45.60548292719488" lon="8.200090202332936"><ele>379.0</ele><time>2026-04-10T15:36:49Z</time></trkpt><trkpt lat="45.60547663653257" lon="8.199940887337442"><ele>379.0</ele><time>2026-04-10T15:36:50Z</time></trkpt><trkpt lat="45.605489432809364" lon="8.199798702425998"><ele>379.0</ele><time>2026-04-10T15:36:51Z</time></trkpt><trkpt lat="45.60552970912621" lon="8.199680179928224"><ele>379.0</ele><time>2026-04-10T15:36:52Z</time></trkpt><trkpt lat="45.60558446175183" lon="8.199602319633572"><ele>379.0</ele><time>2026-04-10T15:36:53Z</time></trkpt><trkpt lat="45.60563879453564" lon="8.199536013015017"><ele>379.0</ele><time>2026-04-10T15:36:54Z</time></trkpt><trkpt lat="45.605694570496" lon="8.19947443893701"><ele>379.0</ele><time>2026-04-10T15:36:55Z</time></trkpt><trkpt lat="45.605780704754" lon="8.199510303620526"><ele>379.0</ele><time>2026-04-10T15:38:27.999Z</time></trkpt><trkpt lat="45.605864691840026" lon="8.199469071204947"><ele>379.0</ele><time>2026-04-10T15:38:29.999Z</time></trkpt><trkpt lat="45.605886745387004" lon="8.199565704421397"><ele>379.0</ele><time>2026-04-10T15:38:31.999Z</time></trkpt><trkpt lat="45.60584788729305" lon="8.199659819359562"><ele>379.0</ele><time>2026-04-10T15:38:33.999Z</time></trkpt><trkpt lat="45.605876052965776" lon="8.19976287602645"><ele>379.0</ele><time>2026-04-10T15:38:38.999Z</time></trkpt><trkpt lat="45.60594601436432" lon="8.199760679248605"><ele>379.0</ele><time>2026-04-10T15:38:41.998Z</time></trkpt><trkpt lat="45.60600797568671" lon="8.199733268433404"><ele>379.0</ele><time>2026-04-10T15:38:43.998Z</time></trkpt><trkpt lat="45.60608254545033" lon="8.199661371323485"><ele>379.0</ele><time>2026-04-10T15:38:46.998Z</time></trkpt><trkpt lat="45.606145630642104" lon="8.199585094586231"><ele>379.0</ele><time>2026-04-10T15:38:49.998Z</time></trkpt><trkpt lat="45.60621070334386" lon="8.199506002186192"><ele>379.0</ele><time>2026-04-10T15:38:54Z</time></trkpt><trkpt lat="45.6062982546476" lon="8.199492325889358"><ele>379.0</ele><time>2026-04-10T15:38:57Z</time></trkpt><trkpt lat="45.60639340370304" lon="8.199497744386084"><ele>379.0</ele><time>2026-04-10T15:39:00Z</time></trkpt><trkpt lat="45.606426557383955" lon="8.199420488182987"><ele>379.0</ele><time>2026-04-10T15:39:03Z</time></trkpt><trkpt lat="45.60651044665859" lon="8.199370234665233"><ele>377.0</ele><time>2026-04-10T15:39:06Z</time></trkpt><trkpt lat="45.606583918856046" lon="8.199343915962956"><ele>375.0</ele><time>2026-04-10T15:39:10Z</time></trkpt><trkpt lat="45.606672613865165" lon="8.19935596613103"><ele>373.0</ele><time>2026-04-10T15:39:12Z</time></trkpt><trkpt lat="45.60677246066496" lon="8.199388615186425"><ele>371.0</ele><time>2026-04-10T15:39:14Z</time></trkpt><trkpt lat="45.60686080408551" lon="8.199375795125452"><ele>369.0</ele><time>2026-04-10T15:39:15Z</time></trkpt><trkpt lat="45.606976187243504" lon="8.199329387364303"><ele>366.79999999999995</ele><time>2026-04-10T15:39:16Z</time></trkpt><trkpt lat="45.60709225583557" lon="8.199282999424806"><ele>364.59999999999997</ele><time>2026-04-10T15:39:17Z</time></trkpt><trkpt lat="45.60718179950692" lon="8.199238741968426"><ele>362.4</ele><time>2026-04-10T15:39:18Z</time></trkpt><trkpt lat="45.60726712678243" lon="8.199213526613466"><ele>360.2</ele><time>2026-04-10T15:39:19Z</time></trkpt><trkpt lat="45.6073358924399" lon="8.199194546771437"><ele>358.0</ele><time>2026-04-10T15:39:20Z</time></trkpt><trkpt lat="45.60742357866745" lon="8.199198201602183"><ele>358.0</ele><time>2026-04-10T15:39:21Z</time></trkpt><trkpt lat="45.60754280626907" lon="8.199197981079042"><ele>358.0</ele><time>2026-04-10T15:39:22Z</time></trkpt><trkpt lat="45.60763369925826" lon="8.199189584534984"><ele>358.0</ele><time>2026-04-10T15:39:23Z</time></trkpt><trkpt lat="45.607724593403645" lon="8.199214180815797"><ele>358.0</ele><time>2026-04-10T15:39:24Z</time></trkpt><trkpt lat="45.607778205684376" lon="8.199372766190749"><ele>358.0</ele><time>2026-04-10T15:39:26Z</time></trkpt><trkpt lat="45.607801149814485" lon="8.199459275895249"><ele>359.0</ele><time>2026-04-10T15:39:26.999Z</time></trkpt><trkpt lat="45.60786754152224" lon="8.199605087355254"><ele>360.0</ele><time>2026-04-10T15:39:28.999Z</time></trkpt><trkpt lat="45.607927767159545" lon="8.199659845295075"><ele>361.0</ele><time>2026-04-10T15:39:29.999Z</time></trkpt><trkpt lat="45.607991663139344" lon="8.19971514690812"><ele>362.0</ele><time>2026-04-10T15:39:30.999Z</time></trkpt><trkpt lat="45.60804593295113" lon="8.199776507350704"><ele>363.0</ele><time>2026-04-10T15:39:33.999Z</time></trkpt><trkpt lat="45.60810445265397" lon="8.19988235393603"><ele>364.0</ele><time>2026-04-10T15:39:35.999Z</time></trkpt><trkpt lat="45.60816734119999" lon="8.200042627247495"><ele>361.2</ele><time>2026-04-10T15:39:38.999Z</time></trkpt><trkpt lat="45.60816616993976" lon="8.200147777848667"><ele>358.4</ele><time>2026-04-10T15:39:39.999Z</time></trkpt><trkpt lat="45.60818213748346" lon="8.200239694547976"><ele>355.6</ele><time>2026-04-10T15:39:40.999Z</time></trkpt><trkpt lat="45.60820964222652" lon="8.200363026969741"><ele>352.8</ele><time>2026-04-10T15:39:42.999Z</time></trkpt><trkpt lat="45.60826860580117" lon="8.200514051613094"><ele>350.0</ele><time>2026-04-10T15:39:45.999Z</time></trkpt><trkpt lat="45.60836159688574" lon="8.200583585136153"><ele>350.0</ele><time>2026-04-10T15:39:47.999Z</time></trkpt><trkpt lat="45.608423011523726" lon="8.200615182713321"><ele>350.0</ele><time>2026-04-10T15:39:48.999Z</time></trkpt><trkpt lat="45.60850285187513" lon="8.200668138774581"><ele>350.0</ele><time>2026-04-10T15:39:50.999Z</time></trkpt><trkpt lat="45.608559343797964" lon="8.200721188841182"><ele>350.0</ele><time>2026-04-10T15:39:51.999Z</time></trkpt><trkpt lat="45.608622562038555" lon="8.200826207668262"><ele>350.0</ele><time>2026-04-10T15:39:52.999Z</time></trkpt><trkpt lat="45.60868847867611" lon="8.200956242961858"><ele>350.0</ele><time>2026-04-10T15:39:53.999Z</time></trkpt><trkpt lat="45.60876877591227" lon="8.201045758742724"><ele>349.5</ele><time>2026-04-10T15:39:54.999Z</time></trkpt><trkpt lat="45.60887803719873" lon="8.201134082576745"><ele>349.0</ele><time>2026-04-10T15:39:56.999Z</time></trkpt><trkpt lat="45.608942766913806" lon="8.201125903691713"><ele>348.5</ele><time>2026-04-10T15:39:58.999Z</time></trkpt><trkpt lat="45.608995185162456" lon="8.201075887280819"><ele>348.0</ele><time>2026-04-10T15:41:12Z</time></trkpt><trkpt lat="45.60901061232866" lon="8.200955768634175"><ele>347.5</ele><time>2026-04-10T15:42:03.999Z</time></trkpt><trkpt lat="45.608973726740835" lon="8.200834835046848"><ele>347.0</ele><time>2026-04-10T15:42:04.999Z</time></trkpt><trkpt lat="45.608945328297445" lon="8.2007196471306"><ele>349.5</ele><time>2026-04-10T15:42:05.999Z</time></trkpt><trkpt lat="45.60891744122027" lon="8.200620377214694"><ele>352.0</ele><time>2026-04-10T15:42:06.999Z</time></trkpt><trkpt lat="45.60887591402551" lon="8.20053160745972"><ele>354.5</ele><time>2026-04-10T15:42:07.999Z</time></trkpt><trkpt lat="45.60885899864315" lon="8.200442513888284"><ele>357.0</ele><time>2026-04-10T15:42:08.999Z</time></trkpt><trkpt lat="45.60886934738071" lon="8.200293918749301"><ele>359.5</ele><time>2026-04-10T15:42:10.999Z</time></trkpt><trkpt lat="45.608896158390245" lon="8.200199673518691"><ele>362.0</ele><time>2026-04-10T15:42:11.999Z</time></trkpt><trkpt lat="45.608920088587034" lon="8.200110729331954"><ele>362.0</ele><time>2026-04-10T15:42:12.999Z</time></trkpt><trkpt lat="45.608968889539454" lon="8.199988607454758"><ele>362.0</ele><time>2026-04-10T15:42:14.999Z</time></trkpt><trkpt lat="45.608991779881904" lon="8.19990423750373"><ele>362.0</ele><time>2026-04-10T15:42:15.999Z</time></trkpt><trkpt lat="45.608995760298804" lon="8.199810734847397"><ele>362.0</ele><time>2026-04-10T15:42:16.999Z</time></trkpt><trkpt lat="45.60903992051331" lon="8.199617409869134"><ele>362.0</ele><time>2026-04-10T15:42:18.999Z</time></trkpt><trkpt lat="45.60906306326097" lon="8.19951125477462"><ele>362.0</ele><time>2026-04-10T15:42:19.999Z</time></trkpt><trkpt lat="45.60908773163451" lon="8.199405431799375"><ele>362.0</ele><time>2026-04-10T15:42:21.999Z</time></trkpt><trkpt lat="45.60913137667445" lon="8.199534224029476"><ele>362.0</ele><time>2026-04-10T15:42:24.999Z</time></trkpt><trkpt lat="45.609123515458116" lon="8.199632340044428"><ele>362.0</ele><time>2026-04-10T15:42:25.999Z</time></trkpt><trkpt lat="45.60911362478398" lon="8.19975942291721"><ele>362.0</ele><time>2026-04-10T15:42:26.999Z</time></trkpt><trkpt lat="45.609053011309264" lon="8.19979711390907"><ele>362.0</ele><time>2026-04-10T15:42:27.999Z</time></trkpt><trkpt lat="45.609071079513235" lon="8.199898702627083"><ele>362.0</ele><time>2026-04-10T15:42:28.999Z</time></trkpt><trkpt lat="45.60911213480827" lon="8.200075501434297"><ele>362.0</ele><time>2026-04-10T15:42:30.999Z</time></trkpt><trkpt lat="45.60913215696922" lon="8.200176513736796"><ele>362.0</ele><time>2026-04-10T15:42:31.999Z</time></trkpt><trkpt lat="45.60915853936605" lon="8.200266309912976"><ele>362.0</ele><time>2026-04-10T15:42:32.999Z</time></trkpt><trkpt lat="45.609235707843276" lon="8.20031648366679"><ele>362.0</ele><time>2026-04-10T15:42:34.999Z</time></trkpt><trkpt lat="45.60931848058519" lon="8.200312350853494"><ele>362.0</ele><time>2026-04-10T15:42:36.999Z</time></trkpt><trkpt lat="45.609366884771035" lon="8.200175394611499"><ele>362.0</ele><time>2026-04-10T15:42:39.999Z</time></trkpt><trkpt lat="45.6093986178567" lon="8.200089472787502"><ele>362.0</ele><time>2026-04-10T15:42:40.999Z</time></trkpt><trkpt lat="45.60945790358205" lon="8.199983848554488"><ele>362.0</ele><time>2026-04-10T15:42:42.999Z</time></trkpt><trkpt lat="45.60952773849886" lon="8.199876374987628"><ele>362.0</ele><time>2026-04-10T15:42:44.999Z</time></trkpt><trkpt lat="45.609613128337486" lon="8.199542569475321"><ele>362.0</ele><time>2026-04-10T15:42:46.999Z</time></trkpt><trkpt lat="45.60964281064687" lon="8.199654033168265"><ele>365.6666666666667</ele><time>2026-04-10T15:42:47.999Z</time></trkpt><trkpt lat="45.60967295934575" lon="8.199552123689122"><ele>369.33333333333337</ele><time>2026-04-10T15:42:48.999Z</time></trkpt><trkpt lat="45.60970426980671" lon="8.199450833143691"><ele>373.0</ele><time>2026-04-10T15:42:49.998Z</time></trkpt><trkpt lat="45.60972893128719" lon="8.199344953827175"><ele>376.6666666666667</ele><time>2026-04-10T15:42:50.998Z</time></trkpt><trkpt lat="45.60976227274169" lon="8.199205489653911"><ele>380.3333333333333</ele><time>2026-04-10T15:42:51.998Z</time></trkpt><trkpt lat="45.60977760328595" lon="8.19908058630625"><ele>384.0</ele><time>2026-04-10T15:42:52.998Z</time></trkpt><trkpt lat="45.60981562747936" lon="8.198953747857862"><ele>385.6</ele><time>2026-04-10T15:42:54.998Z</time></trkpt><trkpt lat="45.609902649018444" lon="8.19885901511159"><ele>387.2</ele><time>2026-04-10T15:42:56.998Z</time></trkpt><trkpt lat="45.61001371142923" lon="8.198805480600283"><ele>388.8</ele><time>2026-04-10T15:42:58.998Z</time></trkpt><trkpt lat="45.61008083123691" lon="8.19879790946881"><ele>390.40000000000003</ele><time>2026-04-10T15:42:59.998Z</time></trkpt><trkpt lat="45.61017415007707" lon="8.198750601588442"><ele>392.0</ele><time>2026-04-10T15:43:00.998Z</time></trkpt><trkpt lat="45.61034466683793" lon="8.198642502353474"><ele>394.20000000000005</ele><time>2026-04-10T15:43:01.998Z</time></trkpt><trkpt lat="45.61041845925807" lon="8.198593951579387"><ele>396.4</ele><time>2026-04-10T15:43:02.998Z</time></trkpt><trkpt lat="45.610504733420356" lon="8.198511861998075"><ele>398.6</ele><time>2026-04-10T15:43:03.998Z</time></trkpt><trkpt lat="45.610584342553096" lon="8.198428006530323"><ele>400.79999999999995</ele><time>2026-04-10T15:43:04.998Z</time></trkpt><trkpt lat="45.610648176488674" lon="8.198327114781904"><ele>403.0</ele><time>2026-04-10T15:43:06Z</time></trkpt><trkpt lat="45.61069682128136" lon="8.198233971001944"><ele>403.00000000000006</ele><time>2026-04-10T15:43:07Z</time></trkpt><trkpt lat="45.610760434167844" lon="8.19823253973268"><ele>403.0</ele><time>2026-04-10T15:43:08Z</time></trkpt><trkpt lat="45.610869631904286" lon="8.198282234402457"><ele>403.0</ele><time>2026-04-10T15:43:10Z</time></trkpt><trkpt lat="45.61092818916544" lon="8.19832985555275"><ele>403.0</ele><time>2026-04-10T15:43:11Z</time></trkpt><trkpt lat="45.61099048905371" lon="8.198345940260674"><ele>403.00000000000006</ele><time>2026-04-10T15:43:12Z</time></trkpt><trkpt lat="45.611118711617195" lon="8.198339222400996"><ele>403.0</ele><time>2026-04-10T15:43:14Z</time></trkpt><trkpt lat="45.61119273677456" lon="8.198331650577972"><ele>404.00000000000006</ele><time>2026-04-10T15:43:15Z</time></trkpt><trkpt lat="45.61127265430592" lon="8.198339887050363"><ele>405.0</ele><time>2026-04-10T15:43:16Z</time></trkpt><trkpt lat="45.61136099358732" lon="8.198352969638083"><ele>406.0</ele><time>2026-04-10T15:43:17Z</time></trkpt><trkpt lat="45.61143022825483" lon="8.198370741037225"><ele>407.0</ele><time>2026-04-10T15:43:18Z</time></trkpt><trkpt lat="45.61152275994849" lon="8.198375430193844"><ele>408.00000000000006</ele><time>2026-04-10T15:43:20Z</time></trkpt><trkpt lat="45.61160896288165" lon="8.198356295170946"><ele>409.0</ele><time>2026-04-10T15:43:22Z</time></trkpt><trkpt lat="45.61167606204224" lon="8.198354031432588"><ele>409.00000000000006</ele><time>2026-04-10T15:43:24Z</time></trkpt><trkpt lat="45.61166994106005" lon="8.198448906949361"><ele>409.0</ele><time>2026-04-10T15:44:42.999Z</time></trkpt><trkpt lat="45.6116927537682" lon="8.198619650899417"><ele>409.0</ele><time>2026-04-10T15:44:44.999Z</time></trkpt><trkpt lat="45.61172679783935" lon="8.198762221638315"><ele>409.0</ele><time>2026-04-10T15:44:46.999Z</time></trkpt><trkpt lat="45.61175379788697" lon="8.198880755039278"><ele>409.00000000000006</ele><time>2026-04-10T15:44:48.999Z</time></trkpt><trkpt lat="45.611791427735845" lon="8.198962570523175"><ele>409.0</ele><time>2026-04-10T15:44:49.999Z</time></trkpt><trkpt lat="45.61183575430841" lon="8.199032402930992"><ele>409.33333333333337</ele><time>2026-04-10T15:44:50.999Z</time></trkpt><trkpt lat="45.61191515721302" lon="8.199112561378445"><ele>409.6666666666667</ele><time>2026-04-10T15:44:51.999Z</time></trkpt><trkpt lat="45.611951084097974" lon="8.199217310874145"><ele>410.0</ele><time>2026-04-10T15:44:52.999Z</time></trkpt><trkpt lat="45.611975901912174" lon="8.199328584558234"><ele>410.33333333333337</ele><time>2026-04-10T15:44:53.999Z</time></trkpt><trkpt lat="45.612015046570214" lon="8.19942321277889"><ele>410.6666666666667</ele><time>2026-04-10T15:44:54.998Z</time></trkpt><trkpt lat="45.612057153633884" lon="8.199519878240787"><ele>411.0</ele><time>2026-04-10T15:44:55.998Z</time></trkpt><trkpt lat="45.61208665767453" lon="8.199616448989355"><ele>410.7142857142857</ele><time>2026-04-10T15:44:57.998Z</time></trkpt><trkpt lat="45.612143898822225" lon="8.19966943501473"><ele>410.42857142857144</ele><time>2026-04-10T15:44:59.998Z</time></trkpt><trkpt lat="45.612218504876154" lon="8.199749055979145"><ele>410.1428571428571</ele><time>2026-04-10T15:45:01.998Z</time></trkpt><trkpt lat="45.612260908449436" lon="8.199818588836578"><ele>409.8571428571429</ele><time>2026-04-10T15:45:07.998Z</time></trkpt><trkpt lat="45.61228945905665" lon="8.199910663868224"><ele>409.5714285714286</ele><time>2026-04-10T15:46:23.999Z</time></trkpt><trkpt lat="45.61235818965918" lon="8.199949487266366"><ele>409.2857142857143</ele><time>2026-04-10T15:46:26.999Z</time></trkpt><trkpt lat="45.612303341015746" lon="8.200013616150832"><ele>409.0</ele><time>2026-04-10T15:46:30.999Z</time></trkpt><trkpt lat="45.612232426022494" lon="8.200058428204178"><ele>409.00000000000006</ele><time>2026-04-10T15:46:31.999Z</time></trkpt><trkpt lat="45.612169373522896" lon="8.200065186052706"><ele>409.0</ele><time>2026-04-10T15:46:32.999Z</time></trkpt><trkpt lat="45.61213481319671" lon="8.20014749702618"><ele>409.0</ele><time>2026-04-10T15:46:34.999Z</time></trkpt><trkpt lat="45.612098804818345" lon="8.200283580137262"><ele>409.0</ele><time>2026-04-10T15:46:36.999Z</time></trkpt><trkpt lat="45.61206345067553" lon="8.200371266221001"><ele>409.00000000000006</ele><time>2026-04-10T15:46:37.999Z</time></trkpt><trkpt lat="45.61203626317407" lon="8.20046482702132"><ele>409.0</ele><time>2026-04-10T15:46:38.999Z</time></trkpt><trkpt lat="45.6120141918277" lon="8.200575279193437"><ele>407.6</ele><time>2026-04-10T15:46:39.999Z</time></trkpt><trkpt lat="45.611979379568226" lon="8.200665484856954"><ele>406.2</ele><time>2026-04-10T15:46:40.999Z</time></trkpt><trkpt lat="45.61195183768824" lon="8.20074885760588"><ele>404.8</ele><time>2026-04-10T15:46:41.999Z</time></trkpt><trkpt lat="45.61195537300162" lon="8.200869717101089"><ele>403.40000000000003</ele><time>2026-04-10T15:46:43.999Z</time></trkpt><trkpt lat="45.61190506918507" lon="8.201020518571976"><ele>402.0</ele><time>2026-04-10T15:46:45.999Z</time></trkpt><trkpt lat="45.61198513948659" lon="8.201147879591746"><ele>401.20000000000005</ele><time>2026-04-10T15:46:47.999Z</time></trkpt><trkpt lat="45.6120316616907" lon="8.201294435818046"><ele>400.4</ele><time>2026-04-10T15:46:49.999Z</time></trkpt><trkpt lat="45.612079840632155" lon="8.201469739376732"><ele>399.6</ele><time>2026-04-10T15:46:51.999Z</time></trkpt><trkpt lat="45.612133091931824" lon="8.201561941474653"><ele>398.79999999999995</ele><time>2026-04-10T15:46:52.999Z</time></trkpt><trkpt lat="45.61216014592998" lon="8.201683230845955"><ele>398.0</ele><time>2026-04-10T15:46:54.999Z</time></trkpt><trkpt lat="45.61211102572311" lon="8.201756179131024"><ele>395.59999999999997</ele><time>2026-04-10T15:46:55.999Z</time></trkpt><trkpt lat="45.61208695890522" lon="8.20188109058183"><ele>393.2</ele><time>2026-04-10T15:46:56.999Z</time></trkpt><trkpt lat="45.612100292062735" lon="8.20199758818215"><ele>390.8</ele><time>2026-04-10T15:46:57.999Z</time></trkpt><trkpt lat="45.61209398966342" lon="8.20211315253144"><ele>388.4</ele><time>2026-04-10T15:46:59.999Z</time></trkpt><trkpt lat="45.61209648879746" lon="8.20228237741639"><ele>386.0</ele><time>2026-04-10T15:47:01.998Z</time></trkpt><trkpt lat="45.6120593253812" lon="8.202458044730221"><ele>384.20000000000005</ele><time>2026-04-10T15:47:03.998Z</time></trkpt><trkpt lat="45.612081210137056" lon="8.202604635160444"><ele>382.40000000000003</ele><time>2026-04-10T15:47:04.998Z</time></trkpt><trkpt lat="45.61210939070205" lon="8.202746279933201"><ele>380.6</ele><time>2026-04-10T15:47:05.998Z</time></trkpt><trkpt lat="45.612141278489695" lon="8.202872793665538"><ele>378.8</ele><time>2026-04-10T15:47:06.998Z</time></trkpt><trkpt lat="45.61216840722395" lon="8.203013332502731"><ele>377.0</ele><time>2026-04-10T15:47:07.998Z</time></trkpt><trkpt lat="45.61221533637043" lon="8.203151628284905"><ele>376.40000000000003</ele><time>2026-04-10T15:47:08.998Z</time></trkpt><trkpt lat="45.61226264786247" lon="8.203319432060976"><ele>375.8</ele><time>2026-04-10T15:47:09.998Z</time></trkpt><trkpt lat="45.61230034036303" lon="8.20344558410273"><ele>375.2</ele><time>2026-04-10T15:47:10.998Z</time></trkpt><trkpt lat="45.61232868184378" lon="8.203530858831428"><ele>374.6</ele><time>2026-04-10T15:47:11.998Z</time></trkpt><trkpt lat="45.61229545766576" lon="8.203719155364517"><ele>374.0</ele><time>2026-04-10T15:47:13.998Z</time></trkpt><trkpt lat="45.612259248608595" lon="8.20382792295389"><ele>374.0</ele><time>2026-04-10T15:47:14.998Z</time></trkpt><trkpt lat="45.61224907148324" lon="8.2039501782766"><ele>374.0</ele><time>2026-04-10T15:47:15.998Z</time></trkpt><trkpt lat="45.612245653473785" lon="8.204087251586724"><ele>374.0</ele><time>2026-04-10T15:47:16.998Z</time></trkpt><trkpt lat="45.61224936701579" lon="8.204219761350384"><ele>374.0</ele><time>2026-04-10T15:47:18Z</time></trkpt><trkpt lat="45.61227031109932" lon="8.204348503743418"><ele>374.0</ele><time>2026-04-10T15:47:19Z</time></trkpt><trkpt lat="45.61230837406959" lon="8.204473220198638"><ele>372.83333333333337</ele><time>2026-04-10T15:47:20Z</time></trkpt><trkpt lat="45.6123583908703" lon="8.204550591376865"><ele>371.6666666666667</ele><time>2026-04-10T15:47:21Z</time></trkpt><trkpt lat="45.612361811820676" lon="8.204664992465611"><ele>370.5</ele><time>2026-04-10T15:47:23Z</time></trkpt><trkpt lat="45.61230687214495" lon="8.204712987433425"><ele>369.3333333333333</ele><time>2026-04-10T15:47:24Z</time></trkpt><trkpt lat="45.612218617656616" lon="8.204747465106447"><ele>368.16666666666663</ele><time>2026-04-10T15:47:26Z</time></trkpt><trkpt lat="45.6121831722639" lon="8.20486038071857"><ele>367.0</ele><time>2026-04-10T15:47:29Z</time></trkpt><trkpt lat="45.61213967555774" lon="8.204968611462629"><ele>365.8</ele><time>2026-04-10T15:47:30Z</time></trkpt><trkpt lat="45.61211837419258" lon="8.205083659601433"><ele>364.6</ele><time>2026-04-10T15:47:31Z</time></trkpt><trkpt lat="45.61205732070238" lon="8.205222198761989"><ele>363.40000000000003</ele><time>2026-04-10T15:47:33Z</time></trkpt><trkpt lat="45.6119907929785" lon="8.205280637203725"><ele>362.20000000000005</ele><time>2026-04-10T15:47:34Z</time></trkpt><trkpt lat="45.61195902039957" lon="8.205398726047632"><ele>361.0</ele><time>2026-04-10T15:47:36Z</time></trkpt><trkpt lat="45.61189687042152" lon="8.20555237649261"><ele>359.20000000000005</ele><time>2026-04-10T15:47:38Z</time></trkpt><trkpt lat="45.611825246658185" lon="8.205682289054431"><ele>357.40000000000003</ele><time>2026-04-10T15:47:40Z</time></trkpt><trkpt lat="45.61180931099267" lon="8.205801409876079"><ele>355.6</ele><time>2026-04-10T15:47:40.999Z</time></trkpt><trkpt lat="45.61179828939965" lon="8.205988217710852"><ele>353.8</ele><time>2026-04-10T15:47:42.999Z</time></trkpt><trkpt lat="45.611791987203745" lon="8.20608210053116"><ele>352.0</ele><time>2026-04-10T15:47:43.999Z</time></trkpt><trkpt lat="45.61175079992096" lon="8.206250332520128"><ele>352.0</ele><time>2026-04-10T15:47:45.999Z</time></trkpt><trkpt lat="45.61173443343778" lon="8.206337318075294"><ele>352.0</ele><time>2026-04-10T15:47:46.999Z</time></trkpt><trkpt lat="45.611730178590996" lon="8.20648876135949"><ele>352.0</ele><time>2026-04-10T15:47:48.999Z</time></trkpt><trkpt lat="45.611638387635075" lon="8.2065400173585"><ele>352.0</ele><time>2026-04-10T15:47:51.999Z</time></trkpt><trkpt lat="45.61154868594298" lon="8.206567841040172"><ele>352.0</ele><time>2026-04-10T15:47:53.999Z</time></trkpt><trkpt lat="45.61146139345929" lon="8.206608313261208"><ele>350.40000000000003</ele><time>2026-04-10T15:47:55.999Z</time></trkpt><trkpt lat="45.61136203553994" lon="8.20670699956448"><ele>348.8</ele><time>2026-04-10T15:47:57.999Z</time></trkpt><trkpt lat="45.611299164088074" lon="8.206749270959712"><ele>347.2</ele><time>2026-04-10T15:47:58.999Z</time></trkpt><trkpt lat="45.611239406268716" lon="8.206874424077563"><ele>345.6</ele><time>2026-04-10T15:47:59.999Z</time></trkpt><trkpt lat="45.61118867181275" lon="8.20695514027224"><ele>344.0</ele><time>2026-04-10T15:48:00.999Z</time></trkpt><trkpt lat="45.61108639310754" lon="8.207025138609117"><ele>342.0</ele><time>2026-04-10T15:48:02.999Z</time></trkpt><trkpt lat="45.61101187903327" lon="8.207026565481767"><ele>340.0</ele><time>2026-04-10T15:48:03.999Z</time></trkpt><trkpt lat="45.61092516647946" lon="8.206967329526796"><ele>338.0</ele><time>2026-04-10T15:48:05.999Z</time></trkpt><trkpt lat="45.610811377191226" lon="8.206976344327597"><ele>336.0</ele><time>2026-04-10T15:48:07.999Z</time></trkpt><trkpt lat="45.61074481868003" lon="8.207003941613364"><ele>334.0</ele><time>2026-04-10T15:48:08.999Z</time></trkpt><trkpt lat="45.61065369897634" lon="8.207062230492726"><ele>334.0</ele><time>2026-04-10T15:48:10.999Z</time></trkpt><trkpt lat="45.6105991796598" lon="8.207011191722735"><ele>334.0</ele><time>2026-04-10T15:48:12.999Z</time></trkpt><trkpt lat="45.610520341989535" lon="8.206983491076093"><ele>334.0</ele><time>2026-04-10T15:49:09.998Z</time></trkpt><trkpt lat="45.61058609436568" lon="8.206907002797566"><ele>334.0</ele><time>2026-04-10T15:49:30Z</time></trkpt><trkpt lat="45.610525715492116" lon="8.207011250706046"><ele>334.0</ele><time>2026-04-10T15:49:34Z</time></trkpt><trkpt lat="45.61048763248591" lon="8.20711964515289"><ele>334.0</ele><time>2026-04-10T15:49:36Z</time></trkpt><trkpt lat="45.610421699013976" lon="8.207149715593276"><ele>334.0</ele><time>2026-04-10T15:49:39Z</time></trkpt><trkpt lat="45.61035084599241" lon="8.207167356017548"><ele>334.0</ele><time>2026-04-10T15:49:42.999Z</time></trkpt></trkseg><trkseg><trkpt lat="45.61042185327756" lon="8.207185034388768"><ele>334.0</ele><time>2026-04-10T16:00:10.999Z</time></trkpt><trkpt lat="45.61050253041937" lon="8.207097529992295"><ele>334.0</ele><time>2026-04-10T16:00:13.999Z</time></trkpt><trkpt lat="45.610548249382774" lon="8.20695152819381"><ele>334.0</ele><time>2026-04-10T16:00:15.999Z</time></trkpt><trkpt lat="45.610583464881856" lon="8.206862644449803"><ele>334.0</ele><time>2026-04-10T16:00:16.999Z</time></trkpt><trkpt lat="45.61058966427631" lon="8.206753000236397"><ele>334.0</ele><time>2026-04-10T16:00:19.999Z</time></trkpt><trkpt lat="45.61063416620651" lon="8.2066317727253"><ele>334.0</ele><time>2026-04-10T16:00:21.999Z</time></trkpt><trkpt lat="45.610689848456424" lon="8.206535523840346"><ele>334.0</ele><time>2026-04-10T16:00:22.999Z</time></trkpt><trkpt lat="45.6107513604681" lon="8.206443625139615"><ele>334.0</ele><time>2026-04-10T16:00:23.999Z</time></trkpt><trkpt lat="45.61080855324495" lon="8.20635879113106"><ele>334.0</ele><time>2026-04-10T16:00:24.999Z</time></trkpt><trkpt lat="45.61085821619035" lon="8.206297721023637"><ele>334.0</ele><time>2026-04-10T16:00:25.999Z</time></trkpt><trkpt lat="45.61095555752146" lon="8.20623890576616"><ele>334.0</ele><time>2026-04-10T16:00:27.999Z</time></trkpt><trkpt lat="45.61097278061759" lon="8.206143678110978"><ele>335.0</ele><time>2026-04-10T16:00:29.999Z</time></trkpt><trkpt lat="45.610874570206356" lon="8.206054975987133"><ele>336.0</ele><time>2026-04-10T16:00:31.999Z</time></trkpt><trkpt lat="45.61079957092756" lon="8.206022062094377"><ele>337.0</ele><time>2026-04-10T16:00:32.999Z</time></trkpt><trkpt lat="45.610715966037866" lon="8.205987388710561"><ele>338.0</ele><time>2026-04-10T16:00:33.999Z</time></trkpt><trkpt lat="45.61065046127363" lon="8.20595059364805"><ele>339.0</ele><time>2026-04-10T16:00:34.999Z</time></trkpt><trkpt lat="45.610536061198296" lon="8.205993079965857"><ele>339.0</ele><time>2026-04-10T16:00:36.999Z</time></trkpt><trkpt lat="45.61044414869308" lon="8.20605952348773"><ele>339.0</ele><time>2026-04-10T16:00:39.999Z</time></trkpt><trkpt lat="45.61037509057078" lon="8.206065667164628"><ele>339.0</ele><time>2026-04-10T16:00:40.999Z</time></trkpt><trkpt lat="45.61029141516984" lon="8.206044322063557"><ele>339.0</ele><time>2026-04-10T16:00:42.999Z</time></trkpt><trkpt lat="45.610236655992004" lon="8.205927845697984"><ele>339.0</ele><time>2026-04-10T16:00:44.999Z</time></trkpt><trkpt lat="45.610215150624775" lon="8.205823268556683"><ele>339.0</ele><time>2026-04-10T16:00:47.999Z</time></trkpt><trkpt lat="45.61022445726504" lon="8.205720328909806"><ele>338.2</ele><time>2026-04-10T16:00:50.999Z</time></trkpt><trkpt lat="45.61022588588028" lon="8.205529418619841"><ele>337.4</ele><time>2026-04-10T16:00:53.999Z</time></trkpt><trkpt lat="45.610142408934195" lon="8.205457206233042"><ele>336.6</ele><time>2026-04-10T16:00:54.999Z</time></trkpt><trkpt lat="45.610110556242674" lon="8.205366683398372"><ele>335.8</ele><time>2026-04-10T16:00:55.999Z</time></trkpt><trkpt lat="45.6100439211084" lon="8.20523514281051"><ele>335.0</ele><time>2026-04-10T16:00:57.999Z</time></trkpt><trkpt lat="45.61001292998524" lon="8.205155530372947"><ele>334.99999999999994</ele><time>2026-04-10T16:00:58.999Z</time></trkpt><trkpt lat="45.60998938825916" lon="8.20506228715808"><ele>335.0</ele><time>2026-04-10T16:00:59.999Z</time></trkpt><trkpt lat="45.6099728171101" lon="8.204971216481061"><ele>335.0</ele><time>2026-04-10T16:01:00.999Z</time></trkpt><trkpt lat="45.6099573391967" lon="8.204881153747396"><ele>335.0</ele><time>2026-04-10T16:01:01.999Z</time></trkpt><trkpt lat="45.60998852686131" lon="8.20477135752292"><ele>335.0</ele><time>2026-04-10T16:01:03.999Z</time></trkpt><trkpt lat="45.610050519822295" lon="8.20469097825827"><ele>334.99999999999994</ele><time>2026-04-10T16:01:05.999Z</time></trkpt><trkpt lat="45.61011631933786" lon="8.204634798045863"><ele>335.0</ele><time>2026-04-10T16:01:07.999Z</time></trkpt><trkpt lat="45.610162870842814" lon="8.20453908990916"><ele>335.2</ele><time>2026-04-10T16:01:10.999Z</time></trkpt><trkpt lat="45.610238697466244" lon="8.204438559208846"><ele>335.4</ele><time>2026-04-10T16:01:12.999Z</time></trkpt><trkpt lat="45.6103946093547" lon="8.204262373963576"><ele>335.6</ele><time>2026-04-10T16:01:14.999Z</time></trkpt><trkpt lat="45.61033135476067" lon="8.204243111147196"><ele>335.8</ele><time>2026-04-10T16:01:16.999Z</time></trkpt><trkpt lat="45.61031544570494" lon="8.204153200046592"><ele>336.0</ele><time>2026-04-10T16:01:19.999Z</time></trkpt><trkpt lat="45.610234086614966" lon="8.204102222155583"><ele>336.0</ele><time>2026-04-10T16:01:21.999Z</time></trkpt><trkpt lat="45.61015621807734" lon="8.204116947820188"><ele>336.0</ele><time>2026-04-10T16:01:22.999Z</time></trkpt><trkpt lat="45.61009148500679" lon="8.204178854994845"><ele>336.0</ele><time>2026-04-10T16:01:23.999Z</time></trkpt><trkpt lat="45.6099933861885" lon="8.204225625419605"><ele>336.0</ele><time>2026-04-10T16:01:26.999Z</time></trkpt><trkpt lat="45.60976282852853" lon="8.204034694058262"><ele>337.4</ele><time>2026-04-10T16:01:31.999Z</time></trkpt><trkpt lat="45.609698365447954" lon="8.203942564000222"><ele>338.8</ele><time>2026-04-10T16:01:32.999Z</time></trkpt><trkpt lat="45.609597933877716" lon="8.20387701296571"><ele>340.2</ele><time>2026-04-10T16:01:35.999Z</time></trkpt><trkpt lat="45.609599887867354" lon="8.203771305844944"><ele>341.59999999999997</ele><time>2026-04-10T16:01:37.999Z</time></trkpt><trkpt lat="45.609645191146654" lon="8.20369455409405"><ele>343.0</ele><time>2026-04-10T16:01:39.999Z</time></trkpt><trkpt lat="45.60956565446444" lon="8.203420887168042"><ele>343.0</ele><time>2026-04-10T16:01:41.999Z</time></trkpt><trkpt lat="45.609602861624325" lon="8.203239435371426"><ele>343.0</ele><time>2026-04-10T16:01:43.999Z</time></trkpt><trkpt lat="45.609653186651705" lon="8.203172010283598"><ele>343.0</ele><time>2026-04-10T16:01:44.999Z</time></trkpt><trkpt lat="45.609749669746186" lon="8.203123577300536"><ele>343.0</ele><time>2026-04-10T16:01:46.999Z</time></trkpt><trkpt lat="45.6097935808098" lon="8.203027264617074"><ele>343.0</ele><time>2026-04-10T16:01:48.999Z</time></trkpt><trkpt lat="45.60969488091174" lon="8.2029828528289"><ele>342.0</ele><time>2026-04-10T16:01:51.999Z</time></trkpt><trkpt lat="45.609614643018396" lon="8.202936258980465"><ele>341.0</ele><time>2026-04-10T16:01:53.999Z</time></trkpt><trkpt lat="45.6095323165716" lon="8.202910370191512"><ele>340.0</ele><time>2026-04-10T16:01:55.999Z</time></trkpt><trkpt lat="45.609475440944514" lon="8.202830840600557"><ele>339.0</ele><time>2026-04-10T16:01:59Z</time></trkpt><trkpt lat="45.609404224388285" lon="8.202707739902976"><ele>338.0</ele><time>2026-04-10T16:02:01Z</time></trkpt><trkpt lat="45.60940645075908" lon="8.202605629353076"><ele>337.0</ele><time>2026-04-10T16:02:03Z</time></trkpt><trkpt lat="45.60934274755453" lon="8.202615669978252"><ele>337.0</ele><time>2026-04-10T16:02:58Z</time></trkpt><trkpt lat="45.60934854420847" lon="8.202729686654946"><ele>337.0</ele><time>2026-04-10T16:04:44Z</time></trkpt><trkpt lat="45.60929558453332" lon="8.202842614204508"><ele>337.0</ele><time>2026-04-10T16:04:48Z</time></trkpt><trkpt lat="45.60921613624139" lon="8.202875653165568"><ele>337.0</ele><time>2026-04-10T16:04:50Z</time></trkpt><trkpt lat="45.6091442154863" lon="8.20291969321105"><ele>337.0</ele><time>2026-04-10T16:04:52Z</time></trkpt><trkpt lat="45.60905988737664" lon="8.202949880694195"><ele>337.0</ele><time>2026-04-10T16:04:54Z</time></trkpt><trkpt lat="45.60899402744443" lon="8.202999046767545"><ele>337.0</ele><time>2026-04-10T16:04:56Z</time></trkpt><trkpt lat="45.60890461950254" lon="8.2031172534044"><ele>337.0</ele><time>2026-04-10T16:04:58Z</time></trkpt><trkpt lat="45.608823001458475" lon="8.203150766999903"><ele>337.0</ele><time>2026-04-10T16:05:00Z</time></trkpt><trkpt lat="45.608762456686" lon="8.203108569739985"><ele>337.0</ele><time>2026-04-10T16:05:03Z</time></trkpt><trkpt lat="45.60868846897995" lon="8.20309474473097"><ele>337.0</ele><time>2026-04-10T16:05:05Z</time></trkpt><trkpt lat="45.60861123740434" lon="8.203050740149097"><ele>337.0</ele><time>2026-04-10T16:05:08Z</time></trkpt><trkpt lat="45.60855047277483" lon="8.203019676024658"><ele>338.16666666666663</ele><time>2026-04-10T16:05:10Z</time></trkpt><trkpt lat="45.60847366489379" lon="8.202947535517726"><ele>339.3333333333333</ele><time>2026-04-10T16:05:13Z</time></trkpt><trkpt lat="45.60839500156361" lon="8.20290420528108"><ele>340.5</ele><time>2026-04-10T16:05:15Z</time></trkpt><trkpt lat="45.60833497290052" lon="8.202871710350427"><ele>341.6666666666667</ele><time>2026-04-10T16:05:17Z</time></trkpt><trkpt lat="45.60827427902478" lon="8.202821503148673"><ele>342.83333333333337</ele><time>2026-04-10T16:05:19Z</time></trkpt><trkpt lat="45.608206658477016" lon="8.202754270862085"><ele>344.0</ele><time>2026-04-10T16:05:22Z</time></trkpt><trkpt lat="45.60816011194554" lon="8.202682698681356"><ele>344.0</ele><time>2026-04-10T16:05:24Z</time></trkpt><trkpt lat="45.608088914744755" lon="8.202636295517854"><ele>344.0</ele><time>2026-04-10T16:05:26Z</time></trkpt><trkpt lat="45.60801358745164" lon="8.20257487130841"><ele>344.0</ele><time>2026-04-10T16:05:29Z</time></trkpt><trkpt lat="45.607935068778666" lon="8.202513683939344"><ele>344.0</ele><time>2026-04-10T16:05:31Z</time></trkpt><trkpt lat="45.60787457102217" lon="8.202477754651948"><ele>344.0</ele><time>2026-04-10T16:05:32Z</time></trkpt><trkpt lat="45.6078020482306" lon="8.202456489460765"><ele>344.0</ele><time>2026-04-10T16:05:33Z</time></trkpt><trkpt lat="45.607748821517234" lon="8.202405496859948"><ele>345.6666666666667</ele><time>2026-04-10T16:05:34Z</time></trkpt><trkpt lat="45.60767405265853" lon="8.202355776034699"><ele>347.33333333333337</ele><time>2026-04-10T16:05:36Z</time></trkpt><trkpt lat="45.60760162666406" lon="8.202327940322272"><ele>349.0</ele><time>2026-04-10T16:05:39Z</time></trkpt><trkpt lat="45.60752509833856" lon="8.202310207191902"><ele>350.6666666666667</ele><time>2026-04-10T16:05:42Z</time></trkpt><trkpt lat="45.6074423048981" lon="8.202333725186751"><ele>352.3333333333333</ele><time>2026-04-10T16:05:46Z</time></trkpt><trkpt lat="45.60736623093884" lon="8.20224184847597"><ele>354.0</ele><time>2026-04-10T16:05:49Z</time></trkpt><trkpt lat="45.6072943991852" lon="8.202176929311042"><ele>354.14285714285717</ele><time>2026-04-10T16:05:52Z</time></trkpt><trkpt lat="45.607237697625976" lon="8.202091303948675"><ele>354.2857142857143</ele><time>2026-04-10T16:05:55Z</time></trkpt><trkpt lat="45.607155931504444" lon="8.202042467702"><ele>354.42857142857144</ele><time>2026-04-10T16:05:58Z</time></trkpt><trkpt lat="45.60708606743199" lon="8.20204244481103"><ele>354.57142857142856</ele><time>2026-04-10T16:06:00Z</time></trkpt><trkpt lat="45.60701805378987" lon="8.202025112384982"><ele>354.7142857142857</ele><time>2026-04-10T16:06:02Z</time></trkpt><trkpt lat="45.606956571746416" lon="8.202003236955013"><ele>354.85714285714283</ele><time>2026-04-10T16:06:04Z</time></trkpt><trkpt lat="45.60689299267521" lon="8.202014122157703"><ele>355.0</ele><time>2026-04-10T16:06:07Z</time></trkpt><trkpt lat="45.60681996313548" lon="8.202036834113782"><ele>357.8333333333333</ele><time>2026-04-10T16:06:20Z</time></trkpt><trkpt lat="45.606727147972656" lon="8.202060781619855"><ele>360.66666666666663</ele><time>2026-04-10T16:06:24Z</time></trkpt><trkpt lat="45.60665909635905" lon="8.2020738218779"><ele>363.5</ele><time>2026-04-10T16:06:29Z</time></trkpt><trkpt lat="45.60660599843502" lon="8.202141560656312"><ele>366.3333333333333</ele><time>2026-04-10T16:06:34Z</time></trkpt><trkpt lat="45.606527482095096" lon="8.20206812198954"><ele>369.1666666666667</ele><time>2026-04-10T16:06:37Z</time></trkpt><trkpt lat="45.60647367137879" lon="8.201950383492031"><ele>372.0</ele><time>2026-04-10T16:06:39Z</time></trkpt><trkpt lat="45.606378184104706" lon="8.201816504336863"><ele>372.0</ele><time>2026-04-10T16:06:41Z</time></trkpt><trkpt lat="45.60635242264801" lon="8.20172602547431"><ele>372.0</ele><time>2026-04-10T16:06:42Z</time></trkpt><trkpt lat="45.606293508397194" lon="8.201582380825684"><ele>372.0</ele><time>2026-04-10T16:06:44Z</time></trkpt><trkpt lat="45.60624907666363" lon="8.201514117954135"><ele>372.0</ele><time>2026-04-10T16:06:45Z</time></trkpt><trkpt lat="45.60619365130985" lon="8.201401455903321"><ele>372.0</ele><time>2026-04-10T16:06:47Z</time></trkpt><trkpt lat="45.60614612507753" lon="8.201330995925622"><ele>372.0</ele><time>2026-04-10T16:06:48Z</time></trkpt><trkpt lat="45.60608744762232" lon="8.201244537531641"><ele>373.1666666666667</ele><time>2026-04-10T16:06:49Z</time></trkpt><trkpt lat="45.60598492709825" lon="8.20113340853217"><ele>374.3333333333333</ele><time>2026-04-10T16:06:51Z</time></trkpt><trkpt lat="45.60593498730295" lon="8.201064767061936"><ele>375.5</ele><time>2026-04-10T16:06:52Z</time></trkpt><trkpt lat="45.60588963787418" lon="8.200994728469693"><ele>376.66666666666663</ele><time>2026-04-10T16:06:53Z</time></trkpt><trkpt lat="45.60583954140714" lon="8.200939188519952"><ele>377.8333333333333</ele><time>2026-04-10T16:06:54Z</time></trkpt><trkpt lat="45.60578996393718" lon="8.200882123506931"><ele>379.0</ele><time>2026-04-10T16:06:55Z</time></trkpt><trkpt lat="45.605716101955814" lon="8.200775123316255"><ele>379.0</ele><time>2026-04-10T16:06:57Z</time></trkpt><trkpt lat="45.60568391606426" lon="8.20090344099822"><ele>379.0</ele><time>2026-04-10T16:07:03Z</time></trkpt><trkpt lat="45.605652763780085" lon="8.201012566227138"><ele>379.0</ele><time>2026-04-10T16:07:05Z</time></trkpt><trkpt lat="45.605616072016524" lon="8.20110941288957"><ele>379.0</ele><time>2026-04-10T16:07:07Z</time></trkpt><trkpt lat="45.60558093076558" lon="8.201280140253186"><ele>379.0</ele><time>2026-04-10T16:07:09Z</time></trkpt><trkpt lat="45.6055631056124" lon="8.2014007259089"><ele>379.2</ele><time>2026-04-10T16:07:10Z</time></trkpt><trkpt lat="45.60553294333255" lon="8.201528697861102"><ele>379.4</ele><time>2026-04-10T16:07:11Z</time></trkpt><trkpt lat="45.60548402857512" lon="8.201643899963223"><ele>379.6</ele><time>2026-04-10T16:07:12Z</time></trkpt><trkpt lat="45.60541730162632" lon="8.201750088216063"><ele>379.8</ele><time>2026-04-10T16:07:13Z</time></trkpt><trkpt lat="45.60534627819661" lon="8.20185498926604"><ele>380.0</ele><time>2026-04-10T16:07:14Z</time></trkpt><trkpt lat="45.60527561413439" lon="8.201955915552688"><ele>380.6</ele><time>2026-04-10T16:07:15Z</time></trkpt><trkpt lat="45.605206508013744" lon="8.202057337825222"><ele>381.2</ele><time>2026-04-10T16:07:16Z</time></trkpt><trkpt lat="45.60513573670529" lon="8.202159463487543"><ele>381.79999999999995</ele><time>2026-04-10T16:07:17Z</time></trkpt><trkpt lat="45.60506384450967" lon="8.20225455819479"><ele>382.4</ele><time>2026-04-10T16:07:18Z</time></trkpt><trkpt lat="45.60498606794367" lon="8.20232350534199"><ele>383.0</ele><time>2026-04-10T16:07:19Z</time></trkpt><trkpt lat="45.60489510787965" lon="8.20236263638948"><ele>383.0</ele><time>2026-04-10T16:07:20Z</time></trkpt><trkpt lat="45.604800212329245" lon="8.202386584475216"><ele>383.0</ele><time>2026-04-10T16:07:21Z</time></trkpt><trkpt lat="45.60471062709801" lon="8.202427411403487"><ele>383.0</ele><time>2026-04-10T16:07:22Z</time></trkpt><trkpt lat="45.604628201073" lon="8.202492304727167"><ele>383.0</ele><time>2026-04-10T16:07:23Z</time></trkpt><trkpt lat="45.604555034593865" lon="8.20257927504455"><ele>383.0</ele><time>2026-04-10T16:07:24Z</time></trkpt><trkpt lat="45.60449106820686" lon="8.202688983948669"><ele>383.79999999999995</ele><time>2026-04-10T16:07:25Z</time></trkpt><trkpt lat="45.604431897364506" lon="8.202810521543357"><ele>384.6</ele><time>2026-04-10T16:07:26Z</time></trkpt><trkpt lat="45.604383400562206" lon="8.202960324092961"><ele>385.4</ele><time>2026-04-10T16:07:27Z</time></trkpt><trkpt lat="45.60433778130658" lon="8.203086745980878"><ele>386.20000000000005</ele><time>2026-04-10T16:07:28Z</time></trkpt><trkpt lat="45.60428312044744" lon="8.2032015791261"><ele>387.0</ele><time>2026-04-10T16:07:29Z</time></trkpt><trkpt lat="45.60422943586359" lon="8.203323071532106"><ele>387.8</ele><time>2026-04-10T16:07:30Z</time></trkpt><trkpt lat="45.60416796564511" lon="8.203444769644781"><ele>388.6</ele><time>2026-04-10T16:07:31Z</time></trkpt><trkpt lat="45.60412434897456" lon="8.203572305991155"><ele>389.40000000000003</ele><time>2026-04-10T16:07:32Z</time></trkpt><trkpt lat="45.604083901121726" lon="8.203700480799638"><ele>390.20000000000005</ele><time>2026-04-10T16:07:33Z</time></trkpt><trkpt lat="45.604060661624366" lon="8.203819874127372"><ele>391.0</ele><time>2026-04-10T16:07:34Z</time></trkpt><trkpt lat="45.60406806986659" lon="8.203940180231614"><ele>392.33333333333337</ele><time>2026-04-10T16:07:35Z</time></trkpt><trkpt lat="45.60410332175174" lon="8.204054365265886"><ele>393.6666666666667</ele><time>2026-04-10T16:07:36Z</time></trkpt><trkpt lat="45.60415196841522" lon="8.204152048631979"><ele>395.0</ele><time>2026-04-10T16:07:37Z</time></trkpt><trkpt lat="45.6042067749119" lon="8.204241610612192"><ele>396.33333333333337</ele><time>2026-04-10T16:07:38Z</time></trkpt><trkpt lat="45.604254692497406" lon="8.204325341673911"><ele>397.6666666666667</ele><time>2026-04-10T16:07:39Z</time></trkpt><trkpt lat="45.604295078543686" lon="8.20439651296429"><ele>399.0</ele><time>2026-04-10T16:07:40Z</time></trkpt><trkpt lat="45.604302929810466" lon="8.204495555505149"><ele>399.0</ele><time>2026-04-10T16:07:43Z</time></trkpt><trkpt lat="45.604427390943265" lon="8.204716341207696"><ele>399.0</ele><time>2026-04-10T16:07:45Z</time></trkpt><trkpt lat="45.60439742089541" lon="8.204801023126839"><ele>399.0</ele><time>2026-04-10T16:07:46Z</time></trkpt><trkpt lat="45.60434410720053" lon="8.204904646165229"><ele>399.0</ele><time>2026-04-10T16:07:47Z</time></trkpt><trkpt lat="45.60429049876225" lon="8.204962945022848"><ele>399.0</ele><time>2026-04-10T16:07:48Z</time></trkpt><trkpt lat="45.60435107697398" lon="8.204860443739987"><ele>400.25</ele><time>2026-04-10T16:07:49Z</time></trkpt><trkpt lat="45.60431268835364" lon="8.204932933058442"><ele>401.5</ele><time>2026-04-10T16:07:50Z</time></trkpt><trkpt lat="45.60419954091117" lon="8.205044197456008"><ele>402.75</ele><time>2026-04-10T16:07:51Z</time></trkpt><trkpt lat="45.60412474069309" lon="8.205082878038812"><ele>404.0</ele><time>2026-04-10T16:07:52Z</time></trkpt><trkpt lat="45.60395953274985" lon="8.204933005639253"><ele>404.0</ele><time>2026-04-10T16:07:55Z</time></trkpt><trkpt lat="45.60389731075094" lon="8.205046359060704"><ele>404.0</ele><time>2026-04-10T16:07:56Z</time></trkpt><trkpt lat="45.603837540673304" lon="8.205166341567542"><ele>404.0</ele><time>2026-04-10T16:07:57Z</time></trkpt><trkpt lat="45.60378415319805" lon="8.205279684852643"><ele>404.0</ele><time>2026-04-10T16:07:58Z</time></trkpt><trkpt lat="45.60373887513643" lon="8.20537412682472"><ele>404.0</ele><time>2026-04-10T16:07:59Z</time></trkpt><trkpt lat="45.603705111138446" lon="8.205465338302314"><ele>403.99999999999994</ele><time>2026-04-10T16:08:00Z</time></trkpt><trkpt lat="45.603682988209236" lon="8.205558146344066"><ele>404.0</ele><time>2026-04-10T16:08:01Z</time></trkpt><trkpt lat="45.60364037764444" lon="8.205663256910478"><ele>404.0</ele><time>2026-04-10T16:08:02Z</time></trkpt><trkpt lat="45.6035835524932" lon="8.205766327865408"><ele>404.0</ele><time>2026-04-10T16:08:03Z</time></trkpt><trkpt lat="45.60353493171748" lon="8.20583455216441"><ele>403.99999999999994</ele><time>2026-04-10T16:08:04Z</time></trkpt><trkpt lat="45.603466392701705" lon="8.205956829008958"><ele>404.0</ele><time>2026-04-10T16:08:06Z</time></trkpt><trkpt lat="45.60339648603595" lon="8.206049743612423"><ele>405.16666666666663</ele><time>2026-04-10T16:08:08Z</time></trkpt><trkpt lat="45.60334852404443" lon="8.206114292955823"><ele>406.3333333333333</ele><time>2026-04-10T16:08:10Z</time></trkpt><trkpt lat="45.60326561729731" lon="8.206203868944185"><ele>407.5</ele><time>2026-04-10T16:08:13Z</time></trkpt><trkpt lat="45.603203452853826" lon="8.206263455010982"><ele>408.66666666666663</ele><time>2026-04-10T16:08:14Z</time></trkpt><trkpt lat="45.6031322050665" lon="8.206339749059788"><ele>409.8333333333333</ele><time>2026-04-10T16:08:15Z</time></trkpt><trkpt lat="45.60307298332424" lon="8.206410964764784"><ele>411.0</ele><time>2026-04-10T16:08:16.001Z</time></trkpt><trkpt lat="45.60296626874605" lon="8.206477125368824"><ele>411.25</ele><time>2026-04-10T16:08:18.001Z</time></trkpt><trkpt lat="45.602865736264846" lon="8.206625951305904"><ele>411.5</ele><time>2026-04-10T16:08:20.001Z</time></trkpt><trkpt lat="45.60274031650466" lon="8.206630251745164"><ele>411.75</ele><time>2026-04-10T16:08:22.001Z</time></trkpt><trkpt lat="45.60267058950732" lon="8.206472910478153"><ele>412.0</ele><time>2026-04-10T16:08:23.001Z</time></trkpt><trkpt lat="45.60257127879645" lon="8.206538814405402"><ele>414.00000000000006</ele><time>2026-04-10T16:08:25.001Z</time></trkpt><trkpt lat="45.602488927671814" lon="8.206597318540725"><ele>416.0</ele><time>2026-04-10T16:08:27.001Z</time></trkpt><trkpt lat="45.60243566297685" lon="8.206654540812455"><ele>418.0</ele><time>2026-04-10T16:08:30.001Z</time></trkpt><trkpt lat="45.602492334333895" lon="8.206612104661481"><ele>420.0</ele><time>2026-04-10T16:08:40Z</time></trkpt><trkpt lat="45.60241291252303" lon="8.206618888313969"><ele>422.00000000000006</ele><time>2026-04-10T16:09:55Z</time></trkpt><trkpt lat="45.60232231092449" lon="8.206741207812003"><ele>424.0</ele><time>2026-04-10T16:09:57Z</time></trkpt><trkpt lat="45.602244204784505" lon="8.206809350433245"><ele>424.00000000000006</ele><time>2026-04-10T16:09:59Z</time></trkpt><trkpt lat="45.60215339401108" lon="8.20684931502956"><ele>424.0</ele><time>2026-04-10T16:10:01Z</time></trkpt><trkpt lat="45.602083478048655" lon="8.206835554537461"><ele>424.0</ele><time>2026-04-10T16:10:02Z</time></trkpt><trkpt lat="45.60199942038124" lon="8.206844026284285"><ele>424.0</ele><time>2026-04-10T16:10:03Z</time></trkpt><trkpt lat="45.6019180543033" lon="8.20685204591925"><ele>424.00000000000006</ele><time>2026-04-10T16:10:04Z</time></trkpt><trkpt lat="45.601836977783805" lon="8.206865853301421"><ele>424.0</ele><time>2026-04-10T16:10:05Z</time></trkpt><trkpt lat="45.601751515086754" lon="8.206869328227029"><ele>425.1666666666667</ele><time>2026-04-10T16:10:06Z</time></trkpt><trkpt lat="45.601670237126164" lon="8.20687697360721"><ele>426.33333333333337</ele><time>2026-04-10T16:10:07Z</time></trkpt><trkpt lat="45.60158561506188" lon="8.206891107297249"><ele>427.5</ele><time>2026-04-10T16:10:08Z</time></trkpt><trkpt lat="45.60151777558576" lon="8.206894144044146"><ele>428.66666666666663</ele><time>2026-04-10T16:10:09Z</time></trkpt><trkpt lat="45.60144607880728" lon="8.206908338670972"><ele>429.8333333333333</ele><time>2026-04-10T16:10:10Z</time></trkpt><trkpt lat="45.60138034604425" lon="8.206917875782986"><ele>431.0</ele><time>2026-04-10T16:10:11Z</time></trkpt><trkpt lat="45.601289704045506" lon="8.206931006848341"><ele>431.0</ele><time>2026-04-10T16:10:13Z</time></trkpt><trkpt lat="45.601260255066386" lon="8.207064604620147"><ele>431.0</ele><time>2026-04-10T16:10:16Z</time></trkpt><trkpt lat="45.60126625747633" lon="8.207164157423637"><ele>431.0</ele><time>2026-04-10T16:10:57Z</time></trkpt><trkpt lat="45.60122265618559" lon="8.207293411384095"><ele>431.0</ele><time>2026-04-10T16:11:00Z</time></trkpt><trkpt lat="45.60115268796211" lon="8.207467879236104"><ele>431.0</ele><time>2026-04-10T16:11:02Z</time></trkpt><trkpt lat="45.60111162335851" lon="8.207561349899095"><ele>426.8333333333333</ele><time>2026-04-10T16:11:03Z</time></trkpt><trkpt lat="45.60108530226417" lon="8.207647198621014"><ele>422.66666666666663</ele><time>2026-04-10T16:11:04Z</time></trkpt><trkpt lat="45.60105610257259" lon="8.207739544683166"><ele>418.5</ele><time>2026-04-10T16:11:05Z</time></trkpt><trkpt lat="45.601029291048725" lon="8.207918697372108"><ele>414.33333333333337</ele><time>2026-04-10T16:11:07Z</time></trkpt><trkpt lat="45.60102483989784" lon="8.208020809416146"><ele>410.1666666666667</ele><time>2026-04-10T16:11:08Z</time></trkpt><trkpt lat="45.60101442163558" lon="8.208110907090305"><ele>406.0</ele><time>2026-04-10T16:11:09Z</time></trkpt><trkpt lat="45.60101239410133" lon="8.208288713145073"><ele>405.7142857142857</ele><time>2026-04-10T16:11:11Z</time></trkpt><trkpt lat="45.601024007446846" lon="8.208383835203946"><ele>405.42857142857144</ele><time>2026-04-10T16:11:12Z</time></trkpt><trkpt lat="45.601047787362845" lon="8.208474116105348"><ele>405.1428571428571</ele><time>2026-04-10T16:11:13Z</time></trkpt><trkpt lat="45.60108106718057" lon="8.208557539412345"><ele>404.8571428571429</ele><time>2026-04-10T16:11:14Z</time></trkpt><trkpt lat="45.60113566893119" lon="8.208633493663372"><ele>404.57142857142856</ele><time>2026-04-10T16:11:15Z</time></trkpt><trkpt lat="45.60119133595424" lon="8.208687794532313"><ele>404.2857142857143</ele><time>2026-04-10T16:11:16Z</time></trkpt><trkpt lat="45.6012460964447" lon="8.208743560878565"><ele>404.0</ele><time>2026-04-10T16:11:17Z</time></trkpt><trkpt lat="45.6012977632939" lon="8.208803327168189"><ele>405.66666666666663</ele><time>2026-04-10T16:11:18Z</time></trkpt><trkpt lat="45.60134556023112" lon="8.208865502379211"><ele>407.3333333333333</ele><time>2026-04-10T16:11:19Z</time></trkpt><trkpt lat="45.6014157039983" lon="8.208999116226694"><ele>409.0</ele><time>2026-04-10T16:11:21Z</time></trkpt><trkpt lat="45.60143682565558" lon="8.209109305805095"><ele>410.66666666666663</ele><time>2026-04-10T16:11:23Z</time></trkpt><trkpt lat="45.60147778955253" lon="8.209202168750881"><ele>412.3333333333333</ele><time>2026-04-10T16:11:27Z</time></trkpt><trkpt lat="45.60150602489783" lon="8.209289308227559"><ele>414.0</ele><time>2026-04-10T16:11:30Z</time></trkpt><trkpt lat="45.60155081345506" lon="8.20940138885941"><ele>414.0</ele><time>2026-04-10T16:11:32Z</time></trkpt><trkpt lat="45.60159481241279" lon="8.209471686916338"><ele>414.0</ele><time>2026-04-10T16:11:33Z</time></trkpt><trkpt lat="45.60169824453208" lon="8.209520235669196"><ele>414.0</ele><time>2026-04-10T16:11:35Z</time></trkpt><trkpt lat="45.601807676211855" lon="8.209516191521566"><ele>414.0</ele><time>2026-04-10T16:11:37Z</time></trkpt><trkpt lat="45.60191187747065" lon="8.209512975814716"><ele>414.0</ele><time>2026-04-10T16:11:39Z</time></trkpt><trkpt lat="45.60198533060387" lon="8.209568960661832"><ele>414.6</ele><time>2026-04-10T16:11:41Z</time></trkpt><trkpt lat="45.60200232878696" lon="8.209675320418063"><ele>415.2</ele><time>2026-04-10T16:11:44Z</time></trkpt><trkpt lat="45.60202727510691" lon="8.209911814534186"><ele>415.8</ele><time>2026-04-10T16:11:45Z</time></trkpt><trkpt lat="45.60205995110663" lon="8.209998830628807"><ele>416.40000000000003</ele><time>2026-04-10T16:11:46Z</time></trkpt><trkpt lat="45.60209270768667" lon="8.210123442090072"><ele>417.0</ele><time>2026-04-10T16:11:48Z</time></trkpt><trkpt lat="45.602141727577596" lon="8.21020395509518"><ele>417.0</ele><time>2026-04-10T16:11:50Z</time></trkpt><trkpt lat="45.60221355371227" lon="8.210203584158796"><ele>417.0</ele><time>2026-04-10T16:11:53Z</time></trkpt><trkpt lat="45.602276076093" lon="8.21014917977511"><ele>417.0</ele><time>2026-04-10T16:11:56Z</time></trkpt><trkpt lat="45.60235513125516" lon="8.210112588282543"><ele>417.0</ele><time>2026-04-10T16:11:58Z</time></trkpt><trkpt lat="45.60242818025746" lon="8.210102916316446"><ele>417.0</ele><time>2026-04-10T16:12:00Z</time></trkpt><trkpt lat="45.60250096530626" lon="8.21012497021097"><ele>417.0</ele><time>2026-04-10T16:12:02Z</time></trkpt><trkpt lat="45.602562464103315" lon="8.210062303923195"><ele>417.0</ele><time>2026-04-10T16:12:04Z</time></trkpt><trkpt lat="45.60263365109018" lon="8.210063821728719"><ele>417.0</ele><time>2026-04-10T16:12:07Z</time></trkpt><trkpt lat="45.602713853364186" lon="8.21011061275692"><ele>417.0</ele><time>2026-04-10T16:12:11Z</time></trkpt><trkpt lat="45.60278593995113" lon="8.21013568603675"><ele>417.0</ele><time>2026-04-10T16:12:13Z</time></trkpt><trkpt lat="45.602883355762856" lon="8.210112612525926"><ele>417.0</ele><time>2026-04-10T16:12:15Z</time></trkpt><trkpt lat="45.602937871401444" lon="8.21006120486105"><ele>417.0</ele><time>2026-04-10T16:12:17Z</time></trkpt><trkpt lat="45.60302487958837" lon="8.20998080037323"><ele>416.6</ele><time>2026-04-10T16:12:20Z</time></trkpt><trkpt lat="45.60310555534845" lon="8.209906627450579"><ele>416.20000000000005</ele><time>2026-04-10T16:12:23Z</time></trkpt><trkpt lat="45.60320292178562" lon="8.209884352159582"><ele>415.8</ele><time>2026-04-10T16:12:24.999Z</time></trkpt><trkpt lat="45.60326959625977" lon="8.209908931422031"><ele>415.4</ele><time>2026-04-10T16:12:28.001Z</time></trkpt><trkpt lat="45.60337318474442" lon="8.20995666517584"><ele>415.0</ele><time>2026-04-10T16:12:30.001Z</time></trkpt><trkpt lat="45.60345811204731" lon="8.20999374560105"><ele>413.33333333333337</ele><time>2026-04-10T16:12:32.001Z</time></trkpt><trkpt lat="45.60377259744956" lon="8.21009219786697"><ele>411.66666666666663</ele><time>2026-04-10T16:12:35.001Z</time></trkpt><trkpt lat="45.603869918900415" lon="8.210154441056204"><ele>410.0</ele><time>2026-04-10T16:12:37.001Z</time></trkpt><trkpt lat="45.603954647214486" lon="8.210154737905071"><ele>409.99999999999994</ele><time>2026-04-10T16:12:39.001Z</time></trkpt><trkpt lat="45.60401474857102" lon="8.210122233153408"><ele>410.0</ele><time>2026-04-10T16:12:41.001Z</time></trkpt><trkpt lat="45.604103924524324" lon="8.210110200866414"><ele>410.0</ele><time>2026-04-10T16:12:43.001Z</time></trkpt><trkpt lat="45.60417324799186" lon="8.210138335264554"><ele>410.0</ele><time>2026-04-10T16:12:44.001Z</time></trkpt><trkpt lat="45.60424959529542" lon="8.210166355955055"><ele>409.99999999999994</ele><time>2026-04-10T16:12:45.001Z</time></trkpt><trkpt lat="45.604324033009256" lon="8.210188659338739"><ele>410.0</ele><time>2026-04-10T16:12:46.001Z</time></trkpt><trkpt lat="45.60439589927965" lon="8.210195914233546"><ele>408.0</ele><time>2026-04-10T16:12:47.001Z</time></trkpt><trkpt lat="45.60452253899718" lon="8.210174580893664"><ele>406.0</ele><time>2026-04-10T16:12:49Z</time></trkpt><trkpt lat="45.60462739041642" lon="8.210114012610314"><ele>404.0</ele><time>2026-04-10T16:12:51Z</time></trkpt><trkpt lat="45.60472054073438" lon="8.210103093189407"><ele>402.0</ele><time>2026-04-10T16:12:53Z</time></trkpt><trkpt lat="45.604742257036584" lon="8.210240688480559"><ele>400.0</ele><time>2026-04-10T16:12:58Z</time></trkpt><trkpt lat="45.604773024089" lon="8.210325690208037"><ele>400.00000000000006</ele><time>2026-04-10T16:13:00Z</time></trkpt><trkpt lat="45.604740801324354" lon="8.210421266632673"><ele>400.0</ele><time>2026-04-10T16:13:03Z</time></trkpt><trkpt lat="45.60477685873289" lon="8.210335667086794"><ele>400.0</ele><time>2026-04-10T16:13:42Z</time></trkpt><trkpt lat="45.60470581605154" lon="8.210439548383878"><ele>400.0</ele><time>2026-04-10T16:14:39.001Z</time></trkpt><trkpt lat="45.604648786770554" lon="8.210489339225994"><ele>400.00000000000006</ele><time>2026-04-10T16:14:41.001Z</time></trkpt><trkpt lat="45.604548934653344" lon="8.210542558954431"><ele>400.0</ele><time>2026-04-10T16:14:43.001Z</time></trkpt><trkpt lat="45.60445960614578" lon="8.21059984834805"><ele>398.83333333333337</ele><time>2026-04-10T16:14:45.001Z</time></trkpt><trkpt lat="45.60438365785284" lon="8.210646718215527"><ele>397.6666666666667</ele><time>2026-04-10T16:14:47.001Z</time></trkpt><trkpt lat="45.604289982454745" lon="8.210648986294117"><ele>396.5</ele><time>2026-04-10T16:14:50Z</time></trkpt><trkpt lat="45.60417602334822" lon="8.210573744232226"><ele>395.33333333333337</ele><time>2026-04-10T16:14:52Z</time></trkpt><trkpt lat="45.60411039790141" lon="8.210540983319492"><ele>394.1666666666667</ele><time>2026-04-10T16:14:53Z</time></trkpt><trkpt lat="45.60404047600828" lon="8.210539935328539"><ele>393.0</ele><time>2026-04-10T16:14:54Z</time></trkpt><trkpt lat="45.6039571135974" lon="8.210662226594492"><ele>393.0</ele><time>2026-04-10T16:14:56Z</time></trkpt><trkpt lat="45.60389721364828" lon="8.210740275277484"><ele>393.0</ele><time>2026-04-10T16:14:58Z</time></trkpt><trkpt lat="45.60383132452068" lon="8.210780446111048"><ele>393.0</ele><time>2026-04-10T16:14:59Z</time></trkpt><trkpt lat="45.60376845350301" lon="8.210803906929172"><ele>393.0</ele><time>2026-04-10T16:15:00Z</time></trkpt><trkpt lat="45.603706477404685" lon="8.210830896819772"><ele>393.0</ele><time>2026-04-10T16:15:01Z</time></trkpt><trkpt lat="45.603596673526845" lon="8.210804840530164"><ele>393.0</ele><time>2026-04-10T16:15:03Z</time></trkpt><trkpt lat="45.60353766348372" lon="8.210740984404401"><ele>392.3333333333333</ele><time>2026-04-10T16:15:04Z</time></trkpt><trkpt lat="45.60348103314644" lon="8.210673569445966"><ele>391.66666666666663</ele><time>2026-04-10T16:15:05Z</time></trkpt><trkpt lat="45.60342367400128" lon="8.210602634587653"><ele>391.0</ele><time>2026-04-10T16:15:06Z</time></trkpt><trkpt lat="45.60337446945487" lon="8.210532033444487"><ele>390.3333333333333</ele><time>2026-04-10T16:15:07Z</time></trkpt><trkpt lat="45.603273516699645" lon="8.210450383080108"><ele>389.66666666666663</ele><time>2026-04-10T16:15:09Z</time></trkpt><trkpt lat="45.60321079559207" lon="8.210468231087205"><ele>389.0</ele><time>2026-04-10T16:15:10Z</time></trkpt><trkpt lat="45.60315129939829" lon="8.210532366988739"><ele>389.0</ele><time>2026-04-10T16:15:11Z</time></trkpt><trkpt lat="45.60310497678881" lon="8.21061589038437"><ele>389.0</ele><time>2026-04-10T16:15:12Z</time></trkpt><trkpt lat="45.603053498466885" lon="8.210802225304736"><ele>389.0</ele><time>2026-04-10T16:15:14Z</time></trkpt><trkpt lat="45.60303332417093" lon="8.210921521088077"><ele>389.0</ele><time>2026-04-10T16:15:15Z</time></trkpt><trkpt lat="45.60299015386601" lon="8.211027912475613"><ele>389.0</ele><time>2026-04-10T16:15:16Z</time></trkpt><trkpt lat="45.60293180717573" lon="8.211085454431235"><ele>389.0</ele><time>2026-04-10T16:15:17Z</time></trkpt><trkpt lat="45.60286872756275" lon="8.211152548523815"><ele>389.0</ele><time>2026-04-10T16:15:18Z</time></trkpt><trkpt lat="45.602805684356575" lon="8.211180878256986"><ele>389.0</ele><time>2026-04-10T16:15:19Z</time></trkpt><trkpt lat="45.60273040959752" lon="8.211175835948627"><ele>389.0</ele><time>2026-04-10T16:15:20Z</time></trkpt><trkpt lat="45.60265643267584" lon="8.211165577864545"><ele>389.0</ele><time>2026-04-10T16:15:21Z</time></trkpt><trkpt lat="45.60259924609682" lon="8.211118353459183"><ele>389.0</ele><time>2026-04-10T16:15:22Z</time></trkpt><trkpt lat="45.60254648845074" lon="8.21105343641417"><ele>389.0</ele><time>2026-04-10T16:15:23Z</time></trkpt><trkpt lat="45.60249497243531" lon="8.210956641010352"><ele>388.8333333333333</ele><time>2026-04-10T16:15:24Z</time></trkpt><trkpt lat="45.60244257584698" lon="8.210853393395148"><ele>388.66666666666663</ele><time>2026-04-10T16:15:25Z</time></trkpt><trkpt lat="45.60238160772903" lon="8.21080128072175"><ele>388.5</ele><time>2026-04-10T16:15:26Z</time></trkpt><trkpt lat="45.6023164208434" lon="8.210779723143753"><ele>388.33333333333337</ele><time>2026-04-10T16:15:27Z</time></trkpt><trkpt lat="45.60224327259425" lon="8.210819467533316"><ele>388.1666666666667</ele><time>2026-04-10T16:15:28Z</time></trkpt><trkpt lat="45.602182285036996" lon="8.210909655541618"><ele>388.0</ele><time>2026-04-10T16:15:29Z</time></trkpt><trkpt lat="45.60212393877702" lon="8.211014957619492"><ele>388.00000000000006</ele><time>2026-04-10T16:15:30Z</time></trkpt><trkpt lat="45.60205865654031" lon="8.211086584492058"><ele>388.0</ele><time>2026-04-10T16:15:31Z</time></trkpt><trkpt lat="45.60198643842922" lon="8.211099553024273"><ele>388.0</ele><time>2026-04-10T16:15:32Z</time></trkpt><trkpt lat="45.60191608242855" lon="8.21108522595987"><ele>388.0</ele><time>2026-04-10T16:15:33Z</time></trkpt><trkpt lat="45.60184207988321" lon="8.211106572607871"><ele>388.00000000000006</ele><time>2026-04-10T16:15:34Z</time></trkpt><trkpt lat="45.60176420191643" lon="8.21111330779497"><ele>388.0</ele><time>2026-04-10T16:15:35Z</time></trkpt><trkpt lat="45.60167810936307" lon="8.211134038739244"><ele>387.6666666666667</ele><time>2026-04-10T16:15:36Z</time></trkpt><trkpt lat="45.601591072426146" lon="8.211133511610905"><ele>387.33333333333337</ele><time>2026-04-10T16:15:37Z</time></trkpt><trkpt lat="45.60150822212482" lon="8.211164732836332"><ele>387.0</ele><time>2026-04-10T16:15:38Z</time></trkpt><trkpt lat="45.6014302667358" lon="8.211181228481841"><ele>386.66666666666663</ele><time>2026-04-10T16:15:39Z</time></trkpt><trkpt lat="45.60135635014494" lon="8.211242662392573"><ele>386.3333333333333</ele><time>2026-04-10T16:15:40Z</time></trkpt><trkpt lat="45.60130418977258" lon="8.211326702981015"><ele>386.0</ele><time>2026-04-10T16:15:41Z</time></trkpt><trkpt lat="45.60125075883232" lon="8.211428616631054"><ele>384.49999999999994</ele><time>2026-04-10T16:15:42Z</time></trkpt><trkpt lat="45.60119240881722" lon="8.211509435214621"><ele>383.0</ele><time>2026-04-10T16:15:43Z</time></trkpt><trkpt lat="45.601138766611875" lon="8.211600744927846"><ele>381.5</ele><time>2026-04-10T16:15:44Z</time></trkpt><trkpt lat="45.601089779236126" lon="8.211715762588039"><ele>380.0</ele><time>2026-04-10T16:15:45Z</time></trkpt><trkpt lat="45.60104259007261" lon="8.211816391276217"><ele>378.5</ele><time>2026-04-10T16:15:46Z</time></trkpt><trkpt lat="45.600997044333525" lon="8.211918776620148"><ele>377.0</ele><time>2026-04-10T16:15:47Z</time></trkpt><trkpt lat="45.6009609034656" lon="8.212006394045549"><ele>376.0</ele><time>2026-04-10T16:15:48Z</time></trkpt><trkpt lat="45.600911566958594" lon="8.212065380853787"><ele>375.0</ele><time>2026-04-10T16:15:49Z</time></trkpt><trkpt lat="45.600867219348714" lon="8.212135022190651"><ele>374.0</ele><time>2026-04-10T16:15:50Z</time></trkpt><trkpt lat="45.600788632202395" lon="8.212225324589259"><ele>373.0</ele><time>2026-04-10T16:15:52Z</time></trkpt><trkpt lat="45.600685085453065" lon="8.212177766466125"><ele>372.0</ele><time>2026-04-10T16:15:54Z</time></trkpt><trkpt lat="45.60061687413184" lon="8.212059166899055"><ele>371.0</ele><time>2026-04-10T16:15:56Z</time></trkpt><trkpt lat="45.6005639274905" lon="8.212009215334353"><ele>371.0</ele><time>2026-04-10T16:15:57Z</time></trkpt><trkpt lat="45.60050570332943" lon="8.211967721797404"><ele>371.0</ele><time>2026-04-10T16:15:58Z</time></trkpt><trkpt lat="45.600426831138655" lon="8.211875241025037"><ele>371.0</ele><time>2026-04-10T16:16:00Z</time></trkpt><trkpt lat="45.600446055396105" lon="8.21168438154514"><ele>371.0</ele><time>2026-04-10T16:16:01.999Z</time></trkpt><trkpt lat="45.60046674811151" lon="8.21155019432665"><ele>371.0</ele><time>2026-04-10T16:16:02.999Z</time></trkpt><trkpt lat="45.60047744853506" lon="8.211425050135592"><ele>371.0</ele><time>2026-04-10T16:16:03.999Z</time></trkpt><trkpt lat="45.60048208746286" lon="8.211310637243496"><ele>371.0</ele><time>2026-04-10T16:16:04.999Z</time></trkpt><trkpt lat="45.60047202771528" lon="8.211203882790198"><ele>371.0</ele><time>2026-04-10T16:16:05.999Z</time></trkpt><trkpt lat="45.60045416987058" lon="8.211109823558793"><ele>371.0</ele><time>2026-04-10T16:16:06.999Z</time></trkpt><trkpt lat="45.60043208448987" lon="8.211019527119708"><ele>371.0</ele><time>2026-04-10T16:16:07.999Z</time></trkpt><trkpt lat="45.600375228002385" lon="8.210952934079637"><ele>371.0</ele><time>2026-04-10T16:16:08.999Z</time></trkpt><trkpt lat="45.60025810636724" lon="8.210948929201422"><ele>371.0</ele><time>2026-04-10T16:16:10.999Z</time></trkpt><trkpt lat="45.60019132167445" lon="8.211013075285557"><ele>371.0</ele><time>2026-04-10T16:16:11.999Z</time></trkpt><trkpt lat="45.600127679679986" lon="8.211084508575977"><ele>371.0</ele><time>2026-04-10T16:16:12.999Z</time></trkpt><trkpt lat="45.60005329971991" lon="8.211121208593607"><ele>371.0</ele><time>2026-04-10T16:16:13.999Z</time></trkpt><trkpt lat="45.59998281480803" lon="8.211193312028962"><ele>371.0</ele><time>2026-04-10T16:16:14.999Z</time></trkpt><trkpt lat="45.59990227555922" lon="8.211323723713209"><ele>371.0</ele><time>2026-04-10T16:16:16.999Z</time></trkpt><trkpt lat="45.599875217817385" lon="8.211409693910747"><ele>369.6666666666667</ele><time>2026-04-10T16:16:17.999Z</time></trkpt><trkpt lat="45.59984672847117" lon="8.211521166853732"><ele>368.33333333333337</ele><time>2026-04-10T16:16:18.999Z</time></trkpt><trkpt lat="45.59983156315544" lon="8.21164244155897"><ele>367.0</ele><time>2026-04-10T16:16:19.999Z</time></trkpt><trkpt lat="45.59979828587756" lon="8.21172265179017"><ele>365.6666666666667</ele><time>2026-04-10T16:16:20.999Z</time></trkpt><trkpt lat="45.59975608938474" lon="8.211832853405486"><ele>364.3333333333333</ele><time>2026-04-10T16:16:21.999Z</time></trkpt><trkpt lat="45.59970416950767" lon="8.211936481107275"><ele>363.0</ele><time>2026-04-10T16:16:22.999Z</time></trkpt><trkpt lat="45.599640647742014" lon="8.212031509679045"><ele>363.0</ele><time>2026-04-10T16:16:23.999Z</time></trkpt><trkpt lat="45.599584750630164" lon="8.212122849611625"><ele>363.0</ele><time>2026-04-10T16:16:24.999Z</time></trkpt><trkpt lat="45.59953665546408" lon="8.212225117434635"><ele>363.0</ele><time>2026-04-10T16:16:25.999Z</time></trkpt><trkpt lat="45.59949456765152" lon="8.212340536213778"><ele>363.0</ele><time>2026-04-10T16:16:26.999Z</time></trkpt><trkpt lat="45.59946118820982" lon="8.212454218359282"><ele>363.0</ele><time>2026-04-10T16:16:27.999Z</time></trkpt><trkpt lat="45.599432974114805" lon="8.212576919531788"><ele>363.0</ele><time>2026-04-10T16:16:28.999Z</time></trkpt><trkpt lat="45.599405078934815" lon="8.212682881954787"><ele>362.1666666666667</ele><time>2026-04-10T16:16:29.999Z</time></trkpt><trkpt lat="45.59937954940214" lon="8.212805838470166"><ele>361.3333333333333</ele><time>2026-04-10T16:16:30.999Z</time></trkpt><trkpt lat="45.599357839091994" lon="8.21292907857221"><ele>360.5</ele><time>2026-04-10T16:16:31.999Z</time></trkpt><trkpt lat="45.59933180759097" lon="8.213019143414488"><ele>359.66666666666663</ele><time>2026-04-10T16:16:32.999Z</time></trkpt><trkpt lat="45.599271883136936" lon="8.213113165666696"><ele>358.8333333333333</ele><time>2026-04-10T16:16:33.999Z</time></trkpt><trkpt lat="45.599230847648045" lon="8.213220659569448"><ele>358.0</ele><time>2026-04-10T16:16:34.999Z</time></trkpt><trkpt lat="45.59919894093986" lon="8.213316964682617"><ele>357.2</ele><time>2026-04-10T16:16:35.999Z</time></trkpt><trkpt lat="45.599173914374134" lon="8.213408629082352"><ele>356.4</ele><time>2026-04-10T16:16:36.999Z</time></trkpt><trkpt lat="45.59910431621434" lon="8.213538246022068"><ele>355.59999999999997</ele><time>2026-04-10T16:16:39.001Z</time></trkpt><trkpt lat="45.5990319745658" lon="8.213632303106793"><ele>354.79999999999995</ele><time>2026-04-10T16:16:41.001Z</time></trkpt><trkpt lat="45.59895752309772" lon="8.213681187577997"><ele>354.0</ele><time>2026-04-10T16:16:43.001Z</time></trkpt><trkpt lat="45.59887507521114" lon="8.213609005732838"><ele>354.0</ele><time>2026-04-10T16:16:45.001Z</time></trkpt><trkpt lat="45.59877958019869" lon="8.213500395812297"><ele>354.0</ele><time>2026-04-10T16:16:47.001Z</time></trkpt><trkpt lat="45.59870398360857" lon="8.213450599885979"><ele>354.0</ele><time>2026-04-10T16:16:49.001Z</time></trkpt><trkpt lat="45.59862615888608" lon="8.213423506329542"><ele>354.0</ele><time>2026-04-10T16:16:51Z</time></trkpt><trkpt lat="45.59853656462605" lon="8.213373429190552"><ele>354.0</ele><time>2026-04-10T16:16:53Z</time></trkpt><trkpt lat="45.598457830189325" lon="8.21336817304018"><ele>353.4</ele><time>2026-04-10T16:16:57Z</time></trkpt><trkpt lat="45.5983764136214" lon="8.213513438857335"><ele>352.79999999999995</ele><time>2026-04-10T16:16:59Z</time></trkpt><trkpt lat="45.59834356211442" lon="8.21363856390946"><ele>352.20000000000005</ele><time>2026-04-10T16:17:00Z</time></trkpt><trkpt lat="45.59831274960423" lon="8.213762405370101"><ele>351.6</ele><time>2026-04-10T16:17:01Z</time></trkpt><trkpt lat="45.59827923084006" lon="8.21387768386364"><ele>351.0</ele><time>2026-04-10T16:17:02Z</time></trkpt><trkpt lat="45.59824946348911" lon="8.213985055343535"><ele>351.1666666666667</ele><time>2026-04-10T16:17:03Z</time></trkpt><trkpt lat="45.598218915754536" lon="8.214085006253166"><ele>351.3333333333333</ele><time>2026-04-10T16:17:04Z</time></trkpt><trkpt lat="45.598189463670494" lon="8.214183727739375"><ele>351.5</ele><time>2026-04-10T16:17:05Z</time></trkpt><trkpt lat="45.598160885893215" lon="8.214282709514654"><ele>351.66666666666663</ele><time>2026-04-10T16:17:06Z</time></trkpt><trkpt lat="45.59812858057412" lon="8.214384760155992"><ele>351.8333333333333</ele><time>2026-04-10T16:17:07Z</time></trkpt><trkpt lat="45.598090092734665" lon="8.214492145979635"><ele>352.0</ele><time>2026-04-10T16:17:08Z</time></trkpt><trkpt lat="45.59805311745442" lon="8.214608162777804"><ele>352.0</ele><time>2026-04-10T16:17:09Z</time></trkpt><trkpt lat="45.598014427310716" lon="8.214725726389265"><ele>352.0</ele><time>2026-04-10T16:17:10Z</time></trkpt><trkpt lat="45.59797373126397" lon="8.214843041059456"><ele>352.0</ele><time>2026-04-10T16:17:11Z</time></trkpt><trkpt lat="45.59793208916425" lon="8.21495775417792"><ele>352.0</ele><time>2026-04-10T16:17:12Z</time></trkpt><trkpt lat="45.59789306449668" lon="8.21507271630846"><ele>352.0</ele><time>2026-04-10T16:17:13Z</time></trkpt><trkpt lat="45.59786178069421" lon="8.21518698655542"><ele>352.0</ele><time>2026-04-10T16:17:14Z</time></trkpt><trkpt lat="45.59784942048513" lon="8.215303359762123"><ele>352.3333333333333</ele><time>2026-04-10T16:17:15Z</time></trkpt><trkpt lat="45.5978715370741" lon="8.21541145597695"><ele>352.66666666666663</ele><time>2026-04-10T16:17:16Z</time></trkpt><trkpt lat="45.597914626458845" lon="8.215505463771523"><ele>353.0</ele><time>2026-04-10T16:17:17Z</time></trkpt><trkpt lat="45.597972647426445" lon="8.215586745921238"><ele>353.3333333333333</ele><time>2026-04-10T16:17:18Z</time></trkpt><trkpt lat="45.59802806241314" lon="8.215672592522086"><ele>353.6666666666667</ele><time>2026-04-10T16:17:19Z</time></trkpt><trkpt lat="45.59808363139969" lon="8.215755890974481"><ele>354.0</ele><time>2026-04-10T16:17:20Z</time></trkpt><trkpt lat="45.59813774392004" lon="8.215845178192104"><ele>353.3333333333333</ele><time>2026-04-10T16:17:21Z</time></trkpt><trkpt lat="45.5981889399803" lon="8.215939870462545"><ele>352.6666666666667</ele><time>2026-04-10T16:17:22Z</time></trkpt><trkpt lat="45.59824115494733" lon="8.216030933308197"><ele>352.0</ele><time>2026-04-10T16:17:23Z</time></trkpt><trkpt lat="45.59829507438043" lon="8.216120172837027"><ele>351.33333333333337</ele><time>2026-04-10T16:17:24Z</time></trkpt><trkpt lat="45.59835093139189" lon="8.216209210848445"><ele>350.6666666666667</ele><time>2026-04-10T16:17:25Z</time></trkpt><trkpt lat="45.5984056836729" lon="8.216292081989431"><ele>350.0</ele><time>2026-04-10T16:17:26Z</time></trkpt><trkpt lat="45.5984590672321" lon="8.216373526789884"><ele>350.0</ele><time>2026-04-10T16:17:27Z</time></trkpt><trkpt lat="45.59850359217853" lon="8.216454576198261"><ele>350.0</ele><time>2026-04-10T16:17:28Z</time></trkpt><trkpt lat="45.598517597135704" lon="8.216549252464608"><ele>350.0</ele><time>2026-04-10T16:17:29Z</time></trkpt><trkpt lat="45.59851290955828" lon="8.216644363379077"><ele>350.0</ele><time>2026-04-10T16:17:30Z</time></trkpt><trkpt lat="45.59848157874791" lon="8.216736342092657"><ele>350.0</ele><time>2026-04-10T16:17:31Z</time></trkpt><trkpt lat="45.59843106505482" lon="8.216834003236892"><ele>350.0</ele><time>2026-04-10T16:17:32Z</time></trkpt><trkpt lat="45.598397511590775" lon="8.216928602498884"><ele>350.0</ele><time>2026-04-10T16:17:33Z</time></trkpt><trkpt lat="45.59835467467031" lon="8.217036525781479"><ele>349.4</ele><time>2026-04-10T16:17:34Z</time></trkpt><trkpt lat="45.598316755466556" lon="8.217145087168864"><ele>348.8</ele><time>2026-04-10T16:17:35Z</time></trkpt><trkpt lat="45.59827421735542" lon="8.217252028205632"><ele>348.20000000000005</ele><time>2026-04-10T16:17:36Z</time></trkpt><trkpt lat="45.598233577582846" lon="8.217373383722736"><ele>347.6</ele><time>2026-04-10T16:17:37Z</time></trkpt><trkpt lat="45.59818613343206" lon="8.217489129110142"><ele>347.0</ele><time>2026-04-10T16:17:38Z</time></trkpt><trkpt lat="45.59814056587425" lon="8.217607691283156"><ele>346.6</ele><time>2026-04-10T16:17:39Z</time></trkpt><trkpt lat="45.59809686236712" lon="8.217728683215519"><ele>346.20000000000005</ele><time>2026-04-10T16:17:40Z</time></trkpt><trkpt lat="45.5980440412126" lon="8.217839428225588"><ele>345.8</ele><time>2026-04-10T16:17:41Z</time></trkpt><trkpt lat="45.59798769972968" lon="8.217953338612249"><ele>345.4</ele><time>2026-04-10T16:17:42Z</time></trkpt><trkpt lat="45.597940652879785" lon="8.218075220011437"><ele>345.0</ele><time>2026-04-10T16:17:43Z</time></trkpt><trkpt lat="45.59789529087079" lon="8.218198556518805"><ele>344.0</ele><time>2026-04-10T16:17:44Z</time></trkpt><trkpt lat="45.59784124390735" lon="8.218310298536274"><ele>343.0</ele><time>2026-04-10T16:17:45Z</time></trkpt><trkpt lat="45.59778877239013" lon="8.218423814840792"><ele>342.0</ele><time>2026-04-10T16:17:46Z</time></trkpt><trkpt lat="45.59773828960274" lon="8.218537134012958"><ele>341.0</ele><time>2026-04-10T16:17:47Z</time></trkpt><trkpt lat="45.597685931815484" lon="8.21865921905072"><ele>340.0</ele><time>2026-04-10T16:17:48Z</time></trkpt><trkpt lat="45.597630786490505" lon="8.218781964012276"><ele>340.0</ele><time>2026-04-10T16:17:49Z</time></trkpt><trkpt lat="45.59757308251922" lon="8.218903236942749"><ele>340.0</ele><time>2026-04-10T16:17:50Z</time></trkpt><trkpt lat="45.597514503123286" lon="8.219012150430382"><ele>340.0</ele><time>2026-04-10T16:17:51Z</time></trkpt><trkpt lat="45.59745852331152" lon="8.219124845016765"><ele>340.0</ele><time>2026-04-10T16:17:52Z</time></trkpt><trkpt lat="45.59740457113546" lon="8.219241458328918"><ele>340.0</ele><time>2026-04-10T16:17:53Z</time></trkpt><trkpt lat="45.59734704123865" lon="8.219356679901955"><ele>339.66666666666663</ele><time>2026-04-10T16:17:54Z</time></trkpt><trkpt lat="45.59729303023801" lon="8.219462740388959"><ele>339.3333333333333</ele><time>2026-04-10T16:17:55Z</time></trkpt><trkpt lat="45.59724831405673" lon="8.219561374176305"><ele>339.0</ele><time>2026-04-10T16:17:56Z</time></trkpt><trkpt lat="45.59720574590886" lon="8.219653033274456"><ele>338.6666666666667</ele><time>2026-04-10T16:17:57Z</time></trkpt><trkpt lat="45.59716341774791" lon="8.21973719013301"><ele>338.33333333333337</ele><time>2026-04-10T16:17:58Z</time></trkpt><trkpt lat="45.59712138232417" lon="8.219820474043427"><ele>338.0</ele><time>2026-04-10T16:17:59Z</time></trkpt><trkpt lat="45.59708040702552" lon="8.219901641248565"><ele>337.5</ele><time>2026-04-10T16:17:59.999Z</time></trkpt><trkpt lat="45.59703673964547" lon="8.21998176572011"><ele>337.0</ele><time>2026-04-10T16:18:00.999Z</time></trkpt><trkpt lat="45.59699155655478" lon="8.220067935507188"><ele>336.5</ele><time>2026-04-10T16:18:01.999Z</time></trkpt><trkpt lat="45.59694325253793" lon="8.22015487861406"><ele>336.0</ele><time>2026-04-10T16:18:02.999Z</time></trkpt><trkpt lat="45.596894769241004" lon="8.220246612934815"><ele>335.5</ele><time>2026-04-10T16:18:03.999Z</time></trkpt><trkpt lat="45.596845505393844" lon="8.220337537904522"><ele>335.0</ele><time>2026-04-10T16:18:04.999Z</time></trkpt><trkpt lat="45.596795441988846" lon="8.22042930224448"><ele>336.0</ele><time>2026-04-10T16:18:05.999Z</time></trkpt><trkpt lat="45.59675268031753" lon="8.220523502378981"><ele>337.0</ele><time>2026-04-10T16:18:06.999Z</time></trkpt><trkpt lat="45.59670647233422" lon="8.220621625430654"><ele>338.0</ele><time>2026-04-10T16:18:07.999Z</time></trkpt><trkpt lat="45.59665970980436" lon="8.220723508121834"><ele>339.0</ele><time>2026-04-10T16:18:08.999Z</time></trkpt><trkpt lat="45.5966098196678" lon="8.220821140229859"><ele>340.0</ele><time>2026-04-10T16:18:09.999Z</time></trkpt><trkpt lat="45.596558171411154" lon="8.220922889642031"><ele>341.0</ele><time>2026-04-10T16:18:10.999Z</time></trkpt><trkpt lat="45.596506610616316" lon="8.221020417983274"><ele>340.83333333333337</ele><time>2026-04-10T16:18:11.999Z</time></trkpt><trkpt lat="45.59645518060586" lon="8.22111961001173"><ele>340.6666666666667</ele><time>2026-04-10T16:18:12.999Z</time></trkpt><trkpt lat="45.59640360571269" lon="8.221212598771263"><ele>340.5</ele><time>2026-04-10T16:18:13.999Z</time></trkpt><trkpt lat="45.596353358816565" lon="8.221309009040853"><ele>340.3333333333333</ele><time>2026-04-10T16:18:14.999Z</time></trkpt><trkpt lat="45.59630416010433" lon="8.221404759786362"><ele>340.16666666666663</ele><time>2026-04-10T16:18:15.999Z</time></trkpt><trkpt lat="45.59625640105921" lon="8.221497186269337"><ele>340.0</ele><time>2026-04-10T16:18:16.999Z</time></trkpt><trkpt lat="45.596209092749774" lon="8.221588886251398"><ele>340.0</ele><time>2026-04-10T16:18:17.999Z</time></trkpt><trkpt lat="45.59616448062908" lon="8.221674722627302"><ele>340.0</ele><time>2026-04-10T16:18:18.999Z</time></trkpt><trkpt lat="45.59612077561923" lon="8.221758317453638"><ele>340.0</ele><time>2026-04-10T16:18:19.999Z</time></trkpt><trkpt lat="45.59606719912127" lon="8.221868818430307"><ele>340.0</ele><time>2026-04-10T16:18:21.999Z</time></trkpt><trkpt lat="45.59603208851128" lon="8.221969996886328"><ele>340.0</ele><time>2026-04-10T16:18:25.999Z</time></trkpt><trkpt lat="45.596096988551956" lon="8.222069525012802"><ele>340.0</ele><time>2026-04-10T16:18:27.999Z</time></trkpt><trkpt lat="45.59618289876851" lon="8.222134225417062"><ele>340.0</ele><time>2026-04-10T16:18:29.999Z</time></trkpt><trkpt lat="45.596274563112765" lon="8.2222146714498"><ele>340.0</ele><time>2026-04-10T16:18:31.999Z</time></trkpt><trkpt lat="45.596364473213185" lon="8.22226761002694"><ele>340.0</ele><time>2026-04-10T16:18:33.999Z</time></trkpt><trkpt lat="45.59643525641898" lon="8.222254068929654"><ele>340.0</ele><time>2026-04-10T16:18:35.999Z</time></trkpt></trkseg></trk></gpx>